﻿<?xml version="1.0" encoding="utf-8"?><gpx creator="Garmin Desktop App" version="1.1" xsi:schemaLocation="http://www.topografix.com/GPX/1/1 http://www.topografix.com/GPX/1/1/gpx.xsd http://www.garmin.com/xmlschemas/WaypointExtension/v1 http://www8.garmin.com/xmlschemas/WaypointExtensionv1.xsd http://www.garmin.com/xmlschemas/TrackPointExtension/v1 http://www.garmin.com/xmlschemas/TrackPointExtensionv1.xsd http://www.garmin.com/xmlschemas/GpxExtensions/v3 http://www8.garmin.com/xmlschemas/GpxExtensionsv3.xsd http://www.garmin.com/xmlschemas/ActivityExtension/v1 http://www8.garmin.com/xmlschemas/ActivityExtensionv1.xsd http://www.garmin.com/xmlschemas/AdventuresExtensions/v1 http://www8.garmin.com/xmlschemas/AdventuresExtensionv1.xsd http://www.garmin.com/xmlschemas/PressureExtension/v1 http://www.garmin.com/xmlschemas/PressureExtensionv1.xsd http://www.garmin.com/xmlschemas/TripExtensions/v1 http://www.garmin.com/xmlschemas/TripExtensionsv1.xsd http://www.garmin.com/xmlschemas/TripMetaDataExtensions/v1 http://www.garmin.com/xmlschemas/TripMetaDataExtensionsv1.xsd http://www.garmin.com/xmlschemas/ViaPointTransportationModeExtensions/v1 http://www.garmin.com/xmlschemas/ViaPointTransportationModeExtensionsv1.xsd http://www.garmin.com/xmlschemas/CreationTimeExtension/v1 http://www.garmin.com/xmlschemas/CreationTimeExtensionsv1.xsd http://www.garmin.com/xmlschemas/AccelerationExtension/v1 http://www.garmin.com/xmlschemas/AccelerationExtensionv1.xsd http://www.garmin.com/xmlschemas/PowerExtension/v1 http://www.garmin.com/xmlschemas/PowerExtensionv1.xsd http://www.garmin.com/xmlschemas/VideoExtension/v1 http://www.garmin.com/xmlschemas/VideoExtensionv1.xsd" xmlns="http://www.topografix.com/GPX/1/1" xmlns:xsi="http://www.w3.org/2001/XMLSchema-instance" xmlns:wptx1="http://www.garmin.com/xmlschemas/WaypointExtension/v1" xmlns:gpxtrx="http://www.garmin.com/xmlschemas/GpxExtensions/v3" xmlns:gpxtpx="http://www.garmin.com/xmlschemas/TrackPointExtension/v1" xmlns:gpxx="http://www.garmin.com/xmlschemas/GpxExtensions/v3" xmlns:trp="http://www.garmin.com/xmlschemas/TripExtensions/v1" xmlns:adv="http://www.garmin.com/xmlschemas/AdventuresExtensions/v1" xmlns:prs="http://www.garmin.com/xmlschemas/PressureExtension/v1" xmlns:tmd="http://www.garmin.com/xmlschemas/TripMetaDataExtensions/v1" xmlns:vptm="http://www.garmin.com/xmlschemas/ViaPointTransportationModeExtensions/v1" xmlns:ctx="http://www.garmin.com/xmlschemas/CreationTimeExtension/v1" xmlns:gpxacc="http://www.garmin.com/xmlschemas/AccelerationExtension/v1" xmlns:gpxpx="http://www.garmin.com/xmlschemas/PowerExtension/v1" xmlns:vidx1="http://www.garmin.com/xmlschemas/VideoExtension/v1">

  <metadata>
    <link href="http://www.garmin.com">
      <text>Garmin International</text>
    </link>
    <time>2018-06-11T15:36:28Z</time>
    <bounds maxlat="45.769440187141299" maxlon="10.865424871444702" minlat="45.697914641350508" minlon="10.830170502886176" />
  </metadata>

  <trk>
    <name>monte baldo2018-06-10</name>
    <extensions>
      <gpxx:TrackExtension>
        <gpxx:DisplayColor>Yellow</gpxx:DisplayColor>
      </gpxx:TrackExtension>
    </extensions>
    <trkseg>
      <trkpt lat="45.769248912110925" lon="10.864726826548576">
        <ele>1753.0999999999999</ele>
        <time>2018-06-10T08:16:18Z</time>
      </trkpt>
      <trkpt lat="45.769251175224781" lon="10.864725569263101">
        <ele>1753.0999999999999</ele>
        <time>2018-06-10T08:16:19Z</time>
      </trkpt>
      <trkpt lat="45.769251678138971" lon="10.864720707759261">
        <ele>1756.95</ele>
        <time>2018-06-10T08:16:22Z</time>
      </trkpt>
      <trkpt lat="45.769251175224781" lon="10.864720875397325">
        <ele>1756.95</ele>
        <time>2018-06-10T08:16:23Z</time>
      </trkpt>
      <trkpt lat="45.769239440560341" lon="10.864730514585972">
        <ele>1756.47</ele>
        <time>2018-06-10T08:16:49Z</time>
      </trkpt>
      <trkpt lat="45.769227454438806" lon="10.864755995571613">
        <ele>1757.4300000000001</ele>
        <time>2018-06-10T08:17:00Z</time>
      </trkpt>
      <trkpt lat="45.769290570169687" lon="10.864769909530878">
        <ele>1757.4300000000001</ele>
        <time>2018-06-10T08:17:12Z</time>
      </trkpt>
      <trkpt lat="45.769297778606415" lon="10.864760857075453">
        <ele>1757.4300000000001</ele>
        <time>2018-06-10T08:17:13Z</time>
      </trkpt>
      <trkpt lat="45.769335580989718" lon="10.864722970873117">
        <ele>1757.4300000000001</ele>
        <time>2018-06-10T08:17:17Z</time>
      </trkpt>
      <trkpt lat="45.769376065582037" lon="10.864693215116858">
        <ele>1757.4300000000001</ele>
        <time>2018-06-10T08:17:28Z</time>
      </trkpt>
      <trkpt lat="45.769362654536963" lon="10.864711990579963">
        <ele>1757.4300000000001</ele>
        <time>2018-06-10T08:17:44Z</time>
      </trkpt>
      <trkpt lat="45.769356284290552" lon="10.864717606455088">
        <ele>1756.95</ele>
        <time>2018-06-10T08:17:47Z</time>
      </trkpt>
      <trkpt lat="45.769354440271854" lon="10.864746021106839">
        <ele>1756.47</ele>
        <time>2018-06-10T08:17:59Z</time>
      </trkpt>
      <trkpt lat="45.769349243491888" lon="10.864734621718526">
        <ele>1756.47</ele>
        <time>2018-06-10T08:18:25Z</time>
      </trkpt>
      <trkpt lat="45.769377239048481" lon="10.864740740507841">
        <ele>1756.47</ele>
        <time>2018-06-10T08:18:47Z</time>
      </trkpt>
      <trkpt lat="45.769370868802071" lon="10.864737555384636">
        <ele>1756.95</ele>
        <time>2018-06-10T08:18:51Z</time>
      </trkpt>
      <trkpt lat="45.769351590424776" lon="10.864731604233384">
        <ele>1757.4300000000001</ele>
        <time>2018-06-10T08:18:58Z</time>
      </trkpt>
      <trkpt lat="45.76935519464314" lon="10.864693634212017">
        <ele>1757.9100000000001</ele>
        <time>2018-06-10T08:19:06Z</time>
      </trkpt>
      <trkpt lat="45.769368018954992" lon="10.864685671404004">
        <ele>1757.4300000000001</ele>
        <time>2018-06-10T08:19:18Z</time>
      </trkpt>
      <trkpt lat="45.769371036440134" lon="10.864693550392985">
        <ele>1757.9100000000001</ele>
        <time>2018-06-10T08:19:32Z</time>
      </trkpt>
      <trkpt lat="45.769353015348315" lon="10.864699753001332">
        <ele>1758.3900000000001</ele>
        <time>2018-06-10T08:19:45Z</time>
      </trkpt>
      <trkpt lat="45.769347902387381" lon="10.864699333906174">
        <ele>1757.9100000000001</ele>
        <time>2018-06-10T08:20:00Z</time>
      </trkpt>
      <trkpt lat="45.769341364502907" lon="10.864687180146575">
        <ele>1757.9100000000001</ele>
        <time>2018-06-10T08:20:18Z</time>
      </trkpt>
      <trkpt lat="45.769353769719601" lon="10.864702267572284">
        <ele>1758.8699999999999</ele>
        <time>2018-06-10T08:20:41Z</time>
      </trkpt>
      <trkpt lat="45.769407749176025" lon="10.864666560664773">
        <ele>1758.3900000000001</ele>
        <time>2018-06-10T08:20:52Z</time>
      </trkpt>
      <trkpt lat="45.769422668963671" lon="10.864679552614689">
        <ele>1758.3900000000001</ele>
        <time>2018-06-10T08:21:00Z</time>
      </trkpt>
      <trkpt lat="45.769400792196393" lon="10.864694640040398">
        <ele>1758.3900000000001</ele>
        <time>2018-06-10T08:21:21Z</time>
      </trkpt>
      <trkpt lat="45.769431050866842" lon="10.864663543179631">
        <ele>1758.3900000000001</ele>
        <time>2018-06-10T08:21:29Z</time>
      </trkpt>
      <trkpt lat="45.769440187141299" lon="10.86466982960701">
        <ele>1758.3900000000001</ele>
        <time>2018-06-10T08:21:46Z</time>
      </trkpt>
      <trkpt lat="45.769405150786042" lon="10.864665973931551">
        <ele>1758.3900000000001</ele>
        <time>2018-06-10T08:22:01Z</time>
      </trkpt>
      <trkpt lat="45.769336335361004" lon="10.86469229310751">
        <ele>1758.3900000000001</ele>
        <time>2018-06-10T08:22:12Z</time>
      </trkpt>
      <trkpt lat="45.769260982051492" lon="10.864670164883137">
        <ele>1758.8699999999999</ele>
        <time>2018-06-10T08:22:22Z</time>
      </trkpt>
      <trkpt lat="45.769228963181376" lon="10.86467569693923">
        <ele>1758.3900000000001</ele>
        <time>2018-06-10T08:22:26Z</time>
      </trkpt>
      <trkpt lat="45.769141791388392" lon="10.864630350843072">
        <ele>1758.3900000000001</ele>
        <time>2018-06-10T08:22:38Z</time>
      </trkpt>
      <trkpt lat="45.769138690084219" lon="10.864641917869449">
        <ele>1757.9100000000001</ele>
        <time>2018-06-10T08:22:46Z</time>
      </trkpt>
      <trkpt lat="45.769061744213104" lon="10.864732107147574">
        <ele>1759.3499999999999</ele>
        <time>2018-06-10T08:22:59Z</time>
      </trkpt>
      <trkpt lat="45.769048668444157" lon="10.864757839590311">
        <ele>1759.3499999999999</ele>
        <time>2018-06-10T08:23:12Z</time>
      </trkpt>
      <trkpt lat="45.769047914072871" lon="10.864743338897824">
        <ele>1759.3499999999999</ele>
        <time>2018-06-10T08:23:29Z</time>
      </trkpt>
      <trkpt lat="45.769057050347328" lon="10.864783907309175">
        <ele>1758.8699999999999</ele>
        <time>2018-06-10T08:23:41Z</time>
      </trkpt>
      <trkpt lat="45.769056798890233" lon="10.864786505699158">
        <ele>1758.3900000000001</ele>
        <time>2018-06-10T08:23:48Z</time>
      </trkpt>
      <trkpt lat="45.769061828032136" lon="10.864788265898824">
        <ele>1757.4300000000001</ele>
        <time>2018-06-10T08:23:55Z</time>
      </trkpt>
      <trkpt lat="45.769090661779046" lon="10.864796061068773">
        <ele>1757.4300000000001</ele>
        <time>2018-06-10T08:24:01Z</time>
      </trkpt>
      <trkpt lat="45.769113712012768" lon="10.864818105474114">
        <ele>1757.4300000000001</ele>
        <time>2018-06-10T08:24:04Z</time>
      </trkpt>
      <trkpt lat="45.769181689247489" lon="10.864846520125866">
        <ele>1758.3900000000001</ele>
        <time>2018-06-10T08:24:15Z</time>
      </trkpt>
      <trkpt lat="45.769184874370694" lon="10.864859344437718">
        <ele>1757.9100000000001</ele>
        <time>2018-06-10T08:24:44Z</time>
      </trkpt>
      <trkpt lat="45.76918026432395" lon="10.864875353872776">
        <ele>1757.4300000000001</ele>
        <time>2018-06-10T08:25:04Z</time>
      </trkpt>
      <trkpt lat="45.769200716167688" lon="10.864765215665102">
        <ele>1757.9100000000001</ele>
        <time>2018-06-10T08:25:14Z</time>
      </trkpt>
      <trkpt lat="45.769248995929956" lon="10.864734705537558">
        <ele>1757.4300000000001</ele>
        <time>2018-06-10T08:25:29Z</time>
      </trkpt>
      <trkpt lat="45.769319236278534" lon="10.864722887054086">
        <ele>1757.9100000000001</ele>
        <time>2018-06-10T08:25:39Z</time>
      </trkpt>
      <trkpt lat="45.769315799698234" lon="10.864758342504501">
        <ele>1757.4300000000001</ele>
        <time>2018-06-10T08:25:54Z</time>
      </trkpt>
      <trkpt lat="45.769253186881542" lon="10.864769406616688">
        <ele>1757.9100000000001</ele>
        <time>2018-06-10T08:26:06Z</time>
      </trkpt>
      <trkpt lat="45.769227119162679" lon="10.864789271727204">
        <ele>1757.9100000000001</ele>
        <time>2018-06-10T08:26:09Z</time>
      </trkpt>
      <trkpt lat="45.769131062552333" lon="10.864817518740892">
        <ele>1757.9100000000001</ele>
        <time>2018-06-10T08:26:21Z</time>
      </trkpt>
      <trkpt lat="45.769144892692566" lon="10.864806119352579">
        <ele>1757.9100000000001</ele>
        <time>2018-06-10T08:26:33Z</time>
      </trkpt>
      <trkpt lat="45.769156208261847" lon="10.864796647801995">
        <ele>1757.9100000000001</ele>
        <time>2018-06-10T08:26:52Z</time>
      </trkpt>
      <trkpt lat="45.769157130271196" lon="10.864797821268439">
        <ele>1757.4300000000001</ele>
        <time>2018-06-10T08:27:14Z</time>
      </trkpt>
      <trkpt lat="45.769169954583049" lon="10.864798156544566">
        <ele>1757.9100000000001</ele>
        <time>2018-06-10T08:27:32Z</time>
      </trkpt>
      <trkpt lat="45.76913483440876" lon="10.864896811544895">
        <ele>1755.99</ele>
        <time>2018-06-10T08:27:49Z</time>
      </trkpt>
      <trkpt lat="45.769072640687227" lon="10.864927489310503">
        <ele>1753.5799999999999</ele>
        <time>2018-06-10T08:28:00Z</time>
      </trkpt>
      <trkpt lat="45.769059984013438" lon="10.864972667768598">
        <ele>1752.6199999999999</ele>
        <time>2018-06-10T08:28:10Z</time>
      </trkpt>
      <trkpt lat="45.769034251570702" lon="10.864981887862086">
        <ele>1752.1400000000001</ele>
        <time>2018-06-10T08:28:14Z</time>
      </trkpt>
      <trkpt lat="45.768968453630805" lon="10.864999908953905">
        <ele>1751.6600000000001</ele>
        <time>2018-06-10T08:28:21Z</time>
      </trkpt>
      <trkpt lat="45.76886217109859" lon="10.865021198987961">
        <ele>1752.6199999999999</ele>
        <time>2018-06-10T08:28:34Z</time>
      </trkpt>
      <trkpt lat="45.768843479454517" lon="10.864987587556243">
        <ele>1752.6199999999999</ele>
        <time>2018-06-10T08:28:43Z</time>
      </trkpt>
      <trkpt lat="45.768775502219796" lon="10.864935116842389">
        <ele>1753.5799999999999</ele>
        <time>2018-06-10T08:28:54Z</time>
      </trkpt>
      <trkpt lat="45.768710877746344" lon="10.86501382291317">
        <ele>1752.6199999999999</ele>
        <time>2018-06-10T08:29:04Z</time>
      </trkpt>
      <trkpt lat="45.76862420886755" lon="10.864980379119515">
        <ele>1753.0999999999999</ele>
        <time>2018-06-10T08:29:16Z</time>
      </trkpt>
      <trkpt lat="45.768624627962708" lon="10.864998148754239">
        <ele>1752.6199999999999</ele>
        <time>2018-06-10T08:29:19Z</time>
      </trkpt>
      <trkpt lat="45.768602751195431" lon="10.865003680810332">
        <ele>1751.6600000000001</ele>
        <time>2018-06-10T08:29:29Z</time>
      </trkpt>
      <trkpt lat="45.76859830878675" lon="10.864989012479782">
        <ele>1751.6600000000001</ele>
        <time>2018-06-10T08:29:41Z</time>
      </trkpt>
      <trkpt lat="45.768568133935332" lon="10.865038381889462">
        <ele>1750.22</ele>
        <time>2018-06-10T08:29:50Z</time>
      </trkpt>
      <trkpt lat="45.768579114228487" lon="10.865048104897141">
        <ele>1749.26</ele>
        <time>2018-06-10T08:29:58Z</time>
      </trkpt>
      <trkpt lat="45.768562182784081" lon="10.865037376061082">
        <ele>1749.26</ele>
        <time>2018-06-10T08:30:06Z</time>
      </trkpt>
      <trkpt lat="45.768531756475568" lon="10.865004854276776">
        <ele>1748.78</ele>
        <time>2018-06-10T08:30:18Z</time>
      </trkpt>
      <trkpt lat="45.76850887387991" lon="10.864947270601988">
        <ele>1747.8099999999999</ele>
        <time>2018-06-10T08:30:28Z</time>
      </trkpt>
      <trkpt lat="45.768504431471229" lon="10.864927405491471">
        <ele>1747.3299999999999</ele>
        <time>2018-06-10T08:30:30Z</time>
      </trkpt>
      <trkpt lat="45.768519854173064" lon="10.864862529560924">
        <ele>1746.8499999999999</ele>
        <time>2018-06-10T08:30:41Z</time>
      </trkpt>
      <trkpt lat="45.768494205549359" lon="10.864864205941558">
        <ele>1745.8900000000001</ele>
        <time>2018-06-10T08:30:49Z</time>
      </trkpt>
      <trkpt lat="45.768422707915306" lon="10.864825984463096">
        <ele>1743.01</ele>
        <time>2018-06-10T08:30:58Z</time>
      </trkpt>
      <trkpt lat="45.76832564547658" lon="10.86482766084373">
        <ele>1742.05</ele>
        <time>2018-06-10T08:31:10Z</time>
      </trkpt>
      <trkpt lat="45.768215591087937" lon="10.864820368587971">
        <ele>1739.1600000000001</ele>
        <time>2018-06-10T08:31:22Z</time>
      </trkpt>
      <trkpt lat="45.76811458915472" lon="10.864811986684799">
        <ele>1736.28</ele>
        <time>2018-06-10T08:31:33Z</time>
      </trkpt>
      <trkpt lat="45.768034374341369" lon="10.864790361374617">
        <ele>1735.8</ele>
        <time>2018-06-10T08:31:43Z</time>
      </trkpt>
      <trkpt lat="45.768026914447546" lon="10.864780554547906">
        <ele>1735.3199999999999</ele>
        <time>2018-06-10T08:31:44Z</time>
      </trkpt>
      <trkpt lat="45.76800218783319" lon="10.864760102704167">
        <ele>1735.3199999999999</ele>
        <time>2018-06-10T08:31:47Z</time>
      </trkpt>
      <trkpt lat="45.767876710742712" lon="10.864737136289477">
        <ele>1733.3900000000001</ele>
        <time>2018-06-10T08:32:00Z</time>
      </trkpt>
      <trkpt lat="45.767837231978774" lon="10.86469866335392">
        <ele>1731.47</ele>
        <time>2018-06-10T08:32:06Z</time>
      </trkpt>
      <trkpt lat="45.767815019935369" lon="10.864677289500833">
        <ele>1730.51</ele>
        <time>2018-06-10T08:32:17Z</time>
      </trkpt>
      <trkpt lat="45.767810074612498" lon="10.864682318642735">
        <ele>1730.99</ele>
        <time>2018-06-10T08:32:42Z</time>
      </trkpt>
      <trkpt lat="45.767847206443548" lon="10.864745602011681">
        <ele>1731.95</ele>
        <time>2018-06-10T08:32:54Z</time>
      </trkpt>
      <trkpt lat="45.76784435659647" lon="10.864754905924201">
        <ele>1731.95</ele>
        <time>2018-06-10T08:32:55Z</time>
      </trkpt>
      <trkpt lat="45.767718208953738" lon="10.864788936451077">
        <ele>1730.99</ele>
        <time>2018-06-10T08:33:06Z</time>
      </trkpt>
      <trkpt lat="45.767564065754414" lon="10.864810980856419">
        <ele>1729.55</ele>
        <time>2018-06-10T08:33:19Z</time>
      </trkpt>
      <trkpt lat="45.767438840121031" lon="10.864833276718855">
        <ele>1729.0699999999999</ele>
        <time>2018-06-10T08:33:32Z</time>
      </trkpt>
      <trkpt lat="45.767352422699332" lon="10.864818021655083">
        <ele>1728.5899999999999</ele>
        <time>2018-06-10T08:33:40Z</time>
      </trkpt>
      <trkpt lat="45.767302885651588" lon="10.864792121574283">
        <ele>1727.6300000000001</ele>
        <time>2018-06-10T08:33:50Z</time>
      </trkpt>
      <trkpt lat="45.767286038026214" lon="10.864814668893814">
        <ele>1728.1099999999999</ele>
        <time>2018-06-10T08:33:58Z</time>
      </trkpt>
      <trkpt lat="45.767184616997838" lon="10.864877533167601">
        <ele>1727.1500000000001</ele>
        <time>2018-06-10T08:34:09Z</time>
      </trkpt>
      <trkpt lat="45.767164081335068" lon="10.864876611158252">
        <ele>1726.1800000000001</ele>
        <time>2018-06-10T08:34:11Z</time>
      </trkpt>
      <trkpt lat="45.767099875956774" lon="10.864930590614676">
        <ele>1724.74</ele>
        <time>2018-06-10T08:34:18Z</time>
      </trkpt>
      <trkpt lat="45.766987139359117" lon="10.865009967237711">
        <ele>1723.3</ele>
        <time>2018-06-10T08:34:29Z</time>
      </trkpt>
      <trkpt lat="45.766930058598518" lon="10.865038381889462">
        <ele>1722.8199999999999</ele>
        <time>2018-06-10T08:34:34Z</time>
      </trkpt>
      <trkpt lat="45.766898207366467" lon="10.865026731044054">
        <ele>1722.3399999999999</ele>
        <time>2018-06-10T08:34:41Z</time>
      </trkpt>
      <trkpt lat="45.766876246780157" lon="10.865083895623684">
        <ele>1721.8599999999999</ele>
        <time>2018-06-10T08:34:45Z</time>
      </trkpt>
      <trkpt lat="45.766784716397524" lon="10.865105772390962">
        <ele>1720.9000000000001</ele>
        <time>2018-06-10T08:34:56Z</time>
      </trkpt>
      <trkpt lat="45.766771137714386" lon="10.865109963342547">
        <ele>1720.4200000000001</ele>
        <time>2018-06-10T08:34:57Z</time>
      </trkpt>
      <trkpt lat="45.766679188236594" lon="10.865077609196305">
        <ele>1719.9400000000001</ele>
        <time>2018-06-10T08:35:08Z</time>
      </trkpt>
      <trkpt lat="45.766660161316395" lon="10.865078195929527">
        <ele>1719.9400000000001</ele>
        <time>2018-06-10T08:35:16Z</time>
      </trkpt>
      <trkpt lat="45.766610875725746" lon="10.865085404366255">
        <ele>1720.9000000000001</ele>
        <time>2018-06-10T08:35:25Z</time>
      </trkpt>
      <trkpt lat="45.76654558070004" lon="10.865072496235371">
        <ele>1723.3</ele>
        <time>2018-06-10T08:35:36Z</time>
      </trkpt>
      <trkpt lat="45.766495456919074" lon="10.865085572004318">
        <ele>1725.22</ele>
        <time>2018-06-10T08:35:45Z</time>
      </trkpt>
      <trkpt lat="45.766442315652966" lon="10.865098396316171">
        <ele>1726.1800000000001</ele>
        <time>2018-06-10T08:35:54Z</time>
      </trkpt>
      <trkpt lat="45.766426641494036" lon="10.865102838724852">
        <ele>1726.1800000000001</ele>
        <time>2018-06-10T08:35:56Z</time>
      </trkpt>
      <trkpt lat="45.766337709501386" lon="10.86513795889914">
        <ele>1727.6300000000001</ele>
        <time>2018-06-10T08:36:08Z</time>
      </trkpt>
      <trkpt lat="45.766304852440953" lon="10.865182215347886">
        <ele>1728.5899999999999</ele>
        <time>2018-06-10T08:36:17Z</time>
      </trkpt>
      <trkpt lat="45.766297644004226" lon="10.865198476240039">
        <ele>1729.0699999999999</ele>
        <time>2018-06-10T08:36:19Z</time>
      </trkpt>
      <trkpt lat="45.766241401433945" lon="10.865200571715832">
        <ele>1729.55</ele>
        <time>2018-06-10T08:36:26Z</time>
      </trkpt>
      <trkpt lat="45.766202425584197" lon="10.865222029387951">
        <ele>1730.03</ele>
        <time>2018-06-10T08:36:31Z</time>
      </trkpt>
      <trkpt lat="45.766179710626602" lon="10.865246672183275">
        <ele>1730.03</ele>
        <time>2018-06-10T08:36:34Z</time>
      </trkpt>
      <trkpt lat="45.766056245192885" lon="10.865258993580937">
        <ele>1730.03</ele>
        <time>2018-06-10T08:36:46Z</time>
      </trkpt>
      <trkpt lat="45.76593185774982" lon="10.865254132077098">
        <ele>1730.99</ele>
        <time>2018-06-10T08:36:58Z</time>
      </trkpt>
      <trkpt lat="45.765920709818602" lon="10.865242732688785">
        <ele>1731.47</ele>
        <time>2018-06-10T08:37:10Z</time>
      </trkpt>
      <trkpt lat="45.765908723697066" lon="10.86524985730648">
        <ele>1731.47</ele>
        <time>2018-06-10T08:37:28Z</time>
      </trkpt>
      <trkpt lat="45.765807470306754" lon="10.865243906155229">
        <ele>1733.3900000000001</ele>
        <time>2018-06-10T08:37:40Z</time>
      </trkpt>
      <trkpt lat="45.765752736479044" lon="10.865263184532523">
        <ele>1734.3599999999999</ele>
        <time>2018-06-10T08:37:49Z</time>
      </trkpt>
      <trkpt lat="45.765700098127127" lon="10.865239799022675">
        <ele>1736.28</ele>
        <time>2018-06-10T08:37:59Z</time>
      </trkpt>
      <trkpt lat="45.765640838071704" lon="10.865226471796632">
        <ele>1737.72</ele>
        <time>2018-06-10T08:38:09Z</time>
      </trkpt>
      <trkpt lat="45.765636311843991" lon="10.865222783759236">
        <ele>1738.2</ele>
        <time>2018-06-10T08:38:10Z</time>
      </trkpt>
      <trkpt lat="45.765585349872708" lon="10.86524398997426">
        <ele>1739.6400000000001</ele>
        <time>2018-06-10T08:38:18Z</time>
      </trkpt>
      <trkpt lat="45.765498513355851" lon="10.865223538130522">
        <ele>1741.0799999999999</ele>
        <time>2018-06-10T08:38:29Z</time>
      </trkpt>
      <trkpt lat="45.765438666567206" lon="10.86521515622735">
        <ele>1743.01</ele>
        <time>2018-06-10T08:38:42Z</time>
      </trkpt>
      <trkpt lat="45.765386950224638" lon="10.865262262523174">
        <ele>1745.4100000000001</ele>
        <time>2018-06-10T08:38:54Z</time>
      </trkpt>
      <trkpt lat="45.76532794162631" lon="10.865268800407648">
        <ele>1746.3699999999999</ele>
        <time>2018-06-10T08:39:05Z</time>
      </trkpt>
      <trkpt lat="45.765299778431654" lon="10.865308446809649">
        <ele>1748.29</ele>
        <time>2018-06-10T08:39:15Z</time>
      </trkpt>
      <trkpt lat="45.76526683755219" lon="10.865334179252386">
        <ele>1749.74</ele>
        <time>2018-06-10T08:39:25Z</time>
      </trkpt>
      <trkpt lat="45.765227694064379" lon="10.865318672731519">
        <ele>1749.74</ele>
        <time>2018-06-10T08:39:35Z</time>
      </trkpt>
      <trkpt lat="45.765199949964881" lon="10.865337112918496">
        <ele>1749.74</ele>
        <time>2018-06-10T08:39:47Z</time>
      </trkpt>
      <trkpt lat="45.765174468979239" lon="10.865374663844705">
        <ele>1751.6600000000001</ele>
        <time>2018-06-10T08:39:57Z</time>
      </trkpt>
      <trkpt lat="45.765110095962882" lon="10.865348093211651">
        <ele>1753.5799999999999</ele>
        <time>2018-06-10T08:40:10Z</time>
      </trkpt>
      <trkpt lat="45.765084531158209" lon="10.865325629711151">
        <ele>1754.54</ele>
        <time>2018-06-10T08:40:20Z</time>
      </trkpt>
      <trkpt lat="45.765083692967892" lon="10.865311631932855">
        <ele>1755.02</ele>
        <time>2018-06-10T08:40:32Z</time>
      </trkpt>
      <trkpt lat="45.765031557530165" lon="10.865300903096795">
        <ele>1756.47</ele>
        <time>2018-06-10T08:40:41Z</time>
      </trkpt>
      <trkpt lat="45.765000712126493" lon="10.865308782085776">
        <ele>1756.47</ele>
        <time>2018-06-10T08:40:51Z</time>
      </trkpt>
      <trkpt lat="45.764904739335179" lon="10.865320600569248">
        <ele>1758.8699999999999</ele>
        <time>2018-06-10T08:41:04Z</time>
      </trkpt>
      <trkpt lat="45.764831230044365" lon="10.865301489830017">
        <ele>1760.3099999999999</ele>
        <time>2018-06-10T08:41:16Z</time>
      </trkpt>
      <trkpt lat="45.764782195910811" lon="10.865339627489448">
        <ele>1762.23</ele>
        <time>2018-06-10T08:41:27Z</time>
      </trkpt>
      <trkpt lat="45.764749506488442" lon="10.865363348275423">
        <ele>1763.6800000000001</ele>
        <time>2018-06-10T08:41:37Z</time>
      </trkpt>
      <trkpt lat="45.764727126806974" lon="10.865376843139529">
        <ele>1764.6400000000001</ele>
        <time>2018-06-10T08:41:47Z</time>
      </trkpt>
      <trkpt lat="45.764699131250381" lon="10.865392852574587">
        <ele>1766.0799999999999</ele>
        <time>2018-06-10T08:41:58Z</time>
      </trkpt>
      <trkpt lat="45.76464825309813" lon="10.865385141223669">
        <ele>1768.48</ele>
        <time>2018-06-10T08:42:09Z</time>
      </trkpt>
      <trkpt lat="45.764598464593291" lon="10.865371646359563">
        <ele>1770.4100000000001</ele>
        <time>2018-06-10T08:42:20Z</time>
      </trkpt>
      <trkpt lat="45.764542473480105" lon="10.865349266678095">
        <ele>1772.3299999999999</ele>
        <time>2018-06-10T08:42:33Z</time>
      </trkpt>
      <trkpt lat="45.764495199546218" lon="10.865297047421336">
        <ele>1774.25</ele>
        <time>2018-06-10T08:42:44Z</time>
      </trkpt>
      <trkpt lat="45.764427557587624" lon="10.865268968045712">
        <ele>1776.1700000000001</ele>
        <time>2018-06-10T08:42:55Z</time>
      </trkpt>
      <trkpt lat="45.764380870386958" lon="10.865304339677095">
        <ele>1778.0999999999999</ele>
        <time>2018-06-10T08:43:07Z</time>
      </trkpt>
      <trkpt lat="45.764337703585625" lon="10.865308111533523">
        <ele>1780.02</ele>
        <time>2018-06-10T08:43:16Z</time>
      </trkpt>
      <trkpt lat="45.764271235093474" lon="10.865298472344875">
        <ele>1781.46</ele>
        <time>2018-06-10T08:43:28Z</time>
      </trkpt>
      <trkpt lat="45.764198312535882" lon="10.865263603627682">
        <ele>1782.4200000000001</ele>
        <time>2018-06-10T08:43:40Z</time>
      </trkpt>
      <trkpt lat="45.764147685840726" lon="10.865265699103475">
        <ele>1784.3399999999999</ele>
        <time>2018-06-10T08:43:51Z</time>
      </trkpt>
      <trkpt lat="45.764108123257756" lon="10.865223873406649">
        <ele>1785.3099999999999</ele>
        <time>2018-06-10T08:44:02Z</time>
      </trkpt>
      <trkpt lat="45.764070823788643" lon="10.865227980539203">
        <ele>1786.75</ele>
        <time>2018-06-10T08:44:12Z</time>
      </trkpt>
      <trkpt lat="45.764051377773285" lon="10.865180371329188">
        <ele>1787.71</ele>
        <time>2018-06-10T08:44:22Z</time>
      </trkpt>
      <trkpt lat="45.764007205143571" lon="10.865204846486449">
        <ele>1788.6700000000001</ele>
        <time>2018-06-10T08:44:34Z</time>
      </trkpt>
      <trkpt lat="45.763994548469782" lon="10.865189591422677">
        <ele>1789.1500000000001</ele>
        <time>2018-06-10T08:44:44Z</time>
      </trkpt>
      <trkpt lat="45.763932019472122" lon="10.865121111273766">
        <ele>1789.1500000000001</ele>
        <time>2018-06-10T08:44:53Z</time>
      </trkpt>
      <trkpt lat="45.763861946761608" lon="10.865069227293134">
        <ele>1789.6300000000001</ele>
        <time>2018-06-10T08:45:04Z</time>
      </trkpt>
      <trkpt lat="45.763839483261108" lon="10.865080961957574">
        <ele>1791.0699999999999</ele>
        <time>2018-06-10T08:45:09Z</time>
      </trkpt>
      <trkpt lat="45.763764381408691" lon="10.865032179281116">
        <ele>1792.03</ele>
        <time>2018-06-10T08:45:19Z</time>
      </trkpt>
      <trkpt lat="45.763723645359278" lon="10.865037627518177">
        <ele>1792.52</ele>
        <time>2018-06-10T08:45:24Z</time>
      </trkpt>
      <trkpt lat="45.763701181858778" lon="10.86503192782402">
        <ele>1793</ele>
        <time>2018-06-10T08:45:27Z</time>
      </trkpt>
      <trkpt lat="45.763639742508531" lon="10.865005441009998">
        <ele>1794.4400000000001</ele>
        <time>2018-06-10T08:45:37Z</time>
      </trkpt>
      <trkpt lat="45.763619877398014" lon="10.864989180117846">
        <ele>1794.4400000000001</ele>
        <time>2018-06-10T08:45:41Z</time>
      </trkpt>
      <trkpt lat="45.763561623170972" lon="10.864955484867096">
        <ele>1795.4000000000001</ele>
        <time>2018-06-10T08:45:50Z</time>
      </trkpt>
      <trkpt lat="45.763508398085833" lon="10.864971159026027">
        <ele>1795.8800000000001</ele>
        <time>2018-06-10T08:45:57Z</time>
      </trkpt>
      <trkpt lat="45.763441929593682" lon="10.864964034408331">
        <ele>1797.3199999999999</ele>
        <time>2018-06-10T08:46:07Z</time>
      </trkpt>
      <trkpt lat="45.763395829126239" lon="10.864982390776277">
        <ele>1798.28</ele>
        <time>2018-06-10T08:46:16Z</time>
      </trkpt>
      <trkpt lat="45.763334222137928" lon="10.864973925054073">
        <ele>1798.28</ele>
        <time>2018-06-10T08:46:25Z</time>
      </trkpt>
      <trkpt lat="45.763293653726578" lon="10.864970153197646">
        <ele>1798.76</ele>
        <time>2018-06-10T08:46:30Z</time>
      </trkpt>
      <trkpt lat="45.763215031474829" lon="10.864953305572271">
        <ele>1799.73</ele>
        <time>2018-06-10T08:46:40Z</time>
      </trkpt>
      <trkpt lat="45.763173038139939" lon="10.864991191774607">
        <ele>1801.1700000000001</ele>
        <time>2018-06-10T08:46:52Z</time>
      </trkpt>
      <trkpt lat="45.763096930459142" lon="10.865009799599648">
        <ele>1802.1300000000001</ele>
        <time>2018-06-10T08:47:02Z</time>
      </trkpt>
      <trkpt lat="45.763020822778344" lon="10.865033771842718">
        <ele>1803.0899999999999</ele>
        <time>2018-06-10T08:47:14Z</time>
      </trkpt>
      <trkpt lat="45.762954102829099" lon="10.865031257271767">
        <ele>1803.5699999999999</ele>
        <time>2018-06-10T08:47:25Z</time>
      </trkpt>
      <trkpt lat="45.762891322374344" lon="10.865029916167259">
        <ele>1804.05</ele>
        <time>2018-06-10T08:47:35Z</time>
      </trkpt>
      <trkpt lat="45.762823848053813" lon="10.865035029128194">
        <ele>1805.01</ele>
        <time>2018-06-10T08:47:45Z</time>
      </trkpt>
      <trkpt lat="45.762783447280526" lon="10.865048440173268">
        <ele>1805.97</ele>
        <time>2018-06-10T08:47:56Z</time>
      </trkpt>
      <trkpt lat="45.762717314064503" lon="10.865066628903151">
        <ele>1807.9000000000001</ele>
        <time>2018-06-10T08:48:07Z</time>
      </trkpt>
      <trkpt lat="45.762673057615757" lon="10.865090852603316">
        <ele>1808.8599999999999</ele>
        <time>2018-06-10T08:48:19Z</time>
      </trkpt>
      <trkpt lat="45.762573732063174" lon="10.865077693015337">
        <ele>1808.3800000000001</ele>
        <time>2018-06-10T08:48:30Z</time>
      </trkpt>
      <trkpt lat="45.762503994628787" lon="10.865115411579609">
        <ele>1808.8599999999999</ele>
        <time>2018-06-10T08:48:41Z</time>
      </trkpt>
      <trkpt lat="45.762471975758672" lon="10.865167044103146">
        <ele>1809.3399999999999</ele>
        <time>2018-06-10T08:48:50Z</time>
      </trkpt>
      <trkpt lat="45.762384384870529" lon="10.865176850929856">
        <ele>1808.8599999999999</ele>
        <time>2018-06-10T08:49:00Z</time>
      </trkpt>
      <trkpt lat="45.762320766225457" lon="10.865150950849056">
        <ele>1809.3399999999999</ele>
        <time>2018-06-10T08:49:09Z</time>
      </trkpt>
      <trkpt lat="45.762309283018112" lon="10.86512572132051">
        <ele>1808.8599999999999</ele>
        <time>2018-06-10T08:49:11Z</time>
      </trkpt>
      <trkpt lat="45.762213980779052" lon="10.865055648609996">
        <ele>1808.3800000000001</ele>
        <time>2018-06-10T08:49:23Z</time>
      </trkpt>
      <trkpt lat="45.762121193110943" lon="10.86504902690649">
        <ele>1808.8599999999999</ele>
        <time>2018-06-10T08:49:34Z</time>
      </trkpt>
      <trkpt lat="45.76204776763916" lon="10.865009715780616">
        <ele>1809.3399999999999</ele>
        <time>2018-06-10T08:49:44Z</time>
      </trkpt>
      <trkpt lat="45.761965792626143" lon="10.864996137097478">
        <ele>1809.8199999999999</ele>
        <time>2018-06-10T08:49:56Z</time>
      </trkpt>
      <trkpt lat="45.761907789856195" lon="10.865067802369595">
        <ele>1811.26</ele>
        <time>2018-06-10T08:50:11Z</time>
      </trkpt>
      <trkpt lat="45.76186453923583" lon="10.865109795704484">
        <ele>1812.7</ele>
        <time>2018-06-10T08:50:21Z</time>
      </trkpt>
      <trkpt lat="45.761835621669888" lon="10.865152878686786">
        <ele>1814.1500000000001</ele>
        <time>2018-06-10T08:50:30Z</time>
      </trkpt>
      <trkpt lat="45.761778792366385" lon="10.865169642493129">
        <ele>1816.0699999999999</ele>
        <time>2018-06-10T08:50:41Z</time>
      </trkpt>
      <trkpt lat="45.761740319430828" lon="10.865223370492458">
        <ele>1817.51</ele>
        <time>2018-06-10T08:50:51Z</time>
      </trkpt>
      <trkpt lat="45.761687848716974" lon="10.865215659141541">
        <ele>1818.47</ele>
        <time>2018-06-10T08:51:02Z</time>
      </trkpt>
      <trkpt lat="45.761619033291936" lon="10.865222867578268">
        <ele>1819.9100000000001</ele>
        <time>2018-06-10T08:51:13Z</time>
      </trkpt>
      <trkpt lat="45.761589277535677" lon="10.865219850093126">
        <ele>1820.3900000000001</ele>
        <time>2018-06-10T08:51:21Z</time>
      </trkpt>
      <trkpt lat="45.761532951146364" lon="10.865259580314159">
        <ele>1821.8399999999999</ele>
        <time>2018-06-10T08:51:33Z</time>
      </trkpt>
      <trkpt lat="45.761468997225165" lon="10.865277266129851">
        <ele>1823.76</ele>
        <time>2018-06-10T08:51:46Z</time>
      </trkpt>
      <trkpt lat="45.761417029425502" lon="10.865294532850385">
        <ele>1825.2</ele>
        <time>2018-06-10T08:51:57Z</time>
      </trkpt>
      <trkpt lat="45.761350644752383" lon="10.865298472344875">
        <ele>1826.6400000000001</ele>
        <time>2018-06-10T08:52:07Z</time>
      </trkpt>
      <trkpt lat="45.761284343898296" lon="10.865307692438364">
        <ele>1827.1199999999999</ele>
        <time>2018-06-10T08:52:17Z</time>
      </trkpt>
      <trkpt lat="45.761228017508984" lon="10.86530651897192">
        <ele>1827.5999999999999</ele>
        <time>2018-06-10T08:52:26Z</time>
      </trkpt>
      <trkpt lat="45.761214271187782" lon="10.865285396575928">
        <ele>1828.0799999999999</ele>
        <time>2018-06-10T08:52:36Z</time>
      </trkpt>
      <trkpt lat="45.761117292568088" lon="10.865227309986949">
        <ele>1829.53</ele>
        <time>2018-06-10T08:52:48Z</time>
      </trkpt>
      <trkpt lat="45.761098600924015" lon="10.865226471796632">
        <ele>1830.01</ele>
        <time>2018-06-10T08:52:51Z</time>
      </trkpt>
      <trkpt lat="45.761012267321348" lon="10.865203673020005">
        <ele>1830.49</ele>
        <time>2018-06-10T08:53:01Z</time>
      </trkpt>
      <trkpt lat="45.760892741382122" lon="10.865201912820339">
        <ele>1830.49</ele>
        <time>2018-06-10T08:53:13Z</time>
      </trkpt>
      <trkpt lat="45.760777238756418" lon="10.865198895335197">
        <ele>1831.9300000000001</ele>
        <time>2018-06-10T08:53:25Z</time>
      </trkpt>
      <trkpt lat="45.760664166882634" lon="10.865181544795632">
        <ele>1832.8900000000001</ele>
        <time>2018-06-10T08:53:38Z</time>
      </trkpt>
      <trkpt lat="45.760561488568783" lon="10.865190848708153">
        <ele>1834.3299999999999</ele>
        <time>2018-06-10T08:53:49Z</time>
      </trkpt>
      <trkpt lat="45.760455373674631" lon="10.865190010517836">
        <ele>1833.8499999999999</ele>
        <time>2018-06-10T08:54:00Z</time>
      </trkpt>
      <trkpt lat="45.76035906560719" lon="10.865200739353895">
        <ele>1834.3299999999999</ele>
        <time>2018-06-10T08:54:11Z</time>
      </trkpt>
      <trkpt lat="45.760239707306027" lon="10.865234937518835">
        <ele>1833.8499999999999</ele>
        <time>2018-06-10T08:54:22Z</time>
      </trkpt>
      <trkpt lat="45.76011716388166" lon="10.865282379090786">
        <ele>1830.97</ele>
        <time>2018-06-10T08:54:34Z</time>
      </trkpt>
      <trkpt lat="45.760041726753116" lon="10.865338118746877">
        <ele>1832.8900000000001</ele>
        <time>2018-06-10T08:54:43Z</time>
      </trkpt>
      <trkpt lat="45.759924966841936" lon="10.865418836474419">
        <ele>1833.3699999999999</ele>
        <time>2018-06-10T08:54:56Z</time>
      </trkpt>
      <trkpt lat="45.759840309619904" lon="10.865424871444702">
        <ele>1833.8499999999999</ele>
        <time>2018-06-10T08:55:04Z</time>
      </trkpt>
      <trkpt lat="45.759702259674668" lon="10.865422608330846">
        <ele>1834.8099999999999</ele>
        <time>2018-06-10T08:55:16Z</time>
      </trkpt>
      <trkpt lat="45.759548787027597" lon="10.865369886159897">
        <ele>1835.77</ele>
        <time>2018-06-10T08:55:31Z</time>
      </trkpt>
      <trkpt lat="45.759428087621927" lon="10.865300903096795">
        <ele>1834.3299999999999</ele>
        <time>2018-06-10T08:55:43Z</time>
      </trkpt>
      <trkpt lat="45.759287104010582" lon="10.865271566435695">
        <ele>1832.4100000000001</ele>
        <time>2018-06-10T08:55:56Z</time>
      </trkpt>
      <trkpt lat="45.759167242795229" lon="10.86525178514421">
        <ele>1832.4100000000001</ele>
        <time>2018-06-10T08:56:08Z</time>
      </trkpt>
      <trkpt lat="45.759120136499405" lon="10.865241894498467">
        <ele>1831.9300000000001</ele>
        <time>2018-06-10T08:56:16Z</time>
      </trkpt>
      <trkpt lat="45.758939171209931" lon="10.86525279097259">
        <ele>1830.97</ele>
        <time>2018-06-10T08:56:31Z</time>
      </trkpt>
      <trkpt lat="45.758786788210273" lon="10.865228064358234">
        <ele>1830.49</ele>
        <time>2018-06-10T08:56:44Z</time>
      </trkpt>
      <trkpt lat="45.758713698014617" lon="10.865174755454063">
        <ele>1830.49</ele>
        <time>2018-06-10T08:56:56Z</time>
      </trkpt>
      <trkpt lat="45.758688636124134" lon="10.865174168720841">
        <ele>1830.49</ele>
        <time>2018-06-10T08:57:05Z</time>
      </trkpt>
      <trkpt lat="45.758660892024636" lon="10.865168469026685">
        <ele>1830.97</ele>
        <time>2018-06-10T08:57:18Z</time>
      </trkpt>
      <trkpt lat="45.758581599220634" lon="10.865176180377603">
        <ele>1832.4100000000001</ele>
        <time>2018-06-10T08:57:28Z</time>
      </trkpt>
      <trkpt lat="45.75851010158658" lon="10.865097055211663">
        <ele>1833.3699999999999</ele>
        <time>2018-06-10T08:57:37Z</time>
      </trkpt>
      <trkpt lat="45.758471293374896" lon="10.865076268091798">
        <ele>1833.3699999999999</ele>
        <time>2018-06-10T08:57:41Z</time>
      </trkpt>
      <trkpt lat="45.758316228166223" lon="10.865057157352567">
        <ele>1833.8499999999999</ele>
        <time>2018-06-10T08:57:54Z</time>
      </trkpt>
      <trkpt lat="45.758192175999284" lon="10.865047685801983">
        <ele>1835.29</ele>
        <time>2018-06-10T08:58:06Z</time>
      </trkpt>
      <trkpt lat="45.758080696687102" lon="10.865048272535205">
        <ele>1835.77</ele>
        <time>2018-06-10T08:58:19Z</time>
      </trkpt>
      <trkpt lat="45.757977683097124" lon="10.865029161795974">
        <ele>1837.7</ele>
        <time>2018-06-10T08:58:33Z</time>
      </trkpt>
      <trkpt lat="45.757903922349215" lon="10.864978702738881">
        <ele>1838.6600000000001</ele>
        <time>2018-06-10T08:58:43Z</time>
      </trkpt>
      <trkpt lat="45.757836531847715" lon="10.864981804043055">
        <ele>1840.5799999999999</ele>
        <time>2018-06-10T08:58:54Z</time>
      </trkpt>
      <trkpt lat="45.75774634256959" lon="10.864954898133874">
        <ele>1842.02</ele>
        <time>2018-06-10T08:59:06Z</time>
      </trkpt>
      <trkpt lat="45.757648944854736" lon="10.864917598664761">
        <ele>1842.98</ele>
        <time>2018-06-10T08:59:18Z</time>
      </trkpt>
      <trkpt lat="45.757556911557913" lon="10.864908378571272">
        <ele>1843.95</ele>
        <time>2018-06-10T08:59:29Z</time>
      </trkpt>
      <trkpt lat="45.75748398900032" lon="10.864885244518518">
        <ele>1844.9100000000001</ele>
        <time>2018-06-10T08:59:42Z</time>
      </trkpt>
      <trkpt lat="45.757373850792646" lon="10.864881137385964">
        <ele>1844.9100000000001</ele>
        <time>2018-06-10T08:59:53Z</time>
      </trkpt>
      <trkpt lat="45.757233118638396" lon="10.864877868443727">
        <ele>1845.3900000000001</ele>
        <time>2018-06-10T09:00:06Z</time>
      </trkpt>
      <trkpt lat="45.757078556343913" lon="10.864859092980623">
        <ele>1845.3900000000001</ele>
        <time>2018-06-10T09:00:21Z</time>
      </trkpt>
      <trkpt lat="45.756951989606023" lon="10.864844424650073">
        <ele>1845.3900000000001</ele>
        <time>2018-06-10T09:00:33Z</time>
      </trkpt>
      <trkpt lat="45.756851406767964" lon="10.864809472113848">
        <ele>1844.9100000000001</ele>
        <time>2018-06-10T09:00:43Z</time>
      </trkpt>
      <trkpt lat="45.756741017103195" lon="10.864783404394984">
        <ele>1844.4300000000001</ele>
        <time>2018-06-10T09:00:54Z</time>
      </trkpt>
      <trkpt lat="45.756592070683837" lon="10.864774351939559">
        <ele>1844.9100000000001</ele>
        <time>2018-06-10T09:01:07Z</time>
      </trkpt>
      <trkpt lat="45.75644220225513" lon="10.864792373031378">
        <ele>1844.4300000000001</ele>
        <time>2018-06-10T09:01:20Z</time>
      </trkpt>
      <trkpt lat="45.75629124417901" lon="10.864745182916522">
        <ele>1845.3900000000001</ele>
        <time>2018-06-10T09:01:34Z</time>
      </trkpt>
      <trkpt lat="45.756279928609729" lon="10.864739064127207">
        <ele>1844.9100000000001</ele>
        <time>2018-06-10T09:01:35Z</time>
      </trkpt>
      <trkpt lat="45.756237767636776" lon="10.864738980308175">
        <ele>1845.3900000000001</ele>
        <time>2018-06-10T09:01:39Z</time>
      </trkpt>
      <trkpt lat="45.756127964705229" lon="10.86477829143405">
        <ele>1845.8699999999999</ele>
        <time>2018-06-10T09:01:50Z</time>
      </trkpt>
      <trkpt lat="45.756079684942961" lon="10.864820871502161">
        <ele>1846.8299999999999</ele>
        <time>2018-06-10T09:01:56Z</time>
      </trkpt>
      <trkpt lat="45.756000559777021" lon="10.864894548431039">
        <ele>1847.79</ele>
        <time>2018-06-10T09:02:05Z</time>
      </trkpt>
      <trkpt lat="45.755961081013083" lon="10.864895218983293">
        <ele>1848.27</ele>
        <time>2018-06-10T09:02:09Z</time>
      </trkpt>
      <trkpt lat="45.755874244496226" lon="10.864988090470433">
        <ele>1848.75</ele>
        <time>2018-06-10T09:02:20Z</time>
      </trkpt>
      <trkpt lat="45.75576058588922" lon="10.865012146532536">
        <ele>1849.71</ele>
        <time>2018-06-10T09:02:31Z</time>
      </trkpt>
      <trkpt lat="45.755655057728291" lon="10.865006530657411">
        <ele>1851.1600000000001</ele>
        <time>2018-06-10T09:02:40Z</time>
      </trkpt>
      <trkpt lat="45.755574591457844" lon="10.865002842620015">
        <ele>1851.6400000000001</ele>
        <time>2018-06-10T09:02:48Z</time>
      </trkpt>
      <trkpt lat="45.755460513755679" lon="10.864939223974943">
        <ele>1853.0799999999999</ele>
        <time>2018-06-10T09:03:00Z</time>
      </trkpt>
      <trkpt lat="45.755443247035146" lon="10.864920699968934">
        <ele>1853.0799999999999</ele>
        <time>2018-06-10T09:03:02Z</time>
      </trkpt>
      <trkpt lat="45.755374347791076" lon="10.864907037466764">
        <ele>1855.48</ele>
        <time>2018-06-10T09:03:11Z</time>
      </trkpt>
      <trkpt lat="45.7553471904248" lon="10.86489119566977">
        <ele>1855.96</ele>
        <time>2018-06-10T09:03:21Z</time>
      </trkpt>
      <trkpt lat="45.755327241495252" lon="10.864884741604328">
        <ele>1855.96</ele>
        <time>2018-06-10T09:03:26Z</time>
      </trkpt>
      <trkpt lat="45.755299497395754" lon="10.864877533167601">
        <ele>1856.4400000000001</ele>
        <time>2018-06-10T09:03:29Z</time>
      </trkpt>
      <trkpt lat="45.755254486575723" lon="10.864860098809004">
        <ele>1856.4400000000001</ele>
        <time>2018-06-10T09:03:33Z</time>
      </trkpt>
      <trkpt lat="45.755108222365379" lon="10.864886669442058">
        <ele>1858.3699999999999</ele>
        <time>2018-06-10T09:03:48Z</time>
      </trkpt>
      <trkpt lat="45.75504862703383" lon="10.864938721060753">
        <ele>1858.3699999999999</ele>
        <time>2018-06-10T09:03:59Z</time>
      </trkpt>
      <trkpt lat="45.755035132169724" lon="10.864974344149232">
        <ele>1859.3299999999999</ele>
        <time>2018-06-10T09:04:10Z</time>
      </trkpt>
      <trkpt lat="45.75502616353333" lon="10.864980043843389">
        <ele>1859.3299999999999</ele>
        <time>2018-06-10T09:04:11Z</time>
      </trkpt>
      <trkpt lat="45.754898171871901" lon="10.865001669153571">
        <ele>1858.8499999999999</ele>
        <time>2018-06-10T09:04:23Z</time>
      </trkpt>
      <trkpt lat="45.75478040613234" lon="10.86495372466743">
        <ele>1859.3299999999999</ele>
        <time>2018-06-10T09:04:35Z</time>
      </trkpt>
      <trkpt lat="45.754723493009806" lon="10.864947270601988">
        <ele>1859.8099999999999</ele>
        <time>2018-06-10T09:04:45Z</time>
      </trkpt>
      <trkpt lat="45.754659622907639" lon="10.864923465996981">
        <ele>1860.77</ele>
        <time>2018-06-10T09:04:52Z</time>
      </trkpt>
      <trkpt lat="45.754546383395791" lon="10.864936709403992">
        <ele>1861.73</ele>
        <time>2018-06-10T09:05:04Z</time>
      </trkpt>
      <trkpt lat="45.754468599334359" lon="10.864927070215344">
        <ele>1863.1700000000001</ele>
        <time>2018-06-10T09:05:15Z</time>
      </trkpt>
      <trkpt lat="45.75447547249496" lon="10.86494886316359">
        <ele>1863.1700000000001</ele>
        <time>2018-06-10T09:05:27Z</time>
      </trkpt>
      <trkpt lat="45.754402214661241" lon="10.864897649735212">
        <ele>1864.1300000000001</ele>
        <time>2018-06-10T09:05:38Z</time>
      </trkpt>
      <trkpt lat="45.754374554380774" lon="10.864887088537216">
        <ele>1864.6099999999999</ele>
        <time>2018-06-10T09:05:41Z</time>
      </trkpt>
      <trkpt lat="45.754292076453567" lon="10.864801593124866">
        <ele>1866.0599999999999</ele>
        <time>2018-06-10T09:05:53Z</time>
      </trkpt>
      <trkpt lat="45.754255363717675" lon="10.864778123795986">
        <ele>1866.54</ele>
        <time>2018-06-10T09:05:58Z</time>
      </trkpt>
      <trkpt lat="45.754126869142056" lon="10.864725820720196">
        <ele>1867.5</ele>
        <time>2018-06-10T09:06:11Z</time>
      </trkpt>
      <trkpt lat="45.753996446728706" lon="10.864709224551916">
        <ele>1867.5</ele>
        <time>2018-06-10T09:06:24Z</time>
      </trkpt>
      <trkpt lat="45.753855630755424" lon="10.864688102155924">
        <ele>1867.98</ele>
        <time>2018-06-10T09:06:38Z</time>
      </trkpt>
      <trkpt lat="45.753749096766114" lon="10.864648707211018">
        <ele>1868.46</ele>
        <time>2018-06-10T09:06:49Z</time>
      </trkpt>
      <trkpt lat="45.753665277734399" lon="10.86462339386344">
        <ele>1868.9400000000001</ele>
        <time>2018-06-10T09:06:59Z</time>
      </trkpt>
      <trkpt lat="45.75360769405961" lon="10.864630853757262">
        <ele>1869.9000000000001</ele>
        <time>2018-06-10T09:07:08Z</time>
      </trkpt>
      <trkpt lat="45.753579195588827" lon="10.864601600915194">
        <ele>1870.3800000000001</ele>
        <time>2018-06-10T09:07:12Z</time>
      </trkpt>
      <trkpt lat="45.753523204475641" lon="10.864549046382308">
        <ele>1870.3800000000001</ele>
        <time>2018-06-10T09:07:21Z</time>
      </trkpt>
      <trkpt lat="45.753520606085658" lon="10.864517949521542">
        <ele>1869.4200000000001</ele>
        <time>2018-06-10T09:07:23Z</time>
      </trkpt>
      <trkpt lat="45.753449108451605" lon="10.864498587325215">
        <ele>1869.9000000000001</ele>
        <time>2018-06-10T09:07:33Z</time>
      </trkpt>
      <trkpt lat="45.753437457606196" lon="10.864499006420374">
        <ele>1869.9000000000001</ele>
        <time>2018-06-10T09:07:35Z</time>
      </trkpt>
      <trkpt lat="45.753404097631574" lon="10.864525409415364">
        <ele>1870.8599999999999</ele>
        <time>2018-06-10T09:07:40Z</time>
      </trkpt>
      <trkpt lat="45.753361266106367" lon="10.864530019462109">
        <ele>1870.8599999999999</ele>
        <time>2018-06-10T09:07:45Z</time>
      </trkpt>
      <trkpt lat="45.753288259729743" lon="10.864471513777971">
        <ele>1871.3399999999999</ele>
        <time>2018-06-10T09:07:56Z</time>
      </trkpt>
      <trkpt lat="45.753241740167141" lon="10.864413846284151">
        <ele>1872.79</ele>
        <time>2018-06-10T09:08:07Z</time>
      </trkpt>
      <trkpt lat="45.753226820379496" lon="10.864398758858442">
        <ele>1873.27</ele>
        <time>2018-06-10T09:08:16Z</time>
      </trkpt>
      <trkpt lat="45.753181390464306" lon="10.864399094134569">
        <ele>1872.79</ele>
        <time>2018-06-10T09:08:26Z</time>
      </trkpt>
      <trkpt lat="45.753175858408213" lon="10.864401692524552">
        <ele>1873.27</ele>
        <time>2018-06-10T09:08:27Z</time>
      </trkpt>
      <trkpt lat="45.753088183701038" lon="10.864376379176974">
        <ele>1872.79</ele>
        <time>2018-06-10T09:08:37Z</time>
      </trkpt>
      <trkpt lat="45.75300176627934" lon="10.864361375570297">
        <ele>1874.23</ele>
        <time>2018-06-10T09:08:49Z</time>
      </trkpt>
      <trkpt lat="45.752968154847622" lon="10.864382414147258">
        <ele>1874.23</ele>
        <time>2018-06-10T09:08:53Z</time>
      </trkpt>
      <trkpt lat="45.752910571172833" lon="10.864416612312198">
        <ele>1874.23</ele>
        <time>2018-06-10T09:09:04Z</time>
      </trkpt>
      <trkpt lat="45.752892717719078" lon="10.864421306177974">
        <ele>1873.75</ele>
        <time>2018-06-10T09:09:16Z</time>
      </trkpt>
      <trkpt lat="45.752873439341784" lon="10.864411750808358">
        <ele>1874.23</ele>
        <time>2018-06-10T09:09:25Z</time>
      </trkpt>
      <trkpt lat="45.752850472927094" lon="10.864425413310528">
        <ele>1874.71</ele>
        <time>2018-06-10T09:09:34Z</time>
      </trkpt>
      <trkpt lat="45.752829853445292" lon="10.864426670596004">
        <ele>1874.23</ele>
        <time>2018-06-10T09:09:49Z</time>
      </trkpt>
      <trkpt lat="45.752813844010234" lon="10.864393059164286">
        <ele>1875.6700000000001</ele>
        <time>2018-06-10T09:10:02Z</time>
      </trkpt>
      <trkpt lat="45.752744106575847" lon="10.864392220973969">
        <ele>1878.0699999999999</ele>
        <time>2018-06-10T09:10:11Z</time>
      </trkpt>
      <trkpt lat="45.752689959481359" lon="10.864402363076806">
        <ele>1877.1099999999999</ele>
        <time>2018-06-10T09:10:17Z</time>
      </trkpt>
      <trkpt lat="45.75258107855916" lon="10.864413594827056">
        <ele>1877.5899999999999</ele>
        <time>2018-06-10T09:10:29Z</time>
      </trkpt>
      <trkpt lat="45.752504132688046" lon="10.8643698412925">
        <ele>1880</ele>
        <time>2018-06-10T09:10:42Z</time>
      </trkpt>
      <trkpt lat="45.752411764115095" lon="10.86439523845911">
        <ele>1880.48</ele>
        <time>2018-06-10T09:10:51Z</time>
      </trkpt>
      <trkpt lat="45.752301374450326" lon="10.864370176568627">
        <ele>1881.9200000000001</ele>
        <time>2018-06-10T09:11:04Z</time>
      </trkpt>
      <trkpt lat="45.75224588625133" lon="10.864344108849764">
        <ele>1883.3599999999999</ele>
        <time>2018-06-10T09:11:14Z</time>
      </trkpt>
      <trkpt lat="45.752182435244322" lon="10.86431217379868">
        <ele>1884.3199999999999</ele>
        <time>2018-06-10T09:11:24Z</time>
      </trkpt>
      <trkpt lat="45.752117140218616" lon="10.864264732226729">
        <ele>1886.72</ele>
        <time>2018-06-10T09:11:36Z</time>
      </trkpt>
      <trkpt lat="45.752049749717116" lon="10.864267246797681">
        <ele>1888.1700000000001</ele>
        <time>2018-06-10T09:11:46Z</time>
      </trkpt>
      <trkpt lat="45.751987136900425" lon="10.864220140501857">
        <ele>1890.5699999999999</ele>
        <time>2018-06-10T09:11:57Z</time>
      </trkpt>
      <trkpt lat="45.751915974542499" lon="10.864216703921556">
        <ele>1892.01</ele>
        <time>2018-06-10T09:12:07Z</time>
      </trkpt>
      <trkpt lat="45.751840118318796" lon="10.864186864346266">
        <ele>1893.45</ele>
        <time>2018-06-10T09:12:17Z</time>
      </trkpt>
      <trkpt lat="45.751787563785911" lon="10.864149145781994">
        <ele>1894.4200000000001</ele>
        <time>2018-06-10T09:12:24Z</time>
      </trkpt>
      <trkpt lat="45.751698380336165" lon="10.864183595404029">
        <ele>1896.3399999999999</ele>
        <time>2018-06-10T09:12:36Z</time>
      </trkpt>
      <trkpt lat="45.751612633466721" lon="10.864196168258786">
        <ele>1897.3</ele>
        <time>2018-06-10T09:12:46Z</time>
      </trkpt>
      <trkpt lat="45.751526467502117" lon="10.86419147439301">
        <ele>1898.26</ele>
        <time>2018-06-10T09:12:56Z</time>
      </trkpt>
      <trkpt lat="45.751422196626663" lon="10.864168424159288">
        <ele>1899.7</ele>
        <time>2018-06-10T09:13:09Z</time>
      </trkpt>
      <trkpt lat="45.751357153058052" lon="10.864196754992008">
        <ele>1901.1400000000001</ele>
        <time>2018-06-10T09:13:19Z</time>
      </trkpt>
      <trkpt lat="45.751280039548874" lon="10.864191222935915">
        <ele>1902.5899999999999</ele>
        <time>2018-06-10T09:13:29Z</time>
      </trkpt>
      <trkpt lat="45.751203177496791" lon="10.864190552383661">
        <ele>1903.55</ele>
        <time>2018-06-10T09:13:38Z</time>
      </trkpt>
      <trkpt lat="45.751136038452387" lon="10.864144954830408">
        <ele>1904.03</ele>
        <time>2018-06-10T09:13:45Z</time>
      </trkpt>
      <trkpt lat="45.751092117279768" lon="10.864125089719892">
        <ele>1904.51</ele>
        <time>2018-06-10T09:13:57Z</time>
      </trkpt>
      <trkpt lat="45.751013914123178" lon="10.864109164103866">
        <ele>1904.99</ele>
        <time>2018-06-10T09:14:12Z</time>
      </trkpt>
      <trkpt lat="45.750974854454398" lon="10.864096507430077">
        <ele>1904.99</ele>
        <time>2018-06-10T09:14:16Z</time>
      </trkpt>
      <trkpt lat="45.750847868621349" lon="10.864048982039094">
        <ele>1906.4300000000001</ele>
        <time>2018-06-10T09:14:29Z</time>
      </trkpt>
      <trkpt lat="45.75073798187077" lon="10.864003887400031">
        <ele>1908.3499999999999</ele>
        <time>2018-06-10T09:14:41Z</time>
      </trkpt>
      <trkpt lat="45.750644104555249" lon="10.863955272361636">
        <ele>1909.8</ele>
        <time>2018-06-10T09:14:51Z</time>
      </trkpt>
      <trkpt lat="45.750529523938894" lon="10.86386650800705">
        <ele>1911.72</ele>
        <time>2018-06-10T09:15:05Z</time>
      </trkpt>
      <trkpt lat="45.750480238348246" lon="10.863867849111557">
        <ele>1912.2</ele>
        <time>2018-06-10T09:15:17Z</time>
      </trkpt>
      <trkpt lat="45.750431371852756" lon="10.863847900182009">
        <ele>1912.6800000000001</ele>
        <time>2018-06-10T09:15:28Z</time>
      </trkpt>
      <trkpt lat="45.750324502587318" lon="10.863828621804714">
        <ele>1913.6400000000001</ele>
        <time>2018-06-10T09:15:39Z</time>
      </trkpt>
      <trkpt lat="45.750233056023717" lon="10.863805739209056">
        <ele>1915.5599999999999</ele>
        <time>2018-06-10T09:15:51Z</time>
      </trkpt>
      <trkpt lat="45.750149404630065" lon="10.863718064501882">
        <ele>1917.49</ele>
        <time>2018-06-10T09:16:04Z</time>
      </trkpt>
      <trkpt lat="45.750097604468465" lon="10.863644471392035">
        <ele>1919.4100000000001</ele>
        <time>2018-06-10T09:16:15Z</time>
      </trkpt>
      <trkpt lat="45.750033650547266" lon="10.863623851910233">
        <ele>1920.8499999999999</ele>
        <time>2018-06-10T09:16:25Z</time>
      </trkpt>
      <trkpt lat="45.749992663040757" lon="10.86356115527451">
        <ele>1922.77</ele>
        <time>2018-06-10T09:16:36Z</time>
      </trkpt>
      <trkpt lat="45.749926613643765" lon="10.863524191081524">
        <ele>1924.7</ele>
        <time>2018-06-10T09:16:48Z</time>
      </trkpt>
      <trkpt lat="45.749865928664804" lon="10.863443473353982">
        <ele>1926.1400000000001</ele>
        <time>2018-06-10T09:16:59Z</time>
      </trkpt>
      <trkpt lat="45.749797532334924" lon="10.863383878022432">
        <ele>1927.5799999999999</ele>
        <time>2018-06-10T09:17:11Z</time>
      </trkpt>
      <trkpt lat="45.749750845134258" lon="10.863285474479198">
        <ele>1929.5</ele>
        <time>2018-06-10T09:17:23Z</time>
      </trkpt>
      <trkpt lat="45.749689908698201" lon="10.863207271322608">
        <ele>1930.95</ele>
        <time>2018-06-10T09:17:34Z</time>
      </trkpt>
      <trkpt lat="45.7495984621346" lon="10.86317852139473">
        <ele>1932.3900000000001</ele>
        <time>2018-06-10T09:17:48Z</time>
      </trkpt>
      <trkpt lat="45.749550266191363" lon="10.863109538331628">
        <ele>1933.8299999999999</ele>
        <time>2018-06-10T09:17:59Z</time>
      </trkpt>
      <trkpt lat="45.749507937580347" lon="10.863053631037474">
        <ele>1935.27</ele>
        <time>2018-06-10T09:18:10Z</time>
      </trkpt>
      <trkpt lat="45.749436188489199" lon="10.863011637702584">
        <ele>1937.1900000000001</ele>
        <time>2018-06-10T09:18:23Z</time>
      </trkpt>
      <trkpt lat="45.749357230961323" lon="10.862985318526626">
        <ele>1937.1900000000001</ele>
        <time>2018-06-10T09:18:34Z</time>
      </trkpt>
      <trkpt lat="45.749314399436116" lon="10.862944247201085">
        <ele>1937.6700000000001</ele>
        <time>2018-06-10T09:18:42Z</time>
      </trkpt>
      <trkpt lat="45.749275423586369" lon="10.862890770658851">
        <ele>1937.1900000000001</ele>
        <time>2018-06-10T09:18:48Z</time>
      </trkpt>
      <trkpt lat="45.749226221814752" lon="10.862738555297256">
        <ele>1936.71</ele>
        <time>2018-06-10T09:19:02Z</time>
      </trkpt>
      <trkpt lat="45.74914843775332" lon="10.862713828682899">
        <ele>1937.6700000000001</ele>
        <time>2018-06-10T09:19:13Z</time>
      </trkpt>
      <trkpt lat="45.749061768874526" lon="10.862645097076893">
        <ele>1938.6400000000001</ele>
        <time>2018-06-10T09:19:26Z</time>
      </trkpt>
      <trkpt lat="45.749016422778368" lon="10.862607127055526">
        <ele>1939.5999999999999</ele>
        <time>2018-06-10T09:19:36Z</time>
      </trkpt>
      <trkpt lat="45.748932184651494" lon="10.862605618312955">
        <ele>1940.0799999999999</ele>
        <time>2018-06-10T09:19:46Z</time>
      </trkpt>
      <trkpt lat="45.748869571834803" lon="10.862588854506612">
        <ele>1940.5599999999999</ele>
        <time>2018-06-10T09:19:57Z</time>
      </trkpt>
      <trkpt lat="45.748808551579714" lon="10.862589022144675">
        <ele>1939.1199999999999</ele>
        <time>2018-06-10T09:20:08Z</time>
      </trkpt>
      <trkpt lat="45.748756164684892" lon="10.862565217539668">
        <ele>1939.1199999999999</ele>
        <time>2018-06-10T09:20:17Z</time>
      </trkpt>
      <trkpt lat="45.748734874650836" lon="10.862566558644176">
        <ele>1938.6400000000001</ele>
        <time>2018-06-10T09:20:34Z</time>
      </trkpt>
      <trkpt lat="45.748703693971038" lon="10.862509645521641">
        <ele>1938.6400000000001</ele>
        <time>2018-06-10T09:20:39Z</time>
      </trkpt>
      <trkpt lat="45.748673770576715" lon="10.862499922513962">
        <ele>1938.6400000000001</ele>
        <time>2018-06-10T09:20:43Z</time>
      </trkpt>
      <trkpt lat="45.748628927394748" lon="10.862448206171393">
        <ele>1938.1600000000001</ele>
        <time>2018-06-10T09:20:49Z</time>
      </trkpt>
      <trkpt lat="45.748539241030812" lon="10.86241090670228">
        <ele>1938.1600000000001</ele>
        <time>2018-06-10T09:21:01Z</time>
      </trkpt>
      <trkpt lat="45.74854452162981" lon="10.862416103482246">
        <ele>1938.6400000000001</ele>
        <time>2018-06-10T09:21:12Z</time>
      </trkpt>
      <trkpt lat="45.748520130291581" lon="10.862394310534">
        <ele>1938.6400000000001</ele>
        <time>2018-06-10T09:21:22Z</time>
      </trkpt>
      <trkpt lat="45.748447040095925" lon="10.862309988588095">
        <ele>1939.1199999999999</ele>
        <time>2018-06-10T09:21:33Z</time>
      </trkpt>
      <trkpt lat="45.748379984870553" lon="10.862274365499616">
        <ele>1939.1199999999999</ele>
        <time>2018-06-10T09:21:42Z</time>
      </trkpt>
      <trkpt lat="45.748298680409789" lon="10.862239915877581">
        <ele>1940.0799999999999</ele>
        <time>2018-06-10T09:21:53Z</time>
      </trkpt>
      <trkpt lat="45.748245120048523" lon="10.862161293625832">
        <ele>1940.5599999999999</ele>
        <time>2018-06-10T09:22:03Z</time>
      </trkpt>
      <trkpt lat="45.748236905783415" lon="10.862148804590106">
        <ele>1940.0799999999999</ele>
        <time>2018-06-10T09:22:05Z</time>
      </trkpt>
      <trkpt lat="45.748227518051863" lon="10.862100943922997">
        <ele>1939.5999999999999</ele>
        <time>2018-06-10T09:22:09Z</time>
      </trkpt>
      <trkpt lat="45.748146884143353" lon="10.862010084092617">
        <ele>1938.6400000000001</ele>
        <time>2018-06-10T09:22:21Z</time>
      </trkpt>
      <trkpt lat="45.748056024312973" lon="10.86193791590631">
        <ele>1937.1900000000001</ele>
        <time>2018-06-10T09:22:34Z</time>
      </trkpt>
      <trkpt lat="45.748000536113977" lon="10.861855521798134">
        <ele>1937.1900000000001</ele>
        <time>2018-06-10T09:22:42Z</time>
      </trkpt>
      <trkpt lat="45.747930379584432" lon="10.861726440489292">
        <ele>1936.71</ele>
        <time>2018-06-10T09:22:54Z</time>
      </trkpt>
      <trkpt lat="45.747893331572413" lon="10.861656367778778">
        <ele>1937.1900000000001</ele>
        <time>2018-06-10T09:23:03Z</time>
      </trkpt>
      <trkpt lat="45.747876148670912" lon="10.861592581495643">
        <ele>1937.1900000000001</ele>
        <time>2018-06-10T09:23:13Z</time>
      </trkpt>
      <trkpt lat="45.747869778424501" lon="10.861501218751073">
        <ele>1939.1199999999999</ele>
        <time>2018-06-10T09:23:23Z</time>
      </trkpt>
      <trkpt lat="45.747849829494953" lon="10.861479425802827">
        <ele>1940.0799999999999</ele>
        <time>2018-06-10T09:23:32Z</time>
      </trkpt>
      <trkpt lat="45.747867599129677" lon="10.861479341983795">
        <ele>1940.5599999999999</ele>
        <time>2018-06-10T09:23:46Z</time>
      </trkpt>
      <trkpt lat="45.747850583866239" lon="10.861502978950739">
        <ele>1940.0799999999999</ele>
        <time>2018-06-10T09:24:00Z</time>
      </trkpt>
      <trkpt lat="45.747854523360729" lon="10.861508762463927">
        <ele>1940.5599999999999</ele>
        <time>2018-06-10T09:24:12Z</time>
      </trkpt>
      <trkpt lat="45.74786139652133" lon="10.861497363075614">
        <ele>1940.0799999999999</ele>
        <time>2018-06-10T09:24:32Z</time>
      </trkpt>
      <trkpt lat="45.747862067073584" lon="10.861500799655914">
        <ele>1940.0799999999999</ele>
        <time>2018-06-10T09:24:51Z</time>
      </trkpt>
      <trkpt lat="45.747842788696289" lon="10.861512450501323">
        <ele>1940.5599999999999</ele>
        <time>2018-06-10T09:25:07Z</time>
      </trkpt>
      <trkpt lat="45.747792413458228" lon="10.861460231244564">
        <ele>1942</ele>
        <time>2018-06-10T09:25:17Z</time>
      </trkpt>
      <trkpt lat="45.74776466935873" lon="10.861448496580124">
        <ele>1942.96</ele>
        <time>2018-06-10T09:25:26Z</time>
      </trkpt>
      <trkpt lat="45.747733321040869" lon="10.861412454396486">
        <ele>1944.4000000000001</ele>
        <time>2018-06-10T09:25:35Z</time>
      </trkpt>
      <trkpt lat="45.747730974107981" lon="10.861389823257923">
        <ele>1944.8800000000001</ele>
        <time>2018-06-10T09:25:46Z</time>
      </trkpt>
      <trkpt lat="45.747708175331354" lon="10.861366270110011">
        <ele>1946.3299999999999</ele>
        <time>2018-06-10T09:25:58Z</time>
      </trkpt>
      <trkpt lat="45.747671630233526" lon="10.861327713355422">
        <ele>1947.77</ele>
        <time>2018-06-10T09:26:07Z</time>
      </trkpt>
      <trkpt lat="45.747640281915665" lon="10.861288066953421">
        <ele>1949.6900000000001</ele>
        <time>2018-06-10T09:26:18Z</time>
      </trkpt>
      <trkpt lat="45.74763810262084" lon="10.861244397237897">
        <ele>1951.1300000000001</ele>
        <time>2018-06-10T09:26:32Z</time>
      </trkpt>
      <trkpt lat="45.747607424855232" lon="10.861188573762774">
        <ele>1953.0599999999999</ele>
        <time>2018-06-10T09:26:43Z</time>
      </trkpt>
      <trkpt lat="45.747620249167085" lon="10.861110454425216">
        <ele>1954.5</ele>
        <time>2018-06-10T09:26:53Z</time>
      </trkpt>
      <trkpt lat="45.747546404600143" lon="10.861078938469291">
        <ele>1955.9400000000001</ele>
        <time>2018-06-10T09:27:06Z</time>
      </trkpt>
      <trkpt lat="45.747527629137039" lon="10.86102269589901">
        <ele>1956.4200000000001</ele>
        <time>2018-06-10T09:27:18Z</time>
      </trkpt>
      <trkpt lat="45.747489659115672" lon="10.860954718664289">
        <ele>1957.8599999999999</ele>
        <time>2018-06-10T09:27:29Z</time>
      </trkpt>
      <trkpt lat="45.747472308576107" lon="10.86091767065227">
        <ele>1959.3</ele>
        <time>2018-06-10T09:27:38Z</time>
      </trkpt>
      <trkpt lat="45.747449677437544" lon="10.860842065885663">
        <ele>1959.78</ele>
        <time>2018-06-10T09:27:48Z</time>
      </trkpt>
      <trkpt lat="45.74742360971868" lon="10.860806023702025">
        <ele>1961.23</ele>
        <time>2018-06-10T09:27:58Z</time>
      </trkpt>
      <trkpt lat="45.747387567535043" lon="10.860687168315053">
        <ele>1962.1900000000001</ele>
        <time>2018-06-10T09:28:09Z</time>
      </trkpt>
      <trkpt lat="45.747329816222191" lon="10.860621789470315">
        <ele>1964.5899999999999</ele>
        <time>2018-06-10T09:28:20Z</time>
      </trkpt>
      <trkpt lat="45.747277764603496" lon="10.860551549121737">
        <ele>1964.5899999999999</ele>
        <time>2018-06-10T09:28:29Z</time>
      </trkpt>
      <trkpt lat="45.747204003855586" lon="10.86043830960989">
        <ele>1965.55</ele>
        <time>2018-06-10T09:28:41Z</time>
      </trkpt>
      <trkpt lat="45.747146168723702" lon="10.860361028462648">
        <ele>1966.51</ele>
        <time>2018-06-10T09:28:53Z</time>
      </trkpt>
      <trkpt lat="45.747077437117696" lon="10.860279891639948">
        <ele>1968.4400000000001</ele>
        <time>2018-06-10T09:29:06Z</time>
      </trkpt>
      <trkpt lat="45.747009208425879" lon="10.860181571915746">
        <ele>1968.4400000000001</ele>
        <time>2018-06-10T09:29:18Z</time>
      </trkpt>
      <trkpt lat="45.746951038017869" lon="10.860103033483028">
        <ele>1968.9200000000001</ele>
        <time>2018-06-10T09:29:29Z</time>
      </trkpt>
      <trkpt lat="45.746893119066954" lon="10.860018711537123">
        <ele>1969.8800000000001</ele>
        <time>2018-06-10T09:29:39Z</time>
      </trkpt>
      <trkpt lat="45.746852047741413" lon="10.859986944124103">
        <ele>1969.4000000000001</ele>
        <time>2018-06-10T09:29:44Z</time>
      </trkpt>
      <trkpt lat="45.746813407167792" lon="10.859965570271015">
        <ele>1969.4000000000001</ele>
        <time>2018-06-10T09:29:49Z</time>
      </trkpt>
      <trkpt lat="45.746840983629227" lon="10.859853252768517">
        <ele>1971.3199999999999</ele>
        <time>2018-06-10T09:30:01Z</time>
      </trkpt>
      <trkpt lat="45.746831763535738" lon="10.859798016026616">
        <ele>1972.28</ele>
        <time>2018-06-10T09:30:09Z</time>
      </trkpt>
      <trkpt lat="45.746810054406524" lon="10.859722914174199">
        <ele>1973.72</ele>
        <time>2018-06-10T09:30:19Z</time>
      </trkpt>
      <trkpt lat="45.746807707473636" lon="10.859642280265689">
        <ele>1975.1700000000001</ele>
        <time>2018-06-10T09:30:28Z</time>
      </trkpt>
      <trkpt lat="45.746824387460947" lon="10.85957296192646">
        <ele>1976.1300000000001</ele>
        <time>2018-06-10T09:30:38Z</time>
      </trkpt>
      <trkpt lat="45.746826063841581" lon="10.859550498425961">
        <ele>1977.0899999999999</ele>
        <time>2018-06-10T09:30:54Z</time>
      </trkpt>
      <trkpt lat="45.746841402724385" lon="10.859526190906763">
        <ele>1977.0899999999999</ele>
        <time>2018-06-10T09:31:07Z</time>
      </trkpt>
      <trkpt lat="45.746850622817874" lon="10.859493417665362">
        <ele>1978.53</ele>
        <time>2018-06-10T09:31:20Z</time>
      </trkpt>
      <trkpt lat="45.746825644746423" lon="10.859457794576883">
        <ele>1979.97</ele>
        <time>2018-06-10T09:31:26Z</time>
      </trkpt>
      <trkpt lat="45.74675858952105" lon="10.859447736293077">
        <ele>1981.4100000000001</ele>
        <time>2018-06-10T09:31:36Z</time>
      </trkpt>
      <trkpt lat="45.746697653084993" lon="10.859356708824635">
        <ele>1982.8599999999999</ele>
        <time>2018-06-10T09:31:48Z</time>
      </trkpt>
      <trkpt lat="45.746623557060957" lon="10.859287558123469">
        <ele>1983.8199999999999</ele>
        <time>2018-06-10T09:31:59Z</time>
      </trkpt>
      <trkpt lat="45.746560273692012" lon="10.859226705506444">
        <ele>1984.78</ele>
        <time>2018-06-10T09:32:09Z</time>
      </trkpt>
      <trkpt lat="45.746545689180493" lon="10.859209941700101">
        <ele>1984.78</ele>
        <time>2018-06-10T09:32:11Z</time>
      </trkpt>
      <trkpt lat="45.74647469446063" lon="10.859164427965879">
        <ele>1986.22</ele>
        <time>2018-06-10T09:32:23Z</time>
      </trkpt>
      <trkpt lat="45.746473101899028" lon="10.859163422137499">
        <ele>1986.22</ele>
        <time>2018-06-10T09:32:24Z</time>
      </trkpt>
      <trkpt lat="45.746420798823237" lon="10.859178258106112">
        <ele>1987.6600000000001</ele>
        <time>2018-06-10T09:32:34Z</time>
      </trkpt>
      <trkpt lat="45.74633002281189" lon="10.859194099903107">
        <ele>1988.1400000000001</ele>
        <time>2018-06-10T09:32:44Z</time>
      </trkpt>
      <trkpt lat="45.746276630088687" lon="10.85917130112648">
        <ele>1989.5899999999999</ele>
        <time>2018-06-10T09:32:55Z</time>
      </trkpt>
      <trkpt lat="45.746239414438605" lon="10.859153028577566">
        <ele>1991.03</ele>
        <time>2018-06-10T09:33:07Z</time>
      </trkpt>
      <trkpt lat="45.746197337284684" lon="10.859151100739837">
        <ele>1992.47</ele>
        <time>2018-06-10T09:33:16Z</time>
      </trkpt>
      <trkpt lat="45.746166743338108" lon="10.859080273658037">
        <ele>1994.3900000000001</ele>
        <time>2018-06-10T09:33:27Z</time>
      </trkpt>
      <trkpt lat="45.746121648699045" lon="10.859038615599275">
        <ele>1995.8299999999999</ele>
        <time>2018-06-10T09:33:39Z</time>
      </trkpt>
      <trkpt lat="45.746086109429598" lon="10.858979858458042">
        <ele>1997.76</ele>
        <time>2018-06-10T09:33:50Z</time>
      </trkpt>
      <trkpt lat="45.746036907657981" lon="10.858995197340846">
        <ele>1998.72</ele>
        <time>2018-06-10T09:33:59Z</time>
      </trkpt>
      <trkpt lat="45.745989885181189" lon="10.858956389129162">
        <ele>2000.1600000000001</ele>
        <time>2018-06-10T09:34:11Z</time>
      </trkpt>
      <trkpt lat="45.745945209637284" lon="10.858930991962552">
        <ele>2001.5999999999999</ele>
        <time>2018-06-10T09:34:19Z</time>
      </trkpt>
      <trkpt lat="45.745881507173181" lon="10.858961082994938">
        <ele>2002.0799999999999</ele>
        <time>2018-06-10T09:34:29Z</time>
      </trkpt>
      <trkpt lat="45.745822247117758" lon="10.858956472948194">
        <ele>2002.5599999999999</ele>
        <time>2018-06-10T09:34:41Z</time>
      </trkpt>
      <trkpt lat="45.745824426412582" lon="10.85896166972816">
        <ele>2003.04</ele>
        <time>2018-06-10T09:34:59Z</time>
      </trkpt>
      <trkpt lat="45.745821995660663" lon="10.858971057459712">
        <ele>2002.5599999999999</ele>
        <time>2018-06-10T09:35:17Z</time>
      </trkpt>
      <trkpt lat="45.745837669819593" lon="10.858956053853035">
        <ele>2002.5599999999999</ele>
        <time>2018-06-10T09:35:31Z</time>
      </trkpt>
      <trkpt lat="45.745815960690379" lon="10.858958568423986">
        <ele>2001.5999999999999</ele>
        <time>2018-06-10T09:35:45Z</time>
      </trkpt>
      <trkpt lat="45.745806824415922" lon="10.858960663899779">
        <ele>2001.5999999999999</ele>
        <time>2018-06-10T09:36:17Z</time>
      </trkpt>
      <trkpt lat="45.745820570737123" lon="10.858938451856375">
        <ele>2002.5599999999999</ele>
        <time>2018-06-10T09:36:33Z</time>
      </trkpt>
      <trkpt lat="45.74582627043128" lon="10.858937446027994">
        <ele>2002.0799999999999</ele>
        <time>2018-06-10T09:36:54Z</time>
      </trkpt>
      <trkpt lat="45.745834484696388" lon="10.858945408836007">
        <ele>2003.04</ele>
        <time>2018-06-10T09:37:15Z</time>
      </trkpt>
      <trkpt lat="45.745818978175521" lon="10.858948426321149">
        <ele>2004.49</ele>
        <time>2018-06-10T09:37:26Z</time>
      </trkpt>
      <trkpt lat="45.745832305401564" lon="10.858960160985589">
        <ele>2003.04</ele>
        <time>2018-06-10T09:37:40Z</time>
      </trkpt>
      <trkpt lat="45.745846219360828" lon="10.858954712748528">
        <ele>2003.04</ele>
        <time>2018-06-10T09:37:55Z</time>
      </trkpt>
      <trkpt lat="45.745822498574853" lon="10.858940798789263">
        <ele>2003.04</ele>
        <time>2018-06-10T09:38:08Z</time>
      </trkpt>
      <trkpt lat="45.745830042287707" lon="10.858950857073069">
        <ele>2003.04</ele>
        <time>2018-06-10T09:38:26Z</time>
      </trkpt>
      <trkpt lat="45.745839094743133" lon="10.858960160985589">
        <ele>2003.04</ele>
        <time>2018-06-10T09:38:45Z</time>
      </trkpt>
      <trkpt lat="45.745835658162832" lon="10.858963932842016">
        <ele>2002.5599999999999</ele>
        <time>2018-06-10T09:39:05Z</time>
      </trkpt>
      <trkpt lat="45.745824091136456" lon="10.858937362208962">
        <ele>2002.5599999999999</ele>
        <time>2018-06-10T09:39:20Z</time>
      </trkpt>
      <trkpt lat="45.745817637071013" lon="10.858948929235339">
        <ele>2002.5599999999999</ele>
        <time>2018-06-10T09:39:35Z</time>
      </trkpt>
      <trkpt lat="45.745834484696388" lon="10.858951695263386">
        <ele>2003.52</ele>
        <time>2018-06-10T09:39:56Z</time>
      </trkpt>
      <trkpt lat="45.745844878256321" lon="10.858965609222651">
        <ele>2003.04</ele>
        <time>2018-06-10T09:40:10Z</time>
      </trkpt>
      <trkpt lat="45.745833646506071" lon="10.858956137672067">
        <ele>2003.04</ele>
        <time>2018-06-10T09:40:26Z</time>
      </trkpt>
      <trkpt lat="45.74582819826901" lon="10.85896803997457">
        <ele>2003.52</ele>
        <time>2018-06-10T09:40:42Z</time>
      </trkpt>
      <trkpt lat="45.745814116671681" lon="10.858952198177576">
        <ele>2003.52</ele>
        <time>2018-06-10T09:41:04Z</time>
      </trkpt>
      <trkpt lat="45.745820235460997" lon="10.858961082994938">
        <ele>2003.52</ele>
        <time>2018-06-10T09:41:24Z</time>
      </trkpt>
      <trkpt lat="45.745832053944468" lon="10.858960831537843">
        <ele>2003.52</ele>
        <time>2018-06-10T09:41:41Z</time>
      </trkpt>
      <trkpt lat="45.745834149420261" lon="10.858931327238679">
        <ele>2003.52</ele>
        <time>2018-06-10T09:41:59Z</time>
      </trkpt>
      <trkpt lat="45.745837921276689" lon="10.858957478776574">
        <ele>2003.04</ele>
        <time>2018-06-10T09:42:08Z</time>
      </trkpt>
      <trkpt lat="45.745838256552815" lon="10.858966531231999">
        <ele>2003.52</ele>
        <time>2018-06-10T09:42:16Z</time>
      </trkpt>
      <trkpt lat="45.745830377563834" lon="10.858979187905788">
        <ele>2003.52</ele>
        <time>2018-06-10T09:42:27Z</time>
      </trkpt>
      <trkpt lat="45.745832389220595" lon="10.858971979469061">
        <ele>2003.52</ele>
        <time>2018-06-10T09:42:43Z</time>
      </trkpt>
      <trkpt lat="45.745824174955487" lon="10.858965944498777">
        <ele>2003.52</ele>
        <time>2018-06-10T09:43:00Z</time>
      </trkpt>
      <trkpt lat="45.745832556858659" lon="10.858952952548862">
        <ele>2003.52</ele>
        <time>2018-06-10T09:43:18Z</time>
      </trkpt>
      <trkpt lat="45.745831802487373" lon="10.85895043797791">
        <ele>2004.01</ele>
        <time>2018-06-10T09:43:34Z</time>
      </trkpt>
      <trkpt lat="45.745829036459327" lon="10.858957814052701">
        <ele>2003.52</ele>
        <time>2018-06-10T09:43:51Z</time>
      </trkpt>
      <trkpt lat="45.745825013145804" lon="10.858967453241348">
        <ele>2004.01</ele>
        <time>2018-06-10T09:44:04Z</time>
      </trkpt>
      <trkpt lat="45.745829371735454" lon="10.858964938670397">
        <ele>2004.01</ele>
        <time>2018-06-10T09:44:21Z</time>
      </trkpt>
      <trkpt lat="45.745829874649644" lon="10.858961082994938">
        <ele>2004.01</ele>
        <time>2018-06-10T09:44:41Z</time>
      </trkpt>
      <trkpt lat="45.74582970701158" lon="10.858960077166557">
        <ele>2004.01</ele>
        <time>2018-06-10T09:44:55Z</time>
      </trkpt>
      <trkpt lat="45.745827611535788" lon="10.858971057459712">
        <ele>2004.01</ele>
        <time>2018-06-10T09:45:13Z</time>
      </trkpt>
      <trkpt lat="45.745824510231614" lon="10.858964351937175">
        <ele>2004.49</ele>
        <time>2018-06-10T09:45:34Z</time>
      </trkpt>
      <trkpt lat="45.745827527716756" lon="10.858966698870063">
        <ele>2004.49</ele>
        <time>2018-06-10T09:45:56Z</time>
      </trkpt>
      <trkpt lat="45.745812859386206" lon="10.858963932842016">
        <ele>2004.49</ele>
        <time>2018-06-10T09:46:17Z</time>
      </trkpt>
      <trkpt lat="45.745751168578863" lon="10.858991676941514">
        <ele>2004.97</ele>
        <time>2018-06-10T09:46:27Z</time>
      </trkpt>
      <trkpt lat="45.745686376467347" lon="10.859008273109794">
        <ele>2005.45</ele>
        <time>2018-06-10T09:46:36Z</time>
      </trkpt>
      <trkpt lat="45.745607670396566" lon="10.859021181240678">
        <ele>2005.45</ele>
        <time>2018-06-10T09:46:45Z</time>
      </trkpt>
      <trkpt lat="45.74556827545166" lon="10.858987402170897">
        <ele>2006.8900000000001</ele>
        <time>2018-06-10T09:46:54Z</time>
      </trkpt>
      <trkpt lat="45.74551354162395" lon="10.858982037752867">
        <ele>2008.3299999999999</ele>
        <time>2018-06-10T09:47:02Z</time>
      </trkpt>
      <trkpt lat="45.745443049818277" lon="10.858990168198943">
        <ele>2009.77</ele>
        <time>2018-06-10T09:47:12Z</time>
      </trkpt>
      <trkpt lat="45.745389154180884" lon="10.85900709964335">
        <ele>2011.22</ele>
        <time>2018-06-10T09:47:21Z</time>
      </trkpt>
      <trkpt lat="45.745353614911437" lon="10.858979942277074">
        <ele>2012.1800000000001</ele>
        <time>2018-06-10T09:47:28Z</time>
      </trkpt>
      <trkpt lat="45.745295695960522" lon="10.858958819881082">
        <ele>2013.1400000000001</ele>
        <time>2018-06-10T09:47:38Z</time>
      </trkpt>
      <trkpt lat="45.745245655998588" lon="10.858976086601615">
        <ele>2014.0999999999999</ele>
        <time>2018-06-10T09:47:49Z</time>
      </trkpt>
      <trkpt lat="45.745201986283064" lon="10.85895337164402">
        <ele>2015.54</ele>
        <time>2018-06-10T09:47:58Z</time>
      </trkpt>
      <trkpt lat="45.745145743712783" lon="10.858935099095106">
        <ele>2016.5</ele>
        <time>2018-06-10T09:48:08Z</time>
      </trkpt>
      <trkpt lat="45.745079694315791" lon="10.858886232599616">
        <ele>2017.46</ele>
        <time>2018-06-10T09:48:20Z</time>
      </trkpt>
      <trkpt lat="45.745012136176229" lon="10.858879443258047">
        <ele>2019.3900000000001</ele>
        <time>2018-06-10T09:48:30Z</time>
      </trkpt>
      <trkpt lat="45.744966706261039" lon="10.858874665573239">
        <ele>2020.3499999999999</ele>
        <time>2018-06-10T09:48:40Z</time>
      </trkpt>
      <trkpt lat="45.744939548894763" lon="10.858816746622324">
        <ele>2022.75</ele>
        <time>2018-06-10T09:48:50Z</time>
      </trkpt>
      <trkpt lat="45.744919097051024" lon="10.858784895390272">
        <ele>2024.1900000000001</ele>
        <time>2018-06-10T09:48:59Z</time>
      </trkpt>
      <trkpt lat="45.744881043210626" lon="10.858804676681757">
        <ele>2026.1199999999999</ele>
        <time>2018-06-10T09:49:11Z</time>
      </trkpt>
      <trkpt lat="45.744830165058374" lon="10.858787158504128">
        <ele>2027.5599999999999</ele>
        <time>2018-06-10T09:49:22Z</time>
      </trkpt>
      <trkpt lat="45.744770234450698" lon="10.858784979209304">
        <ele>2028.52</ele>
        <time>2018-06-10T09:49:32Z</time>
      </trkpt>
      <trkpt lat="45.744738886132836" lon="10.858751703053713">
        <ele>2029.48</ele>
        <time>2018-06-10T09:49:39Z</time>
      </trkpt>
      <trkpt lat="45.744740813970566" lon="10.858688000589609">
        <ele>2030.9200000000001</ele>
        <time>2018-06-10T09:49:49Z</time>
      </trkpt>
      <trkpt lat="45.744702089577913" lon="10.858676265925169">
        <ele>2032.3599999999999</ele>
        <time>2018-06-10T09:50:00Z</time>
      </trkpt>
      <trkpt lat="45.744638973847032" lon="10.858673918992281">
        <ele>2033.8099999999999</ele>
        <time>2018-06-10T09:50:11Z</time>
      </trkpt>
      <trkpt lat="45.744614331051707" lon="10.858627986162901">
        <ele>2034.77</ele>
        <time>2018-06-10T09:50:20Z</time>
      </trkpt>
      <trkpt lat="45.744563201442361" lon="10.858605187386274">
        <ele>2036.21</ele>
        <time>2018-06-10T09:50:29Z</time>
      </trkpt>
      <trkpt lat="45.744506288319826" lon="10.858615832403302">
        <ele>2037.1700000000001</ele>
        <time>2018-06-10T09:50:38Z</time>
      </trkpt>
      <trkpt lat="45.744464630261064" lon="10.858610719442368">
        <ele>2037.6500000000001</ele>
        <time>2018-06-10T09:50:47Z</time>
      </trkpt>
      <trkpt lat="45.744446190074086" lon="10.858598398044705">
        <ele>2038.1300000000001</ele>
        <time>2018-06-10T09:50:55Z</time>
      </trkpt>
      <trkpt lat="45.744456583634019" lon="10.858554979786277">
        <ele>2038.6099999999999</ele>
        <time>2018-06-10T09:51:05Z</time>
      </trkpt>
      <trkpt lat="45.744432611390948" lon="10.858582388609648">
        <ele>2038.6099999999999</ele>
        <time>2018-06-10T09:51:18Z</time>
      </trkpt>
      <trkpt lat="45.744382152333856" lon="10.858563864603639">
        <ele>2040.54</ele>
        <time>2018-06-10T09:51:29Z</time>
      </trkpt>
      <trkpt lat="45.744353318586946" lon="10.85856294259429">
        <ele>2041.5</ele>
        <time>2018-06-10T09:51:37Z</time>
      </trkpt>
      <trkpt lat="45.744284503161907" lon="10.858543748036027">
        <ele>2041.98</ele>
        <time>2018-06-10T09:51:47Z</time>
      </trkpt>
      <trkpt lat="45.744217950850725" lon="10.858454061672091">
        <ele>2043.4200000000001</ele>
        <time>2018-06-10T09:51:58Z</time>
      </trkpt>
      <trkpt lat="45.74417713098228" lon="10.85841198451817">
        <ele>2044.8599999999999</ele>
        <time>2018-06-10T09:52:07Z</time>
      </trkpt>
      <trkpt lat="45.74414930306375" lon="10.858333697542548">
        <ele>2046.78</ele>
        <time>2018-06-10T09:52:16Z</time>
      </trkpt>
      <trkpt lat="45.744092725217342" lon="10.858317352831364">
        <ele>2048.71</ele>
        <time>2018-06-10T09:52:25Z</time>
      </trkpt>
      <trkpt lat="45.744061628356576" lon="10.85831425152719">
        <ele>2049.6700000000001</ele>
        <time>2018-06-10T09:52:35Z</time>
      </trkpt>
      <trkpt lat="45.744027681648731" lon="10.858315005898476">
        <ele>2050.1500000000001</ele>
        <time>2018-06-10T09:52:44Z</time>
      </trkpt>
      <trkpt lat="45.743998009711504" lon="10.858306791633368">
        <ele>2051.5900000000001</ele>
        <time>2018-06-10T09:52:54Z</time>
      </trkpt>
      <trkpt lat="45.743948556482792" lon="10.858290195465088">
        <ele>2053.5100000000002</ele>
        <time>2018-06-10T09:53:05Z</time>
      </trkpt>
      <trkpt lat="45.743912430480123" lon="10.858261110261083">
        <ele>2054.96</ele>
        <time>2018-06-10T09:53:15Z</time>
      </trkpt>
      <trkpt lat="45.743892900645733" lon="10.858228839933872">
        <ele>2056.4000000000001</ele>
        <time>2018-06-10T09:53:23Z</time>
      </trkpt>
      <trkpt lat="45.743872700259089" lon="10.85819841362536">
        <ele>2057.8400000000001</ele>
        <time>2018-06-10T09:53:30Z</time>
      </trkpt>
      <trkpt lat="45.743831880390644" lon="10.85815985687077">
        <ele>2058.8000000000002</ele>
        <time>2018-06-10T09:53:39Z</time>
      </trkpt>
      <trkpt lat="45.74377111159265" lon="10.858139488846064">
        <ele>2058.8000000000002</ele>
        <time>2018-06-10T09:53:48Z</time>
      </trkpt>
      <trkpt lat="45.74375543743372" lon="10.85810705088079">
        <ele>2059.2800000000002</ele>
        <time>2018-06-10T09:53:56Z</time>
      </trkpt>
      <trkpt lat="45.74376130476594" lon="10.858084168285131">
        <ele>2059.2800000000002</ele>
        <time>2018-06-10T09:54:09Z</time>
      </trkpt>
      <trkpt lat="45.74373247101903" lon="10.85804452188313">
        <ele>2060.2399999999998</ele>
        <time>2018-06-10T09:54:17Z</time>
      </trkpt>
      <trkpt lat="45.74371587485075" lon="10.858025914058089">
        <ele>2061.1999999999998</ele>
        <time>2018-06-10T09:54:21Z</time>
      </trkpt>
      <trkpt lat="45.743699111044407" lon="10.857965480536222">
        <ele>2061.1999999999998</ele>
        <time>2018-06-10T09:54:26Z</time>
      </trkpt>
      <trkpt lat="45.743677401915193" lon="10.85791259072721">
        <ele>2062.1700000000001</ele>
        <time>2018-06-10T09:54:36Z</time>
      </trkpt>
      <trkpt lat="45.743671786040068" lon="10.857870848849416">
        <ele>2062.6500000000001</ele>
        <time>2018-06-10T09:54:46Z</time>
      </trkpt>
      <trkpt lat="45.743628451600671" lon="10.857865400612354">
        <ele>2064.5700000000002</ele>
        <time>2018-06-10T09:54:54Z</time>
      </trkpt>
      <trkpt lat="45.743572963401675" lon="10.857814606279135">
        <ele>2064.5700000000002</ele>
        <time>2018-06-10T09:55:07Z</time>
      </trkpt>
      <trkpt lat="45.743554523214698" lon="10.857740007340908">
        <ele>2063.6100000000001</ele>
        <time>2018-06-10T09:55:15Z</time>
      </trkpt>
      <trkpt lat="45.743532227352262" lon="10.857704887166619">
        <ele>2063.1300000000001</ele>
        <time>2018-06-10T09:55:25Z</time>
      </trkpt>
      <trkpt lat="45.743493335321546" lon="10.857676807790995">
        <ele>2063.6100000000001</ele>
        <time>2018-06-10T09:55:34Z</time>
      </trkpt>
      <trkpt lat="45.743445809930563" lon="10.857610087841749">
        <ele>2063.6100000000001</ele>
        <time>2018-06-10T09:55:44Z</time>
      </trkpt>
      <trkpt lat="45.743397530168295" lon="10.857569016516209">
        <ele>2065.0500000000002</ele>
        <time>2018-06-10T09:55:57Z</time>
      </trkpt>
      <trkpt lat="45.743356123566628" lon="10.857570441439748">
        <ele>2066.9699999999998</ele>
        <time>2018-06-10T09:56:07Z</time>
      </trkpt>
      <trkpt lat="45.743352519348264" lon="10.85757932625711">
        <ele>2066.9699999999998</ele>
        <time>2018-06-10T09:56:17Z</time>
      </trkpt>
      <trkpt lat="45.743321673944592" lon="10.857537165284157">
        <ele>2069.3800000000001</ele>
        <time>2018-06-10T09:56:27Z</time>
      </trkpt>
      <trkpt lat="45.743283368647099" lon="10.857511181384325">
        <ele>2071.3000000000002</ele>
        <time>2018-06-10T09:56:35Z</time>
      </trkpt>
      <trkpt lat="45.743245482444763" lon="10.85749190300703">
        <ele>2071.7800000000002</ele>
        <time>2018-06-10T09:56:45Z</time>
      </trkpt>
      <trkpt lat="45.743218408897519" lon="10.857446305453777">
        <ele>2073.6999999999998</ele>
        <time>2018-06-10T09:56:57Z</time>
      </trkpt>
      <trkpt lat="45.74318278580904" lon="10.85739710368216">
        <ele>2075.1399999999999</ele>
        <time>2018-06-10T09:57:07Z</time>
      </trkpt>
      <trkpt lat="45.743126543238759" lon="10.857352260500193">
        <ele>2076.5900000000001</ele>
        <time>2018-06-10T09:57:19Z</time>
      </trkpt>
      <trkpt lat="45.743098547682166" lon="10.857295095920563">
        <ele>2078.0300000000002</ele>
        <time>2018-06-10T09:57:28Z</time>
      </trkpt>
      <trkpt lat="45.743091339245439" lon="10.85723583586514">
        <ele>2079.4699999999998</ele>
        <time>2018-06-10T09:57:40Z</time>
      </trkpt>
      <trkpt lat="45.743075916543603" lon="10.857214462012053">
        <ele>2079.9499999999998</ele>
        <time>2018-06-10T09:57:44Z</time>
      </trkpt>
      <trkpt lat="45.743048507720232" lon="10.857189316302538">
        <ele>2079.9499999999998</ele>
        <time>2018-06-10T09:57:48Z</time>
      </trkpt>
      <trkpt lat="45.74296829290688" lon="10.857100719586015">
        <ele>2078.9899999999998</ele>
        <time>2018-06-10T09:58:00Z</time>
      </trkpt>
      <trkpt lat="45.742894113063812" lon="10.857040956616402">
        <ele>2078.5100000000002</ele>
        <time>2018-06-10T09:58:09Z</time>
      </trkpt>
      <trkpt lat="45.742811718955636" lon="10.857024863362312">
        <ele>2079.9499999999998</ele>
        <time>2018-06-10T09:58:21Z</time>
      </trkpt>
      <trkpt lat="45.742766875773668" lon="10.856975326314569">
        <ele>2080.9099999999999</ele>
        <time>2018-06-10T09:58:30Z</time>
      </trkpt>
      <trkpt lat="45.742750447243452" lon="10.856871223077178">
        <ele>2081.8699999999999</ele>
        <time>2018-06-10T09:58:40Z</time>
      </trkpt>
      <trkpt lat="45.742730917409062" lon="10.856714816763997">
        <ele>2081.8699999999999</ele>
        <time>2018-06-10T09:58:54Z</time>
      </trkpt>
      <trkpt lat="45.742695042863488" lon="10.856662513688207">
        <ele>2080.4299999999998</ele>
        <time>2018-06-10T09:59:05Z</time>
      </trkpt>
      <trkpt lat="45.742650283500552" lon="10.856616916134953">
        <ele>2080.9099999999999</ele>
        <time>2018-06-10T09:59:12Z</time>
      </trkpt>
      <trkpt lat="45.742632430046797" lon="10.856434274464846">
        <ele>2079.4699999999998</ele>
        <time>2018-06-10T09:59:24Z</time>
      </trkpt>
      <trkpt lat="45.742620695382357" lon="10.856388844549656">
        <ele>2079.4699999999998</ele>
        <time>2018-06-10T09:59:35Z</time>
      </trkpt>
      <trkpt lat="45.742613319307566" lon="10.856361268088222">
        <ele>2079.4699999999998</ele>
        <time>2018-06-10T09:59:48Z</time>
      </trkpt>
      <trkpt lat="45.742607871070504" lon="10.856320699676871">
        <ele>2079.4699999999998</ele>
        <time>2018-06-10T09:59:57Z</time>
      </trkpt>
      <trkpt lat="45.742602171376348" lon="10.856313910335302">
        <ele>2080.4299999999998</ele>
        <time>2018-06-10T10:00:07Z</time>
      </trkpt>
      <trkpt lat="45.742582054808736" lon="10.856324136257172">
        <ele>2079.9499999999998</ele>
        <time>2018-06-10T10:00:18Z</time>
      </trkpt>
      <trkpt lat="45.742575936019421" lon="10.8562898542732">
        <ele>2080.4299999999998</ele>
        <time>2018-06-10T10:00:31Z</time>
      </trkpt>
      <trkpt lat="45.742570152506232" lon="10.856294296681881">
        <ele>2080.9099999999999</ele>
        <time>2018-06-10T10:00:44Z</time>
      </trkpt>
      <trkpt lat="45.742560178041458" lon="10.856268983334303">
        <ele>2082.3499999999999</ele>
        <time>2018-06-10T10:00:58Z</time>
      </trkpt>
      <trkpt lat="45.742551125586033" lon="10.856239227578044">
        <ele>2082.8299999999999</ele>
        <time>2018-06-10T10:01:10Z</time>
      </trkpt>
      <trkpt lat="45.742558250203729" lon="10.856203772127628">
        <ele>2083.79</ele>
        <time>2018-06-10T10:01:25Z</time>
      </trkpt>
      <trkpt lat="45.742545425891876" lon="10.856177033856511">
        <ele>2085.2399999999998</ele>
        <time>2018-06-10T10:01:35Z</time>
      </trkpt>
      <trkpt lat="45.742525141686201" lon="10.856152223423123">
        <ele>2087.1599999999999</ele>
        <time>2018-06-10T10:01:45Z</time>
      </trkpt>
      <trkpt lat="45.74251969344914" lon="10.856152223423123">
        <ele>2087.1599999999999</ele>
        <time>2018-06-10T10:02:00Z</time>
      </trkpt>
      <trkpt lat="45.742524135857821" lon="10.856143422424793">
        <ele>2087.6399999999999</ele>
        <time>2018-06-10T10:02:24Z</time>
      </trkpt>
      <trkpt lat="45.742508377879858" lon="10.856098076328635">
        <ele>2089.0799999999999</ele>
        <time>2018-06-10T10:02:35Z</time>
      </trkpt>
      <trkpt lat="45.742498738691211" lon="10.856028087437153">
        <ele>2091.4899999999998</ele>
        <time>2018-06-10T10:02:44Z</time>
      </trkpt>
      <trkpt lat="45.742485160008073" lon="10.855961451306939">
        <ele>2092.9299999999998</ele>
        <time>2018-06-10T10:02:54Z</time>
      </trkpt>
      <trkpt lat="45.742499325424433" lon="10.855899173766375">
        <ele>2095.3299999999999</ele>
        <time>2018-06-10T10:03:04Z</time>
      </trkpt>
      <trkpt lat="45.742510389536619" lon="10.855842595919967">
        <ele>2097.25</ele>
        <time>2018-06-10T10:03:14Z</time>
      </trkpt>
      <trkpt lat="45.742496475577354" lon="10.855788197368383">
        <ele>2098.6999999999998</ele>
        <time>2018-06-10T10:03:24Z</time>
      </trkpt>
      <trkpt lat="45.74246060103178" lon="10.85576749406755">
        <ele>2100.6199999999999</ele>
        <time>2018-06-10T10:03:34Z</time>
      </trkpt>
      <trkpt lat="45.742451464757323" lon="10.85570840165019">
        <ele>2103.02</ele>
        <time>2018-06-10T10:03:45Z</time>
      </trkpt>
      <trkpt lat="45.742427660152316" lon="10.855682920664549">
        <ele>2103.98</ele>
        <time>2018-06-10T10:03:53Z</time>
      </trkpt>
      <trkpt lat="45.742409890517592" lon="10.855652326717973">
        <ele>2105.4200000000001</ele>
        <time>2018-06-10T10:04:00Z</time>
      </trkpt>
      <trkpt lat="45.742392791435122" lon="10.855622990056872">
        <ele>2105.9099999999999</ele>
        <time>2018-06-10T10:04:07Z</time>
      </trkpt>
      <trkpt lat="45.742375189438462" lon="10.855603627860546">
        <ele>2106.8699999999999</ele>
        <time>2018-06-10T10:04:15Z</time>
      </trkpt>
      <trkpt lat="45.74237460270524" lon="10.85556180216372">
        <ele>2107.8299999999999</ele>
        <time>2018-06-10T10:04:23Z</time>
      </trkpt>
      <trkpt lat="45.742388851940632" lon="10.855534896254539">
        <ele>2108.79</ele>
        <time>2018-06-10T10:04:30Z</time>
      </trkpt>
      <trkpt lat="45.742398658767343" lon="10.855476977303624">
        <ele>2110.23</ele>
        <time>2018-06-10T10:04:39Z</time>
      </trkpt>
      <trkpt lat="45.742385499179363" lon="10.855449987575412">
        <ele>2111.1900000000001</ele>
        <time>2018-06-10T10:04:47Z</time>
      </trkpt>
      <trkpt lat="45.742368819192052" lon="10.855422997847199">
        <ele>2112.1500000000001</ele>
        <time>2018-06-10T10:04:55Z</time>
      </trkpt>
      <trkpt lat="45.742343589663506" lon="10.855366420000792">
        <ele>2113.1199999999999</ele>
        <time>2018-06-10T10:05:04Z</time>
      </trkpt>
      <trkpt lat="45.742337722331285" lon="10.855363653972745">
        <ele>2113.5999999999999</ele>
        <time>2018-06-10T10:05:05Z</time>
      </trkpt>
      <trkpt lat="45.742310648784041" lon="10.855287713930011">
        <ele>2114.5599999999999</ele>
        <time>2018-06-10T10:05:13Z</time>
      </trkpt>
      <trkpt lat="45.742273265495896" lon="10.855248151347041">
        <ele>2116</ele>
        <time>2018-06-10T10:05:23Z</time>
      </trkpt>
      <trkpt lat="45.742220124229789" lon="10.855184784159064">
        <ele>2117.4400000000001</ele>
        <time>2018-06-10T10:05:33Z</time>
      </trkpt>
      <trkpt lat="45.742210485041142" lon="10.855126362293959">
        <ele>2117.9200000000001</ele>
        <time>2018-06-10T10:05:42Z</time>
      </trkpt>
      <trkpt lat="45.742218280211091" lon="10.855123093351722">
        <ele>2118.4000000000001</ele>
        <time>2018-06-10T10:05:55Z</time>
      </trkpt>
      <trkpt lat="45.742214759811759" lon="10.855143629014492">
        <ele>2118.4000000000001</ele>
        <time>2018-06-10T10:06:17Z</time>
      </trkpt>
      <trkpt lat="45.742206377908587" lon="10.855140360072255">
        <ele>2117.9200000000001</ele>
        <time>2018-06-10T10:06:29Z</time>
      </trkpt>
      <trkpt lat="45.742196990177035" lon="10.855107670649886">
        <ele>2117.9200000000001</ele>
        <time>2018-06-10T10:06:38Z</time>
      </trkpt>
      <trkpt lat="45.742189614102244" lon="10.855121249333024">
        <ele>2118.4000000000001</ele>
        <time>2018-06-10T10:06:44Z</time>
      </trkpt>
      <trkpt lat="45.742154661566019" lon="10.855118231847882">
        <ele>2117.9200000000001</ele>
        <time>2018-06-10T10:06:47Z</time>
      </trkpt>
      <trkpt lat="45.742064891383052" lon="10.855098031461239">
        <ele>2118.8800000000001</ele>
        <time>2018-06-10T10:06:57Z</time>
      </trkpt>
      <trkpt lat="45.741993729025126" lon="10.855044135823846">
        <ele>2121.29</ele>
        <time>2018-06-10T10:07:07Z</time>
      </trkpt>
      <trkpt lat="45.741925919428468" lon="10.85501354187727">
        <ele>2122.73</ele>
        <time>2018-06-10T10:07:17Z</time>
      </trkpt>
      <trkpt lat="45.741875292733312" lon="10.854999544098973">
        <ele>2124.1700000000001</ele>
        <time>2018-06-10T10:07:26Z</time>
      </trkpt>
      <trkpt lat="45.741831371560693" lon="10.854977499693632">
        <ele>2125.1300000000001</ele>
        <time>2018-06-10T10:07:35Z</time>
      </trkpt>
      <trkpt lat="45.741763897240162" lon="10.85492460988462">
        <ele>2126.5700000000002</ele>
        <time>2018-06-10T10:07:47Z</time>
      </trkpt>
      <trkpt lat="45.741714611649513" lon="10.854859398677945">
        <ele>2127.0500000000002</ele>
        <time>2018-06-10T10:07:58Z</time>
      </trkpt>
      <trkpt lat="45.741715533658862" lon="10.854782620444894">
        <ele>2127.5300000000002</ele>
        <time>2018-06-10T10:08:06Z</time>
      </trkpt>
      <trkpt lat="45.741690387949347" lon="10.8547736518085">
        <ele>2127.0500000000002</ele>
        <time>2018-06-10T10:08:18Z</time>
      </trkpt>
      <trkpt lat="45.741657027974725" lon="10.854775160551071">
        <ele>2128.5</ele>
        <time>2018-06-10T10:08:27Z</time>
      </trkpt>
      <trkpt lat="45.741643365472555" lon="10.854748506098986">
        <ele>2128.5</ele>
        <time>2018-06-10T10:08:36Z</time>
      </trkpt>
      <trkpt lat="45.741630205884576" lon="10.854738699272275">
        <ele>2128.98</ele>
        <time>2018-06-10T10:08:44Z</time>
      </trkpt>
      <trkpt lat="45.741619560867548" lon="10.854740208014846">
        <ele>2128.98</ele>
        <time>2018-06-10T10:08:57Z</time>
      </trkpt>
      <trkpt lat="45.741616124287248" lon="10.85472964681685">
        <ele>2128.98</ele>
        <time>2018-06-10T10:09:12Z</time>
      </trkpt>
      <trkpt lat="45.741611933335662" lon="10.854729060083628">
        <ele>2128.98</ele>
        <time>2018-06-10T10:09:30Z</time>
      </trkpt>
      <trkpt lat="45.741612100973725" lon="10.85473844781518">
        <ele>2128.98</ele>
        <time>2018-06-10T10:09:43Z</time>
      </trkpt>
      <trkpt lat="45.741621237248182" lon="10.854741549119353">
        <ele>2129.46</ele>
        <time>2018-06-10T10:09:57Z</time>
      </trkpt>
      <trkpt lat="45.741599109023809" lon="10.854718163609505">
        <ele>2128.98</ele>
        <time>2018-06-10T10:10:09Z</time>
      </trkpt>
      <trkpt lat="45.74154588393867" lon="10.85470475256443">
        <ele>2128.5</ele>
        <time>2018-06-10T10:10:22Z</time>
      </trkpt>
      <trkpt lat="45.741523001343012" lon="10.854639541357756">
        <ele>2128.5</ele>
        <time>2018-06-10T10:10:30Z</time>
      </trkpt>
      <trkpt lat="45.74142468161881" lon="10.854551615193486">
        <ele>2127.0500000000002</ele>
        <time>2018-06-10T10:10:44Z</time>
      </trkpt>
      <trkpt lat="45.741368103772402" lon="10.854516411200166">
        <ele>2125.6100000000001</ele>
        <time>2018-06-10T10:10:55Z</time>
      </trkpt>
      <trkpt lat="45.741332480683923" lon="10.854494534432888">
        <ele>2123.6900000000001</ele>
        <time>2018-06-10T10:11:06Z</time>
      </trkpt>
      <trkpt lat="45.74128445237875" lon="10.854489505290985">
        <ele>2121.77</ele>
        <time>2018-06-10T10:11:16Z</time>
      </trkpt>
      <trkpt lat="45.741260731592774" lon="10.854506436735392">
        <ele>2120.3200000000002</ele>
        <time>2018-06-10T10:11:25Z</time>
      </trkpt>
      <trkpt lat="45.74121261946857" lon="10.854440219700336">
        <ele>2118.8800000000001</ele>
        <time>2018-06-10T10:11:35Z</time>
      </trkpt>
      <trkpt lat="45.741159981116652" lon="10.854430077597499">
        <ele>2116.48</ele>
        <time>2018-06-10T10:11:45Z</time>
      </trkpt>
      <trkpt lat="45.741152353584766" lon="10.854438878595829">
        <ele>2116</ele>
        <time>2018-06-10T10:11:48Z</time>
      </trkpt>
      <trkpt lat="45.741130309179425" lon="10.854449607431889">
        <ele>2115.04</ele>
        <time>2018-06-10T10:11:51Z</time>
      </trkpt>
      <trkpt lat="45.741018578410149" lon="10.854398142546415">
        <ele>2113.1199999999999</ele>
        <time>2018-06-10T10:12:04Z</time>
      </trkpt>
      <trkpt lat="45.740962000563741" lon="10.854336367920041">
        <ele>2111.1900000000001</ele>
        <time>2018-06-10T10:12:15Z</time>
      </trkpt>
      <trkpt lat="45.740891927853227" lon="10.854300074279308">
        <ele>2109.75</ele>
        <time>2018-06-10T10:12:27Z</time>
      </trkpt>
      <trkpt lat="45.740856556221843" lon="10.854291692376137">
        <ele>2108.79</ele>
        <time>2018-06-10T10:12:35Z</time>
      </trkpt>
      <trkpt lat="45.74083199724555" lon="10.854310551658273">
        <ele>2107.3499999999999</ele>
        <time>2018-06-10T10:12:44Z</time>
      </trkpt>
      <trkpt lat="45.74080073274672" lon="10.854310635477304">
        <ele>2105.9099999999999</ele>
        <time>2018-06-10T10:12:53Z</time>
      </trkpt>
      <trkpt lat="45.740742897614837" lon="10.854298146441579">
        <ele>2103.98</ele>
        <time>2018-06-10T10:13:04Z</time>
      </trkpt>
      <trkpt lat="45.740712974220514" lon="10.85428942926228">
        <ele>2103.02</ele>
        <time>2018-06-10T10:13:09Z</time>
      </trkpt>
      <trkpt lat="45.740619851276278" lon="10.854247771203518">
        <ele>2101.0999999999999</ele>
        <time>2018-06-10T10:13:20Z</time>
      </trkpt>
      <trkpt lat="45.740515077486634" lon="10.854243328794837">
        <ele>2100.1399999999999</ele>
        <time>2018-06-10T10:13:31Z</time>
      </trkpt>
      <trkpt lat="45.74043670669198" lon="10.854229414835572">
        <ele>2100.6199999999999</ele>
        <time>2018-06-10T10:13:41Z</time>
      </trkpt>
      <trkpt lat="45.740384152159095" lon="10.854248525574803">
        <ele>2100.6199999999999</ele>
        <time>2018-06-10T10:13:49Z</time>
      </trkpt>
      <trkpt lat="45.740340398624539" lon="10.854256739839911">
        <ele>2100.1399999999999</ele>
        <time>2018-06-10T10:13:58Z</time>
      </trkpt>
      <trkpt lat="45.740307122468948" lon="10.854254644364119">
        <ele>2099.6599999999999</ele>
        <time>2018-06-10T10:14:07Z</time>
      </trkpt>
      <trkpt lat="45.740269739180803" lon="10.854298733174801">
        <ele>2097.73</ele>
        <time>2018-06-10T10:14:17Z</time>
      </trkpt>
      <trkpt lat="45.74025833979249" lon="10.854319185018539">
        <ele>2096.77</ele>
        <time>2018-06-10T10:14:19Z</time>
      </trkpt>
      <trkpt lat="45.740179466083646" lon="10.854279370978475">
        <ele>2094.8499999999999</ele>
        <time>2018-06-10T10:14:31Z</time>
      </trkpt>
      <trkpt lat="45.740138730034232" lon="10.854273336008191">
        <ele>2092.9299999999998</ele>
        <time>2018-06-10T10:14:40Z</time>
      </trkpt>
      <trkpt lat="45.740096066147089" lon="10.854201503098011">
        <ele>2090.52</ele>
        <time>2018-06-10T10:14:52Z</time>
      </trkpt>
      <trkpt lat="45.740035381168127" lon="10.854148613288999">
        <ele>2089.0799999999999</ele>
        <time>2018-06-10T10:15:01Z</time>
      </trkpt>
      <trkpt lat="45.739922560751438" lon="10.854051802307367">
        <ele>2088.1199999999999</ele>
        <time>2018-06-10T10:15:15Z</time>
      </trkpt>
      <trkpt lat="45.739867575466633" lon="10.854016430675983">
        <ele>2088.1199999999999</ele>
        <time>2018-06-10T10:15:26Z</time>
      </trkpt>
      <trkpt lat="45.739846033975482" lon="10.854014083743095">
        <ele>2087.1599999999999</ele>
        <time>2018-06-10T10:15:35Z</time>
      </trkpt>
      <trkpt lat="45.739831533282995" lon="10.854023303836584">
        <ele>2086.6799999999998</ele>
        <time>2018-06-10T10:15:44Z</time>
      </trkpt>
      <trkpt lat="45.739804292097688" lon="10.854004444554448">
        <ele>2085.7199999999998</ele>
        <time>2018-06-10T10:15:56Z</time>
      </trkpt>
      <trkpt lat="45.739788366481662" lon="10.85400452837348">
        <ele>2084.7600000000002</ele>
        <time>2018-06-10T10:16:06Z</time>
      </trkpt>
      <trkpt lat="45.739771267399192" lon="10.85399966686964">
        <ele>2083.3099999999999</ele>
        <time>2018-06-10T10:16:15Z</time>
      </trkpt>
      <trkpt lat="45.739756263792515" lon="10.853998828679323">
        <ele>2081.8699999999999</ele>
        <time>2018-06-10T10:16:25Z</time>
      </trkpt>
      <trkpt lat="45.739729441702366" lon="10.854013413190842">
        <ele>2080.4299999999998</ele>
        <time>2018-06-10T10:16:34Z</time>
      </trkpt>
      <trkpt lat="45.739697841927409" lon="10.854036379605532">
        <ele>2078.5100000000002</ele>
        <time>2018-06-10T10:16:44Z</time>
      </trkpt>
      <trkpt lat="45.739687951281667" lon="10.854077031835914">
        <ele>2077.0700000000002</ele>
        <time>2018-06-10T10:16:54Z</time>
      </trkpt>
      <trkpt lat="45.739680407568812" lon="10.854092035442591">
        <ele>2076.5900000000001</ele>
        <time>2018-06-10T10:16:58Z</time>
      </trkpt>
      <trkpt lat="45.739611005410552" lon="10.854106200858951">
        <ele>2074.6599999999999</ele>
        <time>2018-06-10T10:17:07Z</time>
      </trkpt>
      <trkpt lat="45.739566748961806" lon="10.854077450931072">
        <ele>2073.2199999999998</ele>
        <time>2018-06-10T10:17:17Z</time>
      </trkpt>
      <trkpt lat="45.739553505554795" lon="10.854080971330404">
        <ele>2073.2199999999998</ele>
        <time>2018-06-10T10:17:28Z</time>
      </trkpt>
      <trkpt lat="45.739542776718736" lon="10.854067308828235">
        <ele>2072.7399999999998</ele>
        <time>2018-06-10T10:17:43Z</time>
      </trkpt>
      <trkpt lat="45.739524839445949" lon="10.854075439274311">
        <ele>2071.7800000000002</ele>
        <time>2018-06-10T10:17:53Z</time>
      </trkpt>
      <trkpt lat="45.739518972113729" lon="10.854075271636248">
        <ele>2071.7800000000002</ele>
        <time>2018-06-10T10:17:54Z</time>
      </trkpt>
      <trkpt lat="45.739447390660644" lon="10.85402405820787">
        <ele>2071.3000000000002</ele>
        <time>2018-06-10T10:18:04Z</time>
      </trkpt>
      <trkpt lat="45.739401122555137" lon="10.854000169783831">
        <ele>2072.7399999999998</ele>
        <time>2018-06-10T10:18:14Z</time>
      </trkpt>
      <trkpt lat="45.739372707903385" lon="10.85400452837348">
        <ele>2070.8200000000002</ele>
        <time>2018-06-10T10:18:25Z</time>
      </trkpt>
      <trkpt lat="45.739362481981516" lon="10.85402213037014">
        <ele>2070.3400000000001</ele>
        <time>2018-06-10T10:18:34Z</time>
      </trkpt>
      <trkpt lat="45.739343035966158" lon="10.85401969961822">
        <ele>2069.3800000000001</ele>
        <time>2018-06-10T10:18:43Z</time>
      </trkpt>
      <trkpt lat="45.739329792559147" lon="10.85399279370904">
        <ele>2068.4099999999999</ele>
        <time>2018-06-10T10:18:53Z</time>
      </trkpt>
      <trkpt lat="45.739287799224257" lon="10.853973347693682">
        <ele>2066.4899999999998</ele>
        <time>2018-06-10T10:19:03Z</time>
      </trkpt>
      <trkpt lat="45.739241279661655" lon="10.853907382115722">
        <ele>2064.5700000000002</ele>
        <time>2018-06-10T10:19:13Z</time>
      </trkpt>
      <trkpt lat="45.739182606339455" lon="10.853917524218559">
        <ele>2064.0900000000001</ele>
        <time>2018-06-10T10:19:23Z</time>
      </trkpt>
      <trkpt lat="45.739164669066668" lon="10.853925570845604">
        <ele>2063.6100000000001</ele>
        <time>2018-06-10T10:19:33Z</time>
      </trkpt>
      <trkpt lat="45.739129381254315" lon="10.853952560573816">
        <ele>2061.1999999999998</ele>
        <time>2018-06-10T10:19:43Z</time>
      </trkpt>
      <trkpt lat="45.739124771207571" lon="10.853957924991846">
        <ele>2061.1999999999998</ele>
        <time>2018-06-10T10:19:44Z</time>
      </trkpt>
      <trkpt lat="45.739061655476689" lon="10.853896318003535">
        <ele>2060.2399999999998</ele>
        <time>2018-06-10T10:19:55Z</time>
      </trkpt>
      <trkpt lat="45.73904799297452" lon="10.853885337710381">
        <ele>2060.7199999999998</ele>
        <time>2018-06-10T10:19:58Z</time>
      </trkpt>
      <trkpt lat="45.738980602473021" lon="10.853872010484338">
        <ele>2060.7199999999998</ele>
        <time>2018-06-10T10:20:09Z</time>
      </trkpt>
      <trkpt lat="45.738959899172187" lon="10.853877626359463">
        <ele>2060.2399999999998</ele>
        <time>2018-06-10T10:20:18Z</time>
      </trkpt>
      <trkpt lat="45.73893609456718" lon="10.853860778734088">
        <ele>2059.2800000000002</ele>
        <time>2018-06-10T10:20:30Z</time>
      </trkpt>
      <trkpt lat="45.738933496177197" lon="10.853876369073987">
        <ele>2058.3200000000002</ele>
        <time>2018-06-10T10:20:38Z</time>
      </trkpt>
      <trkpt lat="45.738912541419268" lon="10.853888858109713">
        <ele>2057.3600000000001</ele>
        <time>2018-06-10T10:20:47Z</time>
      </trkpt>
      <trkpt lat="45.738882785663009" lon="10.853888941928744">
        <ele>2056.4000000000001</ele>
        <time>2018-06-10T10:20:55Z</time>
      </trkpt>
      <trkpt lat="45.738832242786884" lon="10.85385549813509">
        <ele>2054.4699999999998</ele>
        <time>2018-06-10T10:21:05Z</time>
      </trkpt>
      <trkpt lat="45.738801397383213" lon="10.853861784562469">
        <ele>2053.0300000000002</ele>
        <time>2018-06-10T10:21:16Z</time>
      </trkpt>
      <trkpt lat="45.738755883648992" lon="10.853831944987178">
        <ele>2051.5900000000001</ele>
        <time>2018-06-10T10:21:27Z</time>
      </trkpt>
      <trkpt lat="45.738701233640313" lon="10.853766482323408">
        <ele>2049.6700000000001</ele>
        <time>2018-06-10T10:21:37Z</time>
      </trkpt>
      <trkpt lat="45.738628730177879" lon="10.853716023266315">
        <ele>2048.23</ele>
        <time>2018-06-10T10:21:51Z</time>
      </trkpt>
      <trkpt lat="45.738605009391904" lon="10.853649135679007">
        <ele>2047.75</ele>
        <time>2018-06-10T10:22:00Z</time>
      </trkpt>
      <trkpt lat="45.738585228100419" lon="10.853603538125753">
        <ele>2047.75</ele>
        <time>2018-06-10T10:22:09Z</time>
      </trkpt>
      <trkpt lat="45.738542648032308" lon="10.853538410738111">
        <ele>2046.78</ele>
        <time>2018-06-10T10:22:19Z</time>
      </trkpt>
      <trkpt lat="45.738500989973545" lon="10.853533381596208">
        <ele>2046.3</ele>
        <time>2018-06-10T10:22:28Z</time>
      </trkpt>
      <trkpt lat="45.738474084064364" lon="10.853492729365826">
        <ele>2046.3</ele>
        <time>2018-06-10T10:22:39Z</time>
      </trkpt>
      <trkpt lat="45.738441478461027" lon="10.853486275300384">
        <ele>2045.8199999999999</ele>
        <time>2018-06-10T10:22:44Z</time>
      </trkpt>
      <trkpt lat="45.738396216183901" lon="10.853482922539115">
        <ele>2045.8199999999999</ele>
        <time>2018-06-10T10:22:56Z</time>
      </trkpt>
      <trkpt lat="45.738375009968877" lon="10.853477055206895">
        <ele>2047.26</ele>
        <time>2018-06-10T10:23:08Z</time>
      </trkpt>
      <trkpt lat="45.738363862037659" lon="10.853481832891703">
        <ele>2046.78</ele>
        <time>2018-06-10T10:23:22Z</time>
      </trkpt>
      <trkpt lat="45.738341649994254" lon="10.853460039943457">
        <ele>2045.8199999999999</ele>
        <time>2018-06-10T10:23:33Z</time>
      </trkpt>
      <trkpt lat="45.738317761570215" lon="10.853441096842289">
        <ele>2044.3800000000001</ele>
        <time>2018-06-10T10:23:42Z</time>
      </trkpt>
      <trkpt lat="45.738298567011952" lon="10.853429529815912">
        <ele>2043.4200000000001</ele>
        <time>2018-06-10T10:23:52Z</time>
      </trkpt>
      <trkpt lat="45.738263782113791" lon="10.853423411026597">
        <ele>2041.5</ele>
        <time>2018-06-10T10:24:03Z</time>
      </trkpt>
      <trkpt lat="45.738239893689752" lon="10.853442940860987">
        <ele>2039.5699999999999</ele>
        <time>2018-06-10T10:24:14Z</time>
      </trkpt>
      <trkpt lat="45.73817728087306" lon="10.853453502058983">
        <ele>2037.1700000000001</ele>
        <time>2018-06-10T10:24:24Z</time>
      </trkpt>
      <trkpt lat="45.738163869827986" lon="10.853449478745461">
        <ele>2036.21</ele>
        <time>2018-06-10T10:24:31Z</time>
      </trkpt>
      <trkpt lat="45.738134784623981" lon="10.853452999144793">
        <ele>2034.77</ele>
        <time>2018-06-10T10:24:41Z</time>
      </trkpt>
      <trkpt lat="45.738110058009624" lon="10.853442773222923">
        <ele>2034.29</ele>
        <time>2018-06-10T10:24:44Z</time>
      </trkpt>
      <trkpt lat="45.738048451021314" lon="10.853394912555814">
        <ele>2033.3299999999999</ele>
        <time>2018-06-10T10:24:54Z</time>
      </trkpt>
      <trkpt lat="45.737974522635341" lon="10.853377981111407">
        <ele>2031.4000000000001</ele>
        <time>2018-06-10T10:25:04Z</time>
      </trkpt>
      <trkpt lat="45.737942671403289" lon="10.853349063545465">
        <ele>2031.4000000000001</ele>
        <time>2018-06-10T10:25:13Z</time>
      </trkpt>
      <trkpt lat="45.73791534639895" lon="10.853312518447638">
        <ele>2030.9200000000001</ele>
        <time>2018-06-10T10:25:21Z</time>
      </trkpt>
      <trkpt lat="45.737836137413979" lon="10.853266753256321">
        <ele>2031.4000000000001</ele>
        <time>2018-06-10T10:25:32Z</time>
      </trkpt>
      <trkpt lat="45.73779514990747" lon="10.853284522891045">
        <ele>2032.3599999999999</ele>
        <time>2018-06-10T10:25:41Z</time>
      </trkpt>
      <trkpt lat="45.737786684185266" lon="10.853271698579192">
        <ele>2032.8399999999999</ele>
        <time>2018-06-10T10:25:43Z</time>
      </trkpt>
      <trkpt lat="45.7377262506634" lon="10.853250492364168">
        <ele>2032.3599999999999</ele>
        <time>2018-06-10T10:25:51Z</time>
      </trkpt>
      <trkpt lat="45.737653831019998" lon="10.853166840970516">
        <ele>2033.3299999999999</ele>
        <time>2018-06-10T10:26:02Z</time>
      </trkpt>
      <trkpt lat="45.737581495195627" lon="10.853106994181871">
        <ele>2034.29</ele>
        <time>2018-06-10T10:26:12Z</time>
      </trkpt>
      <trkpt lat="45.737516870722175" lon="10.853080423548818">
        <ele>2034.77</ele>
        <time>2018-06-10T10:26:21Z</time>
      </trkpt>
      <trkpt lat="45.737429866567254" lon="10.853050667792559">
        <ele>2035.73</ele>
        <time>2018-06-10T10:26:31Z</time>
      </trkpt>
      <trkpt lat="45.737380580976605" lon="10.85304731503129">
        <ele>2036.6900000000001</ele>
        <time>2018-06-10T10:26:38Z</time>
      </trkpt>
      <trkpt lat="45.737300869077444" lon="10.853026527911425">
        <ele>2038.1300000000001</ele>
        <time>2018-06-10T10:26:49Z</time>
      </trkpt>
      <trkpt lat="45.737259546294808" lon="10.853003142401576">
        <ele>2039.5699999999999</ele>
        <time>2018-06-10T10:27:00Z</time>
      </trkpt>
      <trkpt lat="45.737256277352571" lon="10.853004399687052">
        <ele>2040.05</ele>
        <time>2018-06-10T10:27:01Z</time>
      </trkpt>
      <trkpt lat="45.737247643992305" lon="10.853020241484046">
        <ele>2039.5699999999999</ele>
        <time>2018-06-10T10:27:12Z</time>
      </trkpt>
      <trkpt lat="45.737241106107831" lon="10.853032059967518">
        <ele>2041.02</ele>
        <time>2018-06-10T10:27:14Z</time>
      </trkpt>
      <trkpt lat="45.737208584323525" lon="10.852997442707419">
        <ele>2042.9400000000001</ele>
        <time>2018-06-10T10:27:21Z</time>
      </trkpt>
      <trkpt lat="45.737154185771942" lon="10.852943463250995">
        <ele>2044.3800000000001</ele>
        <time>2018-06-10T10:27:32Z</time>
      </trkpt>
      <trkpt lat="45.737102972343564" lon="10.852913036942482">
        <ele>2045.8199999999999</ele>
        <time>2018-06-10T10:27:43Z</time>
      </trkpt>
      <trkpt lat="45.737021584063768" lon="10.852880934253335">
        <ele>2046.78</ele>
        <time>2018-06-10T10:27:54Z</time>
      </trkpt>
      <trkpt lat="45.736962826922536" lon="10.852765263989568">
        <ele>2046.78</ele>
        <time>2018-06-10T10:28:04Z</time>
      </trkpt>
      <trkpt lat="45.736904740333557" lon="10.852710530161858">
        <ele>2047.26</ele>
        <time>2018-06-10T10:28:15Z</time>
      </trkpt>
      <trkpt lat="45.73685604147613" lon="10.852610114961863">
        <ele>2046.3</ele>
        <time>2018-06-10T10:28:30Z</time>
      </trkpt>
      <trkpt lat="45.736838271841407" lon="10.852560494095087">
        <ele>2046.3</ele>
        <time>2018-06-10T10:28:40Z</time>
      </trkpt>
      <trkpt lat="45.736788399517536" lon="10.852464102208614">
        <ele>2044.8599999999999</ele>
        <time>2018-06-10T10:28:52Z</time>
      </trkpt>
      <trkpt lat="45.736739533022046" lon="10.852366620674729">
        <ele>2043.4200000000001</ele>
        <time>2018-06-10T10:29:02Z</time>
      </trkpt>
      <trkpt lat="45.736732073128223" lon="10.852354802191257">
        <ele>2043.4200000000001</ele>
        <time>2018-06-10T10:29:03Z</time>
      </trkpt>
      <trkpt lat="45.73669770732522" lon="10.852256482467055">
        <ele>2044.3800000000001</ele>
        <time>2018-06-10T10:29:13Z</time>
      </trkpt>
      <trkpt lat="45.736688654869795" lon="10.852234773337841">
        <ele>2044.3800000000001</ele>
        <time>2018-06-10T10:29:15Z</time>
      </trkpt>
      <trkpt lat="45.736669125035405" lon="10.852150283753872">
        <ele>2045.3399999999999</ele>
        <time>2018-06-10T10:29:26Z</time>
      </trkpt>
      <trkpt lat="45.736633837223053" lon="10.852110553532839">
        <ele>2046.78</ele>
        <time>2018-06-10T10:29:35Z</time>
      </trkpt>
      <trkpt lat="45.736620677635074" lon="10.852108290418983">
        <ele>2047.26</ele>
        <time>2018-06-10T10:29:46Z</time>
      </trkpt>
      <trkpt lat="45.736576421186328" lon="10.85210326127708">
        <ele>2045.8199999999999</ele>
        <time>2018-06-10T10:29:56Z</time>
      </trkpt>
      <trkpt lat="45.736540043726563" lon="10.852059843018651">
        <ele>2045.8199999999999</ele>
        <time>2018-06-10T10:30:02Z</time>
      </trkpt>
      <trkpt lat="45.736472234129906" lon="10.851997481659055">
        <ele>2044.8599999999999</ele>
        <time>2018-06-10T10:30:15Z</time>
      </trkpt>
      <trkpt lat="45.73644557967782" lon="10.851962612941861">
        <ele>2044.3800000000001</ele>
        <time>2018-06-10T10:30:23Z</time>
      </trkpt>
      <trkpt lat="45.736408112570643" lon="10.851951967924833">
        <ele>2042.9400000000001</ele>
        <time>2018-06-10T10:30:34Z</time>
      </trkpt>
      <trkpt lat="45.736382966861129" lon="10.851964456960559">
        <ele>2041.5</ele>
        <time>2018-06-10T10:30:48Z</time>
      </trkpt>
      <trkpt lat="45.73634441010654" lon="10.851985160261393">
        <ele>2040.05</ele>
        <time>2018-06-10T10:30:58Z</time>
      </trkpt>
      <trkpt lat="45.736291520297527" lon="10.851964121684432">
        <ele>2038.1300000000001</ele>
        <time>2018-06-10T10:31:09Z</time>
      </trkpt>
      <trkpt lat="45.736291101202369" lon="10.851922128349543">
        <ele>2038.1300000000001</ele>
        <time>2018-06-10T10:31:20Z</time>
      </trkpt>
      <trkpt lat="45.736276768147945" lon="10.851920368149877">
        <ele>2037.6500000000001</ele>
        <time>2018-06-10T10:31:25Z</time>
      </trkpt>
      <trkpt lat="45.73622765019536" lon="10.851854318752885">
        <ele>2037.6500000000001</ele>
        <time>2018-06-10T10:31:34Z</time>
      </trkpt>
      <trkpt lat="45.736223291605711" lon="10.851839650422335">
        <ele>2038.1300000000001</ele>
        <time>2018-06-10T10:31:46Z</time>
      </trkpt>
      <trkpt lat="45.736206192523241" lon="10.851813750341535">
        <ele>2038.6099999999999</ele>
        <time>2018-06-10T10:31:58Z</time>
      </trkpt>
      <trkpt lat="45.736182471737266" lon="10.851804697886109">
        <ele>2038.6099999999999</ele>
        <time>2018-06-10T10:32:07Z</time>
      </trkpt>
      <trkpt lat="45.736114913597703" lon="10.851759184151888">
        <ele>2038.6099999999999</ele>
        <time>2018-06-10T10:32:16Z</time>
      </trkpt>
      <trkpt lat="45.73609865270555" lon="10.851740408688784">
        <ele>2038.6099999999999</ele>
        <time>2018-06-10T10:32:18Z</time>
      </trkpt>
      <trkpt lat="45.736001674085855" lon="10.851646279916167">
        <ele>2038.1300000000001</ele>
        <time>2018-06-10T10:32:29Z</time>
      </trkpt>
      <trkpt lat="45.735917771235108" lon="10.85156237706542">
        <ele>2039.0899999999999</ele>
        <time>2018-06-10T10:32:39Z</time>
      </trkpt>
      <trkpt lat="45.735807633027434" lon="10.851495657116175">
        <ele>2038.6099999999999</ele>
        <time>2018-06-10T10:32:52Z</time>
      </trkpt>
      <trkpt lat="45.735773602500558" lon="10.851480234414339">
        <ele>2039.0899999999999</ele>
        <time>2018-06-10T10:32:56Z</time>
      </trkpt>
      <trkpt lat="45.735659273341298" lon="10.851457016542554">
        <ele>2038.6099999999999</ele>
        <time>2018-06-10T10:33:07Z</time>
      </trkpt>
      <trkpt lat="45.735555505380034" lon="10.851443940773606">
        <ele>2038.1300000000001</ele>
        <time>2018-06-10T10:33:18Z</time>
      </trkpt>
      <trkpt lat="45.735463555902243" lon="10.851411838084459">
        <ele>2039.0899999999999</ele>
        <time>2018-06-10T10:33:29Z</time>
      </trkpt>
      <trkpt lat="45.735362051054835" lon="10.851400103420019">
        <ele>2039.0899999999999</ele>
        <time>2018-06-10T10:33:39Z</time>
      </trkpt>
      <trkpt lat="45.735366828739643" lon="10.851398091763258">
        <ele>2039.0899999999999</ele>
        <time>2018-06-10T10:33:45Z</time>
      </trkpt>
      <trkpt lat="45.735195335000753" lon="10.851441007107496">
        <ele>2038.1300000000001</ele>
        <time>2018-06-10T10:33:59Z</time>
      </trkpt>
      <trkpt lat="45.735145965591073" lon="10.851453747600317">
        <ele>2038.1300000000001</ele>
        <time>2018-06-10T10:34:03Z</time>
      </trkpt>
      <trkpt lat="45.735053010284901" lon="10.851450143381953">
        <ele>2040.05</ele>
        <time>2018-06-10T10:34:13Z</time>
      </trkpt>
      <trkpt lat="45.73499190621078" lon="10.851476797834039">
        <ele>2041.02</ele>
        <time>2018-06-10T10:34:21Z</time>
      </trkpt>
      <trkpt lat="45.734897190704942" lon="10.851497165858746">
        <ele>2041.02</ele>
        <time>2018-06-10T10:34:32Z</time>
      </trkpt>
      <trkpt lat="45.734798619523644" lon="10.851504458114505">
        <ele>2041.98</ele>
        <time>2018-06-10T10:34:42Z</time>
      </trkpt>
      <trkpt lat="45.734733659774065" lon="10.851525412872434">
        <ele>2041.5</ele>
        <time>2018-06-10T10:34:50Z</time>
      </trkpt>
      <trkpt lat="45.734637854620814" lon="10.851541757583618">
        <ele>2041.02</ele>
        <time>2018-06-10T10:35:00Z</time>
      </trkpt>
      <trkpt lat="45.734601812437177" lon="10.85151887498796">
        <ele>2042.46</ele>
        <time>2018-06-10T10:35:08Z</time>
      </trkpt>
      <trkpt lat="45.73455948382616" lon="10.851549301296473">
        <ele>2043.9000000000001</ele>
        <time>2018-06-10T10:35:18Z</time>
      </trkpt>
      <trkpt lat="45.734501145780087" lon="10.851552905514836">
        <ele>2044.8599999999999</ele>
        <time>2018-06-10T10:35:26Z</time>
      </trkpt>
      <trkpt lat="45.734431995078921" lon="10.851541506126523">
        <ele>2046.3</ele>
        <time>2018-06-10T10:35:34Z</time>
      </trkpt>
      <trkpt lat="45.734400311484933" lon="10.851551648229361">
        <ele>2047.26</ele>
        <time>2018-06-10T10:35:41Z</time>
      </trkpt>
      <trkpt lat="45.734350690618157" lon="10.851552989333868">
        <ele>2048.71</ele>
        <time>2018-06-10T10:35:49Z</time>
      </trkpt>
      <trkpt lat="45.73432638309896" lon="10.851555671542883">
        <ele>2049.6700000000001</ele>
        <time>2018-06-10T10:35:56Z</time>
      </trkpt>
      <trkpt lat="45.734279612079263" lon="10.851576123386621">
        <ele>2051.1100000000001</ele>
        <time>2018-06-10T10:36:06Z</time>
      </trkpt>
      <trkpt lat="45.734230075031519" lon="10.851587019860744">
        <ele>2053.5100000000002</ele>
        <time>2018-06-10T10:36:19Z</time>
      </trkpt>
      <trkpt lat="45.734185315668583" lon="10.851591126993299">
        <ele>2054.96</ele>
        <time>2018-06-10T10:36:30Z</time>
      </trkpt>
      <trkpt lat="45.734147513285279" lon="10.8516014367342">
        <ele>2056.8800000000001</ele>
        <time>2018-06-10T10:36:40Z</time>
      </trkpt>
      <trkpt lat="45.734145836904645" lon="10.851611159741879">
        <ele>2057.3600000000001</ele>
        <time>2018-06-10T10:36:52Z</time>
      </trkpt>
      <trkpt lat="45.734117086976767" lon="10.851632785052061">
        <ele>2058.8000000000002</ele>
        <time>2018-06-10T10:37:02Z</time>
      </trkpt>
      <trkpt lat="45.734085571020842" lon="10.851656589657068">
        <ele>2060.2399999999998</ele>
        <time>2018-06-10T10:37:11Z</time>
      </trkpt>
      <trkpt lat="45.734047433361411" lon="10.85167720913887">
        <ele>2062.1700000000001</ele>
        <time>2018-06-10T10:37:21Z</time>
      </trkpt>
      <trkpt lat="45.73400879278779" lon="10.851700929924846">
        <ele>2062.6500000000001</ele>
        <time>2018-06-10T10:37:30Z</time>
      </trkpt>
      <trkpt lat="45.733975348994136" lon="10.851720711216331">
        <ele>2062.6500000000001</ele>
        <time>2018-06-10T10:37:39Z</time>
      </trkpt>
      <trkpt lat="45.733927236869931" lon="10.851716855540872">
        <ele>2063.1300000000001</ele>
        <time>2018-06-10T10:37:50Z</time>
      </trkpt>
      <trkpt lat="45.733910221606493" lon="10.851667486131191">
        <ele>2065.5300000000002</ele>
        <time>2018-06-10T10:38:01Z</time>
      </trkpt>
      <trkpt lat="45.733880633488297" lon="10.851661115884781">
        <ele>2066.4899999999998</ele>
        <time>2018-06-10T10:38:09Z</time>
      </trkpt>
      <trkpt lat="45.733860600739717" lon="10.851644854992628">
        <ele>2067.9299999999998</ele>
        <time>2018-06-10T10:38:18Z</time>
      </trkpt>
      <trkpt lat="45.733851548284292" lon="10.85162004455924">
        <ele>2069.3800000000001</ele>
        <time>2018-06-10T10:38:27Z</time>
      </trkpt>
      <trkpt lat="45.733809471130371" lon="10.851640580222011">
        <ele>2070.8200000000002</ele>
        <time>2018-06-10T10:38:37Z</time>
      </trkpt>
      <trkpt lat="45.733770243823528" lon="10.851636305451393">
        <ele>2072.7399999999998</ele>
        <time>2018-06-10T10:38:46Z</time>
      </trkpt>
      <trkpt lat="45.73377083055675" lon="10.851582745090127">
        <ele>2073.2199999999998</ele>
        <time>2018-06-10T10:38:55Z</time>
      </trkpt>
      <trkpt lat="45.733759431168437" lon="10.851595234125853">
        <ele>2073.2199999999998</ele>
        <time>2018-06-10T10:39:12Z</time>
      </trkpt>
      <trkpt lat="45.733753312379122" lon="10.851603196933866">
        <ele>2073.2199999999998</ele>
        <time>2018-06-10T10:39:33Z</time>
      </trkpt>
      <trkpt lat="45.733737889677286" lon="10.851604286581278">
        <ele>2072.7399999999998</ele>
        <time>2018-06-10T10:39:36Z</time>
      </trkpt>
      <trkpt lat="45.733623476698995" lon="10.851494399830699">
        <ele>2072.2600000000002</ele>
        <time>2018-06-10T10:39:48Z</time>
      </trkpt>
      <trkpt lat="45.733552984893322" lon="10.851465566083789">
        <ele>2073.2199999999998</ele>
        <time>2018-06-10T10:39:56Z</time>
      </trkpt>
      <trkpt lat="45.733465058729053" lon="10.851474367082119">
        <ele>2076.0999999999999</ele>
        <time>2018-06-10T10:40:08Z</time>
      </trkpt>
      <trkpt lat="45.73338920250535" lon="10.85144410841167">
        <ele>2076.0999999999999</ele>
        <time>2018-06-10T10:40:18Z</time>
      </trkpt>
      <trkpt lat="45.733353495597839" lon="10.851440085098147">
        <ele>2077.0700000000002</ele>
        <time>2018-06-10T10:40:25Z</time>
      </trkpt>
      <trkpt lat="45.733323907479644" lon="10.85141628049314">
        <ele>2076.0999999999999</ele>
        <time>2018-06-10T10:40:36Z</time>
      </trkpt>
      <trkpt lat="45.733258528634906" lon="10.851329946890473">
        <ele>2074.6599999999999</ele>
        <time>2018-06-10T10:40:47Z</time>
      </trkpt>
      <trkpt lat="45.733206141740084" lon="10.851223664358258">
        <ele>2072.7399999999998</ele>
        <time>2018-06-10T10:40:56Z</time>
      </trkpt>
      <trkpt lat="45.733137242496014" lon="10.851110341027379">
        <ele>2070.3400000000001</ele>
        <time>2018-06-10T10:41:07Z</time>
      </trkpt>
      <trkpt lat="45.733080748468637" lon="10.850997939705849">
        <ele>2068.4099999999999</ele>
        <time>2018-06-10T10:41:19Z</time>
      </trkpt>
      <trkpt lat="45.733040682971478" lon="10.85091051645577">
        <ele>2067.9299999999998</ele>
        <time>2018-06-10T10:41:31Z</time>
      </trkpt>
      <trkpt lat="45.733058117330074" lon="10.850884616374969">
        <ele>2067.9299999999998</ele>
        <time>2018-06-10T10:41:43Z</time>
      </trkpt>
      <trkpt lat="45.733054177835584" lon="10.850874474272132">
        <ele>2067.4499999999998</ele>
        <time>2018-06-10T10:42:03Z</time>
      </trkpt>
      <trkpt lat="45.733037665486336" lon="10.850859973579645">
        <ele>2066.4899999999998</ele>
        <time>2018-06-10T10:42:13Z</time>
      </trkpt>
      <trkpt lat="45.733018051832914" lon="10.850811023265123">
        <ele>2064.5700000000002</ele>
        <time>2018-06-10T10:42:24Z</time>
      </trkpt>
      <trkpt lat="45.732998605817556" lon="10.850766263902187">
        <ele>2063.1300000000001</ele>
        <time>2018-06-10T10:42:34Z</time>
      </trkpt>
      <trkpt lat="45.732988212257624" lon="10.850759726017714">
        <ele>2062.6500000000001</ele>
        <time>2018-06-10T10:42:47Z</time>
      </trkpt>
      <trkpt lat="45.732992654666305" lon="10.850780177861452">
        <ele>2062.6500000000001</ele>
        <time>2018-06-10T10:42:58Z</time>
      </trkpt>
      <trkpt lat="45.732991900295019" lon="10.850830804556608">
        <ele>2063.1300000000001</ele>
        <time>2018-06-10T10:43:14Z</time>
      </trkpt>
      <trkpt lat="45.732986954972148" lon="10.85083038546145">
        <ele>2062.6500000000001</ele>
        <time>2018-06-10T10:43:27Z</time>
      </trkpt>
      <trkpt lat="45.73297874070704" lon="10.850843880325556">
        <ele>2063.1300000000001</ele>
        <time>2018-06-10T10:43:49Z</time>
      </trkpt>
      <trkpt lat="45.733000449836254" lon="10.850875731557608">
        <ele>2064.5700000000002</ele>
        <time>2018-06-10T10:44:01Z</time>
      </trkpt>
      <trkpt lat="45.733025847002864" lon="10.850894255563617">
        <ele>2066.0100000000002</ele>
        <time>2018-06-10T10:44:07Z</time>
      </trkpt>
      <trkpt lat="45.733067085966468" lon="10.850911941379309">
        <ele>2068.4099999999999</ele>
        <time>2018-06-10T10:44:17Z</time>
      </trkpt>
      <trkpt lat="45.733077982440591" lon="10.850921915844083">
        <ele>2068.8899999999999</ele>
        <time>2018-06-10T10:44:27Z</time>
      </trkpt>
      <trkpt lat="45.73305694386363" lon="10.850930213928223">
        <ele>2068.8899999999999</ele>
        <time>2018-06-10T10:44:37Z</time>
      </trkpt>
      <trkpt lat="45.733042107895017" lon="10.850934153422713">
        <ele>2068.4099999999999</ele>
        <time>2018-06-10T10:44:51Z</time>
      </trkpt>
      <trkpt lat="45.73303347453475" lon="10.85095644928515">
        <ele>2068.8899999999999</ele>
        <time>2018-06-10T10:45:08Z</time>
      </trkpt>
      <trkpt lat="45.733016123995185" lon="10.850981008261442">
        <ele>2069.3800000000001</ele>
        <time>2018-06-10T10:45:33Z</time>
      </trkpt>
      <trkpt lat="45.733018638566136" lon="10.851003220304847">
        <ele>2069.3800000000001</ele>
        <time>2018-06-10T10:45:51Z</time>
      </trkpt>
      <trkpt lat="45.733036324381828" lon="10.850984444841743">
        <ele>2068.8899999999999</ele>
        <time>2018-06-10T10:46:02Z</time>
      </trkpt>
      <trkpt lat="45.733035318553448" lon="10.850952593609691">
        <ele>2069.3800000000001</ele>
        <time>2018-06-10T10:46:28Z</time>
      </trkpt>
      <trkpt lat="45.733034648001194" lon="10.850953096523881">
        <ele>2069.3800000000001</ele>
        <time>2018-06-10T10:46:29Z</time>
      </trkpt>
      <trkpt lat="45.733131794258952" lon="10.850779926404357">
        <ele>2076.0999999999999</ele>
        <time>2018-06-10T10:46:56Z</time>
      </trkpt>
      <trkpt lat="45.73312483727932" lon="10.850836001336575">
        <ele>2071.3000000000002</ele>
        <time>2018-06-10T10:46:58Z</time>
      </trkpt>
      <trkpt lat="45.73308284394443" lon="10.850916635245085">
        <ele>2069.8600000000001</ele>
        <time>2018-06-10T10:47:00Z</time>
      </trkpt>
      <trkpt lat="45.733093321323395" lon="10.850910264998674">
        <ele>2069.3800000000001</ele>
        <time>2018-06-10T10:47:18Z</time>
      </trkpt>
      <trkpt lat="45.733081251382828" lon="10.850918563082814">
        <ele>2069.8600000000001</ele>
        <time>2018-06-10T10:47:41Z</time>
      </trkpt>
      <trkpt lat="45.733086951076984" lon="10.850895512849092">
        <ele>2070.3400000000001</ele>
        <time>2018-06-10T10:47:49Z</time>
      </trkpt>
      <trkpt lat="45.73307303711772" lon="10.850932728499174">
        <ele>2070.3400000000001</ele>
        <time>2018-06-10T10:48:01Z</time>
      </trkpt>
      <trkpt lat="45.733079155907035" lon="10.850926609709859">
        <ele>2070.8200000000002</ele>
        <time>2018-06-10T10:48:15Z</time>
      </trkpt>
      <trkpt lat="45.733067337423563" lon="10.850923173129559">
        <ele>2070.8200000000002</ele>
        <time>2018-06-10T10:48:33Z</time>
      </trkpt>
      <trkpt lat="45.733059542253613" lon="10.850935829803348">
        <ele>2070.3400000000001</ele>
        <time>2018-06-10T10:48:43Z</time>
      </trkpt>
      <trkpt lat="45.73304713703692" lon="10.850939434021711">
        <ele>2070.3400000000001</ele>
        <time>2018-06-10T10:49:00Z</time>
      </trkpt>
      <trkpt lat="45.733045963570476" lon="10.850943122059107">
        <ele>2070.3400000000001</ele>
        <time>2018-06-10T10:49:19Z</time>
      </trkpt>
      <trkpt lat="45.73305694386363" lon="10.850941194221377">
        <ele>2069.8600000000001</ele>
        <time>2018-06-10T10:49:27Z</time>
      </trkpt>
      <trkpt lat="45.733086364343762" lon="10.850963070988655">
        <ele>2069.8600000000001</ele>
        <time>2018-06-10T10:49:38Z</time>
      </trkpt>
      <trkpt lat="45.733123412355781" lon="10.850985031574965">
        <ele>2069.8600000000001</ele>
        <time>2018-06-10T10:49:47Z</time>
      </trkpt>
      <trkpt lat="45.733088962733746" lon="10.850961897522211">
        <ele>2070.3400000000001</ele>
        <time>2018-06-10T10:50:04Z</time>
      </trkpt>
      <trkpt lat="45.733066247776151" lon="10.850912947207689">
        <ele>2070.3400000000001</ele>
        <time>2018-06-10T10:50:17Z</time>
      </trkpt>
      <trkpt lat="45.733053926378489" lon="10.850886879488826">
        <ele>2070.3400000000001</ele>
        <time>2018-06-10T10:50:36Z</time>
      </trkpt>
      <trkpt lat="45.733081251382828" lon="10.850876402109861">
        <ele>2070.8200000000002</ele>
        <time>2018-06-10T10:50:52Z</time>
      </trkpt>
      <trkpt lat="45.733092566952109" lon="10.850911438465118">
        <ele>2070.3400000000001</ele>
        <time>2018-06-10T10:51:04Z</time>
      </trkpt>
      <trkpt lat="45.733112348243594" lon="10.850986456498504">
        <ele>2070.3400000000001</ele>
        <time>2018-06-10T10:51:14Z</time>
      </trkpt>
      <trkpt lat="45.733128860592842" lon="10.851030042394996">
        <ele>2071.3000000000002</ele>
        <time>2018-06-10T10:51:24Z</time>
      </trkpt>
      <trkpt lat="45.733150904998183" lon="10.851094163954258">
        <ele>2072.2600000000002</ele>
        <time>2018-06-10T10:51:34Z</time>
      </trkpt>
      <trkpt lat="45.733179738745093" lon="10.851157866418362">
        <ele>2073.6999999999998</ele>
        <time>2018-06-10T10:51:43Z</time>
      </trkpt>
      <trkpt lat="45.733224162831903" lon="10.851183012127876">
        <ele>2074.1799999999998</ele>
        <time>2018-06-10T10:51:53Z</time>
      </trkpt>
      <trkpt lat="45.733207147568464" lon="10.851197177544236">
        <ele>2074.1799999999998</ele>
        <time>2018-06-10T10:52:08Z</time>
      </trkpt>
      <trkpt lat="45.733231455087662" lon="10.851231208071113">
        <ele>2074.6599999999999</ele>
        <time>2018-06-10T10:52:13Z</time>
      </trkpt>
      <trkpt lat="45.733253583312035" lon="10.851299520581961">
        <ele>2076.0999999999999</ele>
        <time>2018-06-10T10:52:22Z</time>
      </trkpt>
      <trkpt lat="45.733294235542417" lon="10.85135517641902">
        <ele>2077.0700000000002</ele>
        <time>2018-06-10T10:52:32Z</time>
      </trkpt>
      <trkpt lat="45.73332323692739" lon="10.851403372362256">
        <ele>2078.9899999999998</ele>
        <time>2018-06-10T10:52:42Z</time>
      </trkpt>
      <trkpt lat="45.733338575810194" lon="10.851438408717513">
        <ele>2079.4699999999998</ele>
        <time>2018-06-10T10:52:52Z</time>
      </trkpt>
      <trkpt lat="45.733341258019209" lon="10.851420471444726">
        <ele>2079.9499999999998</ele>
        <time>2018-06-10T10:53:01Z</time>
      </trkpt>
      <trkpt lat="45.733340755105019" lon="10.851413011550903">
        <ele>2079.9499999999998</ele>
        <time>2018-06-10T10:53:23Z</time>
      </trkpt>
      <trkpt lat="45.733350142836571" lon="10.851417202502489">
        <ele>2079.4699999999998</ele>
        <time>2018-06-10T10:53:48Z</time>
      </trkpt>
      <trkpt lat="45.733317704871297" lon="10.851419633254409">
        <ele>2079.4699999999998</ele>
        <time>2018-06-10T10:54:07Z</time>
      </trkpt>
      <trkpt lat="45.733294235542417" lon="10.851409826427698">
        <ele>2078.9899999999998</ele>
        <time>2018-06-10T10:54:20Z</time>
      </trkpt>
      <trkpt lat="45.733263473957777" lon="10.851356768980622">
        <ele>2077.0700000000002</ele>
        <time>2018-06-10T10:54:32Z</time>
      </trkpt>
      <trkpt lat="45.733230700716376" lon="10.851324163377285">
        <ele>2076.0999999999999</ele>
        <time>2018-06-10T10:54:38Z</time>
      </trkpt>
      <trkpt lat="45.733181498944759" lon="10.851218299940228">
        <ele>2074.6599999999999</ele>
        <time>2018-06-10T10:54:51Z</time>
      </trkpt>
      <trkpt lat="45.73314780369401" lon="10.851170606911182">
        <ele>2073.6999999999998</ele>
        <time>2018-06-10T10:55:00Z</time>
      </trkpt>
      <trkpt lat="45.733126681298018" lon="10.851108077913523">
        <ele>2072.7399999999998</ele>
        <time>2018-06-10T10:55:09Z</time>
      </trkpt>
      <trkpt lat="45.733111007139087" lon="10.851050913333893">
        <ele>2071.7800000000002</ele>
        <time>2018-06-10T10:55:19Z</time>
      </trkpt>
      <trkpt lat="45.733059709891677" lon="10.850984863936901">
        <ele>2070.3400000000001</ele>
        <time>2018-06-10T10:55:28Z</time>
      </trkpt>
      <trkpt lat="45.733036743476987" lon="10.850878916680813">
        <ele>2069.8600000000001</ele>
        <time>2018-06-10T10:55:38Z</time>
      </trkpt>
      <trkpt lat="45.733022913336754" lon="10.850859135389328">
        <ele>2068.8899999999999</ele>
        <time>2018-06-10T10:55:50Z</time>
      </trkpt>
      <trkpt lat="45.73300707153976" lon="10.850837426260114">
        <ele>2067.4499999999998</ele>
        <time>2018-06-10T10:56:01Z</time>
      </trkpt>
      <trkpt lat="45.732990223914385" lon="10.850763833150268">
        <ele>2065.5300000000002</ele>
        <time>2018-06-10T10:56:15Z</time>
      </trkpt>
      <trkpt lat="45.732982344925404" lon="10.850757295265794">
        <ele>2065.0500000000002</ele>
        <time>2018-06-10T10:56:22Z</time>
      </trkpt>
      <trkpt lat="45.732963653281331" lon="10.850757546722889">
        <ele>2064.0900000000001</ele>
        <time>2018-06-10T10:56:31Z</time>
      </trkpt>
      <trkpt lat="45.732971951365471" lon="10.850723767653108">
        <ele>2063.6100000000001</ele>
        <time>2018-06-10T10:56:44Z</time>
      </trkpt>
      <trkpt lat="45.732936495915055" lon="10.850659310817719">
        <ele>2061.1999999999998</ele>
        <time>2018-06-10T10:56:54Z</time>
      </trkpt>
      <trkpt lat="45.732949571684003" lon="10.850638523697853">
        <ele>2061.1999999999998</ele>
        <time>2018-06-10T10:57:06Z</time>
      </trkpt>
      <trkpt lat="45.732939345762134" lon="10.850643217563629">
        <ele>2061.1999999999998</ele>
        <time>2018-06-10T10:57:16Z</time>
      </trkpt>
      <trkpt lat="45.732900537550449" lon="10.850611869245768">
        <ele>2059.7600000000002</ele>
        <time>2018-06-10T10:57:27Z</time>
      </trkpt>
      <trkpt lat="45.73290204629302" lon="10.85062469355762">
        <ele>2059.7600000000002</ele>
        <time>2018-06-10T10:57:38Z</time>
      </trkpt>
      <trkpt lat="45.732897017151117" lon="10.850645396858454">
        <ele>2059.7600000000002</ele>
        <time>2018-06-10T10:57:50Z</time>
      </trkpt>
      <trkpt lat="45.73285024613142" lon="10.850648079067469">
        <ele>2059.7600000000002</ele>
        <time>2018-06-10T10:58:04Z</time>
      </trkpt>
      <trkpt lat="45.732837086543441" lon="10.850637853145599">
        <ele>2059.7600000000002</ele>
        <time>2018-06-10T10:58:20Z</time>
      </trkpt>
      <trkpt lat="45.732821077108383" lon="10.850670207291842">
        <ele>2059.7600000000002</ele>
        <time>2018-06-10T10:58:33Z</time>
      </trkpt>
      <trkpt lat="45.73280724696815" lon="10.850675152614713">
        <ele>2060.2399999999998</ele>
        <time>2018-06-10T10:58:47Z</time>
      </trkpt>
      <trkpt lat="45.732796350494027" lon="10.850671967491508">
        <ele>2061.1999999999998</ele>
        <time>2018-06-10T10:58:56Z</time>
      </trkpt>
      <trkpt lat="45.732758464291692" lon="10.850682528689504">
        <ele>2062.1700000000001</ele>
        <time>2018-06-10T10:59:05Z</time>
      </trkpt>
      <trkpt lat="45.732738431543112" lon="10.850685210898519">
        <ele>2062.1700000000001</ele>
        <time>2018-06-10T10:59:15Z</time>
      </trkpt>
      <trkpt lat="45.732728959992528" lon="10.850686803460121">
        <ele>2062.1700000000001</ele>
        <time>2018-06-10T10:59:18Z</time>
      </trkpt>
      <trkpt lat="45.732671460136771" lon="10.850694263353944">
        <ele>2061.6799999999998</ele>
        <time>2018-06-10T10:59:29Z</time>
      </trkpt>
      <trkpt lat="45.732617480680346" lon="10.850687809288502">
        <ele>2063.6100000000001</ele>
        <time>2018-06-10T10:59:39Z</time>
      </trkpt>
      <trkpt lat="45.732590407133102" lon="10.850677164271474">
        <ele>2064.5700000000002</ele>
        <time>2018-06-10T10:59:47Z</time>
      </trkpt>
      <trkpt lat="45.732578588649631" lon="10.850670458748937">
        <ele>2065.0500000000002</ele>
        <time>2018-06-10T10:59:49Z</time>
      </trkpt>
      <trkpt lat="45.732556544244289" lon="10.850602649152279">
        <ele>2065.5300000000002</ele>
        <time>2018-06-10T11:00:00Z</time>
      </trkpt>
      <trkpt lat="45.732547491788864" lon="10.85057339631021">
        <ele>2064.5700000000002</ele>
        <time>2018-06-10T11:00:09Z</time>
      </trkpt>
      <trkpt lat="45.732551515102386" lon="10.85053869523108">
        <ele>2064.5700000000002</ele>
        <time>2018-06-10T11:00:21Z</time>
      </trkpt>
      <trkpt lat="45.732551263645291" lon="10.850536348298192">
        <ele>2064.5700000000002</ele>
        <time>2018-06-10T11:00:31Z</time>
      </trkpt>
      <trkpt lat="45.732544139027596" lon="10.850528469309211">
        <ele>2065.5300000000002</ele>
        <time>2018-06-10T11:00:46Z</time>
      </trkpt>
      <trkpt lat="45.73250675573945" lon="10.850487062707543">
        <ele>2064.0900000000001</ele>
        <time>2018-06-10T11:00:57Z</time>
      </trkpt>
      <trkpt lat="45.732503654435277" lon="10.850455882027745">
        <ele>2063.1300000000001</ele>
        <time>2018-06-10T11:01:08Z</time>
      </trkpt>
      <trkpt lat="45.732489489018917" lon="10.85036133415997">
        <ele>2061.6799999999998</ele>
        <time>2018-06-10T11:01:22Z</time>
      </trkpt>
      <trkpt lat="45.732478676363826" lon="10.850346330553293">
        <ele>2061.6799999999998</ele>
        <time>2018-06-10T11:01:24Z</time>
      </trkpt>
      <trkpt lat="45.73240265250206" lon="10.85024943575263">
        <ele>2061.1999999999998</ele>
        <time>2018-06-10T11:01:37Z</time>
      </trkpt>
      <trkpt lat="45.732380272820592" lon="10.850192103534937">
        <ele>2061.1999999999998</ele>
        <time>2018-06-10T11:01:44Z</time>
      </trkpt>
      <trkpt lat="45.732336854562163" lon="10.850103842094541">
        <ele>2061.1999999999998</ele>
        <time>2018-06-10T11:01:54Z</time>
      </trkpt>
      <trkpt lat="45.732294693589211" lon="10.850048018619418">
        <ele>2063.1300000000001</ele>
        <time>2018-06-10T11:02:05Z</time>
      </trkpt>
      <trkpt lat="45.732222190126777" lon="10.850016502663493">
        <ele>2065.5300000000002</ele>
        <time>2018-06-10T11:02:17Z</time>
      </trkpt>
      <trkpt lat="45.732176257297397" lon="10.849988088011742">
        <ele>2066.9699999999998</ele>
        <time>2018-06-10T11:02:26Z</time>
      </trkpt>
      <trkpt lat="45.732105597853661" lon="10.849969061091542">
        <ele>2068.4099999999999</ele>
        <time>2018-06-10T11:02:35Z</time>
      </trkpt>
      <trkpt lat="45.732090175151825" lon="10.849963612854481">
        <ele>2068.8899999999999</ele>
        <time>2018-06-10T11:02:37Z</time>
      </trkpt>
      <trkpt lat="45.732071986421943" lon="10.849959002807736">
        <ele>2068.8899999999999</ele>
        <time>2018-06-10T11:02:39Z</time>
      </trkpt>
      <trkpt lat="45.731999147683382" lon="10.849863281473517">
        <ele>2070.3400000000001</ele>
        <time>2018-06-10T11:02:50Z</time>
      </trkpt>
      <trkpt lat="45.73197559453547" lon="10.849780216813087">
        <ele>2071.3000000000002</ele>
        <time>2018-06-10T11:02:58Z</time>
      </trkpt>
      <trkpt lat="45.73193846270442" lon="10.849725985899568">
        <ele>2071.3000000000002</ele>
        <time>2018-06-10T11:03:05Z</time>
      </trkpt>
      <trkpt lat="45.731904599815607" lon="10.849650548771024">
        <ele>2071.3000000000002</ele>
        <time>2018-06-10T11:03:16Z</time>
      </trkpt>
      <trkpt lat="45.73183880187571" lon="10.849533705040812">
        <ele>2070.3400000000001</ele>
        <time>2018-06-10T11:03:28Z</time>
      </trkpt>
      <trkpt lat="45.731776943430305" lon="10.84950964897871">
        <ele>2070.3400000000001</ele>
        <time>2018-06-10T11:03:37Z</time>
      </trkpt>
      <trkpt lat="45.731710055842996" lon="10.849457764998078">
        <ele>2070.8200000000002</ele>
        <time>2018-06-10T11:03:48Z</time>
      </trkpt>
      <trkpt lat="45.731657668948174" lon="10.849383836612105">
        <ele>2070.8200000000002</ele>
        <time>2018-06-10T11:03:59Z</time>
      </trkpt>
      <trkpt lat="45.731617268174887" lon="10.849336059764028">
        <ele>2070.3400000000001</ele>
        <time>2018-06-10T11:04:09Z</time>
      </trkpt>
      <trkpt lat="45.731585584580898" lon="10.849255761131644">
        <ele>2070.3400000000001</ele>
        <time>2018-06-10T11:04:19Z</time>
      </trkpt>
      <trkpt lat="45.731563037261367" lon="10.849223909899592">
        <ele>2070.8200000000002</ele>
        <time>2018-06-10T11:04:28Z</time>
      </trkpt>
      <trkpt lat="45.731532946228981" lon="10.849196501076221">
        <ele>2071.3000000000002</ele>
        <time>2018-06-10T11:04:38Z</time>
      </trkpt>
      <trkpt lat="45.731479553505778" lon="10.84917982108891">
        <ele>2071.7800000000002</ele>
        <time>2018-06-10T11:04:46Z</time>
      </trkpt>
      <trkpt lat="45.731422137469053" lon="10.849193651229143">
        <ele>2072.2600000000002</ele>
        <time>2018-06-10T11:04:55Z</time>
      </trkpt>
      <trkpt lat="45.73141316883266" lon="10.849198261275887">
        <ele>2072.2600000000002</ele>
        <time>2018-06-10T11:04:56Z</time>
      </trkpt>
      <trkpt lat="45.731358015909791" lon="10.849197842180729">
        <ele>2073.2199999999998</ele>
        <time>2018-06-10T11:05:04Z</time>
      </trkpt>
      <trkpt lat="45.731306970119476" lon="10.849164985120296">
        <ele>2072.7399999999998</ele>
        <time>2018-06-10T11:05:13Z</time>
      </trkpt>
      <trkpt lat="45.731292720884085" lon="10.849165068939328">
        <ele>2075.1399999999999</ele>
        <time>2018-06-10T11:05:17Z</time>
      </trkpt>
      <trkpt lat="45.731260031461716" lon="10.849181329831481">
        <ele>2076.0999999999999</ele>
        <time>2018-06-10T11:05:28Z</time>
      </trkpt>
      <trkpt lat="45.731264557689428" lon="10.84916615858674">
        <ele>2076.0999999999999</ele>
        <time>2018-06-10T11:05:39Z</time>
      </trkpt>
      <trkpt lat="45.731240333989263" lon="10.849162470549345">
        <ele>2076.5900000000001</ele>
        <time>2018-06-10T11:05:50Z</time>
      </trkpt>
      <trkpt lat="45.731209153309464" lon="10.849128859117627">
        <ele>2078.5100000000002</ele>
        <time>2018-06-10T11:06:00Z</time>
      </trkpt>
      <trkpt lat="45.731155341491103" lon="10.849130786955357">
        <ele>2078.9899999999998</ele>
        <time>2018-06-10T11:06:08Z</time>
      </trkpt>
      <trkpt lat="45.731099853292108" lon="10.849128859117627">
        <ele>2080.9099999999999</ele>
        <time>2018-06-10T11:06:17Z</time>
      </trkpt>
      <trkpt lat="45.731076719239354" lon="10.849083848297596">
        <ele>2082.8299999999999</ele>
        <time>2018-06-10T11:06:25Z</time>
      </trkpt>
      <trkpt lat="45.731052830815315" lon="10.849072113633156">
        <ele>2084.2800000000002</ele>
        <time>2018-06-10T11:06:34Z</time>
      </trkpt>
      <trkpt lat="45.73104134760797" lon="10.849095834419131">
        <ele>2085.2399999999998</ele>
        <time>2018-06-10T11:06:43Z</time>
      </trkpt>
      <trkpt lat="45.731019889935851" lon="10.849113520234823">
        <ele>2085.7199999999998</ele>
        <time>2018-06-10T11:06:54Z</time>
      </trkpt>
      <trkpt lat="45.730987871065736" lon="10.849129948765039">
        <ele>2086.1999999999998</ele>
        <time>2018-06-10T11:07:07Z</time>
      </trkpt>
      <trkpt lat="45.730944955721498" lon="10.849072029814124">
        <ele>2087.1599999999999</ele>
        <time>2018-06-10T11:07:17Z</time>
      </trkpt>
      <trkpt lat="45.7309465482831" lon="10.849029449746013">
        <ele>2086.1999999999998</ele>
        <time>2018-06-10T11:07:25Z</time>
      </trkpt>
      <trkpt lat="45.730922659859061" lon="10.849040765315294">
        <ele>2084.7600000000002</ele>
        <time>2018-06-10T11:07:40Z</time>
      </trkpt>
      <trkpt lat="45.730925342068076" lon="10.849014697596431">
        <ele>2084.2800000000002</ele>
        <time>2018-06-10T11:07:51Z</time>
      </trkpt>
      <trkpt lat="45.730932718142867" lon="10.848984522745013">
        <ele>2084.2800000000002</ele>
        <time>2018-06-10T11:08:01Z</time>
      </trkpt>
      <trkpt lat="45.730926347896457" lon="10.848952755331993">
        <ele>2082.8299999999999</ele>
        <time>2018-06-10T11:08:13Z</time>
      </trkpt>
      <trkpt lat="45.730906315147877" lon="10.848922999575734">
        <ele>2081.8699999999999</ele>
        <time>2018-06-10T11:08:21Z</time>
      </trkpt>
      <trkpt lat="45.730898436158895" lon="10.848905146121979">
        <ele>2081.3899999999999</ele>
        <time>2018-06-10T11:08:34Z</time>
      </trkpt>
      <trkpt lat="45.730894831940532" lon="10.848872289061546">
        <ele>2080.4299999999998</ele>
        <time>2018-06-10T11:08:45Z</time>
      </trkpt>
      <trkpt lat="45.730881672352552" lon="10.848848316818476">
        <ele>2079.4699999999998</ele>
        <time>2018-06-10T11:08:53Z</time>
      </trkpt>
      <trkpt lat="45.73087521828711" lon="10.848795175552368">
        <ele>2077.5500000000002</ele>
        <time>2018-06-10T11:09:00Z</time>
      </trkpt>
      <trkpt lat="45.73085954412818" lon="10.84874932654202">
        <ele>2076.0999999999999</ele>
        <time>2018-06-10T11:09:08Z</time>
      </trkpt>
      <trkpt lat="45.730843199416995" lon="10.848773382604122">
        <ele>2074.6599999999999</ele>
        <time>2018-06-10T11:09:17Z</time>
      </trkpt>
      <trkpt lat="45.730846719816327" lon="10.84880649112165">
        <ele>2074.1799999999998</ele>
        <time>2018-06-10T11:09:29Z</time>
      </trkpt>
      <trkpt lat="45.730855856090784" lon="10.848830547183752">
        <ele>2074.6599999999999</ele>
        <time>2018-06-10T11:09:47Z</time>
      </trkpt>
      <trkpt lat="45.730838505551219" lon="10.848808670416474">
        <ele>2074.6599999999999</ele>
        <time>2018-06-10T11:10:03Z</time>
      </trkpt>
      <trkpt lat="45.730803301557899" lon="10.84876692853868">
        <ele>2074.1799999999998</ele>
        <time>2018-06-10T11:10:19Z</time>
      </trkpt>
      <trkpt lat="45.730791483074427" lon="10.848748572170734">
        <ele>2073.6999999999998</ele>
        <time>2018-06-10T11:10:27Z</time>
      </trkpt>
      <trkpt lat="45.730782430619001" lon="10.848619909957051">
        <ele>2073.6999999999998</ele>
        <time>2018-06-10T11:10:38Z</time>
      </trkpt>
      <trkpt lat="45.730730630457401" lon="10.848606415092945">
        <ele>2073.2199999999998</ele>
        <time>2018-06-10T11:10:49Z</time>
      </trkpt>
      <trkpt lat="45.730700120329857" lon="10.848559560254216">
        <ele>2070.8200000000002</ele>
        <time>2018-06-10T11:11:00Z</time>
      </trkpt>
      <trkpt lat="45.730666341260076" lon="10.848522093147039">
        <ele>2068.8899999999999</ele>
        <time>2018-06-10T11:11:10Z</time>
      </trkpt>
      <trkpt lat="45.730597106739879" lon="10.848422097042203">
        <ele>2067.9299999999998</ele>
        <time>2018-06-10T11:11:21Z</time>
      </trkpt>
      <trkpt lat="45.730581264942884" lon="10.848384043201804">
        <ele>2066.9699999999998</ele>
        <time>2018-06-10T11:11:32Z</time>
      </trkpt>
      <trkpt lat="45.730556538328528" lon="10.848382031545043">
        <ele>2066.9699999999998</ele>
        <time>2018-06-10T11:11:43Z</time>
      </trkpt>
      <trkpt lat="45.730556454509497" lon="10.848390245810151">
        <ele>2067.4499999999998</ele>
        <time>2018-06-10T11:12:03Z</time>
      </trkpt>
      <trkpt lat="45.730518065392971" lon="10.848373817279935">
        <ele>2066.9699999999998</ele>
        <time>2018-06-10T11:12:24Z</time>
      </trkpt>
      <trkpt lat="45.730448411777616" lon="10.848355880007148">
        <ele>2066.4899999999998</ele>
        <time>2018-06-10T11:12:31Z</time>
      </trkpt>
      <trkpt lat="45.730348583310843" lon="10.84829050116241">
        <ele>2067.4499999999998</ele>
        <time>2018-06-10T11:12:43Z</time>
      </trkpt>
      <trkpt lat="45.730315139517188" lon="10.84827046841383">
        <ele>2067.4499999999998</ele>
        <time>2018-06-10T11:12:53Z</time>
      </trkpt>
      <trkpt lat="45.730308936908841" lon="10.848270049318671">
        <ele>2067.4499999999998</ele>
        <time>2018-06-10T11:13:04Z</time>
      </trkpt>
      <trkpt lat="45.730290496721864" lon="10.848254207521677">
        <ele>2067.9299999999998</ele>
        <time>2018-06-10T11:13:18Z</time>
      </trkpt>
      <trkpt lat="45.730265351012349" lon="10.848243646323681">
        <ele>2067.9299999999998</ele>
        <time>2018-06-10T11:13:21Z</time>
      </trkpt>
      <trkpt lat="45.730214305222034" lon="10.848233588039875">
        <ele>2068.8899999999999</ele>
        <time>2018-06-10T11:13:31Z</time>
      </trkpt>
      <trkpt lat="45.730230817571282" lon="10.84823333658278">
        <ele>2068.4099999999999</ele>
        <time>2018-06-10T11:13:42Z</time>
      </trkpt>
      <trkpt lat="45.730216903612018" lon="10.84822503849864">
        <ele>2068.4099999999999</ele>
        <time>2018-06-10T11:14:03Z</time>
      </trkpt>
      <trkpt lat="45.730213047936559" lon="10.848224870860577">
        <ele>2068.4099999999999</ele>
        <time>2018-06-10T11:14:07Z</time>
      </trkpt>
      <trkpt lat="45.730209946632385" lon="10.848222775384784">
        <ele>2069.3800000000001</ele>
        <time>2018-06-10T11:14:18Z</time>
      </trkpt>
      <trkpt lat="45.730211120098829" lon="10.848240293562412">
        <ele>2068.8899999999999</ele>
        <time>2018-06-10T11:14:22Z</time>
      </trkpt>
      <trkpt lat="45.730124535039067" lon="10.848217913880944">
        <ele>2070.3400000000001</ele>
        <time>2018-06-10T11:14:33Z</time>
      </trkpt>
      <trkpt lat="45.730065191164613" lon="10.848226714879274">
        <ele>2071.3000000000002</ele>
        <time>2018-06-10T11:14:42Z</time>
      </trkpt>
      <trkpt lat="45.729991178959608" lon="10.848212046548724">
        <ele>2073.2199999999998</ele>
        <time>2018-06-10T11:14:54Z</time>
      </trkpt>
      <trkpt lat="45.729932254180312" lon="10.84821137599647">
        <ele>2074.6599999999999</ele>
        <time>2018-06-10T11:15:02Z</time>
      </trkpt>
      <trkpt lat="45.729871820658445" lon="10.848221685737371">
        <ele>2076.0999999999999</ele>
        <time>2018-06-10T11:15:13Z</time>
      </trkpt>
      <trkpt lat="45.729824882000685" lon="10.8482098672539">
        <ele>2077.5500000000002</ele>
        <time>2018-06-10T11:15:21Z</time>
      </trkpt>
      <trkpt lat="45.729753468185663" lon="10.848172819241881">
        <ele>2078.0300000000002</ele>
        <time>2018-06-10T11:15:32Z</time>
      </trkpt>
      <trkpt lat="45.729739721864462" lon="10.848165191709995">
        <ele>2078.5100000000002</ele>
        <time>2018-06-10T11:15:35Z</time>
      </trkpt>
      <trkpt lat="45.729676773771644" lon="10.848098387941718">
        <ele>2078.9899999999998</ele>
        <time>2018-06-10T11:15:46Z</time>
      </trkpt>
      <trkpt lat="45.729667386040092" lon="10.848081121221185">
        <ele>2078.5100000000002</ele>
        <time>2018-06-10T11:15:48Z</time>
      </trkpt>
      <trkpt lat="45.729597313329577" lon="10.848034685477614">
        <ele>2078.9899999999998</ele>
        <time>2018-06-10T11:15:59Z</time>
      </trkpt>
      <trkpt lat="45.72952950373292" lon="10.848056226968765">
        <ele>2081.3899999999999</ele>
        <time>2018-06-10T11:16:10Z</time>
      </trkpt>
      <trkpt lat="45.729475859552622" lon="10.84803057834506">
        <ele>2082.8299999999999</ele>
        <time>2018-06-10T11:16:19Z</time>
      </trkpt>
      <trkpt lat="45.729453144595027" lon="10.848028063774109">
        <ele>2082.3499999999999</ele>
        <time>2018-06-10T11:16:31Z</time>
      </trkpt>
      <trkpt lat="45.729436548426747" lon="10.848024794831872">
        <ele>2082.3499999999999</ele>
        <time>2018-06-10T11:16:35Z</time>
      </trkpt>
      <trkpt lat="45.729340324178338" lon="10.847976682707667">
        <ele>2082.3499999999999</ele>
        <time>2018-06-10T11:16:46Z</time>
      </trkpt>
      <trkpt lat="45.729268155992031" lon="10.847943909466267">
        <ele>2084.2800000000002</ele>
        <time>2018-06-10T11:16:57Z</time>
      </trkpt>
      <trkpt lat="45.729207219555974" lon="10.847948184236884">
        <ele>2086.1999999999998</ele>
        <time>2018-06-10T11:17:07Z</time>
      </trkpt>
      <trkpt lat="45.729164388030767" lon="10.847942987456918">
        <ele>2087.1599999999999</ele>
        <time>2018-06-10T11:17:19Z</time>
      </trkpt>
      <trkpt lat="45.729123903438449" lon="10.847947346046567">
        <ele>2087.1599999999999</ele>
        <time>2018-06-10T11:17:30Z</time>
      </trkpt>
      <trkpt lat="45.729105211794376" lon="10.847943155094981">
        <ele>2086.6799999999998</ele>
        <time>2018-06-10T11:17:33Z</time>
      </trkpt>
      <trkpt lat="45.729004209861159" lon="10.847906526178122">
        <ele>2085.7199999999998</ele>
        <time>2018-06-10T11:17:45Z</time>
      </trkpt>
      <trkpt lat="45.729002114385366" lon="10.847888337448239">
        <ele>2084.7600000000002</ele>
        <time>2018-06-10T11:17:54Z</time>
      </trkpt>
      <trkpt lat="45.72901108302176" lon="10.847888337448239">
        <ele>2085.2399999999998</ele>
        <time>2018-06-10T11:17:55Z</time>
      </trkpt>
      <trkpt lat="45.729078892618418" lon="10.847940221428871">
        <ele>2086.6799999999998</ele>
        <time>2018-06-10T11:18:07Z</time>
      </trkpt>
      <trkpt lat="45.729070343077183" lon="10.847959248349071">
        <ele>2086.6799999999998</ele>
        <time>2018-06-10T11:18:18Z</time>
      </trkpt>
      <trkpt lat="45.729062044993043" lon="10.84796360693872">
        <ele>2086.6799999999998</ele>
        <time>2018-06-10T11:18:35Z</time>
      </trkpt>
      <trkpt lat="45.72908584959805" lon="10.847967630252242">
        <ele>2087.1599999999999</ele>
        <time>2018-06-10T11:18:49Z</time>
      </trkpt>
      <trkpt lat="45.729077300056815" lon="10.847976012155414">
        <ele>2087.1599999999999</ele>
        <time>2018-06-10T11:18:58Z</time>
      </trkpt>
      <trkpt lat="45.729076042771339" lon="10.847987327724695">
        <ele>2087.1599999999999</ele>
        <time>2018-06-10T11:19:11Z</time>
      </trkpt>
      <trkpt lat="45.729077132418752" lon="10.848001157864928">
        <ele>2087.1599999999999</ele>
        <time>2018-06-10T11:19:28Z</time>
      </trkpt>
      <trkpt lat="45.729078724980354" lon="10.848011635243893">
        <ele>2087.1599999999999</ele>
        <time>2018-06-10T11:19:55Z</time>
      </trkpt>
      <trkpt lat="45.729087190702558" lon="10.848003588616848">
        <ele>2087.1599999999999</ele>
        <time>2018-06-10T11:20:08Z</time>
      </trkpt>
      <trkpt lat="45.729118874296546" lon="10.847987830638885">
        <ele>2087.6399999999999</ele>
        <time>2018-06-10T11:20:24Z</time>
      </trkpt>
      <trkpt lat="45.729138655588031" lon="10.84799830801785">
        <ele>2087.6399999999999</ele>
        <time>2018-06-10T11:20:34Z</time>
      </trkpt>
      <trkpt lat="45.729150557890534" lon="10.848015993833542">
        <ele>2087.6399999999999</ele>
        <time>2018-06-10T11:20:54Z</time>
      </trkpt>
      <trkpt lat="45.729131614789367" lon="10.847995039075613">
        <ele>2087.6399999999999</ele>
        <time>2018-06-10T11:21:15Z</time>
      </trkpt>
      <trkpt lat="45.729135302826762" lon="10.848015826195478">
        <ele>2087.6399999999999</ele>
        <time>2018-06-10T11:21:42Z</time>
      </trkpt>
      <trkpt lat="45.729132201522589" lon="10.8480129763484">
        <ele>2087.6399999999999</ele>
        <time>2018-06-10T11:22:05Z</time>
      </trkpt>
      <trkpt lat="45.729135638102889" lon="10.848024040460587">
        <ele>2087.6399999999999</ele>
        <time>2018-06-10T11:22:27Z</time>
      </trkpt>
      <trkpt lat="45.729135805740952" lon="10.848030662164092">
        <ele>2087.6399999999999</ele>
        <time>2018-06-10T11:22:48Z</time>
      </trkpt>
      <trkpt lat="45.729128681123257" lon="10.848022699356079">
        <ele>2087.6399999999999</ele>
        <time>2018-06-10T11:23:02Z</time>
      </trkpt>
      <trkpt lat="45.729120131582022" lon="10.847989674657583">
        <ele>2087.6399999999999</ele>
        <time>2018-06-10T11:23:14Z</time>
      </trkpt>
      <trkpt lat="45.729106720536947" lon="10.847996044903994">
        <ele>2087.6399999999999</ele>
        <time>2018-06-10T11:23:28Z</time>
      </trkpt>
      <trkpt lat="45.729060284793377" lon="10.847964445129037">
        <ele>2086.1999999999998</ele>
        <time>2018-06-10T11:23:40Z</time>
      </trkpt>
      <trkpt lat="45.729014435783029" lon="10.847924966365099">
        <ele>2085.2399999999998</ele>
        <time>2018-06-10T11:23:51Z</time>
      </trkpt>
      <trkpt lat="45.728965988382697" lon="10.847896300256252">
        <ele>2084.2800000000002</ele>
        <time>2018-06-10T11:24:03Z</time>
      </trkpt>
      <trkpt lat="45.728908823803067" lon="10.847851792350411">
        <ele>2082.8299999999999</ele>
        <time>2018-06-10T11:24:14Z</time>
      </trkpt>
      <trkpt lat="45.728862388059497" lon="10.847831759601831">
        <ele>2081.3899999999999</ele>
        <time>2018-06-10T11:24:26Z</time>
      </trkpt>
      <trkpt lat="45.728826262056828" lon="10.847826730459929">
        <ele>2080.4299999999998</ele>
        <time>2018-06-10T11:24:37Z</time>
      </trkpt>
      <trkpt lat="45.728757362812757" lon="10.847809882834554">
        <ele>2078.9899999999998</ele>
        <time>2018-06-10T11:24:49Z</time>
      </trkpt>
      <trkpt lat="45.728675555437803" lon="10.847784569486976">
        <ele>2078.0300000000002</ele>
        <time>2018-06-10T11:25:01Z</time>
      </trkpt>
      <trkpt lat="45.728621743619442" lon="10.847771074622869">
        <ele>2077.5500000000002</ele>
        <time>2018-06-10T11:25:13Z</time>
      </trkpt>
      <trkpt lat="45.728579247370362" lon="10.84772857837379">
        <ele>2078.5100000000002</ele>
        <time>2018-06-10T11:25:22Z</time>
      </trkpt>
      <trkpt lat="45.728529877960682" lon="10.847711060196161">
        <ele>2079.4699999999998</ele>
        <time>2018-06-10T11:25:32Z</time>
      </trkpt>
      <trkpt lat="45.72848143056035" lon="10.847700331360102">
        <ele>2079.9499999999998</ele>
        <time>2018-06-10T11:25:42Z</time>
      </trkpt>
      <trkpt lat="45.728450417518616" lon="10.847692955285311">
        <ele>2080.4299999999998</ele>
        <time>2018-06-10T11:25:56Z</time>
      </trkpt>
      <trkpt lat="45.728433066979051" lon="10.847669569775462">
        <ele>2080.9099999999999</ele>
        <time>2018-06-10T11:26:07Z</time>
      </trkpt>
      <trkpt lat="45.728395096957684" lon="10.847646184265614">
        <ele>2080.4299999999998</ele>
        <time>2018-06-10T11:26:17Z</time>
      </trkpt>
      <trkpt lat="45.728358719497919" lon="10.847637383267283">
        <ele>2080.9099999999999</ele>
        <time>2018-06-10T11:26:24Z</time>
      </trkpt>
      <trkpt lat="45.728312451392412" lon="10.847613662481308">
        <ele>2081.3899999999999</ele>
        <time>2018-06-10T11:26:34Z</time>
      </trkpt>
      <trkpt lat="45.728293005377054" lon="10.847619781270623">
        <ele>2081.3899999999999</ele>
        <time>2018-06-10T11:26:45Z</time>
      </trkpt>
      <trkpt lat="45.728292167186737" lon="10.847620954737067">
        <ele>2081.3899999999999</ele>
        <time>2018-06-10T11:27:06Z</time>
      </trkpt>
      <trkpt lat="45.728241121396422" lon="10.847602682188153">
        <ele>2081.8699999999999</ele>
        <time>2018-06-10T11:27:26Z</time>
      </trkpt>
      <trkpt lat="45.728224022313952" lon="10.847589354962111">
        <ele>2082.8299999999999</ele>
        <time>2018-06-10T11:27:36Z</time>
      </trkpt>
      <trkpt lat="45.72819996625185" lon="10.847612908110023">
        <ele>2085.2399999999998</ele>
        <time>2018-06-10T11:27:45Z</time>
      </trkpt>
      <trkpt lat="45.728165935724974" lon="10.847599832341075">
        <ele>2087.6399999999999</ele>
        <time>2018-06-10T11:27:55Z</time>
      </trkpt>
      <trkpt lat="45.728124026209116" lon="10.84759471938014">
        <ele>2088.1199999999999</ele>
        <time>2018-06-10T11:28:05Z</time>
      </trkpt>
      <trkpt lat="45.728125451132655" lon="10.847558090463281">
        <ele>2088.1199999999999</ele>
        <time>2018-06-10T11:28:13Z</time>
      </trkpt>
      <trkpt lat="45.728134335950017" lon="10.847552558407187">
        <ele>2088.1199999999999</ele>
        <time>2018-06-10T11:28:24Z</time>
      </trkpt>
      <trkpt lat="45.728134671226144" lon="10.847539147362113">
        <ele>2088.1199999999999</ele>
        <time>2018-06-10T11:28:39Z</time>
      </trkpt>
      <trkpt lat="45.728147914633155" lon="10.847520204260945">
        <ele>2088.1199999999999</ele>
        <time>2018-06-10T11:28:53Z</time>
      </trkpt>
      <trkpt lat="45.728117572143674" lon="10.847543589770794">
        <ele>2088.1199999999999</ele>
        <time>2018-06-10T11:29:06Z</time>
      </trkpt>
      <trkpt lat="45.728129390627146" lon="10.847535794600844">
        <ele>2088.1199999999999</ele>
        <time>2018-06-10T11:29:25Z</time>
      </trkpt>
      <trkpt lat="45.728135425597429" lon="10.8475277479738">
        <ele>2088.1199999999999</ele>
        <time>2018-06-10T11:29:40Z</time>
      </trkpt>
      <trkpt lat="45.728122852742672" lon="10.847512241452932">
        <ele>2088.1199999999999</ele>
        <time>2018-06-10T11:29:57Z</time>
      </trkpt>
      <trkpt lat="45.728112459182739" lon="10.847501931712031">
        <ele>2088.5999999999999</ele>
        <time>2018-06-10T11:30:18Z</time>
      </trkpt>
      <trkpt lat="45.728150429204106" lon="10.847515761852264">
        <ele>2088.5999999999999</ele>
        <time>2018-06-10T11:30:36Z</time>
      </trkpt>
      <trkpt lat="45.728142214938998" lon="10.847552977502346">
        <ele>2088.5999999999999</ele>
        <time>2018-06-10T11:30:52Z</time>
      </trkpt>
      <trkpt lat="45.728136850520968" lon="10.847537470981479">
        <ele>2090.04</ele>
        <time>2018-06-10T11:31:10Z</time>
      </trkpt>
      <trkpt lat="45.728116733953357" lon="10.847537973895669">
        <ele>2088.1199999999999</ele>
        <time>2018-06-10T11:31:27Z</time>
      </trkpt>
      <trkpt lat="45.728093683719635" lon="10.847526742145419">
        <ele>2089.0799999999999</ele>
        <time>2018-06-10T11:31:42Z</time>
      </trkpt>
      <trkpt lat="45.728061497211456" lon="10.847532190382481">
        <ele>2089.0799999999999</ele>
        <time>2018-06-10T11:32:01Z</time>
      </trkpt>
      <trkpt lat="45.728061916306615" lon="10.847524143755436">
        <ele>2089.5599999999999</ele>
        <time>2018-06-10T11:32:18Z</time>
      </trkpt>
      <trkpt lat="45.728055965155363" lon="10.847550043836236">
        <ele>2090.04</ele>
        <time>2018-06-10T11:32:34Z</time>
      </trkpt>
      <trkpt lat="45.728071890771389" lon="10.847560772672296">
        <ele>2091</ele>
        <time>2018-06-10T11:32:50Z</time>
      </trkpt>
      <trkpt lat="45.728048253804445" lon="10.847565131261945">
        <ele>2092.4499999999998</ele>
        <time>2018-06-10T11:33:02Z</time>
      </trkpt>
      <trkpt lat="45.72809636592865" lon="10.847612069919705">
        <ele>2095.3299999999999</ele>
        <time>2018-06-10T11:33:11Z</time>
      </trkpt>
      <trkpt lat="45.728071974590421" lon="10.84763377904892">
        <ele>2095.8099999999999</ele>
        <time>2018-06-10T11:33:23Z</time>
      </trkpt>
      <trkpt lat="45.72800986468792" lon="10.847632270306349">
        <ele>2098.21</ele>
        <time>2018-06-10T11:33:34Z</time>
      </trkpt>
      <trkpt lat="45.728006595745683" lon="10.847609890624881">
        <ele>2099.1799999999998</ele>
        <time>2018-06-10T11:33:43Z</time>
      </trkpt>
      <trkpt lat="45.728023694828153" lon="10.847616009414196">
        <ele>2099.1799999999998</ele>
        <time>2018-06-10T11:33:57Z</time>
      </trkpt>
      <trkpt lat="45.728017576038837" lon="10.847610980272293">
        <ele>2099.1799999999998</ele>
        <time>2018-06-10T11:34:07Z</time>
      </trkpt>
      <trkpt lat="45.727937361225486" lon="10.847585164010525">
        <ele>2099.6599999999999</ele>
        <time>2018-06-10T11:34:18Z</time>
      </trkpt>
      <trkpt lat="45.72789260186255" lon="10.84759371355176">
        <ele>2101.5799999999999</ele>
        <time>2018-06-10T11:34:27Z</time>
      </trkpt>
      <trkpt lat="45.727862678468227" lon="10.84761081263423">
        <ele>2103.5</ele>
        <time>2018-06-10T11:34:37Z</time>
      </trkpt>
      <trkpt lat="45.727821523323655" lon="10.847622379660606">
        <ele>2105.4200000000001</ele>
        <time>2018-06-10T11:34:45Z</time>
      </trkpt>
      <trkpt lat="45.727793863043189" lon="10.847615757957101">
        <ele>2107.8299999999999</ele>
        <time>2018-06-10T11:34:55Z</time>
      </trkpt>
      <trkpt lat="45.72778657078743" lon="10.847600838169456">
        <ele>2107.8299999999999</ele>
        <time>2018-06-10T11:34:57Z</time>
      </trkpt>
      <trkpt lat="45.727773914113641" lon="10.847578793764114">
        <ele>2108.79</ele>
        <time>2018-06-10T11:35:00Z</time>
      </trkpt>
      <trkpt lat="45.727772656828165" lon="10.847578374668956">
        <ele>2109.75</ele>
        <time>2018-06-10T11:35:09Z</time>
      </trkpt>
      <trkpt lat="45.727752121165395" lon="10.847584661096334">
        <ele>2110.71</ele>
        <time>2018-06-10T11:35:20Z</time>
      </trkpt>
      <trkpt lat="45.727727310732007" lon="10.847587427124381">
        <ele>2111.1900000000001</ele>
        <time>2018-06-10T11:35:37Z</time>
      </trkpt>
      <trkpt lat="45.72773183695972" lon="10.847589774057269">
        <ele>2111.6700000000001</ele>
        <time>2018-06-10T11:35:49Z</time>
      </trkpt>
      <trkpt lat="45.727717923000455" lon="10.847585666924715">
        <ele>2112.6300000000001</ele>
        <time>2018-06-10T11:35:56Z</time>
      </trkpt>
      <trkpt lat="45.727676432579756" lon="10.847605196759105">
        <ele>2114.5599999999999</ele>
        <time>2018-06-10T11:36:07Z</time>
      </trkpt>
      <trkpt lat="45.727639636024833" lon="10.84760595113039">
        <ele>2116</ele>
        <time>2018-06-10T11:36:16Z</time>
      </trkpt>
      <trkpt lat="45.727611137554049" lon="10.847584828734398">
        <ele>2116.96</ele>
        <time>2018-06-10T11:36:27Z</time>
      </trkpt>
      <trkpt lat="45.727574257180095" lon="10.847583236172795">
        <ele>2117.4400000000001</ele>
        <time>2018-06-10T11:36:40Z</time>
      </trkpt>
      <trkpt lat="45.72756964713335" lon="10.847549624741077">
        <ele>2118.8800000000001</ele>
        <time>2018-06-10T11:36:52Z</time>
      </trkpt>
      <trkpt lat="45.727579202502966" lon="10.847555240616202">
        <ele>2118.8800000000001</ele>
        <time>2018-06-10T11:37:04Z</time>
      </trkpt>
      <trkpt lat="45.727579789236188" lon="10.847574602812529">
        <ele>2119.3600000000001</ele>
        <time>2018-06-10T11:37:13Z</time>
      </trkpt>
      <trkpt lat="45.72757693938911" lon="10.847559599205852">
        <ele>2118.8800000000001</ele>
        <time>2018-06-10T11:37:25Z</time>
      </trkpt>
      <trkpt lat="45.72757844813168" lon="10.847543254494667">
        <ele>2118.8800000000001</ele>
        <time>2018-06-10T11:37:37Z</time>
      </trkpt>
      <trkpt lat="45.727571994066238" lon="10.847566304728389">
        <ele>2118.8800000000001</ele>
        <time>2018-06-10T11:37:49Z</time>
      </trkpt>
      <trkpt lat="45.727565037086606" lon="10.847564460709691">
        <ele>2119.3600000000001</ele>
        <time>2018-06-10T11:37:58Z</time>
      </trkpt>
      <trkpt lat="45.727532347664237" lon="10.847567729651928">
        <ele>2120.8099999999999</ele>
        <time>2018-06-10T11:38:13Z</time>
      </trkpt>
      <trkpt lat="45.727513069286942" lon="10.847533950582147">
        <ele>2121.77</ele>
        <time>2018-06-10T11:38:23Z</time>
      </trkpt>
      <trkpt lat="45.727497143670917" lon="10.847499333322048">
        <ele>2123.21</ele>
        <time>2018-06-10T11:38:33Z</time>
      </trkpt>
      <trkpt lat="45.72749488055706" lon="10.847475277259946">
        <ele>2122.73</ele>
        <time>2018-06-10T11:38:49Z</time>
      </trkpt>
      <trkpt lat="45.727507704868913" lon="10.847499752417207">
        <ele>2123.21</ele>
        <time>2018-06-10T11:39:03Z</time>
      </trkpt>
      <trkpt lat="45.727507201954722" lon="10.847530597820878">
        <ele>2123.6900000000001</ele>
        <time>2018-06-10T11:39:14Z</time>
      </trkpt>
      <trkpt lat="45.72750560939312" lon="10.847457842901349">
        <ele>2124.1700000000001</ele>
        <time>2018-06-10T11:39:22Z</time>
      </trkpt>
      <trkpt lat="45.72748557664454" lon="10.847414592280984">
        <ele>2125.6100000000001</ele>
        <time>2018-06-10T11:39:30Z</time>
      </trkpt>
      <trkpt lat="45.727473674342036" lon="10.847433535382152">
        <ele>2126.0900000000001</ele>
        <time>2018-06-10T11:39:40Z</time>
      </trkpt>
      <trkpt lat="45.727492030709982" lon="10.847410568967462">
        <ele>2126.0900000000001</ele>
        <time>2018-06-10T11:39:55Z</time>
      </trkpt>
      <trkpt lat="45.727485325187445" lon="10.847386596724391">
        <ele>2126.5700000000002</ele>
        <time>2018-06-10T11:40:07Z</time>
      </trkpt>
      <trkpt lat="45.727457664906979" lon="10.84737385623157">
        <ele>2125.6100000000001</ele>
        <time>2018-06-10T11:40:17Z</time>
      </trkpt>
      <trkpt lat="45.72744844481349" lon="10.847361199557781">
        <ele>2124.6500000000001</ele>
        <time>2018-06-10T11:40:21Z</time>
      </trkpt>
      <trkpt lat="45.727475853636861" lon="10.847277129068971">
        <ele>2125.6100000000001</ele>
        <time>2018-06-10T11:40:31Z</time>
      </trkpt>
      <trkpt lat="45.727470573037863" lon="10.847279140725732">
        <ele>2127.5300000000002</ele>
        <time>2018-06-10T11:40:42Z</time>
      </trkpt>
      <trkpt lat="45.727476943284273" lon="10.847263969480991">
        <ele>2127.5300000000002</ele>
        <time>2018-06-10T11:40:52Z</time>
      </trkpt>
      <trkpt lat="45.727496976032853" lon="10.847247960045934">
        <ele>2128.02</ele>
        <time>2018-06-10T11:41:02Z</time>
      </trkpt>
      <trkpt lat="45.727470405399799" lon="10.847255922853947">
        <ele>2128.5</ele>
        <time>2018-06-10T11:41:15Z</time>
      </trkpt>
      <trkpt lat="45.72746311314404" lon="10.847289450466633">
        <ele>2127.5300000000002</ele>
        <time>2018-06-10T11:41:24Z</time>
      </trkpt>
      <trkpt lat="45.727408966049552" lon="10.847229855135083">
        <ele>2127.5300000000002</ele>
        <time>2018-06-10T11:41:33Z</time>
      </trkpt>
      <trkpt lat="45.727396393194795" lon="10.847171097993851">
        <ele>2129.46</ele>
        <time>2018-06-10T11:41:41Z</time>
      </trkpt>
      <trkpt lat="45.727385999634862" lon="10.847154837101698">
        <ele>2130.9000000000001</ele>
        <time>2018-06-10T11:41:50Z</time>
      </trkpt>
      <trkpt lat="45.727364961057901" lon="10.847157016396523">
        <ele>2131.8600000000001</ele>
        <time>2018-06-10T11:41:59Z</time>
      </trkpt>
      <trkpt lat="45.727345515042543" lon="10.847162716090679">
        <ele>2131.8600000000001</ele>
        <time>2018-06-10T11:42:12Z</time>
      </trkpt>
      <trkpt lat="45.727314921095967" lon="10.847117956727743">
        <ele>2131.3800000000001</ele>
        <time>2018-06-10T11:42:20Z</time>
      </trkpt>
      <trkpt lat="45.727289943024516" lon="10.847119968384504">
        <ele>2130.4200000000001</ele>
        <time>2018-06-10T11:42:25Z</time>
      </trkpt>
      <trkpt lat="45.727245938032866" lon="10.847093565389514">
        <ele>2132.3400000000001</ele>
        <time>2018-06-10T11:42:35Z</time>
      </trkpt>
      <trkpt lat="45.727222636342049" lon="10.847089039161801">
        <ele>2133.7800000000002</ele>
        <time>2018-06-10T11:42:46Z</time>
      </trkpt>
      <trkpt lat="45.72720562107861" lon="10.847047632560134">
        <ele>2134.2600000000002</ele>
        <time>2018-06-10T11:42:55Z</time>
      </trkpt>
      <trkpt lat="45.727162454277277" lon="10.847085770219564">
        <ele>2134.7399999999998</ele>
        <time>2018-06-10T11:43:08Z</time>
      </trkpt>
      <trkpt lat="45.727131776511669" lon="10.847055092453957">
        <ele>2134.2600000000002</ele>
        <time>2018-06-10T11:43:17Z</time>
      </trkpt>
      <trkpt lat="45.727157592773438" lon="10.847026091068983">
        <ele>2133.7800000000002</ele>
        <time>2018-06-10T11:43:30Z</time>
      </trkpt>
      <trkpt lat="45.727135967463255" lon="10.847004298120737">
        <ele>2132.3400000000001</ele>
        <time>2018-06-10T11:43:42Z</time>
      </trkpt>
      <trkpt lat="45.727135296911001" lon="10.846969010308385">
        <ele>2131.8600000000001</ele>
        <time>2018-06-10T11:43:53Z</time>
      </trkpt>
      <trkpt lat="45.727141667157412" lon="10.846960376948118">
        <ele>2131.3800000000001</ele>
        <time>2018-06-10T11:44:07Z</time>
      </trkpt>
      <trkpt lat="45.727137643843889" lon="10.846956018358469">
        <ele>2131.3800000000001</ele>
        <time>2018-06-10T11:44:19Z</time>
      </trkpt>
      <trkpt lat="45.727153737097979" lon="10.846906816586852">
        <ele>2130.4200000000001</ele>
        <time>2018-06-10T11:44:31Z</time>
      </trkpt>
      <trkpt lat="45.727126831188798" lon="10.846881167963147">
        <ele>2128.98</ele>
        <time>2018-06-10T11:44:40Z</time>
      </trkpt>
      <trkpt lat="45.727146780118346" lon="10.84684076718986">
        <ele>2127.5300000000002</ele>
        <time>2018-06-10T11:44:50Z</time>
      </trkpt>
      <trkpt lat="45.727152982726693" lon="10.846807742491364">
        <ele>2126.0900000000001</ele>
        <time>2018-06-10T11:45:01Z</time>
      </trkpt>
      <trkpt lat="45.727179972454906" lon="10.846769604831934">
        <ele>2125.6100000000001</ele>
        <time>2018-06-10T11:45:18Z</time>
      </trkpt>
      <trkpt lat="45.727162286639214" lon="10.846783267334104">
        <ele>2126.0900000000001</ele>
        <time>2018-06-10T11:45:31Z</time>
      </trkpt>
      <trkpt lat="45.727151557803154" lon="10.846796175464988">
        <ele>2124.1700000000001</ele>
        <time>2018-06-10T11:45:42Z</time>
      </trkpt>
      <trkpt lat="45.727148288860917" lon="10.846818890422583">
        <ele>2124.6500000000001</ele>
        <time>2018-06-10T11:45:53Z</time>
      </trkpt>
      <trkpt lat="45.727149210870266" lon="10.84682609885931">
        <ele>2124.6500000000001</ele>
        <time>2018-06-10T11:46:06Z</time>
      </trkpt>
      <trkpt lat="45.727159269154072" lon="10.846812352538109">
        <ele>2124.6500000000001</ele>
        <time>2018-06-10T11:46:19Z</time>
      </trkpt>
      <trkpt lat="45.727144181728363" lon="10.846821824088693">
        <ele>2124.6500000000001</ele>
        <time>2018-06-10T11:46:36Z</time>
      </trkpt>
      <trkpt lat="45.7271508872509" lon="10.846825260668993">
        <ele>2125.1300000000001</ele>
        <time>2018-06-10T11:46:51Z</time>
      </trkpt>
      <trkpt lat="45.727148121222854" lon="10.846824422478676">
        <ele>2125.1300000000001</ele>
        <time>2018-06-10T11:47:07Z</time>
      </trkpt>
      <trkpt lat="45.727136051282287" lon="10.846824590116739">
        <ele>2125.1300000000001</ele>
        <time>2018-06-10T11:47:22Z</time>
      </trkpt>
      <trkpt lat="45.727166226133704" lon="10.84679483436048">
        <ele>2124.6500000000001</ele>
        <time>2018-06-10T11:47:36Z</time>
      </trkpt>
      <trkpt lat="45.727143092080951" lon="10.846734484657645">
        <ele>2122.73</ele>
        <time>2018-06-10T11:47:47Z</time>
      </trkpt>
      <trkpt lat="45.727137476205826" lon="10.846626190468669">
        <ele>2120.8099999999999</ele>
        <time>2018-06-10T11:47:58Z</time>
      </trkpt>
      <trkpt lat="45.727135296911001" lon="10.846602134406567">
        <ele>2120.3200000000002</ele>
        <time>2018-06-10T11:48:00Z</time>
      </trkpt>
      <trkpt lat="45.72713915258646" lon="10.846545724198222">
        <ele>2119.8400000000001</ele>
        <time>2018-06-10T11:48:10Z</time>
      </trkpt>
      <trkpt lat="45.727109313011169" lon="10.846498450264335">
        <ele>2117.9200000000001</ele>
        <time>2018-06-10T11:48:21Z</time>
      </trkpt>
      <trkpt lat="45.727114090695977" lon="10.8465192373842">
        <ele>2117.4400000000001</ele>
        <time>2018-06-10T11:48:35Z</time>
      </trkpt>
      <trkpt lat="45.727068074047565" lon="10.846467101946473">
        <ele>2115.52</ele>
        <time>2018-06-10T11:48:50Z</time>
      </trkpt>
      <trkpt lat="45.727021638303995" lon="10.846388479694724">
        <ele>2113.1199999999999</ele>
        <time>2018-06-10T11:48:58Z</time>
      </trkpt>
      <trkpt lat="45.726965731009841" lon="10.846294183284044">
        <ele>2111.6700000000001</ele>
        <time>2018-06-10T11:49:05Z</time>
      </trkpt>
      <trkpt lat="45.726913176476955" lon="10.846259063109756">
        <ele>2109.75</ele>
        <time>2018-06-10T11:49:15Z</time>
      </trkpt>
      <trkpt lat="45.726905213668942" lon="10.846230899915099">
        <ele>2109.27</ele>
        <time>2018-06-10T11:49:22Z</time>
      </trkpt>
      <trkpt lat="45.726923486217856" lon="10.846221763640642">
        <ele>2109.75</ele>
        <time>2018-06-10T11:49:35Z</time>
      </trkpt>
      <trkpt lat="45.726927006617188" lon="10.846186559647322">
        <ele>2109.75</ele>
        <time>2018-06-10T11:49:52Z</time>
      </trkpt>
      <trkpt lat="45.726850228384137" lon="10.846151104196906">
        <ele>2108.3099999999999</ele>
        <time>2018-06-10T11:50:08Z</time>
      </trkpt>
      <trkpt lat="45.726763810962439" lon="10.846125036478043">
        <ele>2106.8699999999999</ele>
        <time>2018-06-10T11:50:20Z</time>
      </trkpt>
      <trkpt lat="45.726723158732057" lon="10.846112128347158">
        <ele>2104.9400000000001</ele>
        <time>2018-06-10T11:50:31Z</time>
      </trkpt>
      <trkpt lat="45.726704802364111" lon="10.846113469451666">
        <ele>2103.98</ele>
        <time>2018-06-10T11:50:39Z</time>
      </trkpt>
      <trkpt lat="45.726705305278301" lon="10.846086982637644">
        <ele>2104.46</ele>
        <time>2018-06-10T11:50:50Z</time>
      </trkpt>
      <trkpt lat="45.726701952517033" lon="10.846094442531466">
        <ele>2103.98</ele>
        <time>2018-06-10T11:51:02Z</time>
      </trkpt>
      <trkpt lat="45.726680578663945" lon="10.846094526350498">
        <ele>2103.02</ele>
        <time>2018-06-10T11:51:09Z</time>
      </trkpt>
      <trkpt lat="45.726597933098674" lon="10.846133753657341">
        <ele>2102.54</ele>
        <time>2018-06-10T11:51:19Z</time>
      </trkpt>
      <trkpt lat="45.726502547040582" lon="10.84616300649941">
        <ele>2099.1799999999998</ele>
        <time>2018-06-10T11:51:29Z</time>
      </trkpt>
      <trkpt lat="45.726461140438914" lon="10.84609804674983">
        <ele>2096.77</ele>
        <time>2018-06-10T11:51:38Z</time>
      </trkpt>
      <trkpt lat="45.726443706080317" lon="10.846040295436978">
        <ele>2094.3699999999999</ele>
        <time>2018-06-10T11:51:47Z</time>
      </trkpt>
      <trkpt lat="45.726433228701353" lon="10.84604281000793">
        <ele>2094.3699999999999</ele>
        <time>2018-06-10T11:51:53Z</time>
      </trkpt>
      <trkpt lat="45.726399701088667" lon="10.845999391749501">
        <ele>2091.4899999999998</ele>
        <time>2018-06-10T11:52:03Z</time>
      </trkpt>
      <trkpt lat="45.726394085213542" lon="10.845984555780888">
        <ele>2091</ele>
        <time>2018-06-10T11:52:16Z</time>
      </trkpt>
      <trkpt lat="45.726393833756447" lon="10.845975419506431">
        <ele>2091</ele>
        <time>2018-06-10T11:52:24Z</time>
      </trkpt>
      <trkpt lat="45.726409256458282" lon="10.845973240211606">
        <ele>2091</ele>
        <time>2018-06-10T11:52:42Z</time>
      </trkpt>
      <trkpt lat="45.726436246186495" lon="10.846004839986563">
        <ele>2092.4499999999998</ele>
        <time>2018-06-10T11:52:53Z</time>
      </trkpt>
      <trkpt lat="45.726411687210202" lon="10.845977431163192">
        <ele>2091.4899999999998</ele>
        <time>2018-06-10T11:53:07Z</time>
      </trkpt>
      <trkpt lat="45.726392576470971" lon="10.845961086452007">
        <ele>2091</ele>
        <time>2018-06-10T11:53:16Z</time>
      </trkpt>
      <trkpt lat="45.72638520039618" lon="10.845964690670371">
        <ele>2090.52</ele>
        <time>2018-06-10T11:53:31Z</time>
      </trkpt>
      <trkpt lat="45.726365083828568" lon="10.845945412293077">
        <ele>2090.04</ele>
        <time>2018-06-10T11:53:40Z</time>
      </trkpt>
      <trkpt lat="45.726360222324729" lon="10.845931582152843">
        <ele>2090.04</ele>
        <time>2018-06-10T11:53:52Z</time>
      </trkpt>
      <trkpt lat="45.726333316415548" lon="10.845933426171541">
        <ele>2089.0799999999999</ele>
        <time>2018-06-10T11:54:04Z</time>
      </trkpt>
      <trkpt lat="45.726335914805532" lon="10.845930995419621">
        <ele>2089.0799999999999</ele>
        <time>2018-06-10T11:54:18Z</time>
      </trkpt>
      <trkpt lat="45.726331723853946" lon="10.845928313210607">
        <ele>2088.1199999999999</ele>
        <time>2018-06-10T11:54:26Z</time>
      </trkpt>
      <trkpt lat="45.726293418556452" lon="10.845905682072043">
        <ele>2087.1599999999999</ele>
        <time>2018-06-10T11:54:41Z</time>
      </trkpt>
      <trkpt lat="45.726254694163799" lon="10.845880368724465">
        <ele>2085.7199999999998</ele>
        <time>2018-06-10T11:54:49Z</time>
      </trkpt>
      <trkpt lat="45.726253353059292" lon="10.845855725929141">
        <ele>2085.2399999999998</ele>
        <time>2018-06-10T11:54:57Z</time>
      </trkpt>
      <trkpt lat="45.726194595918059" lon="10.84576821886003">
        <ele>2086.1999999999998</ele>
        <time>2018-06-10T11:55:08Z</time>
      </trkpt>
      <trkpt lat="45.726161152124405" lon="10.845774505287409">
        <ele>2088.1199999999999</ele>
        <time>2018-06-10T11:55:15Z</time>
      </trkpt>
      <trkpt lat="45.726155787706375" lon="10.845789592713118">
        <ele>2088.1199999999999</ele>
        <time>2018-06-10T11:55:17Z</time>
      </trkpt>
      <trkpt lat="45.726126618683338" lon="10.845798812806606">
        <ele>2087.6399999999999</ele>
        <time>2018-06-10T11:55:22Z</time>
      </trkpt>
      <trkpt lat="45.726116895675659" lon="10.845780540257692">
        <ele>2087.1599999999999</ele>
        <time>2018-06-10T11:55:32Z</time>
      </trkpt>
      <trkpt lat="45.72610474191606" lon="10.845763860270381">
        <ele>2086.6799999999998</ele>
        <time>2018-06-10T11:55:44Z</time>
      </trkpt>
      <trkpt lat="45.72611010633409" lon="10.845751622691751">
        <ele>2086.6799999999998</ele>
        <time>2018-06-10T11:55:56Z</time>
      </trkpt>
      <trkpt lat="45.726094264537096" lon="10.845764866098762">
        <ele>2086.6799999999998</ele>
        <time>2018-06-10T11:55:59Z</time>
      </trkpt>
      <trkpt lat="45.725971637293696" lon="10.845740726217628">
        <ele>2085.2399999999998</ele>
        <time>2018-06-10T11:56:12Z</time>
      </trkpt>
      <trkpt lat="45.72595227509737" lon="10.845661852508783">
        <ele>2083.79</ele>
        <time>2018-06-10T11:56:21Z</time>
      </trkpt>
      <trkpt lat="45.725930901244283" lon="10.845598904415965">
        <ele>2082.8299999999999</ele>
        <time>2018-06-10T11:56:33Z</time>
      </trkpt>
      <trkpt lat="45.725921345874667" lon="10.845605190843344">
        <ele>2081.8699999999999</ele>
        <time>2018-06-10T11:56:43Z</time>
      </trkpt>
      <trkpt lat="45.725905252620578" lon="10.845569567754865">
        <ele>2081.3899999999999</ele>
        <time>2018-06-10T11:56:51Z</time>
      </trkpt>
      <trkpt lat="45.725888069719076" lon="10.845566550269723">
        <ele>2081.3899999999999</ele>
        <time>2018-06-10T11:56:56Z</time>
      </trkpt>
      <trkpt lat="45.725824870169163" lon="10.845555821433663">
        <ele>2080.4299999999998</ele>
        <time>2018-06-10T11:57:06Z</time>
      </trkpt>
      <trkpt lat="45.725817494094372" lon="10.845551462844014">
        <ele>2080.9099999999999</ele>
        <time>2018-06-10T11:57:19Z</time>
      </trkpt>
      <trkpt lat="45.725826127454638" lon="10.845551462844014">
        <ele>2081.3899999999999</ele>
        <time>2018-06-10T11:57:20Z</time>
      </trkpt>
      <trkpt lat="45.725852698087692" lon="10.845549535006285">
        <ele>2080.9099999999999</ele>
        <time>2018-06-10T11:57:30Z</time>
      </trkpt>
      <trkpt lat="45.725812632590532" lon="10.845540314912796">
        <ele>2080.9099999999999</ele>
        <time>2018-06-10T11:57:41Z</time>
      </trkpt>
      <trkpt lat="45.725771225988865" lon="10.845521204173565">
        <ele>2080.9099999999999</ele>
        <time>2018-06-10T11:57:51Z</time>
      </trkpt>
      <trkpt lat="45.725739374756813" lon="10.84549211896956">
        <ele>2081.3899999999999</ele>
        <time>2018-06-10T11:58:01Z</time>
      </trkpt>
      <trkpt lat="45.72572311386466" lon="10.845484407618642">
        <ele>2081.3899999999999</ele>
        <time>2018-06-10T11:58:09Z</time>
      </trkpt>
      <trkpt lat="45.72567424736917" lon="10.845465967431664">
        <ele>2082.8299999999999</ele>
        <time>2018-06-10T11:58:20Z</time>
      </trkpt>
      <trkpt lat="45.72565421462059" lon="10.845477534458041">
        <ele>2084.7600000000002</ele>
        <time>2018-06-10T11:58:30Z</time>
      </trkpt>
      <trkpt lat="45.725629152730107" lon="10.845414837822318">
        <ele>2085.7199999999998</ele>
        <time>2018-06-10T11:58:41Z</time>
      </trkpt>
      <trkpt lat="45.725609958171844" lon="10.845390362665057">
        <ele>2086.6799999999998</ele>
        <time>2018-06-10T11:58:51Z</time>
      </trkpt>
      <trkpt lat="45.725643318146467" lon="10.84538365714252">
        <ele>2087.6399999999999</ele>
        <time>2018-06-10T11:59:04Z</time>
      </trkpt>
      <trkpt lat="45.725645162165165" lon="10.845338478684425">
        <ele>2088.1199999999999</ele>
        <time>2018-06-10T11:59:12Z</time>
      </trkpt>
      <trkpt lat="45.725622279569507" lon="10.845310399308801">
        <ele>2090.04</ele>
        <time>2018-06-10T11:59:22Z</time>
      </trkpt>
      <trkpt lat="45.725625213235617" lon="10.845273267477751">
        <ele>2091.4899999999998</ele>
        <time>2018-06-10T11:59:29Z</time>
      </trkpt>
      <trkpt lat="45.725615322589874" lon="10.845247451215982">
        <ele>2092.4499999999998</ele>
        <time>2018-06-10T11:59:39Z</time>
      </trkpt>
      <trkpt lat="45.72561364620924" lon="10.845250049605966">
        <ele>2093.4099999999999</ele>
        <time>2018-06-10T11:59:47Z</time>
      </trkpt>
      <trkpt lat="45.725589171051979" lon="10.845194645226002">
        <ele>2094.8499999999999</ele>
        <time>2018-06-10T11:59:58Z</time>
      </trkpt>
      <trkpt lat="45.725629152730107" lon="10.845182407647371">
        <ele>2096.29</ele>
        <time>2018-06-10T12:00:08Z</time>
      </trkpt>
      <trkpt lat="45.725612221285701" lon="10.845158016309142">
        <ele>2097.73</ele>
        <time>2018-06-10T12:00:18Z</time>
      </trkpt>
      <trkpt lat="45.725591015070677" lon="10.845117028802633">
        <ele>2099.1799999999998</ele>
        <time>2018-06-10T12:00:29Z</time>
      </trkpt>
      <trkpt lat="45.725574418902397" lon="10.845089200884104">
        <ele>2100.1399999999999</ele>
        <time>2018-06-10T12:00:39Z</time>
      </trkpt>
      <trkpt lat="45.7255501113832" lon="10.845055673271418">
        <ele>2101.5799999999999</ele>
        <time>2018-06-10T12:00:50Z</time>
      </trkpt>
      <trkpt lat="45.725529743358493" lon="10.845026168972254">
        <ele>2103.02</ele>
        <time>2018-06-10T12:01:00Z</time>
      </trkpt>
      <trkpt lat="45.725512308999896" lon="10.845017954707146">
        <ele>2103.98</ele>
        <time>2018-06-10T12:01:09Z</time>
      </trkpt>
      <trkpt lat="45.725500909611583" lon="10.845004292204976">
        <ele>2103.5</ele>
        <time>2018-06-10T12:01:25Z</time>
      </trkpt>
      <trkpt lat="45.725476685911417" lon="10.845013093203306">
        <ele>2104.46</ele>
        <time>2018-06-10T12:01:38Z</time>
      </trkpt>
      <trkpt lat="45.725470399484038" lon="10.844980152323842">
        <ele>2105.4200000000001</ele>
        <time>2018-06-10T12:01:50Z</time>
      </trkpt>
      <trkpt lat="45.725433938205242" lon="10.844973446801305">
        <ele>2106.3899999999999</ele>
        <time>2018-06-10T12:02:00Z</time>
      </trkpt>
      <trkpt lat="45.725398985669017" lon="10.844981409609318">
        <ele>2107.8299999999999</ele>
        <time>2018-06-10T12:02:09Z</time>
      </trkpt>
      <trkpt lat="45.725374510511756" lon="10.844943858683109">
        <ele>2109.27</ele>
        <time>2018-06-10T12:02:19Z</time>
      </trkpt>
      <trkpt lat="45.725350119173527" lon="10.844952492043376">
        <ele>2110.71</ele>
        <time>2018-06-10T12:02:28Z</time>
      </trkpt>
      <trkpt lat="45.725366044789553" lon="10.844887280836701">
        <ele>2111.6700000000001</ele>
        <time>2018-06-10T12:02:35Z</time>
      </trkpt>
      <trkpt lat="45.725353388115764" lon="10.844871774315834">
        <ele>2113.1199999999999</ele>
        <time>2018-06-10T12:02:43Z</time>
      </trkpt>
      <trkpt lat="45.725324470549822" lon="10.844874624162912">
        <ele>2112.6300000000001</ele>
        <time>2018-06-10T12:02:51Z</time>
      </trkpt>
      <trkpt lat="45.725220451131463" lon="10.844836067408323">
        <ele>2113.1199999999999</ele>
        <time>2018-06-10T12:03:03Z</time>
      </trkpt>
      <trkpt lat="45.725159095600247" lon="10.844808155670762">
        <ele>2113.5999999999999</ele>
        <time>2018-06-10T12:03:10Z</time>
      </trkpt>
      <trkpt lat="45.725104948505759" lon="10.844824416562915">
        <ele>2114.0799999999999</ele>
        <time>2018-06-10T12:03:19Z</time>
      </trkpt>
      <trkpt lat="45.725083658471704" lon="10.844800109043717">
        <ele>2114.5599999999999</ele>
        <time>2018-06-10T12:03:29Z</time>
      </trkpt>
      <trkpt lat="45.725073684006929" lon="10.844812095165253">
        <ele>2115.04</ele>
        <time>2018-06-10T12:03:41Z</time>
      </trkpt>
      <trkpt lat="45.725059099495411" lon="10.844810670241714">
        <ele>2115.04</ele>
        <time>2018-06-10T12:03:50Z</time>
      </trkpt>
      <trkpt lat="45.725017944350839" lon="10.844782926142216">
        <ele>2115.52</ele>
        <time>2018-06-10T12:03:56Z</time>
      </trkpt>
      <trkpt lat="45.725001515820622" lon="10.844785273075104">
        <ele>2115.52</ele>
        <time>2018-06-10T12:03:58Z</time>
      </trkpt>
      <trkpt lat="45.724947201088071" lon="10.844803797081113">
        <ele>2116.48</ele>
        <time>2018-06-10T12:04:05Z</time>
      </trkpt>
      <trkpt lat="45.724902106449008" lon="10.844832127913833">
        <ele>2117.9200000000001</ele>
        <time>2018-06-10T12:04:12Z</time>
      </trkpt>
      <trkpt lat="45.724873524159193" lon="10.844861548393965">
        <ele>2117.4400000000001</ele>
        <time>2018-06-10T12:04:20Z</time>
      </trkpt>
      <trkpt lat="45.724844438955188" lon="10.844928687438369">
        <ele>2118.4000000000001</ele>
        <time>2018-06-10T12:04:29Z</time>
      </trkpt>
      <trkpt lat="45.724826753139496" lon="10.844939835369587">
        <ele>2119.3600000000001</ele>
        <time>2018-06-10T12:04:38Z</time>
      </trkpt>
      <trkpt lat="45.724809570237994" lon="10.844906894490123">
        <ele>2119.3600000000001</ele>
        <time>2018-06-10T12:04:55Z</time>
      </trkpt>
      <trkpt lat="45.72482842952013" lon="10.844881245866418">
        <ele>2118.8800000000001</ele>
        <time>2018-06-10T12:05:06Z</time>
      </trkpt>
      <trkpt lat="45.72483429685235" lon="10.844886023551226">
        <ele>2119.3600000000001</ele>
        <time>2018-06-10T12:05:19Z</time>
      </trkpt>
      <trkpt lat="45.724836308509111" lon="10.844901110976934">
        <ele>2119.3600000000001</ele>
        <time>2018-06-10T12:05:33Z</time>
      </trkpt>
      <trkpt lat="45.724826753139496" lon="10.844911588355899">
        <ele>2118.8800000000001</ele>
        <time>2018-06-10T12:05:49Z</time>
      </trkpt>
      <trkpt lat="45.724805211648345" lon="10.844912091270089">
        <ele>2118.8800000000001</ele>
        <time>2018-06-10T12:05:52Z</time>
      </trkpt>
      <trkpt lat="45.724720135331154" lon="10.844799103215337">
        <ele>2119.8400000000001</ele>
        <time>2018-06-10T12:06:04Z</time>
      </trkpt>
      <trkpt lat="45.724692810326815" lon="10.84476456977427">
        <ele>2120.8099999999999</ele>
        <time>2018-06-10T12:06:13Z</time>
      </trkpt>
      <trkpt lat="45.72468233294785" lon="10.844706986099482">
        <ele>2122.25</ele>
        <time>2018-06-10T12:06:26Z</time>
      </trkpt>
      <trkpt lat="45.724621983245015" lon="10.844690222293139">
        <ele>2123.21</ele>
        <time>2018-06-10T12:06:36Z</time>
      </trkpt>
      <trkpt lat="45.724570099264383" lon="10.84467513486743">
        <ele>2124.6500000000001</ele>
        <time>2018-06-10T12:06:45Z</time>
      </trkpt>
      <trkpt lat="45.724523914977908" lon="10.844671195372939">
        <ele>2126.0900000000001</ele>
        <time>2018-06-10T12:06:54Z</time>
      </trkpt>
      <trkpt lat="45.724530704319477" lon="10.844667172059417">
        <ele>2126.0900000000001</ele>
        <time>2018-06-10T12:07:05Z</time>
      </trkpt>
      <trkpt lat="45.724502289667726" lon="10.844659963622689">
        <ele>2127.0500000000002</ele>
        <time>2018-06-10T12:07:17Z</time>
      </trkpt>
      <trkpt lat="45.72450203821063" lon="10.844686031341553">
        <ele>2126.5700000000002</ele>
        <time>2018-06-10T12:07:32Z</time>
      </trkpt>
      <trkpt lat="45.724490890279412" lon="10.84466683678329">
        <ele>2127.0500000000002</ele>
        <time>2018-06-10T12:07:41Z</time>
      </trkpt>
      <trkpt lat="45.724479239434004" lon="10.844654263928533">
        <ele>2126.0900000000001</ele>
        <time>2018-06-10T12:07:50Z</time>
      </trkpt>
      <trkpt lat="45.724473875015974" lon="10.84462383762002">
        <ele>2126.0900000000001</ele>
        <time>2018-06-10T12:08:01Z</time>
      </trkpt>
      <trkpt lat="45.724485609680414" lon="10.844613863155246">
        <ele>2125.6100000000001</ele>
        <time>2018-06-10T12:08:28Z</time>
      </trkpt>
      <trkpt lat="45.724454764276743" lon="10.844598272815347">
        <ele>2125.6100000000001</ele>
        <time>2018-06-10T12:08:36Z</time>
      </trkpt>
      <trkpt lat="45.724395336583257" lon="10.844587543979287">
        <ele>2124.6500000000001</ele>
        <time>2018-06-10T12:08:46Z</time>
      </trkpt>
      <trkpt lat="45.724343033507466" lon="10.84458620287478">
        <ele>2124.1700000000001</ele>
        <time>2018-06-10T12:08:55Z</time>
      </trkpt>
      <trkpt lat="45.724343787878752" lon="10.844540102407336">
        <ele>2124.1700000000001</ele>
        <time>2018-06-10T12:09:04Z</time>
      </trkpt>
      <trkpt lat="45.724339764565229" lon="10.844541108235717">
        <ele>2124.1700000000001</ele>
        <time>2018-06-10T12:09:28Z</time>
      </trkpt>
      <trkpt lat="45.724343536421657" lon="10.844546975567937">
        <ele>2124.1700000000001</ele>
        <time>2018-06-10T12:09:46Z</time>
      </trkpt>
      <trkpt lat="45.72434077039361" lon="10.844559716060758">
        <ele>2124.1700000000001</ele>
        <time>2018-06-10T12:10:14Z</time>
      </trkpt>
      <trkpt lat="45.724343452602625" lon="10.844580084085464">
        <ele>2124.1700000000001</ele>
        <time>2018-06-10T12:10:37Z</time>
      </trkpt>
      <trkpt lat="45.72428360581398" lon="10.844547729939222">
        <ele>2123.21</ele>
        <time>2018-06-10T12:10:45Z</time>
      </trkpt>
      <trkpt lat="45.72428117506206" lon="10.844540186226368">
        <ele>2123.21</ele>
        <time>2018-06-10T12:10:48Z</time>
      </trkpt>
      <trkpt lat="45.724191321060061" lon="10.844533145427704">
        <ele>2121.77</ele>
        <time>2018-06-10T12:10:59Z</time>
      </trkpt>
      <trkpt lat="45.724151758477092" lon="10.844516046345234">
        <ele>2121.29</ele>
        <time>2018-06-10T12:11:09Z</time>
      </trkpt>
      <trkpt lat="45.724127367138863" lon="10.844488805159926">
        <ele>2120.3200000000002</ele>
        <time>2018-06-10T12:11:18Z</time>
      </trkpt>
      <trkpt lat="45.724114626646042" lon="10.84447137080133">
        <ele>2120.3200000000002</ele>
        <time>2018-06-10T12:11:20Z</time>
      </trkpt>
      <trkpt lat="45.724043967202306" lon="10.844401801005006">
        <ele>2117.9200000000001</ele>
        <time>2018-06-10T12:11:29Z</time>
      </trkpt>
      <trkpt lat="45.723961237818003" lon="10.84433801472187">
        <ele>2116</ele>
        <time>2018-06-10T12:11:38Z</time>
      </trkpt>
      <trkpt lat="45.723912119865417" lon="10.844281436875463">
        <ele>2114.5599999999999</ele>
        <time>2018-06-10T12:11:46Z</time>
      </trkpt>
      <trkpt lat="45.723894601687789" lon="10.844280933961272">
        <ele>2113.5999999999999</ele>
        <time>2018-06-10T12:11:49Z</time>
      </trkpt>
      <trkpt lat="45.72387607768178" lon="10.844276575371623">
        <ele>2113.1199999999999</ele>
        <time>2018-06-10T12:11:51Z</time>
      </trkpt>
      <trkpt lat="45.723826456815004" lon="10.844276826828718">
        <ele>2111.1900000000001</ele>
        <time>2018-06-10T12:12:00Z</time>
      </trkpt>
      <trkpt lat="45.723842885345221" lon="10.844287471845746">
        <ele>2110.71</ele>
        <time>2018-06-10T12:12:18Z</time>
      </trkpt>
      <trkpt lat="45.723827462643385" lon="10.844268696382642">
        <ele>2111.1900000000001</ele>
        <time>2018-06-10T12:12:29Z</time>
      </trkpt>
      <trkpt lat="45.723821008577943" lon="10.844266349449754">
        <ele>2110.71</ele>
        <time>2018-06-10T12:12:53Z</time>
      </trkpt>
      <trkpt lat="45.72379108518362" lon="10.844220584258437">
        <ele>2110.71</ele>
        <time>2018-06-10T12:14:35Z</time>
      </trkpt>
      <trkpt lat="45.723788905888796" lon="10.844226535409689">
        <ele>2110.71</ele>
        <time>2018-06-10T12:14:56Z</time>
      </trkpt>
      <trkpt lat="45.723783792927861" lon="10.844244891777635">
        <ele>2110.71</ele>
        <time>2018-06-10T12:15:26Z</time>
      </trkpt>
      <trkpt lat="45.72374657727778" lon="10.844277078285813">
        <ele>2110.71</ele>
        <time>2018-06-10T12:15:54Z</time>
      </trkpt>
      <trkpt lat="45.723724951967597" lon="10.844316557049751">
        <ele>2110.23</ele>
        <time>2018-06-10T12:16:25Z</time>
      </trkpt>
      <trkpt lat="45.72368455119431" lon="10.844370285049081">
        <ele>2110.23</ele>
        <time>2018-06-10T12:16:49Z</time>
      </trkpt>
      <trkpt lat="45.723654879257083" lon="10.844388222321868">
        <ele>2127.0500000000002</ele>
        <time>2018-06-10T12:31:08Z</time>
      </trkpt>
      <trkpt lat="45.723629230633378" lon="10.844396855682135">
        <ele>2127.5300000000002</ele>
        <time>2018-06-10T12:31:21Z</time>
      </trkpt>
      <trkpt lat="45.723628811538219" lon="10.844384953379631">
        <ele>2127.5300000000002</ele>
        <time>2018-06-10T12:31:33Z</time>
      </trkpt>
      <trkpt lat="45.723617076873779" lon="10.844416553154588">
        <ele>2127.5300000000002</ele>
        <time>2018-06-10T12:31:47Z</time>
      </trkpt>
      <trkpt lat="45.723595703020692" lon="10.844390904530883">
        <ele>2127.0500000000002</ele>
        <time>2018-06-10T12:31:57Z</time>
      </trkpt>
      <trkpt lat="45.723551446571946" lon="10.84437464363873">
        <ele>2126.5700000000002</ele>
        <time>2018-06-10T12:32:01Z</time>
      </trkpt>
      <trkpt lat="45.723521858453751" lon="10.844354443252087">
        <ele>2126.5700000000002</ele>
        <time>2018-06-10T12:32:04Z</time>
      </trkpt>
      <trkpt lat="45.723377270624042" lon="10.844362741336226">
        <ele>2125.1300000000001</ele>
        <time>2018-06-10T12:32:17Z</time>
      </trkpt>
      <trkpt lat="45.723307449370623" lon="10.844311360269785">
        <ele>2126.0900000000001</ele>
        <time>2018-06-10T12:32:26Z</time>
      </trkpt>
      <trkpt lat="45.723301749676466" lon="10.844308594241738">
        <ele>2126.5700000000002</ele>
        <time>2018-06-10T12:32:36Z</time>
      </trkpt>
      <trkpt lat="45.723328655585647" lon="10.844377744942904">
        <ele>2125.1300000000001</ele>
        <time>2018-06-10T12:32:46Z</time>
      </trkpt>
      <trkpt lat="45.723332930356264" lon="10.844363663345575">
        <ele>2125.1300000000001</ele>
        <time>2018-06-10T12:32:55Z</time>
      </trkpt>
      <trkpt lat="45.723340390250087" lon="10.844366680830717">
        <ele>2124.6500000000001</ele>
        <time>2018-06-10T12:33:04Z</time>
      </trkpt>
      <trkpt lat="45.723341815173626" lon="10.844364501535892">
        <ele>2125.1300000000001</ele>
        <time>2018-06-10T12:33:15Z</time>
      </trkpt>
      <trkpt lat="45.723337875679135" lon="10.84436290897429">
        <ele>2124.6500000000001</ele>
        <time>2018-06-10T12:33:27Z</time>
      </trkpt>
      <trkpt lat="45.723337959498167" lon="10.844373386353254">
        <ele>2124.6500000000001</ele>
        <time>2018-06-10T12:33:39Z</time>
      </trkpt>
      <trkpt lat="45.72332538664341" lon="10.844390653073788">
        <ele>2124.1700000000001</ele>
        <time>2018-06-10T12:33:42Z</time>
      </trkpt>
      <trkpt lat="45.723206363618374" lon="10.844496097415686">
        <ele>2123.21</ele>
        <time>2018-06-10T12:33:57Z</time>
      </trkpt>
      <trkpt lat="45.723170656710863" lon="10.844566589221358">
        <ele>2123.21</ele>
        <time>2018-06-10T12:34:06Z</time>
      </trkpt>
      <trkpt lat="45.723172752186656" lon="10.844566840678453">
        <ele>2123.21</ele>
        <time>2018-06-10T12:34:08Z</time>
      </trkpt>
      <trkpt lat="45.723047945648432" lon="10.844694580882788">
        <ele>2121.77</ele>
        <time>2018-06-10T12:34:22Z</time>
      </trkpt>
      <trkpt lat="45.722999917343259" lon="10.844816453754902">
        <ele>2120.8099999999999</ele>
        <time>2018-06-10T12:34:32Z</time>
      </trkpt>
      <trkpt lat="45.722951637580991" lon="10.844917539507151">
        <ele>2119.8400000000001</ele>
        <time>2018-06-10T12:34:44Z</time>
      </trkpt>
      <trkpt lat="45.722931772470474" lon="10.845048297196627">
        <ele>2117.9200000000001</ele>
        <time>2018-06-10T12:34:56Z</time>
      </trkpt>
      <trkpt lat="45.722921546548605" lon="10.845076208934188">
        <ele>2117.9200000000001</ele>
        <time>2018-06-10T12:34:59Z</time>
      </trkpt>
      <trkpt lat="45.722908889874816" lon="10.84513203240931">
        <ele>2116.96</ele>
        <time>2018-06-10T12:35:04Z</time>
      </trkpt>
      <trkpt lat="45.722885001450777" lon="10.845197327435017">
        <ele>2116</ele>
        <time>2018-06-10T12:35:11Z</time>
      </trkpt>
      <trkpt lat="45.722848707810044" lon="10.845260778442025">
        <ele>2114.5599999999999</ele>
        <time>2018-06-10T12:35:21Z</time>
      </trkpt>
      <trkpt lat="45.722834123298526" lon="10.845297826454043">
        <ele>2114.0799999999999</ele>
        <time>2018-06-10T12:35:25Z</time>
      </trkpt>
      <trkpt lat="45.722768660634756" lon="10.845425985753536">
        <ele>2112.6300000000001</ele>
        <time>2018-06-10T12:35:37Z</time>
      </trkpt>
      <trkpt lat="45.722677381709218" lon="10.84537586197257">
        <ele>2113.5999999999999</ele>
        <time>2018-06-10T12:35:49Z</time>
      </trkpt>
      <trkpt lat="45.722628850489855" lon="10.845272596925497">
        <ele>2114.0799999999999</ele>
        <time>2018-06-10T12:35:59Z</time>
      </trkpt>
      <trkpt lat="45.722582833841443" lon="10.845240745693445">
        <ele>2115.04</ele>
        <time>2018-06-10T12:36:07Z</time>
      </trkpt>
      <trkpt lat="45.722543857991695" lon="10.845225239172578">
        <ele>2116.96</ele>
        <time>2018-06-10T12:36:15Z</time>
      </trkpt>
      <trkpt lat="45.722516281530261" lon="10.845189699903131">
        <ele>2117.9200000000001</ele>
        <time>2018-06-10T12:36:25Z</time>
      </trkpt>
      <trkpt lat="45.722501948475838" lon="10.845121638849378">
        <ele>2118.8800000000001</ele>
        <time>2018-06-10T12:36:33Z</time>
      </trkpt>
      <trkpt lat="45.722496332600713" lon="10.845041424036026">
        <ele>2120.3200000000002</ele>
        <time>2018-06-10T12:36:42Z</time>
      </trkpt>
      <trkpt lat="45.722475796937943" lon="10.844969507306814">
        <ele>2121.29</ele>
        <time>2018-06-10T12:36:52Z</time>
      </trkpt>
      <trkpt lat="45.722441850230098" lon="10.844881413504481">
        <ele>2122.73</ele>
        <time>2018-06-10T12:37:03Z</time>
      </trkpt>
      <trkpt lat="45.722400527447462" lon="10.844834893941879">
        <ele>2123.6900000000001</ele>
        <time>2018-06-10T12:37:12Z</time>
      </trkpt>
      <trkpt lat="45.722351744771004" lon="10.844764318317175">
        <ele>2125.1300000000001</ele>
        <time>2018-06-10T12:37:24Z</time>
      </trkpt>
      <trkpt lat="45.722334226593375" lon="10.844675805419683">
        <ele>2126.0900000000001</ele>
        <time>2018-06-10T12:37:35Z</time>
      </trkpt>
      <trkpt lat="45.722313355654478" lon="10.844608750194311">
        <ele>2127.5300000000002</ele>
        <time>2018-06-10T12:37:44Z</time>
      </trkpt>
      <trkpt lat="45.722264740616083" lon="10.844588885083795">
        <ele>2128.5</ele>
        <time>2018-06-10T12:37:53Z</time>
      </trkpt>
      <trkpt lat="45.722230626270175" lon="10.844556363299489">
        <ele>2128.02</ele>
        <time>2018-06-10T12:38:04Z</time>
      </trkpt>
      <trkpt lat="45.722196847200394" lon="10.844543455168605">
        <ele>2129.46</ele>
        <time>2018-06-10T12:38:13Z</time>
      </trkpt>
      <trkpt lat="45.722132306545973" lon="10.844511771574616">
        <ele>2129.9400000000001</ele>
        <time>2018-06-10T12:38:22Z</time>
      </trkpt>
      <trkpt lat="45.722082769498229" lon="10.844518058001995">
        <ele>2130.9000000000001</ele>
        <time>2018-06-10T12:38:31Z</time>
      </trkpt>
      <trkpt lat="45.722006997093558" lon="10.844547729939222">
        <ele>2132.3400000000001</ele>
        <time>2018-06-10T12:38:42Z</time>
      </trkpt>
      <trkpt lat="45.72195771150291" lon="10.844488553702831">
        <ele>2132.8200000000002</ele>
        <time>2018-06-10T12:38:53Z</time>
      </trkpt>
      <trkpt lat="45.721934158354998" lon="10.844429126009345">
        <ele>2133.7800000000002</ele>
        <time>2018-06-10T12:39:02Z</time>
      </trkpt>
      <trkpt lat="45.721881436184049" lon="10.844404483214021">
        <ele>2135.23</ele>
        <time>2018-06-10T12:39:10Z</time>
      </trkpt>
      <trkpt lat="45.721824439242482" lon="10.844403728842735">
        <ele>2135.71</ele>
        <time>2018-06-10T12:39:18Z</time>
      </trkpt>
      <trkpt lat="45.721819493919611" lon="10.844401381909847">
        <ele>2136.1900000000001</ele>
        <time>2018-06-10T12:39:19Z</time>
      </trkpt>
      <trkpt lat="45.721742128953338" lon="10.844420911744237">
        <ele>2136.1900000000001</ele>
        <time>2018-06-10T12:39:30Z</time>
      </trkpt>
      <trkpt lat="45.72170072235167" lon="10.84444060921669">
        <ele>2137.1500000000001</ele>
        <time>2018-06-10T12:39:38Z</time>
      </trkpt>
      <trkpt lat="45.721669541671872" lon="10.844504646956921">
        <ele>2138.1100000000001</ele>
        <time>2018-06-10T12:39:47Z</time>
      </trkpt>
      <trkpt lat="45.721661830320954" lon="10.84449291229248">
        <ele>2138.1100000000001</ele>
        <time>2018-06-10T12:39:56Z</time>
      </trkpt>
      <trkpt lat="45.721625704318285" lon="10.844555608928204">
        <ele>2138.1100000000001</ele>
        <time>2018-06-10T12:40:05Z</time>
      </trkpt>
      <trkpt lat="45.721590165048838" lon="10.844561811536551">
        <ele>2138.5900000000001</ele>
        <time>2018-06-10T12:40:09Z</time>
      </trkpt>
      <trkpt lat="45.721568204462528" lon="10.844563487917185">
        <ele>2139.0700000000002</ele>
        <time>2018-06-10T12:40:11Z</time>
      </trkpt>
      <trkpt lat="45.721468795090914" lon="10.844489894807339">
        <ele>2139.5500000000002</ele>
        <time>2018-06-10T12:40:21Z</time>
      </trkpt>
      <trkpt lat="45.721433591097593" lon="10.84447531029582">
        <ele>2139.5500000000002</ele>
        <time>2018-06-10T12:40:24Z</time>
      </trkpt>
      <trkpt lat="45.721315909177065" lon="10.84451143629849">
        <ele>2139.0700000000002</ele>
        <time>2018-06-10T12:40:34Z</time>
      </trkpt>
      <trkpt lat="45.721307024359703" lon="10.844512525945902">
        <ele>2139.0700000000002</ele>
        <time>2018-06-10T12:40:35Z</time>
      </trkpt>
      <trkpt lat="45.72129026055336" lon="10.844516549259424">
        <ele>2139.5500000000002</ele>
        <time>2018-06-10T12:40:37Z</time>
      </trkpt>
      <trkpt lat="45.721163358539343" lon="10.844496684148908">
        <ele>2140.5100000000002</ele>
        <time>2018-06-10T12:40:50Z</time>
      </trkpt>
      <trkpt lat="45.72107526473701" lon="10.844409260898829">
        <ele>2140.9899999999998</ele>
        <time>2018-06-10T12:41:00Z</time>
      </trkpt>
      <trkpt lat="45.720990439876914" lon="10.844379840418696">
        <ele>2141.4699999999998</ele>
        <time>2018-06-10T12:41:09Z</time>
      </trkpt>
      <trkpt lat="45.720951296389103" lon="10.844386462122202">
        <ele>2141.4699999999998</ele>
        <time>2018-06-10T12:41:13Z</time>
      </trkpt>
      <trkpt lat="45.720807379111648" lon="10.844357293099165">
        <ele>2141.9499999999998</ele>
        <time>2018-06-10T12:41:27Z</time>
      </trkpt>
      <trkpt lat="45.720729343593121" lon="10.844288729131222">
        <ele>2142.9200000000001</ele>
        <time>2018-06-10T12:41:37Z</time>
      </trkpt>
      <trkpt lat="45.720633873715997" lon="10.844195019453764">
        <ele>2143.8800000000001</ele>
        <time>2018-06-10T12:41:49Z</time>
      </trkpt>
      <trkpt lat="45.720542594790459" lon="10.844106338918209">
        <ele>2144.3600000000001</ele>
        <time>2018-06-10T12:42:01Z</time>
      </trkpt>
      <trkpt lat="45.720400353893638" lon="10.844051772728562">
        <ele>2143.8800000000001</ele>
        <time>2018-06-10T12:42:15Z</time>
      </trkpt>
      <trkpt lat="45.72034377604723" lon="10.844007264822721">
        <ele>2144.8400000000001</ele>
        <time>2018-06-10T12:42:24Z</time>
      </trkpt>
      <trkpt lat="45.72026121430099" lon="10.84397591650486">
        <ele>2145.3200000000002</ele>
        <time>2018-06-10T12:42:34Z</time>
      </trkpt>
      <trkpt lat="45.720173874869943" lon="10.843941885977983">
        <ele>2145.3200000000002</ele>
        <time>2018-06-10T12:42:45Z</time>
      </trkpt>
      <trkpt lat="45.720133306458592" lon="10.843967283144593">
        <ele>2145.3200000000002</ele>
        <time>2018-06-10T12:42:52Z</time>
      </trkpt>
      <trkpt lat="45.720061222091317" lon="10.844025202095509">
        <ele>2144.8400000000001</ele>
        <time>2018-06-10T12:43:02Z</time>
      </trkpt>
      <trkpt lat="45.719983438029885" lon="10.844058729708195">
        <ele>2144.8400000000001</ele>
        <time>2018-06-10T12:43:11Z</time>
      </trkpt>
      <trkpt lat="45.719961728900671" lon="10.84408295340836">
        <ele>2144.8400000000001</ele>
        <time>2018-06-10T12:43:15Z</time>
      </trkpt>
      <trkpt lat="45.719915460795164" lon="10.844120671972632">
        <ele>2144.3600000000001</ele>
        <time>2018-06-10T12:43:22Z</time>
      </trkpt>
      <trkpt lat="45.719895511865616" lon="10.84414791315794">
        <ele>2144.3600000000001</ele>
        <time>2018-06-10T12:43:25Z</time>
      </trkpt>
      <trkpt lat="45.719826612621546" lon="10.844193510711193">
        <ele>2144.8400000000001</ele>
        <time>2018-06-10T12:43:36Z</time>
      </trkpt>
      <trkpt lat="45.719806244596839" lon="10.844164844602346">
        <ele>2144.3600000000001</ele>
        <time>2018-06-10T12:43:45Z</time>
      </trkpt>
      <trkpt lat="45.719763161614537" lon="10.844161072745919">
        <ele>2144.3600000000001</ele>
        <time>2018-06-10T12:43:49Z</time>
      </trkpt>
      <trkpt lat="45.719718737527728" lon="10.844129137694836">
        <ele>2144.3600000000001</ele>
        <time>2018-06-10T12:43:57Z</time>
      </trkpt>
      <trkpt lat="45.719658890739083" lon="10.844088988378644">
        <ele>2143.8800000000001</ele>
        <time>2018-06-10T12:44:03Z</time>
      </trkpt>
      <trkpt lat="45.719621675089002" lon="10.844040624797344">
        <ele>2143.4000000000001</ele>
        <time>2018-06-10T12:44:07Z</time>
      </trkpt>
      <trkpt lat="45.719505418092012" lon="10.843993267044425">
        <ele>2143.4000000000001</ele>
        <time>2018-06-10T12:44:18Z</time>
      </trkpt>
      <trkpt lat="45.719400979578495" lon="10.844020508229733">
        <ele>2142.4400000000001</ele>
        <time>2018-06-10T12:44:30Z</time>
      </trkpt>
      <trkpt lat="45.719384634867311" lon="10.844025537371635">
        <ele>2140.9899999999998</ele>
        <time>2018-06-10T12:44:32Z</time>
      </trkpt>
      <trkpt lat="45.71930299513042" lon="10.844025621190667">
        <ele>2140.5100000000002</ele>
        <time>2018-06-10T12:44:43Z</time>
      </trkpt>
      <trkpt lat="45.719287320971489" lon="10.844038696959615">
        <ele>2140.5100000000002</ele>
        <time>2018-06-10T12:44:45Z</time>
      </trkpt>
      <trkpt lat="45.719204004853964" lon="10.844087898731232">
        <ele>2140.0300000000002</ele>
        <time>2018-06-10T12:44:56Z</time>
      </trkpt>
      <trkpt lat="45.71908506564796" lon="10.844100639224052">
        <ele>2139.0700000000002</ele>
        <time>2018-06-10T12:45:10Z</time>
      </trkpt>
      <trkpt lat="45.719036031514406" lon="10.844125198200345">
        <ele>2138.1100000000001</ele>
        <time>2018-06-10T12:45:19Z</time>
      </trkpt>
      <trkpt lat="45.719022955745459" lon="10.844135256484151">
        <ele>2137.6300000000001</ele>
        <time>2018-06-10T12:45:21Z</time>
      </trkpt>
      <trkpt lat="45.718923965469003" lon="10.844146739691496">
        <ele>2136.1900000000001</ele>
        <time>2018-06-10T12:45:33Z</time>
      </trkpt>
      <trkpt lat="45.718897730112076" lon="10.844139447435737">
        <ele>2135.71</ele>
        <time>2018-06-10T12:45:43Z</time>
      </trkpt>
      <trkpt lat="45.718868477270007" lon="10.844138776883483">
        <ele>2135.71</ele>
        <time>2018-06-10T12:45:52Z</time>
      </trkpt>
      <trkpt lat="45.718836961314082" lon="10.844109188765287">
        <ele>2135.23</ele>
        <time>2018-06-10T12:46:03Z</time>
      </trkpt>
      <trkpt lat="45.718743922188878" lon="10.844085887074471">
        <ele>2134.2600000000002</ele>
        <time>2018-06-10T12:46:12Z</time>
      </trkpt>
      <trkpt lat="45.718729421496391" lon="10.844091754406691">
        <ele>2134.2600000000002</ele>
        <time>2018-06-10T12:46:14Z</time>
      </trkpt>
      <trkpt lat="45.718710981309414" lon="10.844104997813702">
        <ele>2134.7399999999998</ele>
        <time>2018-06-10T12:46:17Z</time>
      </trkpt>
      <trkpt lat="45.718669407069683" lon="10.844147577881813">
        <ele>2134.2600000000002</ele>
        <time>2018-06-10T12:46:23Z</time>
      </trkpt>
      <trkpt lat="45.718573685735464" lon="10.844219494611025">
        <ele>2131.8600000000001</ele>
        <time>2018-06-10T12:46:35Z</time>
      </trkpt>
      <trkpt lat="45.718502523377538" lon="10.844297027215362">
        <ele>2130.4200000000001</ele>
        <time>2018-06-10T12:46:45Z</time>
      </trkpt>
      <trkpt lat="45.718457764014602" lon="10.844279425218701">
        <ele>2128.98</ele>
        <time>2018-06-10T12:46:56Z</time>
      </trkpt>
      <trkpt lat="45.718432031571865" lon="10.844268696382642">
        <ele>2128.5</ele>
        <time>2018-06-10T12:47:06Z</time>
      </trkpt>
      <trkpt lat="45.71838098578155" lon="10.844306331127882">
        <ele>2127.0500000000002</ele>
        <time>2018-06-10T12:47:18Z</time>
      </trkpt>
      <trkpt lat="45.718344273045659" lon="10.844310605898499">
        <ele>2126.0900000000001</ele>
        <time>2018-06-10T12:47:22Z</time>
      </trkpt>
      <trkpt lat="45.718240169808269" lon="10.844331895932555">
        <ele>2125.6100000000001</ele>
        <time>2018-06-10T12:47:33Z</time>
      </trkpt>
      <trkpt lat="45.718184178695083" lon="10.844347737729549">
        <ele>2126.0900000000001</ele>
        <time>2018-06-10T12:47:41Z</time>
      </trkpt>
      <trkpt lat="45.718082757666707" lon="10.844400376081467">
        <ele>2124.6500000000001</ele>
        <time>2018-06-10T12:47:52Z</time>
      </trkpt>
      <trkpt lat="45.717958118766546" lon="10.844271881505847">
        <ele>2123.21</ele>
        <time>2018-06-10T12:48:06Z</time>
      </trkpt>
      <trkpt lat="45.717859547585249" lon="10.844177836552262">
        <ele>2122.25</ele>
        <time>2018-06-10T12:48:19Z</time>
      </trkpt>
      <trkpt lat="45.717767849564552" lon="10.844130143523216">
        <ele>2120.8099999999999</ele>
        <time>2018-06-10T12:48:31Z</time>
      </trkpt>
      <trkpt lat="45.717669278383255" lon="10.844061328098178">
        <ele>2119.8400000000001</ele>
        <time>2018-06-10T12:48:45Z</time>
      </trkpt>
      <trkpt lat="45.717623932287097" lon="10.844028554856777">
        <ele>2119.8400000000001</ele>
        <time>2018-06-10T12:48:56Z</time>
      </trkpt>
      <trkpt lat="45.717505244538188" lon="10.84394708275795">
        <ele>2119.3600000000001</ele>
        <time>2018-06-10T12:49:08Z</time>
      </trkpt>
      <trkpt lat="45.717391334474087" lon="10.843888828530908">
        <ele>2117.9200000000001</ele>
        <time>2018-06-10T12:49:19Z</time>
      </trkpt>
      <trkpt lat="45.71731966920197" lon="10.843849098309875">
        <ele>2117.4400000000001</ele>
        <time>2018-06-10T12:49:26Z</time>
      </trkpt>
      <trkpt lat="45.717307096347213" lon="10.843833340331912">
        <ele>2117.4400000000001</ele>
        <time>2018-06-10T12:49:28Z</time>
      </trkpt>
      <trkpt lat="45.717186899855733" lon="10.843797214329243">
        <ele>2118.4000000000001</ele>
        <time>2018-06-10T12:49:39Z</time>
      </trkpt>
      <trkpt lat="45.717026637867093" lon="10.843714820221066">
        <ele>2116.96</ele>
        <time>2018-06-10T12:49:53Z</time>
      </trkpt>
      <trkpt lat="45.716997887939215" lon="10.843698056414723">
        <ele>2116.96</ele>
        <time>2018-06-10T12:49:56Z</time>
      </trkpt>
      <trkpt lat="45.716914990916848" lon="10.843701409175992">
        <ele>2117.4400000000001</ele>
        <time>2018-06-10T12:50:09Z</time>
      </trkpt>
      <trkpt lat="45.716778952628374" lon="10.843700906261802">
        <ele>2116</ele>
        <time>2018-06-10T12:50:21Z</time>
      </trkpt>
      <trkpt lat="45.716648027300835" lon="10.843712138012052">
        <ele>2115.04</ele>
        <time>2018-06-10T12:50:34Z</time>
      </trkpt>
      <trkpt lat="45.716512072831392" lon="10.843712724745274">
        <ele>2114.5599999999999</ele>
        <time>2018-06-10T12:50:47Z</time>
      </trkpt>
      <trkpt lat="45.716429930180311" lon="10.843736696988344">
        <ele>2114.5599999999999</ele>
        <time>2018-06-10T12:50:56Z</time>
      </trkpt>
      <trkpt lat="45.716311577707529" lon="10.843742312863469">
        <ele>2114.0799999999999</ele>
        <time>2018-06-10T12:51:07Z</time>
      </trkpt>
      <trkpt lat="45.716236727312207" lon="10.843784892931581">
        <ele>2113.5999999999999</ele>
        <time>2018-06-10T12:51:16Z</time>
      </trkpt>
      <trkpt lat="45.716127678751945" lon="10.843826802447438">
        <ele>2114.5599999999999</ele>
        <time>2018-06-10T12:51:28Z</time>
      </trkpt>
      <trkpt lat="45.715996501967311" lon="10.843911208212376">
        <ele>2116</ele>
        <time>2018-06-10T12:51:41Z</time>
      </trkpt>
      <trkpt lat="45.715871946886182" lon="10.843981951475143">
        <ele>2116.48</ele>
        <time>2018-06-10T12:51:53Z</time>
      </trkpt>
      <trkpt lat="45.715825846418738" lon="10.843996787443757">
        <ele>2116.96</ele>
        <time>2018-06-10T12:51:58Z</time>
      </trkpt>
      <trkpt lat="45.715740267187357" lon="10.844041295349598">
        <ele>2117.4400000000001</ele>
        <time>2018-06-10T12:52:08Z</time>
      </trkpt>
      <trkpt lat="45.715669607743621" lon="10.844050431624055">
        <ele>2116.96</ele>
        <time>2018-06-10T12:52:17Z</time>
      </trkpt>
      <trkpt lat="45.715577993541956" lon="10.844000894576311">
        <ele>2116.48</ele>
        <time>2018-06-10T12:52:29Z</time>
      </trkpt>
      <trkpt lat="45.715560223907232" lon="10.843988656997681">
        <ele>2116.48</ele>
        <time>2018-06-10T12:52:31Z</time>
      </trkpt>
      <trkpt lat="45.715473890304565" lon="10.843944232910872">
        <ele>2115.04</ele>
        <time>2018-06-10T12:52:42Z</time>
      </trkpt>
      <trkpt lat="45.715344725176692" lon="10.843923026695848">
        <ele>2113.1199999999999</ele>
        <time>2018-06-10T12:52:55Z</time>
      </trkpt>
      <trkpt lat="45.715225534513593" lon="10.843919003382325">
        <ele>2112.1500000000001</ele>
        <time>2018-06-10T12:53:07Z</time>
      </trkpt>
      <trkpt lat="45.715131489560008" lon="10.843924703076482">
        <ele>2112.1500000000001</ele>
        <time>2018-06-10T12:53:18Z</time>
      </trkpt>
      <trkpt lat="45.715020848438144" lon="10.843937778845429">
        <ele>2112.1500000000001</ele>
        <time>2018-06-10T12:53:30Z</time>
      </trkpt>
      <trkpt lat="45.714993188157678" lon="10.843955716118217">
        <ele>2112.1500000000001</ele>
        <time>2018-06-10T12:53:34Z</time>
      </trkpt>
      <trkpt lat="45.714878272265196" lon="10.843987986445427">
        <ele>2112.1500000000001</ele>
        <time>2018-06-10T12:53:47Z</time>
      </trkpt>
      <trkpt lat="45.714771402999759" lon="10.843992009758949">
        <ele>2112.1500000000001</ele>
        <time>2018-06-10T12:53:57Z</time>
      </trkpt>
      <trkpt lat="45.714630587026477" lon="10.843911459669471">
        <ele>2112.6300000000001</ele>
        <time>2018-06-10T12:54:12Z</time>
      </trkpt>
      <trkpt lat="45.71458725258708" lon="10.843874998390675">
        <ele>2112.6300000000001</ele>
        <time>2018-06-10T12:54:17Z</time>
      </trkpt>
      <trkpt lat="45.71447828784585" lon="10.843801070004702">
        <ele>2113.1199999999999</ele>
        <time>2018-06-10T12:54:30Z</time>
      </trkpt>
      <trkpt lat="45.714360270649195" lon="10.843749521300197">
        <ele>2113.5999999999999</ele>
        <time>2018-06-10T12:54:43Z</time>
      </trkpt>
      <trkpt lat="45.714264297857881" lon="10.84370719268918">
        <ele>2114.0799999999999</ele>
        <time>2018-06-10T12:54:55Z</time>
      </trkpt>
      <trkpt lat="45.71418659761548" lon="10.843652123585343">
        <ele>2114.5599999999999</ele>
        <time>2018-06-10T12:55:06Z</time>
      </trkpt>
      <trkpt lat="45.714126415550709" lon="10.843586241826415">
        <ele>2116</ele>
        <time>2018-06-10T12:55:16Z</time>
      </trkpt>
      <trkpt lat="45.714077716693282" lon="10.843510301783681">
        <ele>2116.48</ele>
        <time>2018-06-10T12:55:27Z</time>
      </trkpt>
      <trkpt lat="45.714010493829846" lon="10.843442576006055">
        <ele>2117.4400000000001</ele>
        <time>2018-06-10T12:55:38Z</time>
      </trkpt>
      <trkpt lat="45.713988533243537" lon="10.843417933210731">
        <ele>2118.8800000000001</ele>
        <time>2018-06-10T12:55:42Z</time>
      </trkpt>
      <trkpt lat="45.71394226513803" lon="10.843346603214741">
        <ele>2118.8800000000001</ele>
        <time>2018-06-10T12:55:52Z</time>
      </trkpt>
      <trkpt lat="45.713860876858234" lon="10.843303855508566">
        <ele>2118.8800000000001</ele>
        <time>2018-06-10T12:56:03Z</time>
      </trkpt>
      <trkpt lat="45.713798766955733" lon="10.843260604888201">
        <ele>2121.29</ele>
        <time>2018-06-10T12:56:12Z</time>
      </trkpt>
      <trkpt lat="45.713740848004818" lon="10.843233866617084">
        <ele>2122.25</ele>
        <time>2018-06-10T12:56:23Z</time>
      </trkpt>
      <trkpt lat="45.713672786951065" lon="10.843203021213412">
        <ele>2123.21</ele>
        <time>2018-06-10T12:56:32Z</time>
      </trkpt>
      <trkpt lat="45.713608413934708" lon="10.84316773340106">
        <ele>2123.6900000000001</ele>
        <time>2018-06-10T12:56:42Z</time>
      </trkpt>
      <trkpt lat="45.713543705642223" lon="10.843122890219092">
        <ele>2125.1300000000001</ele>
        <time>2018-06-10T12:56:54Z</time>
      </trkpt>
      <trkpt lat="45.713492492213845" lon="10.843083830550313">
        <ele>2126.0900000000001</ele>
        <time>2018-06-10T12:57:03Z</time>
      </trkpt>
      <trkpt lat="45.713467933237553" lon="10.843027587980032">
        <ele>2127.0500000000002</ele>
        <time>2018-06-10T12:57:12Z</time>
      </trkpt>
      <trkpt lat="45.713427448645234" lon="10.842992886900902">
        <ele>2128.02</ele>
        <time>2018-06-10T12:57:22Z</time>
      </trkpt>
      <trkpt lat="45.713394926860929" lon="10.842946199700236">
        <ele>2128.5</ele>
        <time>2018-06-10T12:57:31Z</time>
      </trkpt>
      <trkpt lat="45.713337929919362" lon="10.842894650995731">
        <ele>2129.46</ele>
        <time>2018-06-10T12:57:41Z</time>
      </trkpt>
      <trkpt lat="45.713287219405174" lon="10.842841761186719">
        <ele>2130.4200000000001</ele>
        <time>2018-06-10T12:57:51Z</time>
      </trkpt>
      <trkpt lat="45.713244890794158" lon="10.842806389555335">
        <ele>2131.3800000000001</ele>
        <time>2018-06-10T12:58:01Z</time>
      </trkpt>
      <trkpt lat="45.713229887187481" lon="10.842790883034468">
        <ele>2131.3800000000001</ele>
        <time>2018-06-10T12:58:04Z</time>
      </trkpt>
      <trkpt lat="45.713162664324045" lon="10.842753667384386">
        <ele>2132.8200000000002</ele>
        <time>2018-06-10T12:58:15Z</time>
      </trkpt>
      <trkpt lat="45.713126538321376" lon="10.842683762311935">
        <ele>2133.3000000000002</ele>
        <time>2018-06-10T12:58:23Z</time>
      </trkpt>
      <trkpt lat="45.713077755644917" lon="10.842631794512272">
        <ele>2134.2600000000002</ele>
        <time>2018-06-10T12:58:32Z</time>
      </trkpt>
      <trkpt lat="45.713024027645588" lon="10.842596255242825">
        <ele>2135.71</ele>
        <time>2018-06-10T12:58:41Z</time>
      </trkpt>
      <trkpt lat="45.712961331009865" lon="10.84251394495368">
        <ele>2136.6700000000001</ele>
        <time>2018-06-10T12:58:52Z</time>
      </trkpt>
      <trkpt lat="45.712961750105023" lon="10.842514866963029">
        <ele>2136.6700000000001</ele>
        <time>2018-06-10T12:59:01Z</time>
      </trkpt>
      <trkpt lat="45.712953116744757" lon="10.842510676011443">
        <ele>2136.6700000000001</ele>
        <time>2018-06-10T12:59:08Z</time>
      </trkpt>
      <trkpt lat="45.712933922186494" lon="10.842462731525302">
        <ele>2137.1500000000001</ele>
        <time>2018-06-10T12:59:19Z</time>
      </trkpt>
      <trkpt lat="45.71290098130703" lon="10.842385785654187">
        <ele>2138.5900000000001</ele>
        <time>2018-06-10T12:59:28Z</time>
      </trkpt>
      <trkpt lat="45.712846498936415" lon="10.842318730428815">
        <ele>2139.5500000000002</ele>
        <time>2018-06-10T12:59:38Z</time>
      </trkpt>
      <trkpt lat="45.712810959666967" lon="10.842225104570389">
        <ele>2140.5100000000002</ele>
        <time>2018-06-10T12:59:48Z</time>
      </trkpt>
      <trkpt lat="45.712789669632912" lon="10.842188559472561">
        <ele>2141.9499999999998</ele>
        <time>2018-06-10T12:59:54Z</time>
      </trkpt>
      <trkpt lat="45.71272999048233" lon="10.842123767361045">
        <ele>2142.9200000000001</ele>
        <time>2018-06-10T13:00:03Z</time>
      </trkpt>
      <trkpt lat="45.712721860036254" lon="10.842109099030495">
        <ele>2142.9200000000001</ele>
        <time>2018-06-10T13:00:05Z</time>
      </trkpt>
      <trkpt lat="45.712662348523736" lon="10.842036260291934">
        <ele>2144.3600000000001</ele>
        <time>2018-06-10T13:00:15Z</time>
      </trkpt>
      <trkpt lat="45.712601915001869" lon="10.842003738507628">
        <ele>2145.3200000000002</ele>
        <time>2018-06-10T13:00:24Z</time>
      </trkpt>
      <trkpt lat="45.712589593604207" lon="10.841971971094608">
        <ele>2145.3200000000002</ele>
        <time>2018-06-10T13:00:34Z</time>
      </trkpt>
      <trkpt lat="45.712584229186177" lon="10.841980101540685">
        <ele>2145.3200000000002</ele>
        <time>2018-06-10T13:00:51Z</time>
      </trkpt>
      <trkpt lat="45.712573081254959" lon="10.841989573091269">
        <ele>2145.3200000000002</ele>
        <time>2018-06-10T13:01:05Z</time>
      </trkpt>
      <trkpt lat="45.712500661611557" lon="10.841937521472573">
        <ele>2146.2800000000002</ele>
        <time>2018-06-10T13:01:15Z</time>
      </trkpt>
      <trkpt lat="45.712434779852629" lon="10.841887816786766">
        <ele>2147.2399999999998</ele>
        <time>2018-06-10T13:01:26Z</time>
      </trkpt>
      <trkpt lat="45.712395552545786" lon="10.841869041323662">
        <ele>2147.7199999999998</ele>
        <time>2018-06-10T13:01:31Z</time>
      </trkpt>
      <trkpt lat="45.712333945557475" lon="10.841832580044866">
        <ele>2148.1999999999998</ele>
        <time>2018-06-10T13:01:38Z</time>
      </trkpt>
      <trkpt lat="45.712269153445959" lon="10.841788072139025">
        <ele>2149.6500000000001</ele>
        <time>2018-06-10T13:01:47Z</time>
      </trkpt>
      <trkpt lat="45.712216682732105" lon="10.841729650273919">
        <ele>2150.1300000000001</ele>
        <time>2018-06-10T13:01:57Z</time>
      </trkpt>
      <trkpt lat="45.712177958339453" lon="10.841665361076593">
        <ele>2151.5700000000002</ele>
        <time>2018-06-10T13:02:06Z</time>
      </trkpt>
      <trkpt lat="45.712172593921423" lon="10.841589588671923">
        <ele>2152.0500000000002</ele>
        <time>2018-06-10T13:02:14Z</time>
      </trkpt>
      <trkpt lat="45.712179550901055" lon="10.841498225927353">
        <ele>2153.0100000000002</ele>
        <time>2018-06-10T13:02:23Z</time>
      </trkpt>
      <trkpt lat="45.712159769609571" lon="10.841412059962749">
        <ele>2153.4899999999998</ele>
        <time>2018-06-10T13:02:32Z</time>
      </trkpt>
      <trkpt lat="45.712130349129438" lon="10.841318937018514">
        <ele>2153.9699999999998</ele>
        <time>2018-06-10T13:02:43Z</time>
      </trkpt>
      <trkpt lat="45.712113920599222" lon="10.8412557374686">
        <ele>2154.4499999999998</ele>
        <time>2018-06-10T13:02:50Z</time>
      </trkpt>
      <trkpt lat="45.712093384936452" lon="10.841182982549071">
        <ele>2154.4499999999998</ele>
        <time>2018-06-10T13:02:57Z</time>
      </trkpt>
      <trkpt lat="45.712054073810577" lon="10.84107980132103">
        <ele>2155.4099999999999</ele>
        <time>2018-06-10T13:03:07Z</time>
      </trkpt>
      <trkpt lat="45.712030520662665" lon="10.840985169634223">
        <ele>2154.4499999999998</ele>
        <time>2018-06-10T13:03:15Z</time>
      </trkpt>
      <trkpt lat="45.712008308619261" lon="10.84086530841887">
        <ele>2155.8899999999999</ele>
        <time>2018-06-10T13:03:25Z</time>
      </trkpt>
      <trkpt lat="45.711959861218929" lon="10.840749302878976">
        <ele>2156.8600000000001</ele>
        <time>2018-06-10T13:03:37Z</time>
      </trkpt>
      <trkpt lat="45.711930608376861" lon="10.840687025338411">
        <ele>2156.8600000000001</ele>
        <time>2018-06-10T13:03:43Z</time>
      </trkpt>
      <trkpt lat="45.711919041350484" lon="10.840650144964457">
        <ele>2158.7800000000002</ele>
        <time>2018-06-10T13:03:46Z</time>
      </trkpt>
      <trkpt lat="45.711860787123442" lon="10.84054671227932">
        <ele>2157.8200000000002</ele>
        <time>2018-06-10T13:03:57Z</time>
      </trkpt>
      <trkpt lat="45.711791217327118" lon="10.84042458795011">
        <ele>2158.3000000000002</ele>
        <time>2018-06-10T13:04:08Z</time>
      </trkpt>
      <trkpt lat="45.711732711642981" lon="10.840335069224238">
        <ele>2158.7800000000002</ele>
        <time>2018-06-10T13:04:17Z</time>
      </trkpt>
      <trkpt lat="45.711654927581549" lon="10.840228367596865">
        <ele>2158.3000000000002</ele>
        <time>2018-06-10T13:04:28Z</time>
      </trkpt>
      <trkpt lat="45.711585525423288" lon="10.840103393420577">
        <ele>2157.3400000000001</ele>
        <time>2018-06-10T13:04:39Z</time>
      </trkpt>
      <trkpt lat="45.711487205699086" lon="10.839976239949465">
        <ele>2156.3699999999999</ele>
        <time>2018-06-10T13:04:52Z</time>
      </trkpt>
      <trkpt lat="45.711387544870377" lon="10.839889654889703">
        <ele>2154.9299999999998</ele>
        <time>2018-06-10T13:05:04Z</time>
      </trkpt>
      <trkpt lat="45.711337337270379" lon="10.839845146983862">
        <ele>2153.9699999999998</ele>
        <time>2018-06-10T13:05:12Z</time>
      </trkpt>
      <trkpt lat="45.711243124678731" lon="10.839751353487372">
        <ele>2153.0100000000002</ele>
        <time>2018-06-10T13:05:23Z</time>
      </trkpt>
      <trkpt lat="45.711150923743844" lon="10.839668540284038">
        <ele>2151.5700000000002</ele>
        <time>2018-06-10T13:05:34Z</time>
      </trkpt>
      <trkpt lat="45.711113959550858" lon="10.83964079618454">
        <ele>2151.0900000000001</ele>
        <time>2018-06-10T13:05:43Z</time>
      </trkpt>
      <trkpt lat="45.711085377261043" lon="10.839634845033288">
        <ele>2150.1300000000001</ele>
        <time>2018-06-10T13:05:58Z</time>
      </trkpt>
      <trkpt lat="45.711073558777571" lon="10.8396359346807">
        <ele>2150.1300000000001</ele>
        <time>2018-06-10T13:06:01Z</time>
      </trkpt>
      <trkpt lat="45.711027542129159" lon="10.839623780921102">
        <ele>2149.1599999999999</ele>
        <time>2018-06-10T13:06:07Z</time>
      </trkpt>
      <trkpt lat="45.710898209363222" lon="10.839627301320434">
        <ele>2148.1999999999998</ele>
        <time>2018-06-10T13:06:20Z</time>
      </trkpt>
      <trkpt lat="45.710761332884431" lon="10.839582541957498">
        <ele>2146.2800000000002</ele>
        <time>2018-06-10T13:06:33Z</time>
      </trkpt>
      <trkpt lat="45.710674915462732" lon="10.839448850601912">
        <ele>2143.8800000000001</ele>
        <time>2018-06-10T13:06:45Z</time>
      </trkpt>
      <trkpt lat="45.710656559094787" lon="10.839434769004583">
        <ele>2143.8800000000001</ele>
        <time>2018-06-10T13:06:47Z</time>
      </trkpt>
      <trkpt lat="45.710613979026675" lon="10.839373664930463">
        <ele>2142.4400000000001</ele>
        <time>2018-06-10T13:06:59Z</time>
      </trkpt>
      <trkpt lat="45.710564693436027" lon="10.839320188388228">
        <ele>2141.4699999999998</ele>
        <time>2018-06-10T13:07:15Z</time>
      </trkpt>
      <trkpt lat="45.710468888282776" lon="10.839186999946833">
        <ele>2139.5500000000002</ele>
        <time>2018-06-10T13:07:29Z</time>
      </trkpt>
      <trkpt lat="45.710382554680109" lon="10.839061858132482">
        <ele>2137.6300000000001</ele>
        <time>2018-06-10T13:07:42Z</time>
      </trkpt>
      <trkpt lat="45.710351206362247" lon="10.8390246424824">
        <ele>2137.1500000000001</ele>
        <time>2018-06-10T13:07:51Z</time>
      </trkpt>
      <trkpt lat="45.710263280197978" lon="10.838934285566211">
        <ele>2135.71</ele>
        <time>2018-06-10T13:08:03Z</time>
      </trkpt>
      <trkpt lat="45.710241235792637" lon="10.83890394307673">
        <ele>2133.7800000000002</ele>
        <time>2018-06-10T13:08:13Z</time>
      </trkpt>
      <trkpt lat="45.710240229964256" lon="10.838913414627314">
        <ele>2133.3000000000002</ele>
        <time>2018-06-10T13:08:25Z</time>
      </trkpt>
      <trkpt lat="45.710235117003322" lon="10.838923137634993">
        <ele>2134.2600000000002</ele>
        <time>2018-06-10T13:08:51Z</time>
      </trkpt>
      <trkpt lat="45.710241151973605" lon="10.838920287787914">
        <ele>2133.7800000000002</ele>
        <time>2018-06-10T13:09:08Z</time>
      </trkpt>
      <trkpt lat="45.710250288248062" lon="10.838921880349517">
        <ele>2133.7800000000002</ele>
        <time>2018-06-10T13:09:32Z</time>
      </trkpt>
      <trkpt lat="45.710249366238713" lon="10.838925149291754">
        <ele>2133.7800000000002</ele>
        <time>2018-06-10T13:09:48Z</time>
      </trkpt>
      <trkpt lat="45.710251964628696" lon="10.838949205353856">
        <ele>2134.7399999999998</ele>
        <time>2018-06-10T13:10:07Z</time>
      </trkpt>
      <trkpt lat="45.710130510851741" lon="10.838864715769887">
        <ele>2132.3400000000001</ele>
        <time>2018-06-10T13:10:18Z</time>
      </trkpt>
      <trkpt lat="45.710020875558257" lon="10.83878374658525">
        <ele>2130.4200000000001</ele>
        <time>2018-06-10T13:10:29Z</time>
      </trkpt>
      <trkpt lat="45.709908809512854" lon="10.838714009150863">
        <ele>2128.98</ele>
        <time>2018-06-10T13:10:42Z</time>
      </trkpt>
      <trkpt lat="45.709784086793661" lon="10.83864544518292">
        <ele>2126.5700000000002</ele>
        <time>2018-06-10T13:10:55Z</time>
      </trkpt>
      <trkpt lat="45.709662046283484" lon="10.838591549545527">
        <ele>2124.6500000000001</ele>
        <time>2018-06-10T13:11:07Z</time>
      </trkpt>
      <trkpt lat="45.709546208381653" lon="10.838557770475745">
        <ele>2123.21</ele>
        <time>2018-06-10T13:11:19Z</time>
      </trkpt>
      <trkpt lat="45.709415702149272" lon="10.838575707748532">
        <ele>2120.8099999999999</ele>
        <time>2018-06-10T13:11:32Z</time>
      </trkpt>
      <trkpt lat="45.709394076839089" lon="10.838583335280418">
        <ele>2120.3200000000002</ele>
        <time>2018-06-10T13:11:34Z</time>
      </trkpt>
      <trkpt lat="45.709327105432749" lon="10.838595908135176">
        <ele>2119.3600000000001</ele>
        <time>2018-06-10T13:11:40Z</time>
      </trkpt>
      <trkpt lat="45.709306066855788" lon="10.838591298088431">
        <ele>2119.3600000000001</ele>
        <time>2018-06-10T13:11:42Z</time>
      </trkpt>
      <trkpt lat="45.709193162620068" lon="10.838618623092771">
        <ele>2116.96</ele>
        <time>2018-06-10T13:11:53Z</time>
      </trkpt>
      <trkpt lat="45.709163658320904" lon="10.8386205509305">
        <ele>2116.96</ele>
        <time>2018-06-10T13:11:56Z</time>
      </trkpt>
      <trkpt lat="45.709052179008722" lon="10.838662544265389">
        <ele>2115.04</ele>
        <time>2018-06-10T13:12:07Z</time>
      </trkpt>
      <trkpt lat="45.708926869556308" lon="10.838639996945858">
        <ele>2113.5999999999999</ele>
        <time>2018-06-10T13:12:19Z</time>
      </trkpt>
      <trkpt lat="45.708858724683523" lon="10.838613677769899">
        <ele>2112.6300000000001</ele>
        <time>2018-06-10T13:12:25Z</time>
      </trkpt>
      <trkpt lat="45.70879066362977" lon="10.838470850139856">
        <ele>2111.1900000000001</ele>
        <time>2018-06-10T13:12:36Z</time>
      </trkpt>
      <trkpt lat="45.708769373595715" lon="10.838405219838023">
        <ele>2111.1900000000001</ele>
        <time>2018-06-10T13:12:46Z</time>
      </trkpt>
      <trkpt lat="45.708774570375681" lon="10.838387031108141">
        <ele>2111.1900000000001</ele>
        <time>2018-06-10T13:12:58Z</time>
      </trkpt>
      <trkpt lat="45.708740120753646" lon="10.83833665587008">
        <ele>2110.71</ele>
        <time>2018-06-10T13:13:10Z</time>
      </trkpt>
      <trkpt lat="45.70872662588954" lon="10.838300194591284">
        <ele>2110.23</ele>
        <time>2018-06-10T13:13:14Z</time>
      </trkpt>
      <trkpt lat="45.708656134083867" lon="10.838151415809989">
        <ele>2108.79</ele>
        <time>2018-06-10T13:13:26Z</time>
      </trkpt>
      <trkpt lat="45.708623779937625" lon="10.838067596778274">
        <ele>2108.3099999999999</ele>
        <time>2018-06-10T13:13:33Z</time>
      </trkpt>
      <trkpt lat="45.708617996424437" lon="10.838041193783283">
        <ele>2108.3099999999999</ele>
        <time>2018-06-10T13:13:35Z</time>
      </trkpt>
      <trkpt lat="45.708547839894891" lon="10.83781136199832">
        <ele>2107.8299999999999</ele>
        <time>2018-06-10T13:13:51Z</time>
      </trkpt>
      <trkpt lat="45.708481287583709" lon="10.837595276534557">
        <ele>2105.4200000000001</ele>
        <time>2018-06-10T13:14:06Z</time>
      </trkpt>
      <trkpt lat="45.708446837961674" lon="10.837471140548587">
        <ele>2104.46</ele>
        <time>2018-06-10T13:14:16Z</time>
      </trkpt>
      <trkpt lat="45.708431666716933" lon="10.837433086708188">
        <ele>2103.98</ele>
        <time>2018-06-10T13:14:19Z</time>
      </trkpt>
      <trkpt lat="45.708371149376035" lon="10.837261760607362">
        <ele>2102.54</ele>
        <time>2018-06-10T13:14:31Z</time>
      </trkpt>
      <trkpt lat="45.708345919847488" lon="10.837183054536581">
        <ele>2102.0599999999999</ele>
        <time>2018-06-10T13:14:36Z</time>
      </trkpt>
      <trkpt lat="45.708330916240811" lon="10.837081633508205">
        <ele>2101.0999999999999</ele>
        <time>2018-06-10T13:14:42Z</time>
      </trkpt>
      <trkpt lat="45.708307949826121" lon="10.836869403719902">
        <ele>2099.6599999999999</ele>
        <time>2018-06-10T13:14:55Z</time>
      </trkpt>
      <trkpt lat="45.708291018381715" lon="10.836692042648792">
        <ele>2099.1799999999998</ele>
        <time>2018-06-10T13:15:06Z</time>
      </trkpt>
      <trkpt lat="45.708255982026458" lon="10.836524236947298">
        <ele>2099.1799999999998</ele>
        <time>2018-06-10T13:15:18Z</time>
      </trkpt>
      <trkpt lat="45.708231925964355" lon="10.83645299077034">
        <ele>2098.6999999999998</ele>
        <time>2018-06-10T13:15:23Z</time>
      </trkpt>
      <trkpt lat="45.708220610395074" lon="10.836419463157654">
        <ele>2098.6999999999998</ele>
        <time>2018-06-10T13:15:25Z</time>
      </trkpt>
      <trkpt lat="45.708134947344661" lon="10.836251405999064">
        <ele>2098.6999999999998</ele>
        <time>2018-06-10T13:15:39Z</time>
      </trkpt>
      <trkpt lat="45.708048781380057" lon="10.836053593084216">
        <ele>2097.73</ele>
        <time>2018-06-10T13:15:54Z</time>
      </trkpt>
      <trkpt lat="45.708023719489574" lon="10.835991147905588">
        <ele>2098.21</ele>
        <time>2018-06-10T13:15:59Z</time>
      </trkpt>
      <trkpt lat="45.707982815802097" lon="10.835777493193746">
        <ele>2097.73</ele>
        <time>2018-06-10T13:16:13Z</time>
      </trkpt>
      <trkpt lat="45.707981223240495" lon="10.835760310292244">
        <ele>2097.73</ele>
        <time>2018-06-10T13:16:14Z</time>
      </trkpt>
      <trkpt lat="45.707950629293919" lon="10.835550678893924">
        <ele>2097.73</ele>
        <time>2018-06-10T13:16:28Z</time>
      </trkpt>
      <trkpt lat="45.707921627908945" lon="10.835365606471896">
        <ele>2098.21</ele>
        <time>2018-06-10T13:16:42Z</time>
      </trkpt>
      <trkpt lat="45.707897488027811" lon="10.835238117724657">
        <ele>2098.6999999999998</ele>
        <time>2018-06-10T13:16:55Z</time>
      </trkpt>
      <trkpt lat="45.707902181893587" lon="10.835231831297278">
        <ele>2098.6999999999998</ele>
        <time>2018-06-10T13:17:03Z</time>
      </trkpt>
      <trkpt lat="45.707884076982737" lon="10.835183886811137">
        <ele>2099.1799999999998</ele>
        <time>2018-06-10T13:17:15Z</time>
      </trkpt>
      <trkpt lat="45.707903439179063" lon="10.835185395553708">
        <ele>2100.1399999999999</ele>
        <time>2018-06-10T13:17:25Z</time>
      </trkpt>
      <trkpt lat="45.707929255440831" lon="10.835213391110301">
        <ele>2101.0999999999999</ele>
        <time>2018-06-10T13:17:34Z</time>
      </trkpt>
      <trkpt lat="45.707933697849512" lon="10.835210205987096">
        <ele>2101.0999999999999</ele>
        <time>2018-06-10T13:17:51Z</time>
      </trkpt>
      <trkpt lat="45.707937134429812" lon="10.835230993106961">
        <ele>2101.0999999999999</ele>
        <time>2018-06-10T13:17:59Z</time>
      </trkpt>
      <trkpt lat="45.707909893244505" lon="10.835202997550368">
        <ele>2100.6199999999999</ele>
        <time>2018-06-10T13:18:09Z</time>
      </trkpt>
      <trkpt lat="45.707872845232487" lon="10.835181875154376">
        <ele>2098.6999999999998</ele>
        <time>2018-06-10T13:18:18Z</time>
      </trkpt>
      <trkpt lat="45.707850130274892" lon="10.835110628977418">
        <ele>2098.6999999999998</ele>
        <time>2018-06-10T13:18:27Z</time>
      </trkpt>
      <trkpt lat="45.707800760865211" lon="10.835005016997457">
        <ele>2099.1799999999998</ele>
        <time>2018-06-10T13:18:37Z</time>
      </trkpt>
      <trkpt lat="45.707788188010454" lon="10.834978446364403">
        <ele>2099.1799999999998</ele>
        <time>2018-06-10T13:18:41Z</time>
      </trkpt>
      <trkpt lat="45.707709062844515" lon="10.834847940132022">
        <ele>2099.6599999999999</ele>
        <time>2018-06-10T13:18:54Z</time>
      </trkpt>
      <trkpt lat="45.707637649029493" lon="10.83473009057343">
        <ele>2100.1399999999999</ele>
        <time>2018-06-10T13:19:05Z</time>
      </trkpt>
      <trkpt lat="45.707570845261216" lon="10.834644176065922">
        <ele>2100.6199999999999</ele>
        <time>2018-06-10T13:19:15Z</time>
      </trkpt>
      <trkpt lat="45.707561625167727" lon="10.834638811647892">
        <ele>2100.6199999999999</ele>
        <time>2018-06-10T13:19:16Z</time>
      </trkpt>
      <trkpt lat="45.707485768944025" lon="10.834547700360417">
        <ele>2101.0999999999999</ele>
        <time>2018-06-10T13:19:26Z</time>
      </trkpt>
      <trkpt lat="45.707393232733011" lon="10.834445860236883">
        <ele>2101.5799999999999</ele>
        <time>2018-06-10T13:19:37Z</time>
      </trkpt>
      <trkpt lat="45.707303714007139" lon="10.834366902709007">
        <ele>2102.0599999999999</ele>
        <time>2018-06-10T13:19:48Z</time>
      </trkpt>
      <trkpt lat="45.707230539992452" lon="10.834289118647575">
        <ele>2102.54</ele>
        <time>2018-06-10T13:19:58Z</time>
      </trkpt>
      <trkpt lat="45.707155857235193" lon="10.834199097007513">
        <ele>2102.54</ele>
        <time>2018-06-10T13:20:08Z</time>
      </trkpt>
      <trkpt lat="45.707146218046546" lon="10.8341911341995">
        <ele>2103.02</ele>
        <time>2018-06-10T13:20:09Z</time>
      </trkpt>
      <trkpt lat="45.707115959376097" lon="10.834150230512023">
        <ele>2103.02</ele>
        <time>2018-06-10T13:20:13Z</time>
      </trkpt>
      <trkpt lat="45.70709659717977" lon="10.83412567153573">
        <ele>2103.02</ele>
        <time>2018-06-10T13:20:16Z</time>
      </trkpt>
      <trkpt lat="45.7070501614362" lon="10.834076637402177">
        <ele>2103.5</ele>
        <time>2018-06-10T13:20:22Z</time>
      </trkpt>
      <trkpt lat="45.706939939409494" lon="10.834003044292331">
        <ele>2103.98</ele>
        <time>2018-06-10T13:20:35Z</time>
      </trkpt>
      <trkpt lat="45.706846229732037" lon="10.833944454789162">
        <ele>2104.46</ele>
        <time>2018-06-10T13:20:46Z</time>
      </trkpt>
      <trkpt lat="45.706782946363091" lon="10.83385887555778">
        <ele>2104.9400000000001</ele>
        <time>2018-06-10T13:20:55Z</time>
      </trkpt>
      <trkpt lat="45.706767858937383" lon="10.833837166428566">
        <ele>2105.4200000000001</ele>
        <time>2018-06-10T13:20:58Z</time>
      </trkpt>
      <trkpt lat="45.706755453720689" lon="10.833816044032574">
        <ele>2105.4200000000001</ele>
        <time>2018-06-10T13:21:00Z</time>
      </trkpt>
      <trkpt lat="45.706718070432544" lon="10.833679502829909">
        <ele>2105.9099999999999</ele>
        <time>2018-06-10T13:21:11Z</time>
      </trkpt>
      <trkpt lat="45.706678172573447" lon="10.833558049052954">
        <ele>2106.3899999999999</ele>
        <time>2018-06-10T13:21:21Z</time>
      </trkpt>
      <trkpt lat="45.706637939438224" lon="10.833439026027918">
        <ele>2106.8699999999999</ele>
        <time>2018-06-10T13:21:31Z</time>
      </trkpt>
      <trkpt lat="45.70660843513906" lon="10.833365516737103">
        <ele>2107.3499999999999</ele>
        <time>2018-06-10T13:21:37Z</time>
      </trkpt>
      <trkpt lat="45.706581445410848" lon="10.833298796787858">
        <ele>2107.8299999999999</ele>
        <time>2018-06-10T13:21:43Z</time>
      </trkpt>
      <trkpt lat="45.706571470946074" lon="10.833276165649295">
        <ele>2107.8299999999999</ele>
        <time>2018-06-10T13:21:45Z</time>
      </trkpt>
      <trkpt lat="45.70652243681252" lon="10.833177426829934">
        <ele>2109.27</ele>
        <time>2018-06-10T13:21:55Z</time>
      </trkpt>
      <trkpt lat="45.706495363265276" lon="10.833129147067666">
        <ele>2108.3099999999999</ele>
        <time>2018-06-10T13:21:59Z</time>
      </trkpt>
      <trkpt lat="45.706419926136732" lon="10.833025127649307">
        <ele>2109.27</ele>
        <time>2018-06-10T13:22:10Z</time>
      </trkpt>
      <trkpt lat="45.706360079348087" lon="10.832964861765504">
        <ele>2109.27</ele>
        <time>2018-06-10T13:22:18Z</time>
      </trkpt>
      <trkpt lat="45.706252120435238" lon="10.832912474870682">
        <ele>2108.79</ele>
        <time>2018-06-10T13:22:30Z</time>
      </trkpt>
      <trkpt lat="45.706149945035577" lon="10.832868469879031">
        <ele>2109.27</ele>
        <time>2018-06-10T13:22:41Z</time>
      </trkpt>
      <trkpt lat="45.70603578351438" lon="10.83278976380825">
        <ele>2109.27</ele>
        <time>2018-06-10T13:22:54Z</time>
      </trkpt>
      <trkpt lat="45.706027066335082" lon="10.832784315571189">
        <ele>2109.75</ele>
        <time>2018-06-10T13:22:55Z</time>
      </trkpt>
      <trkpt lat="45.705943666398525" lon="10.832665292546153">
        <ele>2108.3099999999999</ele>
        <time>2018-06-10T13:23:07Z</time>
      </trkpt>
      <trkpt lat="45.70587208494544" lon="10.832585664466023">
        <ele>2109.75</ele>
        <time>2018-06-10T13:23:16Z</time>
      </trkpt>
      <trkpt lat="45.705773094668984" lon="10.832496481016278">
        <ele>2109.75</ele>
        <time>2018-06-10T13:23:28Z</time>
      </trkpt>
      <trkpt lat="45.70573621429503" lon="10.832453984767199">
        <ele>2110.23</ele>
        <time>2018-06-10T13:23:34Z</time>
      </trkpt>
      <trkpt lat="45.705642672255635" lon="10.832399250939488">
        <ele>2111.1900000000001</ele>
        <time>2018-06-10T13:23:45Z</time>
      </trkpt>
      <trkpt lat="45.705581400543451" lon="10.832373350858688">
        <ele>2111.6700000000001</ele>
        <time>2018-06-10T13:23:55Z</time>
      </trkpt>
      <trkpt lat="45.705501604825258" lon="10.832310486584902">
        <ele>2111.1900000000001</ele>
        <time>2018-06-10T13:24:06Z</time>
      </trkpt>
      <trkpt lat="45.705437399446964" lon="10.832290034741163">
        <ele>2112.1500000000001</ele>
        <time>2018-06-10T13:24:15Z</time>
      </trkpt>
      <trkpt lat="45.705371266230941" lon="10.832233792170882">
        <ele>2114.0799999999999</ele>
        <time>2018-06-10T13:24:26Z</time>
      </trkpt>
      <trkpt lat="45.705330865457654" lon="10.832216860726476">
        <ele>2114.5599999999999</ele>
        <time>2018-06-10T13:24:33Z</time>
      </trkpt>
      <trkpt lat="45.705291889607906" lon="10.832187104970217">
        <ele>2115.52</ele>
        <time>2018-06-10T13:24:43Z</time>
      </trkpt>
      <trkpt lat="45.705268168821931" lon="10.832174615934491">
        <ele>2116</ele>
        <time>2018-06-10T13:24:51Z</time>
      </trkpt>
      <trkpt lat="45.705215949565172" lon="10.832116696983576">
        <ele>2117.4400000000001</ele>
        <time>2018-06-10T13:25:00Z</time>
      </trkpt>
      <trkpt lat="45.705152498558164" lon="10.832061376422644">
        <ele>2118.8800000000001</ele>
        <time>2018-06-10T13:25:11Z</time>
      </trkpt>
      <trkpt lat="45.705106314271688" lon="10.832023741677403">
        <ele>2119.8400000000001</ele>
        <time>2018-06-10T13:25:20Z</time>
      </trkpt>
      <trkpt lat="45.705063063651323" lon="10.832029357552528">
        <ele>2120.8099999999999</ele>
        <time>2018-06-10T13:25:29Z</time>
      </trkpt>
      <trkpt lat="45.704986285418272" lon="10.832030028104782">
        <ele>2121.77</ele>
        <time>2018-06-10T13:25:40Z</time>
      </trkpt>
      <trkpt lat="45.704981088638306" lon="10.832030614838004">
        <ele>2121.77</ele>
        <time>2018-06-10T13:25:41Z</time>
      </trkpt>
      <trkpt lat="45.704923002049327" lon="10.832027848809958">
        <ele>2120.8099999999999</ele>
        <time>2018-06-10T13:25:53Z</time>
      </trkpt>
      <trkpt lat="45.704926773905754" lon="10.831998428329825">
        <ele>2121.29</ele>
        <time>2018-06-10T13:26:08Z</time>
      </trkpt>
      <trkpt lat="45.70489190518856" lon="10.832016784697771">
        <ele>2123.21</ele>
        <time>2018-06-10T13:26:20Z</time>
      </trkpt>
      <trkpt lat="45.704858126118779" lon="10.832026926800609">
        <ele>2123.21</ele>
        <time>2018-06-10T13:26:29Z</time>
      </trkpt>
      <trkpt lat="45.704794339835644" lon="10.832018041983247">
        <ele>2125.1300000000001</ele>
        <time>2018-06-10T13:26:40Z</time>
      </trkpt>
      <trkpt lat="45.704735247418284" lon="10.8320602029562">
        <ele>2126.5700000000002</ele>
        <time>2018-06-10T13:26:49Z</time>
      </trkpt>
      <trkpt lat="45.704663582146168" lon="10.832102447748184">
        <ele>2128.02</ele>
        <time>2018-06-10T13:26:59Z</time>
      </trkpt>
      <trkpt lat="45.704655284062028" lon="10.832105549052358">
        <ele>2128.02</ele>
        <time>2018-06-10T13:27:00Z</time>
      </trkpt>
      <trkpt lat="45.704597365111113" lon="10.832094065845013">
        <ele>2129.9400000000001</ele>
        <time>2018-06-10T13:27:10Z</time>
      </trkpt>
      <trkpt lat="45.704635418951511" lon="10.83201477304101">
        <ele>2130.9000000000001</ele>
        <time>2018-06-10T13:27:18Z</time>
      </trkpt>
      <trkpt lat="45.704707587137818" lon="10.831934474408627">
        <ele>2131.8600000000001</ele>
        <time>2018-06-10T13:27:29Z</time>
      </trkpt>
      <trkpt lat="45.704741114750504" lon="10.831898180767894">
        <ele>2132.8200000000002</ele>
        <time>2018-06-10T13:27:39Z</time>
      </trkpt>
      <trkpt lat="45.704782688990235" lon="10.831876806914806">
        <ele>2133.3000000000002</ele>
        <time>2018-06-10T13:27:51Z</time>
      </trkpt>
      <trkpt lat="45.704842787235975" lon="10.831799022853374">
        <ele>2134.2600000000002</ele>
        <time>2018-06-10T13:28:00Z</time>
      </trkpt>
      <trkpt lat="45.70486843585968" lon="10.831807572394609">
        <ele>2134.7399999999998</ele>
        <time>2018-06-10T13:28:10Z</time>
      </trkpt>
      <trkpt lat="45.704891066998243" lon="10.831770775839686">
        <ele>2135.71</ele>
        <time>2018-06-10T13:28:22Z</time>
      </trkpt>
      <trkpt lat="45.704934652894735" lon="10.831721574068069">
        <ele>2136.6700000000001</ele>
        <time>2018-06-10T13:28:29Z</time>
      </trkpt>
      <trkpt lat="45.704993158578873" lon="10.831659883260727">
        <ele>2138.5900000000001</ele>
        <time>2018-06-10T13:28:39Z</time>
      </trkpt>
      <trkpt lat="45.705047976225615" lon="10.831631803885102">
        <ele>2140.0300000000002</ele>
        <time>2018-06-10T13:28:48Z</time>
      </trkpt>
      <trkpt lat="45.705089215189219" lon="10.831593414768577">
        <ele>2141.4699999999998</ele>
        <time>2018-06-10T13:28:57Z</time>
      </trkpt>
      <trkpt lat="45.705048982053995" lon="10.831580087542534">
        <ele>2142.4400000000001</ele>
        <time>2018-06-10T13:29:06Z</time>
      </trkpt>
      <trkpt lat="45.705034732818604" lon="10.831571789458394">
        <ele>2142.9200000000001</ele>
        <time>2018-06-10T13:29:08Z</time>
      </trkpt>
      <trkpt lat="45.704974634572864" lon="10.831543290987611">
        <ele>2144.3600000000001</ele>
        <time>2018-06-10T13:29:18Z</time>
      </trkpt>
      <trkpt lat="45.704917469993234" lon="10.831539100036025">
        <ele>2145.3200000000002</ele>
        <time>2018-06-10T13:29:28Z</time>
      </trkpt>
      <trkpt lat="45.70486600510776" lon="10.831532143056393">
        <ele>2145.8000000000002</ele>
        <time>2018-06-10T13:29:38Z</time>
      </trkpt>
      <trkpt lat="45.704831471666694" lon="10.831515295431018">
        <ele>2147.7199999999998</ele>
        <time>2018-06-10T13:29:46Z</time>
      </trkpt>
      <trkpt lat="45.704874554648995" lon="10.831472463905811">
        <ele>2149.1599999999999</ele>
        <time>2018-06-10T13:29:55Z</time>
      </trkpt>
      <trkpt lat="45.704913111403584" lon="10.831446144729853">
        <ele>2150.1300000000001</ele>
        <time>2018-06-10T13:30:03Z</time>
      </trkpt>
      <trkpt lat="45.704974550753832" lon="10.831397529691458">
        <ele>2151.5700000000002</ele>
        <time>2018-06-10T13:30:13Z</time>
      </trkpt>
      <trkpt lat="45.705015370622277" lon="10.831369534134865">
        <ele>2152.5300000000002</ele>
        <time>2018-06-10T13:30:19Z</time>
      </trkpt>
      <trkpt lat="45.705049065873027" lon="10.831365007907152">
        <ele>2153.4899999999998</ele>
        <time>2018-06-10T13:30:23Z</time>
      </trkpt>
      <trkpt lat="45.705056861042976" lon="10.831294935196638">
        <ele>2154.9299999999998</ele>
        <time>2018-06-10T13:30:31Z</time>
      </trkpt>
      <trkpt lat="45.704984525218606" lon="10.831309016793966">
        <ele>2156.3699999999999</ele>
        <time>2018-06-10T13:30:41Z</time>
      </trkpt>
      <trkpt lat="45.704903304576874" lon="10.831293594092131">
        <ele>2157.3400000000001</ele>
        <time>2018-06-10T13:30:51Z</time>
      </trkpt>
      <trkpt lat="45.704837087541819" lon="10.831302981823683">
        <ele>2158.3000000000002</ele>
        <time>2018-06-10T13:31:01Z</time>
      </trkpt>
      <trkpt lat="45.704791406169534" lon="10.831317063421011">
        <ele>2159.2600000000002</ele>
        <time>2018-06-10T13:31:08Z</time>
      </trkpt>
      <trkpt lat="45.704753184691072" lon="10.831322008743882">
        <ele>2160.2199999999998</ele>
        <time>2018-06-10T13:31:14Z</time>
      </trkpt>
      <trkpt lat="45.704705743119121" lon="10.831333827227354">
        <ele>2161.6599999999999</ele>
        <time>2018-06-10T13:31:22Z</time>
      </trkpt>
      <trkpt lat="45.704648913815618" lon="10.831340868026018">
        <ele>2163.5799999999999</ele>
        <time>2018-06-10T13:31:31Z</time>
      </trkpt>
      <trkpt lat="45.704625360667706" lon="10.831342376768589">
        <ele>2164.0599999999999</ele>
        <time>2018-06-10T13:31:35Z</time>
      </trkpt>
      <trkpt lat="45.704579008743167" lon="10.831295689567924">
        <ele>2164.5500000000002</ele>
        <time>2018-06-10T13:31:44Z</time>
      </trkpt>
      <trkpt lat="45.704598622396588" lon="10.831231232732534">
        <ele>2165.0300000000002</ele>
        <time>2018-06-10T13:31:53Z</time>
      </trkpt>
      <trkpt lat="45.704627959057689" lon="10.831276830285788">
        <ele>2165.5100000000002</ele>
        <time>2018-06-10T13:32:06Z</time>
      </trkpt>
      <trkpt lat="45.704656457528472" lon="10.831281105056405">
        <ele>2165.9899999999998</ele>
        <time>2018-06-10T13:32:17Z</time>
      </trkpt>
      <trkpt lat="45.704646399244666" lon="10.831240201368928">
        <ele>2165.5100000000002</ele>
        <time>2018-06-10T13:32:31Z</time>
      </trkpt>
      <trkpt lat="45.704627120867372" lon="10.831274650990963">
        <ele>2165.5100000000002</ele>
        <time>2018-06-10T13:32:41Z</time>
      </trkpt>
      <trkpt lat="45.704582696780562" lon="10.831284625455737">
        <ele>2165.5100000000002</ele>
        <time>2018-06-10T13:32:51Z</time>
      </trkpt>
      <trkpt lat="45.704580768942833" lon="10.831314716488123">
        <ele>2165.0300000000002</ele>
        <time>2018-06-10T13:33:01Z</time>
      </trkpt>
      <trkpt lat="45.704578505828977" lon="10.831297198310494">
        <ele>2165.0300000000002</ele>
        <time>2018-06-10T13:33:28Z</time>
      </trkpt>
      <trkpt lat="45.704574985429645" lon="10.831281943246722">
        <ele>2164.5500000000002</ele>
        <time>2018-06-10T13:33:42Z</time>
      </trkpt>
      <trkpt lat="45.704584289342165" lon="10.831275740638375">
        <ele>2164.0599999999999</ele>
        <time>2018-06-10T13:33:55Z</time>
      </trkpt>
      <trkpt lat="45.704583702608943" lon="10.831288564950228">
        <ele>2165.0300000000002</ele>
        <time>2018-06-10T13:34:11Z</time>
      </trkpt>
      <trkpt lat="45.704578254371881" lon="10.831319577991962">
        <ele>2164.5500000000002</ele>
        <time>2018-06-10T13:34:26Z</time>
      </trkpt>
      <trkpt lat="45.7045703753829" lon="10.831310776993632">
        <ele>2164.5500000000002</ele>
        <time>2018-06-10T13:34:41Z</time>
      </trkpt>
      <trkpt lat="45.704551180824637" lon="10.831280266866088">
        <ele>2165.0300000000002</ele>
        <time>2018-06-10T13:34:57Z</time>
      </trkpt>
      <trkpt lat="45.704543720930815" lon="10.831273226067424">
        <ele>2164.5500000000002</ele>
        <time>2018-06-10T13:35:17Z</time>
      </trkpt>
      <trkpt lat="45.704551851376891" lon="10.831295102834702">
        <ele>2165.0300000000002</ele>
        <time>2018-06-10T13:35:30Z</time>
      </trkpt>
      <trkpt lat="45.704547828063369" lon="10.831274231895804">
        <ele>2164.5500000000002</ele>
        <time>2018-06-10T13:35:46Z</time>
      </trkpt>
      <trkpt lat="45.704533495008945" lon="10.831220420077443">
        <ele>2163.5799999999999</ele>
        <time>2018-06-10T13:35:53Z</time>
      </trkpt>
      <trkpt lat="45.704550258815289" lon="10.831100726500154">
        <ele>2160.2199999999998</ele>
        <time>2018-06-10T13:36:05Z</time>
      </trkpt>
      <trkpt lat="45.704593174159527" lon="10.831003580242395">
        <ele>2159.2600000000002</ele>
        <time>2018-06-10T13:36:15Z</time>
      </trkpt>
      <trkpt lat="45.704597113654017" lon="10.830993689596653">
        <ele>2158.7800000000002</ele>
        <time>2018-06-10T13:36:16Z</time>
      </trkpt>
      <trkpt lat="45.704627623781562" lon="10.830913474783301">
        <ele>2157.8200000000002</ele>
        <time>2018-06-10T13:36:23Z</time>
      </trkpt>
      <trkpt lat="45.704631479457021" lon="10.830848766490817">
        <ele>2155.8899999999999</ele>
        <time>2018-06-10T13:36:29Z</time>
      </trkpt>
      <trkpt lat="45.704638687893748" lon="10.830785818397999">
        <ele>2154.9299999999998</ele>
        <time>2018-06-10T13:36:33Z</time>
      </trkpt>
      <trkpt lat="45.704662073403597" lon="10.830684062093496">
        <ele>2153.4899999999998</ele>
        <time>2018-06-10T13:36:43Z</time>
      </trkpt>
      <trkpt lat="45.704668946564198" lon="10.830645924434066">
        <ele>2153.0100000000002</ele>
        <time>2018-06-10T13:36:46Z</time>
      </trkpt>
      <trkpt lat="45.704675819724798" lon="10.830620862543583">
        <ele>2152.5300000000002</ele>
        <time>2018-06-10T13:36:48Z</time>
      </trkpt>
      <trkpt lat="45.704723931849003" lon="10.830537462607026">
        <ele>2152.0500000000002</ele>
        <time>2018-06-10T13:36:56Z</time>
      </trkpt>
      <trkpt lat="45.704770870506763" lon="10.830415925011039">
        <ele>2150.6100000000001</ele>
        <time>2018-06-10T13:37:07Z</time>
      </trkpt>
      <trkpt lat="45.704801883548498" lon="10.830390695482492">
        <ele>2150.6100000000001</ele>
        <time>2018-06-10T13:37:12Z</time>
      </trkpt>
      <trkpt lat="45.704786209389567" lon="10.830356329679489">
        <ele>2153.9699999999998</ele>
        <time>2018-06-10T13:37:22Z</time>
      </trkpt>
      <trkpt lat="45.704790819436312" lon="10.830307630822062">
        <ele>2153.4899999999998</ele>
        <time>2018-06-10T13:37:31Z</time>
      </trkpt>
      <trkpt lat="45.704806325957179" lon="10.830297907814384">
        <ele>2153.4899999999998</ele>
        <time>2018-06-10T13:37:41Z</time>
      </trkpt>
      <trkpt lat="45.704799871891737" lon="10.830295057967305">
        <ele>2153.0100000000002</ele>
        <time>2018-06-10T13:38:00Z</time>
      </trkpt>
      <trkpt lat="45.704787466675043" lon="10.830330932512879">
        <ele>2153.0100000000002</ele>
        <time>2018-06-10T13:38:32Z</time>
      </trkpt>
      <trkpt lat="45.704790987074375" lon="10.830310480669141">
        <ele>2153.0100000000002</ele>
        <time>2018-06-10T13:38:59Z</time>
      </trkpt>
      <trkpt lat="45.704787969589233" lon="10.830317689105868">
        <ele>2153.0100000000002</ele>
        <time>2018-06-10T13:39:21Z</time>
      </trkpt>
      <trkpt lat="45.704783862456679" lon="10.830319281667471">
        <ele>2153.4899999999998</ele>
        <time>2018-06-10T13:39:47Z</time>
      </trkpt>
      <trkpt lat="45.704776151105762" lon="10.83032556809485">
        <ele>2153.0100000000002</ele>
        <time>2018-06-10T13:40:16Z</time>
      </trkpt>
      <trkpt lat="45.704777240753174" lon="10.830326238647103">
        <ele>2153.0100000000002</ele>
        <time>2018-06-10T13:40:46Z</time>
      </trkpt>
      <trkpt lat="45.70477657020092" lon="10.830326154828072">
        <ele>2153.4899999999998</ele>
        <time>2018-06-10T13:41:12Z</time>
      </trkpt>
      <trkpt lat="45.704811522737145" lon="10.830363286659122">
        <ele>2153.0100000000002</ele>
        <time>2018-06-10T13:41:35Z</time>
      </trkpt>
      <trkpt lat="45.704825771972537" lon="10.830365382134914">
        <ele>2153.0100000000002</ele>
        <time>2018-06-10T13:42:00Z</time>
      </trkpt>
      <trkpt lat="45.704804230481386" lon="10.830314587801695">
        <ele>2152.5300000000002</ele>
        <time>2018-06-10T13:42:15Z</time>
      </trkpt>
      <trkpt lat="45.704792579635978" lon="10.830309893935919">
        <ele>2152.5300000000002</ele>
        <time>2018-06-10T13:42:40Z</time>
      </trkpt>
      <trkpt lat="45.704785203561187" lon="10.830330261960626">
        <ele>2152.0500000000002</ele>
        <time>2018-06-10T13:43:10Z</time>
      </trkpt>
      <trkpt lat="45.704776402562857" lon="10.830323891714215">
        <ele>2152.5300000000002</ele>
        <time>2018-06-10T13:43:34Z</time>
      </trkpt>
      <trkpt lat="45.704773552715778" lon="10.830336296930909">
        <ele>2152.5300000000002</ele>
        <time>2018-06-10T13:43:52Z</time>
      </trkpt>
      <trkpt lat="45.704776737838984" lon="10.830343086272478">
        <ele>2152.5300000000002</ele>
        <time>2018-06-10T13:44:21Z</time>
      </trkpt>
      <trkpt lat="45.704787550494075" lon="10.830356497317553">
        <ele>2152.0500000000002</ele>
        <time>2018-06-10T13:44:41Z</time>
      </trkpt>
      <trkpt lat="45.704806996509433" lon="10.83030654117465">
        <ele>2152.5300000000002</ele>
        <time>2018-06-10T13:45:01Z</time>
      </trkpt>
      <trkpt lat="45.704808756709099" lon="10.83025817759335">
        <ele>2152.5300000000002</ele>
        <time>2018-06-10T13:45:17Z</time>
      </trkpt>
      <trkpt lat="45.70479853078723" lon="10.830238228663802">
        <ele>2152.5300000000002</ele>
        <time>2018-06-10T13:45:29Z</time>
      </trkpt>
      <trkpt lat="45.704790819436312" lon="10.830235294997692">
        <ele>2153.0100000000002</ele>
        <time>2018-06-10T13:45:41Z</time>
      </trkpt>
      <trkpt lat="45.704791741445661" lon="10.830242922529578">
        <ele>2153.4899999999998</ele>
        <time>2018-06-10T13:45:56Z</time>
      </trkpt>
      <trkpt lat="45.70479610003531" lon="10.830244766548276">
        <ele>2153.0100000000002</ele>
        <time>2018-06-10T13:46:15Z</time>
      </trkpt>
      <trkpt lat="45.704781264066696" lon="10.830265050753951">
        <ele>2153.0100000000002</ele>
        <time>2018-06-10T13:46:31Z</time>
      </trkpt>
      <trkpt lat="45.704780928790569" lon="10.830270582810044">
        <ele>2153.4899999999998</ele>
        <time>2018-06-10T13:46:55Z</time>
      </trkpt>
      <trkpt lat="45.70477707311511" lon="10.830266643315554">
        <ele>2153.0100000000002</ele>
        <time>2018-06-10T13:47:11Z</time>
      </trkpt>
      <trkpt lat="45.704806828871369" lon="10.830283658578992">
        <ele>2153.4899999999998</ele>
        <time>2018-06-10T13:47:31Z</time>
      </trkpt>
      <trkpt lat="45.704800626263022" lon="10.830256836488843">
        <ele>2153.4899999999998</ele>
        <time>2018-06-10T13:47:53Z</time>
      </trkpt>
      <trkpt lat="45.704810684546828" lon="10.83028650842607">
        <ele>2153.4899999999998</ele>
        <time>2018-06-10T13:48:18Z</time>
      </trkpt>
      <trkpt lat="45.704792411997914" lon="10.830247951671481">
        <ele>2153.4899999999998</ele>
        <time>2018-06-10T13:48:38Z</time>
      </trkpt>
      <trkpt lat="45.704771708697081" lon="10.830215932801366">
        <ele>2153.4899999999998</ele>
        <time>2018-06-10T13:48:56Z</time>
      </trkpt>
      <trkpt lat="45.704764751717448" lon="10.830229595303535">
        <ele>2153.0100000000002</ele>
        <time>2018-06-10T13:49:12Z</time>
      </trkpt>
      <trkpt lat="45.70476139895618" lon="10.830237725749612">
        <ele>2153.4899999999998</ele>
        <time>2018-06-10T13:49:37Z</time>
      </trkpt>
      <trkpt lat="45.704773720353842" lon="10.83023420535028">
        <ele>2153.9699999999998</ele>
        <time>2018-06-10T13:49:48Z</time>
      </trkpt>
      <trkpt lat="45.704781180247664" lon="10.830250298604369">
        <ele>2153.4899999999998</ele>
        <time>2018-06-10T13:50:14Z</time>
      </trkpt>
      <trkpt lat="45.704779252409935" lon="10.830237977206707">
        <ele>2153.4899999999998</ele>
        <time>2018-06-10T13:50:33Z</time>
      </trkpt>
      <trkpt lat="45.704761818051338" lon="10.83022884093225">
        <ele>2153.9699999999998</ele>
        <time>2018-06-10T13:50:53Z</time>
      </trkpt>
      <trkpt lat="45.704781347885728" lon="10.830265386030078">
        <ele>2153.9699999999998</ele>
        <time>2018-06-10T13:51:06Z</time>
      </trkpt>
      <trkpt lat="45.704785874113441" lon="10.830276533961296">
        <ele>2153.9699999999998</ele>
        <time>2018-06-10T13:51:24Z</time>
      </trkpt>
      <trkpt lat="45.704791154712439" lon="10.830287262797356">
        <ele>2153.4899999999998</ele>
        <time>2018-06-10T13:51:46Z</time>
      </trkpt>
      <trkpt lat="45.704794004559517" lon="10.830276869237423">
        <ele>2153.4899999999998</ele>
        <time>2018-06-10T13:52:07Z</time>
      </trkpt>
      <trkpt lat="45.704780425876379" lon="10.83028256893158">
        <ele>2153.4899999999998</ele>
        <time>2018-06-10T13:52:29Z</time>
      </trkpt>
      <trkpt lat="45.704784449189901" lon="10.83027527667582">
        <ele>2153.9699999999998</ele>
        <time>2018-06-10T13:52:46Z</time>
      </trkpt>
      <trkpt lat="45.704783610999584" lon="10.830273767933249">
        <ele>2153.9699999999998</ele>
        <time>2018-06-10T13:53:15Z</time>
      </trkpt>
      <trkpt lat="45.704767433926463" lon="10.830277372151613">
        <ele>2153.4899999999998</ele>
        <time>2018-06-10T13:53:37Z</time>
      </trkpt>
      <trkpt lat="45.704782269895077" lon="10.830265888944268">
        <ele>2153.4899999999998</ele>
        <time>2018-06-10T13:53:55Z</time>
      </trkpt>
      <trkpt lat="45.704771624878049" lon="10.830260356888175">
        <ele>2153.9699999999998</ele>
        <time>2018-06-10T13:54:13Z</time>
      </trkpt>
      <trkpt lat="45.704798195511103" lon="10.830288268625736">
        <ele>2153.9699999999998</ele>
        <time>2018-06-10T13:54:39Z</time>
      </trkpt>
      <trkpt lat="45.704812612384558" lon="10.830268571153283">
        <ele>2153.4899999999998</ele>
        <time>2018-06-10T13:54:53Z</time>
      </trkpt>
      <trkpt lat="45.704809259623289" lon="10.830253232270479">
        <ele>2153.4899999999998</ele>
        <time>2018-06-10T13:55:13Z</time>
      </trkpt>
      <trkpt lat="45.704784449189901" lon="10.830223392695189">
        <ele>2153.4899999999998</ele>
        <time>2018-06-10T13:55:27Z</time>
      </trkpt>
      <trkpt lat="45.704772295430303" lon="10.830189529806376">
        <ele>2153.4899999999998</ele>
        <time>2018-06-10T13:55:50Z</time>
      </trkpt>
      <trkpt lat="45.704766763374209" lon="10.830170502886176">
        <ele>2154.4499999999998</ele>
        <time>2018-06-10T13:56:15Z</time>
      </trkpt>
      <trkpt lat="45.704759890213609" lon="10.830179555341601">
        <ele>2153.9699999999998</ele>
        <time>2018-06-10T13:56:38Z</time>
      </trkpt>
      <trkpt lat="45.70476190187037" lon="10.830235714092851">
        <ele>2153.9699999999998</ele>
        <time>2018-06-10T13:56:51Z</time>
      </trkpt>
      <trkpt lat="45.704782856628299" lon="10.830290028825402">
        <ele>2153.4899999999998</ele>
        <time>2018-06-10T13:57:04Z</time>
      </trkpt>
      <trkpt lat="45.704770870506763" lon="10.830290364101529">
        <ele>2153.9699999999998</ele>
        <time>2018-06-10T13:57:26Z</time>
      </trkpt>
      <trkpt lat="45.704784533008933" lon="10.830276450142264">
        <ele>2153.4899999999998</ele>
        <time>2018-06-10T13:57:40Z</time>
      </trkpt>
      <trkpt lat="45.704794256016612" lon="10.830301428213716">
        <ele>2154.9299999999998</ele>
        <time>2018-06-10T13:58:02Z</time>
      </trkpt>
      <trkpt lat="45.704793753102422" lon="10.83027670159936">
        <ele>2153.9699999999998</ele>
        <time>2018-06-10T13:58:24Z</time>
      </trkpt>
      <trkpt lat="45.704791992902756" lon="10.830263877287507">
        <ele>2154.4499999999998</ele>
        <time>2018-06-10T13:58:48Z</time>
      </trkpt>
      <trkpt lat="45.704792914912105" lon="10.830272007733583">
        <ele>2154.4499999999998</ele>
        <time>2018-06-10T13:59:11Z</time>
      </trkpt>
      <trkpt lat="45.7047966029495" lon="10.830293381586671">
        <ele>2153.9699999999998</ele>
        <time>2018-06-10T13:59:20Z</time>
      </trkpt>
      <trkpt lat="45.704782186076045" lon="10.830299165099859">
        <ele>2153.9699999999998</ele>
        <time>2018-06-10T13:59:43Z</time>
      </trkpt>
      <trkpt lat="45.704780593514442" lon="10.830304948613048">
        <ele>2153.9699999999998</ele>
        <time>2018-06-10T14:00:03Z</time>
      </trkpt>
      <trkpt lat="45.70478486828506" lon="10.830306457355618">
        <ele>2153.9699999999998</ele>
        <time>2018-06-10T14:00:23Z</time>
      </trkpt>
      <trkpt lat="45.704782605171204" lon="10.830280808731914">
        <ele>2153.9699999999998</ele>
        <time>2018-06-10T14:00:47Z</time>
      </trkpt>
      <trkpt lat="45.704781264066696" lon="10.830270331352949">
        <ele>2153.9699999999998</ele>
        <time>2018-06-10T14:01:16Z</time>
      </trkpt>
      <trkpt lat="45.704787550494075" lon="10.83029723726213">
        <ele>2153.9699999999998</ele>
        <time>2018-06-10T14:01:34Z</time>
      </trkpt>
      <trkpt lat="45.704781599342823" lon="10.830292962491512">
        <ele>2153.9699999999998</ele>
        <time>2018-06-10T14:01:58Z</time>
      </trkpt>
      <trkpt lat="45.704774223268032" lon="10.830261195078492">
        <ele>2153.9699999999998</ele>
        <time>2018-06-10T14:02:26Z</time>
      </trkpt>
      <trkpt lat="45.704795764759183" lon="10.83027770742774">
        <ele>2153.9699999999998</ele>
        <time>2018-06-10T14:02:52Z</time>
      </trkpt>
      <trkpt lat="45.70478000678122" lon="10.830269241705537">
        <ele>2154.4499999999998</ele>
        <time>2018-06-10T14:03:12Z</time>
      </trkpt>
      <trkpt lat="45.704805739223957" lon="10.830295477062464">
        <ele>2154.4499999999998</ele>
        <time>2018-06-10T14:03:32Z</time>
      </trkpt>
      <trkpt lat="45.704809846356511" lon="10.830305870622396">
        <ele>2153.9699999999998</ele>
        <time>2018-06-10T14:03:50Z</time>
      </trkpt>
      <trkpt lat="45.704801883548498" lon="10.830306122079492">
        <ele>2153.9699999999998</ele>
        <time>2018-06-10T14:04:13Z</time>
      </trkpt>
      <trkpt lat="45.70477900095284" lon="10.830310229212046">
        <ele>2153.9699999999998</ele>
        <time>2018-06-10T14:04:35Z</time>
      </trkpt>
      <trkpt lat="45.704805068671703" lon="10.83030553534627">
        <ele>2153.4899999999998</ele>
        <time>2018-06-10T14:05:08Z</time>
      </trkpt>
      <trkpt lat="45.704796267673373" lon="10.830295812338591">
        <ele>2154.4499999999998</ele>
        <time>2018-06-10T14:05:27Z</time>
      </trkpt>
      <trkpt lat="45.704775732010603" lon="10.83027670159936">
        <ele>2154.4499999999998</ele>
        <time>2018-06-10T14:05:35Z</time>
      </trkpt>
      <trkpt lat="45.704795345664024" lon="10.830341828987002">
        <ele>2154.9299999999998</ele>
        <time>2018-06-10T14:05:47Z</time>
      </trkpt>
      <trkpt lat="45.704804649576545" lon="10.830332776531577">
        <ele>2154.9299999999998</ele>
        <time>2018-06-10T14:06:00Z</time>
      </trkpt>
      <trkpt lat="45.704777827486396" lon="10.830314001068473">
        <ele>2155.4099999999999</ele>
        <time>2018-06-10T14:06:17Z</time>
      </trkpt>
      <trkpt lat="45.704784616827965" lon="10.83030603826046">
        <ele>2154.4499999999998</ele>
        <time>2018-06-10T14:06:26Z</time>
      </trkpt>
      <trkpt lat="45.704768188297749" lon="10.830293716862798">
        <ele>2154.9299999999998</ele>
        <time>2018-06-10T14:06:45Z</time>
      </trkpt>
      <trkpt lat="45.704774893820286" lon="10.830298913642764">
        <ele>2154.9299999999998</ele>
        <time>2018-06-10T14:06:53Z</time>
      </trkpt>
      <trkpt lat="45.704758800566196" lon="10.830266559496522">
        <ele>2154.9299999999998</ele>
        <time>2018-06-10T14:07:13Z</time>
      </trkpt>
      <trkpt lat="45.70475067012012" lon="10.830267900601029">
        <ele>2154.9299999999998</ele>
        <time>2018-06-10T14:07:31Z</time>
      </trkpt>
      <trkpt lat="45.704745389521122" lon="10.830276450142264">
        <ele>2154.9299999999998</ele>
        <time>2018-06-10T14:07:50Z</time>
      </trkpt>
      <trkpt lat="45.704782353714108" lon="10.830346941947937">
        <ele>2154.9299999999998</ele>
        <time>2018-06-10T14:08:03Z</time>
      </trkpt>
      <trkpt lat="45.70479710586369" lon="10.830342415720224">
        <ele>2154.9299999999998</ele>
        <time>2018-06-10T14:08:16Z</time>
      </trkpt>
      <trkpt lat="45.704804230481386" lon="10.830333530902863">
        <ele>2154.9299999999998</ele>
        <time>2018-06-10T14:08:28Z</time>
      </trkpt>
      <trkpt lat="45.70480196736753" lon="10.830340068787336">
        <ele>2154.9299999999998</ele>
        <time>2018-06-10T14:08:39Z</time>
      </trkpt>
      <trkpt lat="45.704813618212938" lon="10.83036907017231">
        <ele>2155.8899999999999</ele>
        <time>2018-06-10T14:08:51Z</time>
      </trkpt>
      <trkpt lat="45.704820239916444" lon="10.83045314066112">
        <ele>2152.5300000000002</ele>
        <time>2018-06-10T14:09:01Z</time>
      </trkpt>
      <trkpt lat="45.704769194126129" lon="10.830502090975642">
        <ele>2152.5300000000002</ele>
        <time>2018-06-10T14:09:12Z</time>
      </trkpt>
      <trkpt lat="45.704751508310437" lon="10.830615917220712">
        <ele>2153.4899999999998</ele>
        <time>2018-06-10T14:09:25Z</time>
      </trkpt>
      <trkpt lat="45.704709095880389" lon="10.83070476539433">
        <ele>2154.9299999999998</ele>
        <time>2018-06-10T14:09:36Z</time>
      </trkpt>
      <trkpt lat="45.704665845260024" lon="10.830788081511855">
        <ele>2155.8899999999999</ele>
        <time>2018-06-10T14:09:48Z</time>
      </trkpt>
      <trkpt lat="45.704645561054349" lon="10.830856561660767">
        <ele>2157.3400000000001</ele>
        <time>2018-06-10T14:09:57Z</time>
      </trkpt>
      <trkpt lat="45.70463533513248" lon="10.830939207226038">
        <ele>2159.2600000000002</ele>
        <time>2018-06-10T14:10:08Z</time>
      </trkpt>
      <trkpt lat="45.704624522477388" lon="10.830999724566936">
        <ele>2160.2199999999998</ele>
        <time>2018-06-10T14:10:16Z</time>
      </trkpt>
      <trkpt lat="45.704587223008275" lon="10.831096367910504">
        <ele>2161.6599999999999</ele>
        <time>2018-06-10T14:10:27Z</time>
      </trkpt>
      <trkpt lat="45.70457330904901" lon="10.831192173063755">
        <ele>2164.0599999999999</ele>
        <time>2018-06-10T14:10:39Z</time>
      </trkpt>
      <trkpt lat="45.704571800306439" lon="10.831224694848061">
        <ele>2165.5100000000002</ele>
        <time>2018-06-10T14:10:49Z</time>
      </trkpt>
      <trkpt lat="45.704610524699092" lon="10.831270460039377">
        <ele>2166.9499999999998</ele>
        <time>2018-06-10T14:10:59Z</time>
      </trkpt>
      <trkpt lat="45.704612033441663" lon="10.831272220239043">
        <ele>2166.9499999999998</ele>
        <time>2018-06-10T14:11:05Z</time>
      </trkpt>
      <trkpt lat="45.704593844711781" lon="10.831281272694468">
        <ele>2165.9899999999998</ele>
        <time>2018-06-10T14:11:13Z</time>
      </trkpt>
      <trkpt lat="45.704592922702432" lon="10.831274399533868">
        <ele>2165.9899999999998</ele>
        <time>2018-06-10T14:11:23Z</time>
      </trkpt>
      <trkpt lat="45.704584792256355" lon="10.831265598535538">
        <ele>2165.9899999999998</ele>
        <time>2018-06-10T14:11:47Z</time>
      </trkpt>
      <trkpt lat="45.704578338190913" lon="10.831258893013">
        <ele>2165.9899999999998</ele>
        <time>2018-06-10T14:12:16Z</time>
      </trkpt>
      <trkpt lat="45.704592755064368" lon="10.831265430897474">
        <ele>2165.9899999999998</ele>
        <time>2018-06-10T14:12:35Z</time>
      </trkpt>
      <trkpt lat="45.704610776156187" lon="10.831267777830362">
        <ele>2165.9899999999998</ele>
        <time>2018-06-10T14:13:00Z</time>
      </trkpt>
      <trkpt lat="45.704633072018623" lon="10.831265347078443">
        <ele>2165.9899999999998</ele>
        <time>2018-06-10T14:13:27Z</time>
      </trkpt>
      <trkpt lat="45.70461236871779" lon="10.831256546080112">
        <ele>2165.9899999999998</ele>
        <time>2018-06-10T14:13:48Z</time>
      </trkpt>
      <trkpt lat="45.704606082290411" lon="10.831241542473435">
        <ele>2166.4699999999998</ele>
        <time>2018-06-10T14:14:01Z</time>
      </trkpt>
      <trkpt lat="45.704612536355853" lon="10.831263503059745">
        <ele>2166.4699999999998</ele>
        <time>2018-06-10T14:14:10Z</time>
      </trkpt>
      <trkpt lat="45.70461823605001" lon="10.831274650990963">
        <ele>2166.9499999999998</ele>
        <time>2018-06-10T14:14:20Z</time>
      </trkpt>
      <trkpt lat="45.704624187201262" lon="10.831277752295136">
        <ele>2166.4699999999998</ele>
        <time>2018-06-10T14:14:36Z</time>
      </trkpt>
      <trkpt lat="45.704580098390579" lon="10.831283535808325">
        <ele>2165.9899999999998</ele>
        <time>2018-06-10T14:14:46Z</time>
      </trkpt>
      <trkpt lat="45.704583618789911" lon="10.831297282129526">
        <ele>2166.4699999999998</ele>
        <time>2018-06-10T14:15:00Z</time>
      </trkpt>
      <trkpt lat="45.704609099775553" lon="10.831319075077772">
        <ele>2165.9899999999998</ele>
        <time>2018-06-10T14:15:10Z</time>
      </trkpt>
      <trkpt lat="45.70458747446537" lon="10.831292839720845">
        <ele>2165.5100000000002</ele>
        <time>2018-06-10T14:15:25Z</time>
      </trkpt>
      <trkpt lat="45.704629886895418" lon="10.831281524151564">
        <ele>2165.0300000000002</ele>
        <time>2018-06-10T14:15:34Z</time>
      </trkpt>
      <trkpt lat="45.704708760604262" lon="10.831274902448058">
        <ele>2163.0999999999999</ele>
        <time>2018-06-10T14:15:46Z</time>
      </trkpt>
      <trkpt lat="45.704758046194911" lon="10.831294348463416">
        <ele>2162.1399999999999</ele>
        <time>2018-06-10T14:15:57Z</time>
      </trkpt>
      <trkpt lat="45.704797944054008" lon="10.831274148076773">
        <ele>2160.6999999999998</ele>
        <time>2018-06-10T14:16:03Z</time>
      </trkpt>
      <trkpt lat="45.704904478043318" lon="10.831255121156573">
        <ele>2158.7800000000002</ele>
        <time>2018-06-10T14:16:15Z</time>
      </trkpt>
      <trkpt lat="45.705004977062345" lon="10.831256965175271">
        <ele>2157.3400000000001</ele>
        <time>2018-06-10T14:16:27Z</time>
      </trkpt>
      <trkpt lat="45.70505166426301" lon="10.831344556063414">
        <ele>2155.4099999999999</ele>
        <time>2018-06-10T14:16:37Z</time>
      </trkpt>
      <trkpt lat="45.705018304288387" lon="10.831370037049055">
        <ele>2154.4499999999998</ele>
        <time>2018-06-10T14:16:41Z</time>
      </trkpt>
      <trkpt lat="45.704963402822614" lon="10.831400798633695">
        <ele>2153.0100000000002</ele>
        <time>2018-06-10T14:16:52Z</time>
      </trkpt>
      <trkpt lat="45.704879248514771" lon="10.831447150558233">
        <ele>2151.0900000000001</ele>
        <time>2018-06-10T14:17:05Z</time>
      </trkpt>
      <trkpt lat="45.704836919903755" lon="10.831477073952556">
        <ele>2150.1300000000001</ele>
        <time>2018-06-10T14:17:16Z</time>
      </trkpt>
      <trkpt lat="45.704843709245324" lon="10.831505656242371">
        <ele>2149.1599999999999</ele>
        <time>2018-06-10T14:17:25Z</time>
      </trkpt>
      <trkpt lat="45.704908417537808" lon="10.831496771425009">
        <ele>2147.7199999999998</ele>
        <time>2018-06-10T14:17:35Z</time>
      </trkpt>
      <trkpt lat="45.7049779035151" lon="10.831514289602637">
        <ele>2146.2800000000002</ele>
        <time>2018-06-10T14:17:46Z</time>
      </trkpt>
      <trkpt lat="45.705023081973195" lon="10.831539686769247">
        <ele>2144.3600000000001</ele>
        <time>2018-06-10T14:17:57Z</time>
      </trkpt>
      <trkpt lat="45.705040516331792" lon="10.831620404496789">
        <ele>2142.9200000000001</ele>
        <time>2018-06-10T14:18:09Z</time>
      </trkpt>
      <trkpt lat="45.705011682584882" lon="10.831656195223331">
        <ele>2140.9899999999998</ele>
        <time>2018-06-10T14:18:20Z</time>
      </trkpt>
      <trkpt lat="45.704996092244983" lon="10.831679161638021">
        <ele>2139.5500000000002</ele>
        <time>2018-06-10T14:18:31Z</time>
      </trkpt>
      <trkpt lat="45.704945717006922" lon="10.831718808040023">
        <ele>2138.1100000000001</ele>
        <time>2018-06-10T14:18:42Z</time>
      </trkpt>
      <trkpt lat="45.704879583790898" lon="10.831783097237349">
        <ele>2136.1900000000001</ele>
        <time>2018-06-10T14:18:53Z</time>
      </trkpt>
      <trkpt lat="45.704810181632638" lon="10.831845961511135">
        <ele>2134.7399999999998</ele>
        <time>2018-06-10T14:19:03Z</time>
      </trkpt>
      <trkpt lat="45.704726194962859" lon="10.831921231001616">
        <ele>2133.3000000000002</ele>
        <time>2018-06-10T14:19:15Z</time>
      </trkpt>
      <trkpt lat="45.704650674015284" lon="10.832003625109792">
        <ele>2132.3400000000001</ele>
        <time>2018-06-10T14:19:26Z</time>
      </trkpt>
      <trkpt lat="45.704621337354183" lon="10.832080654799938">
        <ele>2130.9000000000001</ele>
        <time>2018-06-10T14:19:36Z</time>
      </trkpt>
      <trkpt lat="45.704681100323796" lon="10.832018544897437">
        <ele>2128.98</ele>
        <time>2018-06-10T14:19:46Z</time>
      </trkpt>
      <trkpt lat="45.704705659300089" lon="10.831992644816637">
        <ele>2128.5</ele>
        <time>2018-06-10T14:19:50Z</time>
      </trkpt>
      <trkpt lat="45.704768020659685" lon="10.831963056698442">
        <ele>2127.0500000000002</ele>
        <time>2018-06-10T14:19:59Z</time>
      </trkpt>
      <trkpt lat="45.704804146662354" lon="10.831959703937173">
        <ele>2126.0900000000001</ele>
        <time>2018-06-10T14:20:04Z</time>
      </trkpt>
      <trkpt lat="45.704861730337143" lon="10.831938413903117">
        <ele>2124.6500000000001</ele>
        <time>2018-06-10T14:20:15Z</time>
      </trkpt>
      <trkpt lat="45.704881930723786" lon="10.831931456923485">
        <ele>2123.6900000000001</ele>
        <time>2018-06-10T14:20:24Z</time>
      </trkpt>
      <trkpt lat="45.704911602661014" lon="10.832040840759873">
        <ele>2122.73</ele>
        <time>2018-06-10T14:20:35Z</time>
      </trkpt>
      <trkpt lat="45.704917218536139" lon="10.832070093601942">
        <ele>2121.29</ele>
        <time>2018-06-10T14:20:44Z</time>
      </trkpt>
      <trkpt lat="45.70483373478055" lon="10.832120385020971">
        <ele>2119.3600000000001</ele>
        <time>2018-06-10T14:20:54Z</time>
      </trkpt>
      <trkpt lat="45.704821161925793" lon="10.832134718075395">
        <ele>2118.8800000000001</ele>
        <time>2018-06-10T14:20:57Z</time>
      </trkpt>
      <trkpt lat="45.704754944890738" lon="10.832204539328814">
        <ele>2117.4400000000001</ele>
        <time>2018-06-10T14:21:08Z</time>
      </trkpt>
      <trkpt lat="45.704731224104762" lon="10.832234043627977">
        <ele>2117.4400000000001</ele>
        <time>2018-06-10T14:21:12Z</time>
      </trkpt>
      <trkpt lat="45.70467590354383" lon="10.832350635901093">
        <ele>2116</ele>
        <time>2018-06-10T14:21:24Z</time>
      </trkpt>
      <trkpt lat="45.704608513042331" lon="10.832384917885065">
        <ele>2114.0799999999999</ele>
        <time>2018-06-10T14:21:34Z</time>
      </trkpt>
      <trkpt lat="45.704550594091415" lon="10.832400424405932">
        <ele>2113.5999999999999</ele>
        <time>2018-06-10T14:21:44Z</time>
      </trkpt>
      <trkpt lat="45.704503655433655" lon="10.832440657541156">
        <ele>2112.1500000000001</ele>
        <time>2018-06-10T14:21:54Z</time>
      </trkpt>
      <trkpt lat="45.704456549137831" lon="10.832475107163191">
        <ele>2110.71</ele>
        <time>2018-06-10T14:22:04Z</time>
      </trkpt>
      <trkpt lat="45.704431487247348" lon="10.83250436000526">
        <ele>2109.27</ele>
        <time>2018-06-10T14:22:16Z</time>
      </trkpt>
      <trkpt lat="45.704336604103446" lon="10.832456164062023">
        <ele>2108.3099999999999</ele>
        <time>2018-06-10T14:22:29Z</time>
      </trkpt>
      <trkpt lat="45.704310536384583" lon="10.83244132809341">
        <ele>2107.8299999999999</ele>
        <time>2018-06-10T14:22:32Z</time>
      </trkpt>
      <trkpt lat="45.704216491430998" lon="10.832398748025298">
        <ele>2107.8299999999999</ele>
        <time>2018-06-10T14:22:43Z</time>
      </trkpt>
      <trkpt lat="45.704196793958545" lon="10.832399418577552">
        <ele>2108.79</ele>
        <time>2018-06-10T14:22:45Z</time>
      </trkpt>
      <trkpt lat="45.704162176698446" lon="10.832418696954846">
        <ele>2108.3099999999999</ele>
        <time>2018-06-10T14:22:49Z</time>
      </trkpt>
      <trkpt lat="45.704143149778247" lon="10.832437472417951">
        <ele>2108.3099999999999</ele>
        <time>2018-06-10T14:22:52Z</time>
      </trkpt>
      <trkpt lat="45.704102329909801" lon="10.83254300057888">
        <ele>2108.3099999999999</ele>
        <time>2018-06-10T14:23:01Z</time>
      </trkpt>
      <trkpt lat="45.704088751226664" lon="10.832583401352167">
        <ele>2108.79</ele>
        <time>2018-06-10T14:23:11Z</time>
      </trkpt>
      <trkpt lat="45.704070813953876" lon="10.832597650587559">
        <ele>2109.27</ele>
        <time>2018-06-10T14:23:20Z</time>
      </trkpt>
      <trkpt lat="45.70397375151515" lon="10.832562195137143">
        <ele>2108.79</ele>
        <time>2018-06-10T14:23:29Z</time>
      </trkpt>
      <trkpt lat="45.703941732645035" lon="10.832555573433638">
        <ele>2108.79</ele>
        <time>2018-06-10T14:23:32Z</time>
      </trkpt>
      <trkpt lat="45.703863529488444" lon="10.832538725808263">
        <ele>2108.79</ele>
        <time>2018-06-10T14:23:41Z</time>
      </trkpt>
      <trkpt lat="45.703768227249384" lon="10.832566553726792">
        <ele>2109.75</ele>
        <time>2018-06-10T14:23:53Z</time>
      </trkpt>
      <trkpt lat="45.703730760142207" lon="10.83257912658155">
        <ele>2109.27</ele>
        <time>2018-06-10T14:24:03Z</time>
      </trkpt>
      <trkpt lat="45.703690778464079" lon="10.832627741619945">
        <ele>2108.79</ele>
        <time>2018-06-10T14:24:18Z</time>
      </trkpt>
      <trkpt lat="45.703640654683113" lon="10.832704855129123">
        <ele>2107.8299999999999</ele>
        <time>2018-06-10T14:24:29Z</time>
      </trkpt>
      <trkpt lat="45.703597068786621" lon="10.832733605057001">
        <ele>2106.8699999999999</ele>
        <time>2018-06-10T14:24:37Z</time>
      </trkpt>
      <trkpt lat="45.703553147614002" lon="10.832739556208253">
        <ele>2106.3899999999999</ele>
        <time>2018-06-10T14:24:42Z</time>
      </trkpt>
      <trkpt lat="45.703452983871102" lon="10.832736119627953">
        <ele>2104.9400000000001</ele>
        <time>2018-06-10T14:24:54Z</time>
      </trkpt>
      <trkpt lat="45.70339079014957" lon="10.832749530673027">
        <ele>2103.5</ele>
        <time>2018-06-10T14:25:04Z</time>
      </trkpt>
      <trkpt lat="45.703356172889471" lon="10.832741064950824">
        <ele>2102.54</ele>
        <time>2018-06-10T14:25:11Z</time>
      </trkpt>
      <trkpt lat="45.70330579765141" lon="10.832754978910089">
        <ele>2101.5799999999999</ele>
        <time>2018-06-10T14:25:21Z</time>
      </trkpt>
      <trkpt lat="45.703277969732881" lon="10.832741651684046">
        <ele>2101.0999999999999</ele>
        <time>2018-06-10T14:25:31Z</time>
      </trkpt>
      <trkpt lat="45.703237988054752" lon="10.832725893706083">
        <ele>2100.6199999999999</ele>
        <time>2018-06-10T14:25:46Z</time>
      </trkpt>
      <trkpt lat="45.703234216198325" lon="10.832760846242309">
        <ele>2098.6999999999998</ele>
        <time>2018-06-10T14:25:57Z</time>
      </trkpt>
      <trkpt lat="45.703292051330209" lon="10.83278683014214">
        <ele>2097.25</ele>
        <time>2018-06-10T14:26:07Z</time>
      </trkpt>
      <trkpt lat="45.703261038288474" lon="10.832843659445643">
        <ele>2095.8099999999999</ele>
        <time>2018-06-10T14:26:16Z</time>
      </trkpt>
      <trkpt lat="45.703255422413349" lon="10.832847431302071">
        <ele>2095.8099999999999</ele>
        <time>2018-06-10T14:26:17Z</time>
      </trkpt>
      <trkpt lat="45.703182499855757" lon="10.832841144874692">
        <ele>2094.3699999999999</ele>
        <time>2018-06-10T14:26:27Z</time>
      </trkpt>
      <trkpt lat="45.70310982875526" lon="10.83283125422895">
        <ele>2092.4499999999998</ele>
        <time>2018-06-10T14:26:38Z</time>
      </trkpt>
      <trkpt lat="45.703068925067782" lon="10.832821363583207">
        <ele>2091.4899999999998</ele>
        <time>2018-06-10T14:26:48Z</time>
      </trkpt>
      <trkpt lat="45.703040510416031" lon="10.832810131832957">
        <ele>2090.52</ele>
        <time>2018-06-10T14:26:57Z</time>
      </trkpt>
      <trkpt lat="45.70303263142705" lon="10.832822034135461">
        <ele>2089.5599999999999</ele>
        <time>2018-06-10T14:27:07Z</time>
      </trkpt>
      <trkpt lat="45.703018382191658" lon="10.832825722172856">
        <ele>2089.5599999999999</ele>
        <time>2018-06-10T14:27:22Z</time>
      </trkpt>
      <trkpt lat="45.702972449362278" lon="10.8328268956393">
        <ele>2088.1199999999999</ele>
        <time>2018-06-10T14:27:31Z</time>
      </trkpt>
      <trkpt lat="45.702885780483484" lon="10.832848437130451">
        <ele>2086.1999999999998</ele>
        <time>2018-06-10T14:27:43Z</time>
      </trkpt>
      <trkpt lat="45.702844960615039" lon="10.832879282534122">
        <ele>2084.2800000000002</ele>
        <time>2018-06-10T14:27:54Z</time>
      </trkpt>
      <trkpt lat="45.702794920653105" lon="10.832905098795891">
        <ele>2082.3499999999999</ele>
        <time>2018-06-10T14:28:01Z</time>
      </trkpt>
      <trkpt lat="45.702700037509203" lon="10.832981122657657">
        <ele>2079.9499999999998</ele>
        <time>2018-06-10T14:28:15Z</time>
      </trkpt>
      <trkpt lat="45.702683357521892" lon="10.833008531481028">
        <ele>2078.5100000000002</ele>
        <time>2018-06-10T14:28:18Z</time>
      </trkpt>
      <trkpt lat="45.702589228749275" lon="10.833071731030941">
        <ele>2075.6199999999999</ele>
        <time>2018-06-10T14:28:30Z</time>
      </trkpt>
      <trkpt lat="45.702514043077826" lon="10.833143061026931">
        <ele>2073.6999999999998</ele>
        <time>2018-06-10T14:28:41Z</time>
      </trkpt>
      <trkpt lat="45.702446904033422" lon="10.833205422386527">
        <ele>2071.3000000000002</ele>
        <time>2018-06-10T14:28:51Z</time>
      </trkpt>
      <trkpt lat="45.702415471896529" lon="10.833233166486025">
        <ele>2070.3400000000001</ele>
        <time>2018-06-10T14:28:56Z</time>
      </trkpt>
      <trkpt lat="45.7023392803967" lon="10.833312962204218">
        <ele>2067.9299999999998</ele>
        <time>2018-06-10T14:29:08Z</time>
      </trkpt>
      <trkpt lat="45.702333664521575" lon="10.833318242803216">
        <ele>2067.9299999999998</ele>
        <time>2018-06-10T14:29:09Z</time>
      </trkpt>
      <trkpt lat="45.70227138698101" lon="10.833360236138105">
        <ele>2066.4899999999998</ele>
        <time>2018-06-10T14:29:21Z</time>
      </trkpt>
      <trkpt lat="45.70221615023911" lon="10.833422681316733">
        <ele>2065.0500000000002</ele>
        <time>2018-06-10T14:29:31Z</time>
      </trkpt>
      <trkpt lat="45.702166948467493" lon="10.833535585552454">
        <ele>2061.6799999999998</ele>
        <time>2018-06-10T14:29:43Z</time>
      </trkpt>
      <trkpt lat="45.702160494402051" lon="10.833547404035926">
        <ele>2061.6799999999998</ele>
        <time>2018-06-10T14:29:45Z</time>
      </trkpt>
      <trkpt lat="45.702120093628764" lon="10.833612279966474">
        <ele>2059.7600000000002</ele>
        <time>2018-06-10T14:29:53Z</time>
      </trkpt>
      <trkpt lat="45.702090337872505" lon="10.833682185038924">
        <ele>2058.8000000000002</ele>
        <time>2018-06-10T14:30:03Z</time>
      </trkpt>
      <trkpt lat="45.702048679813743" lon="10.833759130910039">
        <ele>2055.9200000000001</ele>
        <time>2018-06-10T14:30:14Z</time>
      </trkpt>
      <trkpt lat="45.70201875641942" lon="10.833836747333407">
        <ele>2054.4699999999998</ele>
        <time>2018-06-10T14:30:24Z</time>
      </trkpt>
      <trkpt lat="45.701981456950307" lon="10.833909669891">
        <ele>2052.5500000000002</ele>
        <time>2018-06-10T14:30:35Z</time>
      </trkpt>
      <trkpt lat="45.701899901032448" lon="10.833989214152098">
        <ele>2050.6300000000001</ele>
        <time>2018-06-10T14:30:47Z</time>
      </trkpt>
      <trkpt lat="45.701890932396054" lon="10.834040846675634">
        <ele>2049.1900000000001</ele>
        <time>2018-06-10T14:30:56Z</time>
      </trkpt>
      <trkpt lat="45.701811639592052" lon="10.8340616337955">
        <ele>2047.75</ele>
        <time>2018-06-10T14:31:07Z</time>
      </trkpt>
      <trkpt lat="45.701812477782369" lon="10.834059789776802">
        <ele>2047.75</ele>
        <time>2018-06-10T14:31:10Z</time>
      </trkpt>
      <trkpt lat="45.701744249090552" lon="10.834073452278972">
        <ele>2046.78</ele>
        <time>2018-06-10T14:31:17Z</time>
      </trkpt>
      <trkpt lat="45.701659424230456" lon="10.834049144759774">
        <ele>2045.3399999999999</ele>
        <time>2018-06-10T14:31:27Z</time>
      </trkpt>
      <trkpt lat="45.701631931588054" lon="10.834044199436903">
        <ele>2043.9000000000001</ele>
        <time>2018-06-10T14:31:30Z</time>
      </trkpt>
      <trkpt lat="45.70155942812562" lon="10.83402743563056">
        <ele>2041.98</ele>
        <time>2018-06-10T14:31:41Z</time>
      </trkpt>
      <trkpt lat="45.701468735933304" lon="10.834022825583816">
        <ele>2039.5699999999999</ele>
        <time>2018-06-10T14:31:52Z</time>
      </trkpt>
      <trkpt lat="45.70138449780643" lon="10.83396440371871">
        <ele>2037.6500000000001</ele>
        <time>2018-06-10T14:32:03Z</time>
      </trkpt>
      <trkpt lat="45.701370919123292" lon="10.834011929109693">
        <ele>2035.73</ele>
        <time>2018-06-10T14:32:14Z</time>
      </trkpt>
      <trkpt lat="45.701433531939983" lon="10.834094239398837">
        <ele>2033.8099999999999</ele>
        <time>2018-06-10T14:32:25Z</time>
      </trkpt>
      <trkpt lat="45.701487176120281" lon="10.834179064258933">
        <ele>2031.8800000000001</ele>
        <time>2018-06-10T14:32:37Z</time>
      </trkpt>
      <trkpt lat="45.701514333486557" lon="10.834248717874289">
        <ele>2029.48</ele>
        <time>2018-06-10T14:32:48Z</time>
      </trkpt>
      <trkpt lat="45.701520787551999" lon="10.834270343184471">
        <ele>2029.48</ele>
        <time>2018-06-10T14:32:50Z</time>
      </trkpt>
      <trkpt lat="45.701575018465519" lon="10.834338320419192">
        <ele>2027.5599999999999</ele>
        <time>2018-06-10T14:33:01Z</time>
      </trkpt>
      <trkpt lat="45.701605696231127" lon="10.834388779476285">
        <ele>2026.5999999999999</ele>
        <time>2018-06-10T14:33:11Z</time>
      </trkpt>
      <trkpt lat="45.701624723151326" lon="10.834387689828873">
        <ele>2026.1199999999999</ele>
        <time>2018-06-10T14:33:24Z</time>
      </trkpt>
      <trkpt lat="45.701679540798068" lon="10.834453823044896">
        <ele>2024.1900000000001</ele>
        <time>2018-06-10T14:33:35Z</time>
      </trkpt>
      <trkpt lat="45.701715247705579" lon="10.834540408104658">
        <ele>2021.79</ele>
        <time>2018-06-10T14:33:47Z</time>
      </trkpt>
      <trkpt lat="45.701749948784709" lon="10.834602937102318">
        <ele>2019.8699999999999</ele>
        <time>2018-06-10T14:33:57Z</time>
      </trkpt>
      <trkpt lat="45.701861763373017" lon="10.834631184116006">
        <ele>2016.98</ele>
        <time>2018-06-10T14:34:12Z</time>
      </trkpt>
      <trkpt lat="45.701842987909913" lon="10.834698239341378">
        <ele>2016.02</ele>
        <time>2018-06-10T14:34:21Z</time>
      </trkpt>
      <trkpt lat="45.701783811673522" lon="10.834747357293963">
        <ele>2014.0999999999999</ele>
        <time>2018-06-10T14:34:31Z</time>
      </trkpt>
      <trkpt lat="45.701748356223106" lon="10.834749285131693">
        <ele>2012.6600000000001</ele>
        <time>2018-06-10T14:34:36Z</time>
      </trkpt>
      <trkpt lat="45.701727401465178" lon="10.834751296788454">
        <ele>2012.6600000000001</ele>
        <time>2018-06-10T14:34:38Z</time>
      </trkpt>
      <trkpt lat="45.701663363724947" lon="10.834752805531025">
        <ele>2011.7</ele>
        <time>2018-06-10T14:34:45Z</time>
      </trkpt>
      <trkpt lat="45.701579209417105" lon="10.834751380607486">
        <ele>2009.77</ele>
        <time>2018-06-10T14:34:56Z</time>
      </trkpt>
      <trkpt lat="45.701561775058508" lon="10.834781471639872">
        <ele>2008.3299999999999</ele>
        <time>2018-06-10T14:35:06Z</time>
      </trkpt>
      <trkpt lat="45.701651964336634" lon="10.834881300106645">
        <ele>2005.45</ele>
        <time>2018-06-10T14:35:19Z</time>
      </trkpt>
      <trkpt lat="45.701678954064846" lon="10.834908289834857">
        <ele>2004.49</ele>
        <time>2018-06-10T14:35:30Z</time>
      </trkpt>
      <trkpt lat="45.701709212735295" lon="10.834937291219831">
        <ele>2003.52</ele>
        <time>2018-06-10T14:35:40Z</time>
      </trkpt>
      <trkpt lat="45.701771825551987" lon="10.835005519911647">
        <ele>2001.5999999999999</ele>
        <time>2018-06-10T14:35:48Z</time>
      </trkpt>
      <trkpt lat="45.701775765046477" lon="10.835080705583096">
        <ele>2000.6400000000001</ele>
        <time>2018-06-10T14:35:52Z</time>
      </trkpt>
      <trkpt lat="45.701754307374358" lon="10.835150275379419">
        <ele>1998.24</ele>
        <time>2018-06-10T14:35:55Z</time>
      </trkpt>
      <trkpt lat="45.701760090887547" lon="10.83518547937274">
        <ele>1996.8</ele>
        <time>2018-06-10T14:35:58Z</time>
      </trkpt>
      <trkpt lat="45.70177199319005" lon="10.835214145481586">
        <ele>1996.3199999999999</ele>
        <time>2018-06-10T14:36:00Z</time>
      </trkpt>
      <trkpt lat="45.701770232990384" lon="10.835305759683251">
        <ele>1992.47</ele>
        <time>2018-06-10T14:36:13Z</time>
      </trkpt>
      <trkpt lat="45.701762856915593" lon="10.835318919271231">
        <ele>1991.51</ele>
        <time>2018-06-10T14:36:23Z</time>
      </trkpt>
      <trkpt lat="45.701737124472857" lon="10.835338952019811">
        <ele>1990.55</ele>
        <time>2018-06-10T14:36:32Z</time>
      </trkpt>
      <trkpt lat="45.701728658750653" lon="10.835341215133667">
        <ele>1990.55</ele>
        <time>2018-06-10T14:36:46Z</time>
      </trkpt>
      <trkpt lat="45.701722037047148" lon="10.835346160456538">
        <ele>1990.55</ele>
        <time>2018-06-10T14:36:59Z</time>
      </trkpt>
      <trkpt lat="45.701707787811756" lon="10.835372228175402">
        <ele>1990.55</ele>
        <time>2018-06-10T14:37:14Z</time>
      </trkpt>
      <trkpt lat="45.701691694557667" lon="10.83535797894001">
        <ele>1990.0699999999999</ele>
        <time>2018-06-10T14:37:19Z</time>
      </trkpt>
      <trkpt lat="45.701655484735966" lon="10.835350519046187">
        <ele>1989.5899999999999</ele>
        <time>2018-06-10T14:37:23Z</time>
      </trkpt>
      <trkpt lat="45.701604103669524" lon="10.835369629785419">
        <ele>1988.1400000000001</ele>
        <time>2018-06-10T14:37:29Z</time>
      </trkpt>
      <trkpt lat="45.701564876362681" lon="10.835376335307956">
        <ele>1987.1800000000001</ele>
        <time>2018-06-10T14:37:34Z</time>
      </trkpt>
      <trkpt lat="45.7014792971313" lon="10.835373904556036">
        <ele>1984.78</ele>
        <time>2018-06-10T14:37:45Z</time>
      </trkpt>
      <trkpt lat="45.70141039788723" lon="10.835343897342682">
        <ele>1982.8599999999999</ele>
        <time>2018-06-10T14:37:56Z</time>
      </trkpt>
      <trkpt lat="45.701374774798751" lon="10.835336521267891">
        <ele>1981.4100000000001</ele>
        <time>2018-06-10T14:38:05Z</time>
      </trkpt>
      <trkpt lat="45.701384916901588" lon="10.835371892899275">
        <ele>1982.3800000000001</ele>
        <time>2018-06-10T14:38:19Z</time>
      </trkpt>
      <trkpt lat="45.701412912458181" lon="10.835386896505952">
        <ele>1980.9300000000001</ele>
        <time>2018-06-10T14:38:23Z</time>
      </trkpt>
      <trkpt lat="45.701443757861853" lon="10.83547281101346">
        <ele>1978.53</ele>
        <time>2018-06-10T14:38:32Z</time>
      </trkpt>
      <trkpt lat="45.701466472819448" lon="10.83553240634501">
        <ele>1977.0899999999999</ele>
        <time>2018-06-10T14:38:41Z</time>
      </trkpt>
      <trkpt lat="45.701502934098244" lon="10.835650423541665">
        <ele>1975.1700000000001</ele>
        <time>2018-06-10T14:38:53Z</time>
      </trkpt>
      <trkpt lat="45.701528750360012" lon="10.835688896477222">
        <ele>1974.2</ele>
        <time>2018-06-10T14:38:58Z</time>
      </trkpt>
      <trkpt lat="45.701541909947991" lon="10.835705492645502">
        <ele>1973.72</ele>
        <time>2018-06-10T14:39:00Z</time>
      </trkpt>
      <trkpt lat="45.701593374833465" lon="10.835815966129303">
        <ele>1971.3199999999999</ele>
        <time>2018-06-10T14:39:11Z</time>
      </trkpt>
      <trkpt lat="45.701601421460509" lon="10.835829041898251">
        <ele>1970.8399999999999</ele>
        <time>2018-06-10T14:39:13Z</time>
      </trkpt>
      <trkpt lat="45.701670153066516" lon="10.835921913385391">
        <ele>1968.4400000000001</ele>
        <time>2018-06-10T14:39:25Z</time>
      </trkpt>
      <trkpt lat="45.70168205536902" lon="10.835931468755007">
        <ele>1967.96</ele>
        <time>2018-06-10T14:39:27Z</time>
      </trkpt>
      <trkpt lat="45.701718432828784" lon="10.836029453203082">
        <ele>1965.55</ele>
        <time>2018-06-10T14:39:38Z</time>
      </trkpt>
      <trkpt lat="45.701722791418433" lon="10.836030710488558">
        <ele>1965.55</ele>
        <time>2018-06-10T14:39:51Z</time>
      </trkpt>
      <trkpt lat="45.701721450313926" lon="10.836026519536972">
        <ele>1965.0699999999999</ele>
        <time>2018-06-10T14:40:16Z</time>
      </trkpt>
      <trkpt lat="45.701719522476196" lon="10.835988465696573">
        <ele>1965.55</ele>
        <time>2018-06-10T14:40:25Z</time>
      </trkpt>
      <trkpt lat="45.701740393415093" lon="10.835987711325288">
        <ele>1965.55</ele>
        <time>2018-06-10T14:40:31Z</time>
      </trkpt>
      <trkpt lat="45.701849358156323" lon="10.836081504821777">
        <ele>1963.1500000000001</ele>
        <time>2018-06-10T14:40:44Z</time>
      </trkpt>
      <trkpt lat="45.701942313462496" lon="10.836122911423445">
        <ele>1960.75</ele>
        <time>2018-06-10T14:40:55Z</time>
      </trkpt>
      <trkpt lat="45.702013727277517" lon="10.836137495934963">
        <ele>1958.8199999999999</ele>
        <time>2018-06-10T14:41:03Z</time>
      </trkpt>
      <trkpt lat="45.702080866321921" lon="10.836176723241806">
        <ele>1956.9000000000001</ele>
        <time>2018-06-10T14:41:14Z</time>
      </trkpt>
      <trkpt lat="45.702058738097548" lon="10.836215196177363">
        <ele>1956.9000000000001</ele>
        <time>2018-06-10T14:41:20Z</time>
      </trkpt>
      <trkpt lat="45.701994365081191" lon="10.836291471496224">
        <ele>1954.98</ele>
        <time>2018-06-10T14:41:29Z</time>
      </trkpt>
      <trkpt lat="45.701900823041797" lon="10.836368752643466">
        <ele>1952.5699999999999</ele>
        <time>2018-06-10T14:41:41Z</time>
      </trkpt>
      <trkpt lat="45.701817842200398" lon="10.836419546976686">
        <ele>1950.6500000000001</ele>
        <time>2018-06-10T14:41:52Z</time>
      </trkpt>
      <trkpt lat="45.701775345951319" lon="10.836413092911243">
        <ele>1949.21</ele>
        <time>2018-06-10T14:42:02Z</time>
      </trkpt>
      <trkpt lat="45.701741734519601" lon="10.8364481292665">
        <ele>1948.73</ele>
        <time>2018-06-10T14:42:13Z</time>
      </trkpt>
      <trkpt lat="45.701668476685882" lon="10.836486099287868">
        <ele>1947.29</ele>
        <time>2018-06-10T14:42:22Z</time>
      </trkpt>
      <trkpt lat="45.701667051762342" lon="10.836503282189369">
        <ele>1946.3299999999999</ele>
        <time>2018-06-10T14:42:33Z</time>
      </trkpt>
      <trkpt lat="45.701721115037799" lon="10.836514933034778">
        <ele>1945.3599999999999</ele>
        <time>2018-06-10T14:42:39Z</time>
      </trkpt>
      <trkpt lat="45.701822116971016" lon="10.836583580821753">
        <ele>1942.48</ele>
        <time>2018-06-10T14:42:52Z</time>
      </trkpt>
      <trkpt lat="45.701906522735953" lon="10.836637727916241">
        <ele>1940.0799999999999</ele>
        <time>2018-06-10T14:43:03Z</time>
      </trkpt>
      <trkpt lat="45.702021857723594" lon="10.836661448702216">
        <ele>1937.6700000000001</ele>
        <time>2018-06-10T14:43:16Z</time>
      </trkpt>
      <trkpt lat="45.702058486640453" lon="10.836717104539275">
        <ele>1935.75</ele>
        <time>2018-06-10T14:43:24Z</time>
      </trkpt>
      <trkpt lat="45.701955556869507" lon="10.836798241361976">
        <ele>1933.8299999999999</ele>
        <time>2018-06-10T14:43:36Z</time>
      </trkpt>
      <trkpt lat="45.701901912689209" lon="10.836830008774996">
        <ele>1932.3900000000001</ele>
        <time>2018-06-10T14:43:45Z</time>
      </trkpt>
      <trkpt lat="45.701792612671852" lon="10.836898991838098">
        <ele>1930.46</ele>
        <time>2018-06-10T14:43:56Z</time>
      </trkpt>
      <trkpt lat="45.701650287955999" lon="10.83695531822741">
        <ele>1927.5799999999999</ele>
        <time>2018-06-10T14:44:09Z</time>
      </trkpt>
      <trkpt lat="45.701544508337975" lon="10.836983229964972">
        <ele>1925.6600000000001</ele>
        <time>2018-06-10T14:44:20Z</time>
      </trkpt>
      <trkpt lat="45.701424228027463" lon="10.837018182501197">
        <ele>1923.74</ele>
        <time>2018-06-10T14:44:31Z</time>
      </trkpt>
      <trkpt lat="45.701380725950003" lon="10.837017511948943">
        <ele>1923.25</ele>
        <time>2018-06-10T14:44:35Z</time>
      </trkpt>
      <trkpt lat="45.701289866119623" lon="10.837044753134251">
        <ele>1920.8499999999999</ele>
        <time>2018-06-10T14:44:45Z</time>
      </trkpt>
      <trkpt lat="45.701282490044832" lon="10.837066965177655">
        <ele>1919.4100000000001</ele>
        <time>2018-06-10T14:44:54Z</time>
      </trkpt>
      <trkpt lat="45.701291207224131" lon="10.837048692628741">
        <ele>1918.9300000000001</ele>
        <time>2018-06-10T14:45:07Z</time>
      </trkpt>
      <trkpt lat="45.70129070430994" lon="10.837074089795351">
        <ele>1918.45</ele>
        <time>2018-06-10T14:45:20Z</time>
      </trkpt>
      <trkpt lat="45.701299589127302" lon="10.837090769782662">
        <ele>1917.97</ele>
        <time>2018-06-10T14:45:40Z</time>
      </trkpt>
      <trkpt lat="45.701288608834147" lon="10.837089847773314">
        <ele>1918.45</ele>
        <time>2018-06-10T14:45:50Z</time>
      </trkpt>
      <trkpt lat="45.701291961595416" lon="10.837093200534582">
        <ele>1918.45</ele>
        <time>2018-06-10T14:45:58Z</time>
      </trkpt>
      <trkpt lat="45.701293051242828" lon="10.837065959349275">
        <ele>1918.45</ele>
        <time>2018-06-10T14:46:11Z</time>
      </trkpt>
      <trkpt lat="45.70131660439074" lon="10.837081801146269">
        <ele>1918.45</ele>
        <time>2018-06-10T14:46:19Z</time>
      </trkpt>
      <trkpt lat="45.701359687373042" lon="10.83711558021605">
        <ele>1917.97</ele>
        <time>2018-06-10T14:46:24Z</time>
      </trkpt>
      <trkpt lat="45.701443171128631" lon="10.837214989587665">
        <ele>1915.0799999999999</ele>
        <time>2018-06-10T14:46:34Z</time>
      </trkpt>
      <trkpt lat="45.701542412862182" lon="10.837282044813037">
        <ele>1913.6400000000001</ele>
        <time>2018-06-10T14:46:46Z</time>
      </trkpt>
      <trkpt lat="45.701615503057837" lon="10.837348261848092">
        <ele>1912.2</ele>
        <time>2018-06-10T14:46:54Z</time>
      </trkpt>
      <trkpt lat="45.701651209965348" lon="10.837351195514202">
        <ele>1911.72</ele>
        <time>2018-06-10T14:46:58Z</time>
      </trkpt>
      <trkpt lat="45.70176268927753" lon="10.837409449741244">
        <ele>1909.3199999999999</ele>
        <time>2018-06-10T14:47:10Z</time>
      </trkpt>
      <trkpt lat="45.701807951554656" lon="10.837470889091492">
        <ele>1907.3900000000001</ele>
        <time>2018-06-10T14:47:18Z</time>
      </trkpt>
      <trkpt lat="45.701777944341302" lon="10.837515648454428">
        <ele>1906.4300000000001</ele>
        <time>2018-06-10T14:47:22Z</time>
      </trkpt>
      <trkpt lat="45.701638553291559" lon="10.837601311504841">
        <ele>1904.03</ele>
        <time>2018-06-10T14:47:35Z</time>
      </trkpt>
      <trkpt lat="45.701496144756675" lon="10.837663169950247">
        <ele>1901.1400000000001</ele>
        <time>2018-06-10T14:47:49Z</time>
      </trkpt>
      <trkpt lat="45.701391203328967" lon="10.837676664814353">
        <ele>1899.22</ele>
        <time>2018-06-10T14:48:00Z</time>
      </trkpt>
      <trkpt lat="45.701359519734979" lon="10.837688567116857">
        <ele>1897.78</ele>
        <time>2018-06-10T14:48:03Z</time>
      </trkpt>
      <trkpt lat="45.701255919411778" lon="10.837695859372616">
        <ele>1896.3399999999999</ele>
        <time>2018-06-10T14:48:13Z</time>
      </trkpt>
      <trkpt lat="45.701240580528975" lon="10.837735338136554">
        <ele>1894.9000000000001</ele>
        <time>2018-06-10T14:48:18Z</time>
      </trkpt>
      <trkpt lat="45.701267905533314" lon="10.83780993707478">
        <ele>1894.9000000000001</ele>
        <time>2018-06-10T14:48:24Z</time>
      </trkpt>
      <trkpt lat="45.701291961595416" lon="10.837816977873445">
        <ele>1892.97</ele>
        <time>2018-06-10T14:48:26Z</time>
      </trkpt>
      <trkpt lat="45.701364716514945" lon="10.837891744449735">
        <ele>1891.53</ele>
        <time>2018-06-10T14:48:35Z</time>
      </trkpt>
      <trkpt lat="45.701413163915277" lon="10.837951088324189">
        <ele>1890.0899999999999</ele>
        <time>2018-06-10T14:48:45Z</time>
      </trkpt>
      <trkpt lat="45.70145876146853" lon="10.838014874607325">
        <ele>1888.1700000000001</ele>
        <time>2018-06-10T14:48:54Z</time>
      </trkpt>
      <trkpt lat="45.701548447832465" lon="10.838107243180275">
        <ele>1885.28</ele>
        <time>2018-06-10T14:49:06Z</time>
      </trkpt>
      <trkpt lat="45.701596224680543" lon="10.838166922330856">
        <ele>1883.3599999999999</ele>
        <time>2018-06-10T14:49:13Z</time>
      </trkpt>
      <trkpt lat="45.701642660424113" lon="10.838253172114491">
        <ele>1881.4400000000001</ele>
        <time>2018-06-10T14:49:21Z</time>
      </trkpt>
      <trkpt lat="45.701659172773361" lon="10.838293991982937">
        <ele>1880.96</ele>
        <time>2018-06-10T14:49:24Z</time>
      </trkpt>
      <trkpt lat="45.701771406456828" lon="10.838465820997953">
        <ele>1878.55</ele>
        <time>2018-06-10T14:49:38Z</time>
      </trkpt>
      <trkpt lat="45.701782051473856" lon="10.838473532348871">
        <ele>1879.03</ele>
        <time>2018-06-10T14:49:39Z</time>
      </trkpt>
      <trkpt lat="45.701831001788378" lon="10.838451404124498">
        <ele>1877.1099999999999</ele>
        <time>2018-06-10T14:49:47Z</time>
      </trkpt>
      <trkpt lat="45.701883807778358" lon="10.838339170441031">
        <ele>1874.71</ele>
        <time>2018-06-10T14:49:58Z</time>
      </trkpt>
      <trkpt lat="45.701959328725934" lon="10.838279742747545">
        <ele>1872.3</ele>
        <time>2018-06-10T14:50:08Z</time>
      </trkpt>
      <trkpt lat="45.701987911015749" lon="10.838380074128509">
        <ele>1869.4200000000001</ele>
        <time>2018-06-10T14:50:17Z</time>
      </trkpt>
      <trkpt lat="45.701981876045465" lon="10.838419133797288">
        <ele>1868.9400000000001</ele>
        <time>2018-06-10T14:50:20Z</time>
      </trkpt>
      <trkpt lat="45.701988749206066" lon="10.83846079185605">
        <ele>1867.5</ele>
        <time>2018-06-10T14:50:26Z</time>
      </trkpt>
      <trkpt lat="45.702026635408401" lon="10.838398598134518">
        <ele>1866.0599999999999</ele>
        <time>2018-06-10T14:50:31Z</time>
      </trkpt>
      <trkpt lat="45.702084554359317" lon="10.83832835778594">
        <ele>1864.1300000000001</ele>
        <time>2018-06-10T14:50:39Z</time>
      </trkpt>
      <trkpt lat="45.702197458595037" lon="10.838260464370251">
        <ele>1861.25</ele>
        <time>2018-06-10T14:50:52Z</time>
      </trkpt>
      <trkpt lat="45.702293179929256" lon="10.838240934535861">
        <ele>1858.8499999999999</ele>
        <time>2018-06-10T14:51:02Z</time>
      </trkpt>
      <trkpt lat="45.702345985919237" lon="10.83824135363102">
        <ele>1855.96</ele>
        <time>2018-06-10T14:51:13Z</time>
      </trkpt>
      <trkpt lat="45.702388901263475" lon="10.838250573724508">
        <ele>1853.5599999999999</ele>
        <time>2018-06-10T14:51:21Z</time>
      </trkpt>
      <trkpt lat="45.702435504645109" lon="10.838278150185943">
        <ele>1851.6400000000001</ele>
        <time>2018-06-10T14:51:30Z</time>
      </trkpt>
      <trkpt lat="45.702495099976659" lon="10.838271779939532">
        <ele>1849.23</ele>
        <time>2018-06-10T14:51:38Z</time>
      </trkpt>
      <trkpt lat="45.702481856569648" lon="10.838346043601632">
        <ele>1847.3099999999999</ele>
        <time>2018-06-10T14:51:47Z</time>
      </trkpt>
      <trkpt lat="45.702532734721899" lon="10.838338583707809">
        <ele>1845.3900000000001</ele>
        <time>2018-06-10T14:51:57Z</time>
      </trkpt>
      <trkpt lat="45.702622253447771" lon="10.838348222896457">
        <ele>1842.98</ele>
        <time>2018-06-10T14:52:10Z</time>
      </trkpt>
      <trkpt lat="45.702705066651106" lon="10.838383510708809">
        <ele>1840.5799999999999</ele>
        <time>2018-06-10T14:52:23Z</time>
      </trkpt>
      <trkpt lat="45.702744629234076" lon="10.838406560942531">
        <ele>1840.0999999999999</ele>
        <time>2018-06-10T14:52:28Z</time>
      </trkpt>
      <trkpt lat="45.702826017513871" lon="10.838411506265402">
        <ele>1838.1800000000001</ele>
        <time>2018-06-10T14:52:41Z</time>
      </trkpt>
      <trkpt lat="45.702873207628727" lon="10.838368507102132">
        <ele>1836.26</ele>
        <time>2018-06-10T14:52:50Z</time>
      </trkpt>
      <trkpt lat="45.702948141843081" lon="10.838299104943871">
        <ele>1833.3699999999999</ele>
        <time>2018-06-10T14:53:02Z</time>
      </trkpt>
      <trkpt lat="45.703012347221375" lon="10.838276306167245">
        <ele>1831.45</ele>
        <time>2018-06-10T14:53:12Z</time>
      </trkpt>
      <trkpt lat="45.703112427145243" lon="10.838179998099804">
        <ele>1828.5599999999999</ele>
        <time>2018-06-10T14:53:26Z</time>
      </trkpt>
      <trkpt lat="45.703170178458095" lon="10.838127695024014">
        <ele>1828.0799999999999</ele>
        <time>2018-06-10T14:53:35Z</time>
      </trkpt>
      <trkpt lat="45.703197838738561" lon="10.838103890419006">
        <ele>1826.6400000000001</ele>
        <time>2018-06-10T14:53:45Z</time>
      </trkpt>
      <trkpt lat="45.703210243955255" lon="10.838098023086786">
        <ele>1826.1600000000001</ele>
        <time>2018-06-10T14:53:49Z</time>
      </trkpt>
      <trkpt lat="45.703235808759928" lon="10.838047564029694">
        <ele>1825.2</ele>
        <time>2018-06-10T14:54:02Z</time>
      </trkpt>
      <trkpt lat="45.703270509839058" lon="10.838043373078108">
        <ele>1824.24</ele>
        <time>2018-06-10T14:54:11Z</time>
      </trkpt>
      <trkpt lat="45.703382575884461" lon="10.838042283430696">
        <ele>1820.8699999999999</ele>
        <time>2018-06-10T14:54:24Z</time>
      </trkpt>
      <trkpt lat="45.703442255035043" lon="10.838044127449393">
        <ele>1819.4300000000001</ele>
        <time>2018-06-10T14:54:31Z</time>
      </trkpt>
      <trkpt lat="45.703509645536542" lon="10.838078996166587">
        <ele>1817.51</ele>
        <time>2018-06-10T14:54:40Z</time>
      </trkpt>
      <trkpt lat="45.703573767095804" lon="10.83804496563971">
        <ele>1816.0699999999999</ele>
        <time>2018-06-10T14:54:50Z</time>
      </trkpt>
      <trkpt lat="45.703555662184954" lon="10.838137753307819">
        <ele>1814.6300000000001</ele>
        <time>2018-06-10T14:54:58Z</time>
      </trkpt>
      <trkpt lat="45.703524313867092" lon="10.838206568732858">
        <ele>1814.6300000000001</ele>
        <time>2018-06-10T14:55:05Z</time>
      </trkpt>
      <trkpt lat="45.703496905043721" lon="10.838248813524842">
        <ele>1812.22</ele>
        <time>2018-06-10T14:55:09Z</time>
      </trkpt>
      <trkpt lat="45.703427419066429" lon="10.838322741910815">
        <ele>1810.78</ele>
        <time>2018-06-10T14:55:22Z</time>
      </trkpt>
      <trkpt lat="45.703456671908498" lon="10.838349983096123">
        <ele>1809.8199999999999</ele>
        <time>2018-06-10T14:55:26Z</time>
      </trkpt>
      <trkpt lat="45.703607713803649" lon="10.83830438554287">
        <ele>1806.45</ele>
        <time>2018-06-10T14:55:42Z</time>
      </trkpt>
      <trkpt lat="45.703691532835364" lon="10.838281335309148">
        <ele>1805.49</ele>
        <time>2018-06-10T14:55:53Z</time>
      </trkpt>
      <trkpt lat="45.703783230856061" lon="10.838224841281772">
        <ele>1804.05</ele>
        <time>2018-06-10T14:56:06Z</time>
      </trkpt>
      <trkpt lat="45.703847436234355" lon="10.838218554854393">
        <ele>1801.6500000000001</ele>
        <time>2018-06-10T14:56:17Z</time>
      </trkpt>
      <trkpt lat="45.703863278031349" lon="10.838309749960899">
        <ele>1800.21</ele>
        <time>2018-06-10T14:56:26Z</time>
      </trkpt>
      <trkpt lat="45.703828576952219" lon="10.838430784642696">
        <ele>1797.8</ele>
        <time>2018-06-10T14:56:37Z</time>
      </trkpt>
      <trkpt lat="45.703843915835023" lon="10.838468587026">
        <ele>1795.8800000000001</ele>
        <time>2018-06-10T14:56:48Z</time>
      </trkpt>
      <trkpt lat="45.703905774280429" lon="10.838458864018321">
        <ele>1794.4400000000001</ele>
        <time>2018-06-10T14:56:57Z</time>
      </trkpt>
      <trkpt lat="45.70393268018961" lon="10.838512759655714">
        <ele>1793.48</ele>
        <time>2018-06-10T14:57:06Z</time>
      </trkpt>
      <trkpt lat="45.703903846442699" lon="10.838579814881086">
        <ele>1792.03</ele>
        <time>2018-06-10T14:57:17Z</time>
      </trkpt>
      <trkpt lat="45.703878700733185" lon="10.838661789894104">
        <ele>1790.5899999999999</ele>
        <time>2018-06-10T14:57:25Z</time>
      </trkpt>
      <trkpt lat="45.703829918056726" lon="10.83875591866672">
        <ele>1788.6700000000001</ele>
        <time>2018-06-10T14:57:36Z</time>
      </trkpt>
      <trkpt lat="45.703800749033689" lon="10.838829427957535">
        <ele>1787.23</ele>
        <time>2018-06-10T14:57:45Z</time>
      </trkpt>
      <trkpt lat="45.703742410987616" lon="10.838946020230651">
        <ele>1784.8199999999999</ele>
        <time>2018-06-10T14:57:56Z</time>
      </trkpt>
      <trkpt lat="45.703735118731856" lon="10.838933615013957">
        <ele>1784.8199999999999</ele>
        <time>2018-06-10T14:58:04Z</time>
      </trkpt>
      <trkpt lat="45.703737214207649" lon="10.83895331248641">
        <ele>1784.3399999999999</ele>
        <time>2018-06-10T14:58:18Z</time>
      </trkpt>
      <trkpt lat="45.703672505915165" lon="10.839024893939495">
        <ele>1782.9000000000001</ele>
        <time>2018-06-10T14:58:28Z</time>
      </trkpt>
      <trkpt lat="45.703711649402976" lon="10.839079292491078">
        <ele>1780.98</ele>
        <time>2018-06-10T14:58:38Z</time>
      </trkpt>
      <trkpt lat="45.703799827024341" lon="10.839053057134151">
        <ele>1779.0599999999999</ele>
        <time>2018-06-10T14:58:51Z</time>
      </trkpt>
      <trkpt lat="45.703879287466407" lon="10.839085914194584">
        <ele>1777.6099999999999</ele>
        <time>2018-06-10T14:59:01Z</time>
      </trkpt>
      <trkpt lat="45.703921280801296" lon="10.839142324402928">
        <ele>1775.6900000000001</ele>
        <time>2018-06-10T14:59:11Z</time>
      </trkpt>
      <trkpt lat="45.703908624127507" lon="10.839194878935814">
        <ele>1775.21</ele>
        <time>2018-06-10T14:59:19Z</time>
      </trkpt>
      <trkpt lat="45.703909546136856" lon="10.839208206161857">
        <ele>1774.73</ele>
        <time>2018-06-10T14:59:30Z</time>
      </trkpt>
      <trkpt lat="45.703905439004302" lon="10.839225556701422">
        <ele>1774.73</ele>
        <time>2018-06-10T14:59:42Z</time>
      </trkpt>
      <trkpt lat="45.703901667147875" lon="10.839227065443993">
        <ele>1774.73</ele>
        <time>2018-06-10T14:59:44Z</time>
      </trkpt>
      <trkpt lat="45.703872833400965" lon="10.839278697967529">
        <ele>1773.29</ele>
        <time>2018-06-10T14:59:50Z</time>
      </trkpt>
      <trkpt lat="45.703788595274091" lon="10.839355224743485">
        <ele>1771.8499999999999</ele>
        <time>2018-06-10T15:00:01Z</time>
      </trkpt>
      <trkpt lat="45.703684659674764" lon="10.839402247220278">
        <ele>1769.9200000000001</ele>
        <time>2018-06-10T15:00:13Z</time>
      </trkpt>
      <trkpt lat="45.70361508987844" lon="10.839421777054667">
        <ele>1768</ele>
        <time>2018-06-10T15:00:22Z</time>
      </trkpt>
      <trkpt lat="45.703624309971929" lon="10.839483384042978">
        <ele>1766.5599999999999</ele>
        <time>2018-06-10T15:00:31Z</time>
      </trkpt>
      <trkpt lat="45.703665716573596" lon="10.83955186419189">
        <ele>1764.1600000000001</ele>
        <time>2018-06-10T15:00:41Z</time>
      </trkpt>
      <trkpt lat="45.70369471795857" lon="10.83962470293045">
        <ele>1762.23</ele>
        <time>2018-06-10T15:00:52Z</time>
      </trkpt>
      <trkpt lat="45.703651299700141" lon="10.839680777862668">
        <ele>1760.3099999999999</ele>
        <time>2018-06-10T15:01:02Z</time>
      </trkpt>
      <trkpt lat="45.703671500086784" lon="10.839755879715085">
        <ele>1757.9100000000001</ele>
        <time>2018-06-10T15:01:14Z</time>
      </trkpt>
      <trkpt lat="45.703619532287121" lon="10.839808937162161">
        <ele>1755.99</ele>
        <time>2018-06-10T15:01:24Z</time>
      </trkpt>
      <trkpt lat="45.703565888106823" lon="10.839833496138453">
        <ele>1754.54</ele>
        <time>2018-06-10T15:01:33Z</time>
      </trkpt>
      <trkpt lat="45.703489193692803" lon="10.839862078428268">
        <ele>1753.0999999999999</ele>
        <time>2018-06-10T15:01:42Z</time>
      </trkpt>
      <trkpt lat="45.703427502885461" lon="10.839939108118415">
        <ele>1751.1800000000001</ele>
        <time>2018-06-10T15:01:52Z</time>
      </trkpt>
      <trkpt lat="45.703349718824029" lon="10.839986549690366">
        <ele>1749.74</ele>
        <time>2018-06-10T15:02:02Z</time>
      </trkpt>
      <trkpt lat="45.703280316665769" lon="10.839990321546793">
        <ele>1748.29</ele>
        <time>2018-06-10T15:02:12Z</time>
      </trkpt>
      <trkpt lat="45.703273192048073" lon="10.839999290183187">
        <ele>1748.29</ele>
        <time>2018-06-10T15:02:23Z</time>
      </trkpt>
      <trkpt lat="45.703207142651081" lon="10.840012533590198">
        <ele>1746.3699999999999</ele>
        <time>2018-06-10T15:02:33Z</time>
      </trkpt>
      <trkpt lat="45.703108236193657" lon="10.840013539418578">
        <ele>1744.9300000000001</ele>
        <time>2018-06-10T15:02:43Z</time>
      </trkpt>
      <trkpt lat="45.703084766864777" lon="10.840069949626923">
        <ele>1744.45</ele>
        <time>2018-06-10T15:02:50Z</time>
      </trkpt>
      <trkpt lat="45.703053502365947" lon="10.840092245489359">
        <ele>1743.49</ele>
        <time>2018-06-10T15:02:54Z</time>
      </trkpt>
      <trkpt lat="45.702947806566954" lon="10.840250747278333">
        <ele>1740.5999999999999</ele>
        <time>2018-06-10T15:03:08Z</time>
      </trkpt>
      <trkpt lat="45.702829202637076" lon="10.840410254895687">
        <ele>1737.72</ele>
        <time>2018-06-10T15:03:22Z</time>
      </trkpt>
      <trkpt lat="45.702789640054107" lon="10.840462390333414">
        <ele>1737.24</ele>
        <time>2018-06-10T15:03:32Z</time>
      </trkpt>
      <trkpt lat="45.702773546800017" lon="10.840498935431242">
        <ele>1736.76</ele>
        <time>2018-06-10T15:03:36Z</time>
      </trkpt>
      <trkpt lat="45.702757285907865" lon="10.840523997321725">
        <ele>1735.8</ele>
        <time>2018-06-10T15:03:38Z</time>
      </trkpt>
      <trkpt lat="45.702678747475147" lon="10.840697083622217">
        <ele>1733.3900000000001</ele>
        <time>2018-06-10T15:03:52Z</time>
      </trkpt>
      <trkpt lat="45.702614709734917" lon="10.840836893767118">
        <ele>1731.95</ele>
        <time>2018-06-10T15:04:04Z</time>
      </trkpt>
      <trkpt lat="45.702604986727238" lon="10.840846197679639">
        <ele>1731.47</ele>
        <time>2018-06-10T15:04:13Z</time>
      </trkpt>
      <trkpt lat="45.702586378902197" lon="10.84082281216979">
        <ele>1730.99</ele>
        <time>2018-06-10T15:04:28Z</time>
      </trkpt>
      <trkpt lat="45.702573219314218" lon="10.840819207951427">
        <ele>1730.99</ele>
        <time>2018-06-10T15:04:44Z</time>
      </trkpt>
      <trkpt lat="45.702570201829076" lon="10.840915935114026">
        <ele>1730.03</ele>
        <time>2018-06-10T15:05:03Z</time>
      </trkpt>
      <trkpt lat="45.70258260704577" lon="10.841011321172118">
        <ele>1728.1099999999999</ele>
        <time>2018-06-10T15:05:10Z</time>
      </trkpt>
      <trkpt lat="45.702561233192682" lon="10.841044262051582">
        <ele>1727.6300000000001</ele>
        <time>2018-06-10T15:05:13Z</time>
      </trkpt>
      <trkpt lat="45.702519658952951" lon="10.841206954792142">
        <ele>1724.74</ele>
        <time>2018-06-10T15:05:25Z</time>
      </trkpt>
      <trkpt lat="45.702487304806709" lon="10.841374592855573">
        <ele>1722.3399999999999</ele>
        <time>2018-06-10T15:05:37Z</time>
      </trkpt>
      <trkpt lat="45.702427290380001" lon="10.841566622257233">
        <ele>1719.9400000000001</ele>
        <time>2018-06-10T15:05:51Z</time>
      </trkpt>
      <trkpt lat="45.702375657856464" lon="10.841683046892285">
        <ele>1717.53</ele>
        <time>2018-06-10T15:06:01Z</time>
      </trkpt>
      <trkpt lat="45.702346740290523" lon="10.841742726042867">
        <ele>1716.5699999999999</ele>
        <time>2018-06-10T15:06:05Z</time>
      </trkpt>
      <trkpt lat="45.702304411679506" lon="10.841832831501961">
        <ele>1715.1300000000001</ele>
        <time>2018-06-10T15:06:12Z</time>
      </trkpt>
      <trkpt lat="45.70221615023911" lon="10.8420121204108">
        <ele>1712.25</ele>
        <time>2018-06-10T15:06:27Z</time>
      </trkpt>
      <trkpt lat="45.70214431732893" lon="10.842135837301612">
        <ele>1710.3199999999999</ele>
        <time>2018-06-10T15:06:38Z</time>
      </trkpt>
      <trkpt lat="45.702125206589699" lon="10.842163832858205">
        <ele>1709.8399999999999</ele>
        <time>2018-06-10T15:06:41Z</time>
      </trkpt>
      <trkpt lat="45.702047338709235" lon="10.84229945205152">
        <ele>1707.4400000000001</ele>
        <time>2018-06-10T15:06:53Z</time>
      </trkpt>
      <trkpt lat="45.701963938772678" lon="10.842381007969379">
        <ele>1705.52</ele>
        <time>2018-06-10T15:07:03Z</time>
      </trkpt>
      <trkpt lat="45.701866373419762" lon="10.842493744567037">
        <ele>1703.5899999999999</ele>
        <time>2018-06-10T15:07:15Z</time>
      </trkpt>
      <trkpt lat="45.701766544952989" lon="10.842625172808766">
        <ele>1700.71</ele>
        <time>2018-06-10T15:07:29Z</time>
      </trkpt>
      <trkpt lat="45.701733184978366" lon="10.842644954100251">
        <ele>1700.23</ele>
        <time>2018-06-10T15:07:32Z</time>
      </trkpt>
      <trkpt lat="45.701694460585713" lon="10.842681666836143">
        <ele>1699.75</ele>
        <time>2018-06-10T15:07:36Z</time>
      </trkpt>
      <trkpt lat="45.701552219688892" lon="10.842824410647154">
        <ele>1697.8299999999999</ele>
        <time>2018-06-10T15:07:51Z</time>
      </trkpt>
      <trkpt lat="45.701451720669866" lon="10.842880150303245">
        <ele>1695.4200000000001</ele>
        <time>2018-06-10T15:08:02Z</time>
      </trkpt>
      <trkpt lat="45.701434453949332" lon="10.842881910502911">
        <ele>1694.9400000000001</ele>
        <time>2018-06-10T15:08:04Z</time>
      </trkpt>
      <trkpt lat="45.701331943273544" lon="10.842922395095229">
        <ele>1692.0599999999999</ele>
        <time>2018-06-10T15:08:15Z</time>
      </trkpt>
      <trkpt lat="45.701311742886901" lon="10.842936309054494">
        <ele>1692.54</ele>
        <time>2018-06-10T15:08:17Z</time>
      </trkpt>
      <trkpt lat="45.701276874169707" lon="10.842930357903242">
        <ele>1691.5799999999999</ele>
        <time>2018-06-10T15:08:20Z</time>
      </trkpt>
      <trkpt lat="45.701133795082569" lon="10.842979392036796">
        <ele>1689.6500000000001</ele>
        <time>2018-06-10T15:08:34Z</time>
      </trkpt>
      <trkpt lat="45.701131280511618" lon="10.842994647100568">
        <ele>1689.1700000000001</ele>
        <time>2018-06-10T15:08:35Z</time>
      </trkpt>
      <trkpt lat="45.701151983812451" lon="10.843042507767677">
        <ele>1688.6900000000001</ele>
        <time>2018-06-10T15:08:39Z</time>
      </trkpt>
      <trkpt lat="45.701214764267206" lon="10.843049380928278">
        <ele>1688.21</ele>
        <time>2018-06-10T15:08:45Z</time>
      </trkpt>
      <trkpt lat="45.7013273332268" lon="10.843054577708244">
        <ele>1685.8099999999999</ele>
        <time>2018-06-10T15:08:57Z</time>
      </trkpt>
      <trkpt lat="45.701448870822787" lon="10.843089362606406">
        <ele>1684.3699999999999</ele>
        <time>2018-06-10T15:09:09Z</time>
      </trkpt>
      <trkpt lat="45.701507460325956" lon="10.84310956299305">
        <ele>1682.9300000000001</ele>
        <time>2018-06-10T15:09:15Z</time>
      </trkpt>
      <trkpt lat="45.701673338189721" lon="10.843080813065171">
        <ele>1681</ele>
        <time>2018-06-10T15:09:29Z</time>
      </trkpt>
      <trkpt lat="45.701801665127277" lon="10.843022558838129">
        <ele>1679.0799999999999</ele>
        <time>2018-06-10T15:09:42Z</time>
      </trkpt>
      <trkpt lat="45.70189218968153" lon="10.842982996255159">
        <ele>1677.6400000000001</ele>
        <time>2018-06-10T15:09:53Z</time>
      </trkpt>
      <trkpt lat="45.701998891308904" lon="10.842928849160671">
        <ele>1676.2</ele>
        <time>2018-06-10T15:10:06Z</time>
      </trkpt>
      <trkpt lat="45.702108945697546" lon="10.842895740643144">
        <ele>1673.79</ele>
        <time>2018-06-10T15:10:18Z</time>
      </trkpt>
      <trkpt lat="45.70220542140305" lon="10.842826506122947">
        <ele>1672.8299999999999</ele>
        <time>2018-06-10T15:10:31Z</time>
      </trkpt>
      <trkpt lat="45.702300556004047" lon="10.842772275209427">
        <ele>1670.9100000000001</ele>
        <time>2018-06-10T15:10:44Z</time>
      </trkpt>
      <trkpt lat="45.702316146343946" lon="10.842772359028459">
        <ele>1670.9100000000001</ele>
        <time>2018-06-10T15:10:56Z</time>
      </trkpt>
      <trkpt lat="45.702331233769655" lon="10.842766659334302">
        <ele>1670.4300000000001</ele>
        <time>2018-06-10T15:11:18Z</time>
      </trkpt>
      <trkpt lat="45.702385967597365" lon="10.842727180570364">
        <ele>1669.47</ele>
        <time>2018-06-10T15:11:28Z</time>
      </trkpt>
      <trkpt lat="45.702444892376661" lon="10.842634895816445">
        <ele>1668.99</ele>
        <time>2018-06-10T15:11:41Z</time>
      </trkpt>
      <trkpt lat="45.702485628426075" lon="10.842638667672873">
        <ele>1667.0599999999999</ele>
        <time>2018-06-10T15:11:52Z</time>
      </trkpt>
      <trkpt lat="45.702487053349614" lon="10.842654844745994">
        <ele>1667.0599999999999</ele>
        <time>2018-06-10T15:11:53Z</time>
      </trkpt>
      <trkpt lat="45.702472385019064" lon="10.842706812545657">
        <ele>1666.5799999999999</ele>
        <time>2018-06-10T15:11:57Z</time>
      </trkpt>
      <trkpt lat="45.702425530180335" lon="10.842788452282548">
        <ele>1664.6600000000001</ele>
        <time>2018-06-10T15:12:06Z</time>
      </trkpt>
      <trkpt lat="45.702352439984679" lon="10.842933878302574">
        <ele>1662.74</ele>
        <time>2018-06-10T15:12:21Z</time>
      </trkpt>
      <trkpt lat="45.702287061139941" lon="10.843012081459165">
        <ele>1661.78</ele>
        <time>2018-06-10T15:12:29Z</time>
      </trkpt>
      <trkpt lat="45.702211372554302" lon="10.843093134462833">
        <ele>1660.3299999999999</ele>
        <time>2018-06-10T15:12:38Z</time>
      </trkpt>
      <trkpt lat="45.702134761959314" lon="10.843249205499887">
        <ele>1657.45</ele>
        <time>2018-06-10T15:12:51Z</time>
      </trkpt>
      <trkpt lat="45.702043399214745" lon="10.843375772237778">
        <ele>1655.53</ele>
        <time>2018-06-10T15:13:03Z</time>
      </trkpt>
      <trkpt lat="45.702031832188368" lon="10.843398571014404">
        <ele>1655.05</ele>
        <time>2018-06-10T15:13:05Z</time>
      </trkpt>
      <trkpt lat="45.7019386254251" lon="10.843497645109892">
        <ele>1653.1199999999999</ele>
        <time>2018-06-10T15:13:17Z</time>
      </trkpt>
      <trkpt lat="45.701864110305905" lon="10.843589762225747">
        <ele>1651.2</ele>
        <time>2018-06-10T15:13:28Z</time>
      </trkpt>
      <trkpt lat="45.701771406456828" lon="10.843705935403705">
        <ele>1649.28</ele>
        <time>2018-06-10T15:13:41Z</time>
      </trkpt>
      <trkpt lat="45.701690018177032" lon="10.843801321461797">
        <ele>1646.8800000000001</ele>
        <time>2018-06-10T15:13:52Z</time>
      </trkpt>
      <trkpt lat="45.701586836948991" lon="10.843878854066133">
        <ele>1644.95</ele>
        <time>2018-06-10T15:14:05Z</time>
      </trkpt>
      <trkpt lat="45.701578371226788" lon="10.843882458284497">
        <ele>1644.95</ele>
        <time>2018-06-10T15:14:06Z</time>
      </trkpt>
      <trkpt lat="45.701514584943652" lon="10.84391632117331">
        <ele>1643.99</ele>
        <time>2018-06-10T15:14:18Z</time>
      </trkpt>
      <trkpt lat="45.701523888856173" lon="10.843900814652443">
        <ele>1644.95</ele>
        <time>2018-06-10T15:14:35Z</time>
      </trkpt>
      <trkpt lat="45.701553141698241" lon="10.84392168559134">
        <ele>1643.03</ele>
        <time>2018-06-10T15:14:45Z</time>
      </trkpt>
      <trkpt lat="45.701622879132628" lon="10.843924283981323">
        <ele>1641.5899999999999</ele>
        <time>2018-06-10T15:14:56Z</time>
      </trkpt>
      <trkpt lat="45.701672332361341" lon="10.843908861279488">
        <ele>1641.1099999999999</ele>
        <time>2018-06-10T15:15:02Z</time>
      </trkpt>
      <trkpt lat="45.701793283224106" lon="10.843918668106198">
        <ele>1638.7</ele>
        <time>2018-06-10T15:15:15Z</time>
      </trkpt>
      <trkpt lat="45.701863272115588" lon="10.84390752017498">
        <ele>1637.74</ele>
        <time>2018-06-10T15:15:23Z</time>
      </trkpt>
      <trkpt lat="45.701957819983363" lon="10.84386351518333">
        <ele>1635.8199999999999</ele>
        <time>2018-06-10T15:15:35Z</time>
      </trkpt>
      <trkpt lat="45.702073825523257" lon="10.84378925152123">
        <ele>1633.9000000000001</ele>
        <time>2018-06-10T15:15:47Z</time>
      </trkpt>
      <trkpt lat="45.702180275693536" lon="10.843726387247443">
        <ele>1631.98</ele>
        <time>2018-06-10T15:16:00Z</time>
      </trkpt>
      <trkpt lat="45.702281948179007" lon="10.84367249161005">
        <ele>1630.05</ele>
        <time>2018-06-10T15:16:11Z</time>
      </trkpt>
      <trkpt lat="45.702386638149619" lon="10.843617673963308">
        <ele>1627.6500000000001</ele>
        <time>2018-06-10T15:16:24Z</time>
      </trkpt>
      <trkpt lat="45.702483616769314" lon="10.843571405857801">
        <ele>1625.25</ele>
        <time>2018-06-10T15:16:35Z</time>
      </trkpt>
      <trkpt lat="45.702550588175654" lon="10.84355229511857">
        <ele>1624.77</ele>
        <time>2018-06-10T15:16:40Z</time>
      </trkpt>
      <trkpt lat="45.702683860436082" lon="10.843547936528921">
        <ele>1623.3199999999999</ele>
        <time>2018-06-10T15:16:54Z</time>
      </trkpt>
      <trkpt lat="45.702690482139587" lon="10.843552462756634">
        <ele>1623.3199999999999</ele>
        <time>2018-06-10T15:16:55Z</time>
      </trkpt>
      <trkpt lat="45.702673550695181" lon="10.843618595972657">
        <ele>1621.4000000000001</ele>
        <time>2018-06-10T15:17:04Z</time>
      </trkpt>
      <trkpt lat="45.702661480754614" lon="10.843630414456129">
        <ele>1620.9200000000001</ele>
        <time>2018-06-10T15:17:06Z</time>
      </trkpt>
      <trkpt lat="45.702567100524902" lon="10.843696882948279">
        <ele>1619</ele>
        <time>2018-06-10T15:17:17Z</time>
      </trkpt>
      <trkpt lat="45.702487891539931" lon="10.843810457736254">
        <ele>1616.5899999999999</ele>
        <time>2018-06-10T15:17:29Z</time>
      </trkpt>
      <trkpt lat="45.702413124963641" lon="10.843925457447767">
        <ele>1614.1900000000001</ele>
        <time>2018-06-10T15:17:41Z</time>
      </trkpt>
      <trkpt lat="45.70235294289887" lon="10.844025705009699">
        <ele>1612.27</ele>
        <time>2018-06-10T15:17:51Z</time>
      </trkpt>
      <trkpt lat="45.702283540740609" lon="10.844169203191996">
        <ele>1610.3499999999999</ele>
        <time>2018-06-10T15:18:03Z</time>
      </trkpt>
      <trkpt lat="45.702210450544953" lon="10.844296524301171">
        <ele>1608.4200000000001</ele>
        <time>2018-06-10T15:18:15Z</time>
      </trkpt>
      <trkpt lat="45.702146328985691" lon="10.844412865117192">
        <ele>1606.02</ele>
        <time>2018-06-10T15:18:27Z</time>
      </trkpt>
      <trkpt lat="45.702089834958315" lon="10.844525182619691">
        <ele>1604.5799999999999</ele>
        <time>2018-06-10T15:18:36Z</time>
      </trkpt>
      <trkpt lat="45.702055804431438" lon="10.84456080570817">
        <ele>1603.6199999999999</ele>
        <time>2018-06-10T15:18:40Z</time>
      </trkpt>
      <trkpt lat="45.701940972357988" lon="10.844697263091803">
        <ele>1600.73</ele>
        <time>2018-06-10T15:18:55Z</time>
      </trkpt>
      <trkpt lat="45.701871067285538" lon="10.844770185649395">
        <ele>1598.8099999999999</ele>
        <time>2018-06-10T15:19:04Z</time>
      </trkpt>
      <trkpt lat="45.701792864128947" lon="10.844819890335202">
        <ele>1596.8900000000001</ele>
        <time>2018-06-10T15:19:14Z</time>
      </trkpt>
      <trkpt lat="45.701719354838133" lon="10.844854339957237">
        <ele>1595.45</ele>
        <time>2018-06-10T15:19:22Z</time>
      </trkpt>
      <trkpt lat="45.701711978763342" lon="10.844860123470426">
        <ele>1595.9300000000001</ele>
        <time>2018-06-10T15:19:23Z</time>
      </trkpt>
      <trkpt lat="45.701633021235466" lon="10.844910917803645">
        <ele>1594</ele>
        <time>2018-06-10T15:19:33Z</time>
      </trkpt>
      <trkpt lat="45.701541071757674" lon="10.844962801784277">
        <ele>1592.0799999999999</ele>
        <time>2018-06-10T15:19:47Z</time>
      </trkpt>
      <trkpt lat="45.70153302513063" lon="10.84496783092618">
        <ele>1591.5999999999999</ele>
        <time>2018-06-10T15:19:48Z</time>
      </trkpt>
      <trkpt lat="45.701420288532972" lon="10.845017284154892">
        <ele>1589.2</ele>
        <time>2018-06-10T15:20:00Z</time>
      </trkpt>
      <trkpt lat="45.701281065121293" lon="10.845054080709815">
        <ele>1586.79</ele>
        <time>2018-06-10T15:20:15Z</time>
      </trkpt>
      <trkpt lat="45.701211411505938" lon="10.84508023224771">
        <ele>1584.8699999999999</ele>
        <time>2018-06-10T15:20:24Z</time>
      </trkpt>
      <trkpt lat="45.70116606540978" lon="10.845104455947876">
        <ele>1584.3900000000001</ele>
        <time>2018-06-10T15:20:29Z</time>
      </trkpt>
      <trkpt lat="45.701068583875895" lon="10.845098504796624">
        <ele>1582.47</ele>
        <time>2018-06-10T15:20:40Z</time>
      </trkpt>
      <trkpt lat="45.700988536700606" lon="10.845104875043035">
        <ele>1580.0599999999999</ele>
        <time>2018-06-10T15:20:52Z</time>
      </trkpt>
      <trkpt lat="45.700905220583081" lon="10.845108730718493">
        <ele>1577.6600000000001</ele>
        <time>2018-06-10T15:21:05Z</time>
      </trkpt>
      <trkpt lat="45.700970347970724" lon="10.845172181725502">
        <ele>1576.7</ele>
        <time>2018-06-10T15:21:14Z</time>
      </trkpt>
      <trkpt lat="45.701054167002439" lon="10.845232699066401">
        <ele>1574.78</ele>
        <time>2018-06-10T15:21:25Z</time>
      </trkpt>
      <trkpt lat="45.701140249148011" lon="10.845314925536513">
        <ele>1572.8499999999999</ele>
        <time>2018-06-10T15:21:37Z</time>
      </trkpt>
      <trkpt lat="45.701205292716622" lon="10.845365384593606">
        <ele>1571.4100000000001</ele>
        <time>2018-06-10T15:21:47Z</time>
      </trkpt>
      <trkpt lat="45.701306881383061" lon="10.84540905430913">
        <ele>1569.49</ele>
        <time>2018-06-10T15:21:59Z</time>
      </trkpt>
      <trkpt lat="45.701345941051841" lon="10.845420621335506">
        <ele>1569.01</ele>
        <time>2018-06-10T15:22:03Z</time>
      </trkpt>
      <trkpt lat="45.701417187228799" lon="10.845479881390929">
        <ele>1567.5699999999999</ele>
        <time>2018-06-10T15:22:11Z</time>
      </trkpt>
      <trkpt lat="45.701520116999745" lon="10.845544338226318">
        <ele>1565.6400000000001</ele>
        <time>2018-06-10T15:22:23Z</time>
      </trkpt>
      <trkpt lat="45.701649198308587" lon="10.845612231642008">
        <ele>1563.24</ele>
        <time>2018-06-10T15:22:37Z</time>
      </trkpt>
      <trkpt lat="45.70180376060307" lon="10.845654476433992">
        <ele>1560.8399999999999</ele>
        <time>2018-06-10T15:22:52Z</time>
      </trkpt>
      <trkpt lat="45.701912390068173" lon="10.845702672377229">
        <ele>1558.9200000000001</ele>
        <time>2018-06-10T15:23:03Z</time>
      </trkpt>
      <trkpt lat="45.702038705348969" lon="10.845729578286409">
        <ele>1557.47</ele>
        <time>2018-06-10T15:23:16Z</time>
      </trkpt>
      <trkpt lat="45.702149933204055" lon="10.845833346247673">
        <ele>1555.0699999999999</ele>
        <time>2018-06-10T15:23:28Z</time>
      </trkpt>
      <trkpt lat="45.702160494402051" lon="10.845882799476385">
        <ele>1554.5899999999999</ele>
        <time>2018-06-10T15:23:32Z</time>
      </trkpt>
      <trkpt lat="45.702145909890532" lon="10.845937198027968">
        <ele>1553.6300000000001</ele>
        <time>2018-06-10T15:23:36Z</time>
      </trkpt>
      <trkpt lat="45.702102743089199" lon="10.845969635993242">
        <ele>1552.6700000000001</ele>
        <time>2018-06-10T15:23:39Z</time>
      </trkpt>
      <trkpt lat="45.702101150527596" lon="10.846012802794576">
        <ele>1552.1900000000001</ele>
        <time>2018-06-10T15:23:47Z</time>
      </trkpt>
      <trkpt lat="45.70208958350122" lon="10.846052281558514">
        <ele>1552.1900000000001</ele>
        <time>2018-06-10T15:23:56Z</time>
      </trkpt>
      <trkpt lat="45.702102072536945" lon="10.846053371205926">
        <ele>1551.71</ele>
        <time>2018-06-10T15:24:10Z</time>
      </trkpt>
      <trkpt lat="45.702116992324591" lon="10.846061334013939">
        <ele>1552.1900000000001</ele>
        <time>2018-06-10T15:24:20Z</time>
      </trkpt>
      <trkpt lat="45.702117327600718" lon="10.846059238538146">
        <ele>1551.71</ele>
        <time>2018-06-10T15:24:29Z</time>
      </trkpt>
      <trkpt lat="45.702093355357647" lon="10.846054125577211">
        <ele>1551.71</ele>
        <time>2018-06-10T15:24:41Z</time>
      </trkpt>
      <trkpt lat="45.702094445005059" lon="10.846053706482053">
        <ele>1551.22</ele>
        <time>2018-06-10T15:24:53Z</time>
      </trkpt>
      <trkpt lat="45.702114561572671" lon="10.846084719523787">
        <ele>1550.74</ele>
        <time>2018-06-10T15:25:12Z</time>
      </trkpt>
      <trkpt lat="45.702110957354307" lon="10.846079522743821">
        <ele>1551.22</ele>
        <time>2018-06-10T15:25:25Z</time>
      </trkpt>
      <trkpt lat="45.70210374891758" lon="10.846071392297745">
        <ele>1551.71</ele>
        <time>2018-06-10T15:25:32Z</time>
      </trkpt>
      <trkpt lat="45.702112466096878" lon="10.846096705645323">
        <ele>1551.71</ele>
        <time>2018-06-10T15:25:41Z</time>
      </trkpt>
      <trkpt lat="45.702126799151301" lon="10.846079355105758">
        <ele>1552.1900000000001</ele>
        <time>2018-06-10T15:25:54Z</time>
      </trkpt>
      <trkpt lat="45.702126044780016" lon="10.846072314307094">
        <ele>1551.71</ele>
        <time>2018-06-10T15:26:05Z</time>
      </trkpt>
      <trkpt lat="45.702120009809732" lon="10.846078768372536">
        <ele>1552.1900000000001</ele>
        <time>2018-06-10T15:26:18Z</time>
      </trkpt>
      <trkpt lat="45.702109867706895" lon="10.846069045364857">
        <ele>1551.71</ele>
        <time>2018-06-10T15:26:34Z</time>
      </trkpt>
      <trkpt lat="45.702104503288865" lon="10.846057226881385">
        <ele>1551.71</ele>
        <time>2018-06-10T15:26:46Z</time>
      </trkpt>
      <trkpt lat="45.702105592936277" lon="10.846052784472704">
        <ele>1551.71</ele>
        <time>2018-06-10T15:27:01Z</time>
      </trkpt>
      <trkpt lat="45.702115064486861" lon="10.846057813614607">
        <ele>1551.71</ele>
        <time>2018-06-10T15:27:16Z</time>
      </trkpt>
      <trkpt lat="45.702083632349968" lon="10.846025543287396">
        <ele>1551.71</ele>
        <time>2018-06-10T15:27:30Z</time>
      </trkpt>
      <trkpt lat="45.70209352299571" lon="10.846032667905092">
        <ele>1551.71</ele>
        <time>2018-06-10T15:27:46Z</time>
      </trkpt>
      <trkpt lat="45.702098719775677" lon="10.846052533015609">
        <ele>1551.71</ele>
        <time>2018-06-10T15:28:02Z</time>
      </trkpt>
      <trkpt lat="45.702102072536945" lon="10.846056723967195">
        <ele>1551.71</ele>
        <time>2018-06-10T15:28:10Z</time>
      </trkpt>
      <trkpt lat="45.702115735039115" lon="10.846030153334141">
        <ele>1551.22</ele>
        <time>2018-06-10T15:28:25Z</time>
      </trkpt>
      <trkpt lat="45.702106431126595" lon="10.846044486388564">
        <ele>1551.22</ele>
        <time>2018-06-10T15:28:47Z</time>
      </trkpt>
      <trkpt lat="45.702108694240451" lon="10.846056472510099">
        <ele>1551.22</ele>
        <time>2018-06-10T15:29:06Z</time>
      </trkpt>
      <trkpt lat="45.702100731432438" lon="10.84606921300292">
        <ele>1551.22</ele>
        <time>2018-06-10T15:29:22Z</time>
      </trkpt>
      <trkpt lat="45.702097630128264" lon="10.846073655411601">
        <ele>1551.22</ele>
        <time>2018-06-10T15:29:34Z</time>
      </trkpt>
      <trkpt lat="45.702111376449466" lon="10.846059992909431">
        <ele>1550.74</ele>
        <time>2018-06-10T15:29:44Z</time>
      </trkpt>
      <trkpt lat="45.702105173841119" lon="10.846065860241652">
        <ele>1550.74</ele>
        <time>2018-06-10T15:30:04Z</time>
      </trkpt>
      <trkpt lat="45.702086985111237" lon="10.846068374812603">
        <ele>1550.74</ele>
        <time>2018-06-10T15:30:25Z</time>
      </trkpt>
      <trkpt lat="45.702081872150302" lon="10.846086563542485">
        <ele>1550.26</ele>
        <time>2018-06-10T15:30:38Z</time>
      </trkpt>
      <trkpt lat="45.702084302902222" lon="10.846089413389564">
        <ele>1550.26</ele>
        <time>2018-06-10T15:30:52Z</time>
      </trkpt>
      <trkpt lat="45.70208664983511" lon="10.846087904646993">
        <ele>1550.26</ele>
        <time>2018-06-10T15:31:02Z</time>
      </trkpt>
      <trkpt lat="45.702099222689867" lon="10.846127718687057">
        <ele>1549.78</ele>
        <time>2018-06-10T15:31:13Z</time>
      </trkpt>
      <trkpt lat="45.702103413641453" lon="10.846142219379544">
        <ele>1549.3</ele>
        <time>2018-06-10T15:31:14Z</time>
      </trkpt>
      <trkpt lat="45.702106766402721" lon="10.846157474443316">
        <ele>1549.3</ele>
        <time>2018-06-10T15:31:15Z</time>
      </trkpt>
      <trkpt lat="45.702130487188697" lon="10.846235761418939">
        <ele>1548.3399999999999</ele>
        <time>2018-06-10T15:31:21Z</time>
      </trkpt>
      <trkpt lat="45.702166948467493" lon="10.846293512731791">
        <ele>1546.9000000000001</ele>
        <time>2018-06-10T15:31:32Z</time>
      </trkpt>
      <trkpt lat="45.702142808586359" lon="10.846329806372523">
        <ele>1545.9400000000001</ele>
        <time>2018-06-10T15:31:41Z</time>
      </trkpt>
      <trkpt lat="45.70213844999671" lon="10.846373895183206">
        <ele>1544.01</ele>
        <time>2018-06-10T15:31:52Z</time>
      </trkpt>
      <trkpt lat="45.702130822464824" lon="10.846407003700733">
        <ele>1543.53</ele>
        <time>2018-06-10T15:32:03Z</time>
      </trkpt>
      <trkpt lat="45.702111124992371" lon="10.846434831619263">
        <ele>1543.05</ele>
        <time>2018-06-10T15:32:15Z</time>
      </trkpt>
      <trkpt lat="45.702112298458815" lon="10.846457378938794">
        <ele>1541.6099999999999</ele>
        <time>2018-06-10T15:32:23Z</time>
      </trkpt>
      <trkpt lat="45.702154207974672" lon="10.846475902944803">
        <ele>1539.6900000000001</ele>
        <time>2018-06-10T15:32:34Z</time>
      </trkpt>
      <trkpt lat="45.702173486351967" lon="10.84651823155582">
        <ele>1538.25</ele>
        <time>2018-06-10T15:32:42Z</time>
      </trkpt>
      <trkpt lat="45.702144149690866" lon="10.846581431105733">
        <ele>1537.29</ele>
        <time>2018-06-10T15:32:53Z</time>
      </trkpt>
      <trkpt lat="45.702158231288195" lon="10.84661646746099">
        <ele>1535.3599999999999</ele>
        <time>2018-06-10T15:33:02Z</time>
      </trkpt>
      <trkpt lat="45.702165691182017" lon="10.846650414168835">
        <ele>1533.9200000000001</ele>
        <time>2018-06-10T15:33:11Z</time>
      </trkpt>
      <trkpt lat="45.702191172167659" lon="10.846686707809567">
        <ele>1532</ele>
        <time>2018-06-10T15:33:23Z</time>
      </trkpt>
      <trkpt lat="45.702191675081849" lon="10.846718223765492">
        <ele>1531.04</ele>
        <time>2018-06-10T15:33:31Z</time>
      </trkpt>
      <trkpt lat="45.702215479686856" lon="10.846726940944791">
        <ele>1529.1099999999999</ele>
        <time>2018-06-10T15:33:40Z</time>
      </trkpt>
      <trkpt lat="45.702235596254468" lon="10.846777400001884">
        <ele>1527.6700000000001</ele>
        <time>2018-06-10T15:33:50Z</time>
      </trkpt>
      <trkpt lat="45.702243139967322" lon="10.846819560974836">
        <ele>1526.23</ele>
        <time>2018-06-10T15:34:02Z</time>
      </trkpt>
      <trkpt lat="45.702263172715902" lon="10.8468266017735">
        <ele>1525.27</ele>
        <time>2018-06-10T15:34:13Z</time>
      </trkpt>
      <trkpt lat="45.702263675630093" lon="10.846882089972496">
        <ele>1523.3499999999999</ele>
        <time>2018-06-10T15:34:23Z</time>
      </trkpt>
      <trkpt lat="45.70226258598268" lon="10.846895584836602">
        <ele>1523.3499999999999</ele>
        <time>2018-06-10T15:34:24Z</time>
      </trkpt>
      <trkpt lat="45.702271470800042" lon="10.846975715830922">
        <ele>1520.9400000000001</ele>
        <time>2018-06-10T15:34:34Z</time>
      </trkpt>
      <trkpt lat="45.70230508223176" lon="10.846996335312724">
        <ele>1519.02</ele>
        <time>2018-06-10T15:34:45Z</time>
      </trkpt>
      <trkpt lat="45.702288569882512" lon="10.847040172666311">
        <ele>1517.5799999999999</ele>
        <time>2018-06-10T15:34:54Z</time>
      </trkpt>
      <trkpt lat="45.702310027554631" lon="10.847058277577162">
        <ele>1516.6199999999999</ele>
        <time>2018-06-10T15:35:03Z</time>
      </trkpt>
      <trkpt lat="45.702336095273495" lon="10.847095577046275">
        <ele>1514.6900000000001</ele>
        <time>2018-06-10T15:35:16Z</time>
      </trkpt>
      <trkpt lat="45.702344980090857" lon="10.847160536795855">
        <ele>1512.77</ele>
        <time>2018-06-10T15:35:26Z</time>
      </trkpt>
      <trkpt lat="45.702359899878502" lon="10.847197920084">
        <ele>1511.3299999999999</ele>
        <time>2018-06-10T15:35:38Z</time>
      </trkpt>
      <trkpt lat="45.702352188527584" lon="10.847294731065631">
        <ele>1509.4100000000001</ele>
        <time>2018-06-10T15:35:50Z</time>
      </trkpt>
      <trkpt lat="45.702402060851455" lon="10.847340160980821">
        <ele>1507.48</ele>
        <time>2018-06-10T15:36:02Z</time>
      </trkpt>
      <trkpt lat="45.702426871284842" lon="10.84737385623157">
        <ele>1506.52</ele>
        <time>2018-06-10T15:36:12Z</time>
      </trkpt>
      <trkpt lat="45.702440533787012" lon="10.847366731613874">
        <ele>1506.04</ele>
        <time>2018-06-10T15:36:23Z</time>
      </trkpt>
      <trkpt lat="45.702471630647779" lon="10.847396571189165">
        <ele>1504.5999999999999</ele>
        <time>2018-06-10T15:36:31Z</time>
      </trkpt>
      <trkpt lat="45.702486969530582" lon="10.847394978627563">
        <ele>1504.1199999999999</ele>
        <time>2018-06-10T15:36:43Z</time>
      </trkpt>
      <trkpt lat="45.70251077413559" lon="10.847390033304691">
        <ele>1502.6800000000001</ele>
        <time>2018-06-10T15:36:56Z</time>
      </trkpt>
      <trkpt lat="45.702497866004705" lon="10.847405958920717">
        <ele>1501.72</ele>
        <time>2018-06-10T15:37:10Z</time>
      </trkpt>
      <trkpt lat="45.702510103583336" lon="10.847442923113704">
        <ele>1501.24</ele>
        <time>2018-06-10T15:37:23Z</time>
      </trkpt>
      <trkpt lat="45.702531477436423" lon="10.847440576180816">
        <ele>1499.79</ele>
        <time>2018-06-10T15:37:31Z</time>
      </trkpt>
      <trkpt lat="45.702535500749946" lon="10.847424985840917">
        <ele>1498.3499999999999</ele>
        <time>2018-06-10T15:37:42Z</time>
      </trkpt>
      <trkpt lat="45.702581601217389" lon="10.847412161529064">
        <ele>1496.4300000000001</ele>
        <time>2018-06-10T15:37:52Z</time>
      </trkpt>
      <trkpt lat="45.702640106901526" lon="10.847500003874302">
        <ele>1493.55</ele>
        <time>2018-06-10T15:38:04Z</time>
      </trkpt>
      <trkpt lat="45.702667515724897" lon="10.847565215080976">
        <ele>1493.0599999999999</ele>
        <time>2018-06-10T15:38:14Z</time>
      </trkpt>
      <trkpt lat="45.702679669484496" lon="10.847653392702341">
        <ele>1491.6199999999999</ele>
        <time>2018-06-10T15:38:23Z</time>
      </trkpt>
      <trkpt lat="45.702631808817387" lon="10.847763363271952">
        <ele>1488.74</ele>
        <time>2018-06-10T15:38:33Z</time>
      </trkpt>
      <trkpt lat="45.702590234577656" lon="10.847865790128708">
        <ele>1486.8199999999999</ele>
        <time>2018-06-10T15:38:44Z</time>
      </trkpt>
      <trkpt lat="45.702572716400027" lon="10.847920356318355">
        <ele>1485.8499999999999</ele>
        <time>2018-06-10T15:38:49Z</time>
      </trkpt>
      <trkpt lat="45.702567351981997" lon="10.847933851182461">
        <ele>1485.8499999999999</ele>
        <time>2018-06-10T15:38:50Z</time>
      </trkpt>
      <trkpt lat="45.702558886259794" lon="10.847945502027869">
        <ele>1485.3699999999999</ele>
        <time>2018-06-10T15:38:51Z</time>
      </trkpt>
      <trkpt lat="45.702494764700532" lon="10.848104674369097">
        <ele>1484.8900000000001</ele>
        <time>2018-06-10T15:39:03Z</time>
      </trkpt>
      <trkpt lat="45.70246777497232" lon="10.848208693787456">
        <ele>1486.8199999999999</ele>
        <time>2018-06-10T15:39:12Z</time>
      </trkpt>
      <trkpt lat="45.702444976195693" lon="10.84827633574605">
        <ele>1488.74</ele>
        <time>2018-06-10T15:39:22Z</time>
      </trkpt>
      <trkpt lat="45.702392589300871" lon="10.848349761217833">
        <ele>1488.74</ele>
        <time>2018-06-10T15:39:31Z</time>
      </trkpt>
      <trkpt lat="45.702352859079838" lon="10.848396029323339">
        <ele>1490.1800000000001</ele>
        <time>2018-06-10T15:39:40Z</time>
      </trkpt>
      <trkpt lat="45.702347494661808" lon="10.848433244973421">
        <ele>1491.1400000000001</ele>
        <time>2018-06-10T15:39:46Z</time>
      </trkpt>
      <trkpt lat="45.702304160222411" lon="10.848467275500298">
        <ele>1492.0999999999999</ele>
        <time>2018-06-10T15:39:54Z</time>
      </trkpt>
      <trkpt lat="45.702293599024415" lon="10.848510274663568">
        <ele>1491.6199999999999</ele>
        <time>2018-06-10T15:40:03Z</time>
      </trkpt>
      <trkpt lat="45.702257221564651" lon="10.848527792841196">
        <ele>1490.1800000000001</ele>
        <time>2018-06-10T15:40:15Z</time>
      </trkpt>
      <trkpt lat="45.70221371948719" lon="10.848583951592445">
        <ele>1488.74</ele>
        <time>2018-06-10T15:40:22Z</time>
      </trkpt>
      <trkpt lat="45.702199637889862" lon="10.848682522773743">
        <ele>1485.8499999999999</ele>
        <time>2018-06-10T15:40:33Z</time>
      </trkpt>
      <trkpt lat="45.702139539644122" lon="10.848786123096943">
        <ele>1483.9300000000001</ele>
        <time>2018-06-10T15:40:47Z</time>
      </trkpt>
      <trkpt lat="45.702084973454475" lon="10.848866924643517">
        <ele>1481.05</ele>
        <time>2018-06-10T15:40:59Z</time>
      </trkpt>
      <trkpt lat="45.70208178833127" lon="10.848893076181412">
        <ele>1480.5699999999999</ele>
        <time>2018-06-10T15:41:10Z</time>
      </trkpt>
      <trkpt lat="45.702067455276847" lon="10.848952671512961">
        <ele>1479.6099999999999</ele>
        <time>2018-06-10T15:41:20Z</time>
      </trkpt>
      <trkpt lat="45.702043734490871" lon="10.849032970145345">
        <ele>1478.1600000000001</ele>
        <time>2018-06-10T15:41:30Z</time>
      </trkpt>
      <trkpt lat="45.701987240463495" lon="10.849087703973055">
        <ele>1476.72</ele>
        <time>2018-06-10T15:41:39Z</time>
      </trkpt>
      <trkpt lat="45.701956059783697" lon="10.849110167473555">
        <ele>1474.8</ele>
        <time>2018-06-10T15:41:43Z</time>
      </trkpt>
      <trkpt lat="45.701917754486203" lon="10.84910555742681">
        <ele>1474.8</ele>
        <time>2018-06-10T15:41:49Z</time>
      </trkpt>
      <trkpt lat="45.701821697875857" lon="10.84914319217205">
        <ele>1471.9200000000001</ele>
        <time>2018-06-10T15:42:02Z</time>
      </trkpt>
      <trkpt lat="45.701780542731285" lon="10.84915584884584">
        <ele>1470.47</ele>
        <time>2018-06-10T15:42:11Z</time>
      </trkpt>
      <trkpt lat="45.701726982370019" lon="10.849176300689578">
        <ele>1468.55</ele>
        <time>2018-06-10T15:42:21Z</time>
      </trkpt>
      <trkpt lat="45.701691778376698" lon="10.849206307902932">
        <ele>1466.6300000000001</ele>
        <time>2018-06-10T15:42:31Z</time>
      </trkpt>
      <trkpt lat="45.701665626838803" lon="10.849219299852848">
        <ele>1465.6700000000001</ele>
        <time>2018-06-10T15:42:41Z</time>
      </trkpt>
      <trkpt lat="45.70162539370358" lon="10.849235979840159">
        <ele>1463.74</ele>
        <time>2018-06-10T15:42:49Z</time>
      </trkpt>
      <trkpt lat="45.701629500836134" lon="10.849291887134314">
        <ele>1462.3</ele>
        <time>2018-06-10T15:42:58Z</time>
      </trkpt>
      <trkpt lat="45.701578455045819" lon="10.849322313442826">
        <ele>1460.3800000000001</ele>
        <time>2018-06-10T15:43:10Z</time>
      </trkpt>
      <trkpt lat="45.70158482529223" lon="10.849349554628134">
        <ele>1459.4200000000001</ele>
        <time>2018-06-10T15:43:15Z</time>
      </trkpt>
      <trkpt lat="45.701537718996406" lon="10.849346118047833">
        <ele>1458.46</ele>
        <time>2018-06-10T15:43:23Z</time>
      </trkpt>
      <trkpt lat="45.701542999595404" lon="10.849382495507598">
        <ele>1457.5</ele>
        <time>2018-06-10T15:43:31Z</time>
      </trkpt>
      <trkpt lat="45.701497485861182" lon="10.849401103332639">
        <ele>1455.5699999999999</ele>
        <time>2018-06-10T15:43:42Z</time>
      </trkpt>
      <trkpt lat="45.701484074816108" lon="10.849429685622454">
        <ele>1454.1300000000001</ele>
        <time>2018-06-10T15:43:52Z</time>
      </trkpt>
      <trkpt lat="45.701486170291901" lon="10.849431529641151">
        <ele>1453.6500000000001</ele>
        <time>2018-06-10T15:44:02Z</time>
      </trkpt>
      <trkpt lat="45.701442919671535" lon="10.849421974271536">
        <ele>1452.21</ele>
        <time>2018-06-10T15:44:10Z</time>
      </trkpt>
      <trkpt lat="45.701411236077547" lon="10.849419962614775">
        <ele>1450.77</ele>
        <time>2018-06-10T15:44:19Z</time>
      </trkpt>
      <trkpt lat="45.701417271047831" lon="10.849457597360015">
        <ele>1449.8099999999999</ele>
        <time>2018-06-10T15:44:29Z</time>
      </trkpt>
      <trkpt lat="45.701373182237148" lon="10.849527837708592">
        <ele>1448.3599999999999</ele>
        <time>2018-06-10T15:44:38Z</time>
      </trkpt>
      <trkpt lat="45.701309060677886" lon="10.849547702819109">
        <ele>1445.96</ele>
        <time>2018-06-10T15:44:47Z</time>
      </trkpt>
      <trkpt lat="45.701238652691245" lon="10.849559856578708">
        <ele>1443.5599999999999</ele>
        <time>2018-06-10T15:44:58Z</time>
      </trkpt>
      <trkpt lat="45.701163215562701" lon="10.849622972309589">
        <ele>1439.71</ele>
        <time>2018-06-10T15:45:09Z</time>
      </trkpt>
      <trkpt lat="45.70114117115736" lon="10.84966748021543">
        <ele>1438.27</ele>
        <time>2018-06-10T15:45:17Z</time>
      </trkpt>
      <trkpt lat="45.701138656586409" lon="10.84971341304481">
        <ele>1437.3099999999999</ele>
        <time>2018-06-10T15:45:27Z</time>
      </trkpt>
      <trkpt lat="45.70112457498908" lon="10.849778540432453">
        <ele>1435.8699999999999</ele>
        <time>2018-06-10T15:45:33Z</time>
      </trkpt>
      <trkpt lat="45.701131448149681" lon="10.849818773567677">
        <ele>1434.9100000000001</ele>
        <time>2018-06-10T15:45:36Z</time>
      </trkpt>
      <trkpt lat="45.701107056811452" lon="10.849887086078525">
        <ele>1432.98</ele>
        <time>2018-06-10T15:45:44Z</time>
      </trkpt>
      <trkpt lat="45.701086353510618" lon="10.849955817684531">
        <ele>1430.5799999999999</ele>
        <time>2018-06-10T15:45:51Z</time>
      </trkpt>
      <trkpt lat="45.701079480350018" lon="10.849964870139956">
        <ele>1430.5799999999999</ele>
        <time>2018-06-10T15:45:52Z</time>
      </trkpt>
      <trkpt lat="45.701056262478232" lon="10.849994458258152">
        <ele>1429.1400000000001</ele>
        <time>2018-06-10T15:45:55Z</time>
      </trkpt>
      <trkpt lat="45.701015861704946" lon="10.850060675293207">
        <ele>1426.73</ele>
        <time>2018-06-10T15:46:02Z</time>
      </trkpt>
      <trkpt lat="45.701006054878235" lon="10.850065452978015">
        <ele>1426.73</ele>
        <time>2018-06-10T15:46:03Z</time>
      </trkpt>
      <trkpt lat="45.700940676033497" lon="10.850092610344291">
        <ele>1423.8499999999999</ele>
        <time>2018-06-10T15:46:14Z</time>
      </trkpt>
      <trkpt lat="45.700917793437839" lon="10.850156648084521">
        <ele>1421.9300000000001</ele>
        <time>2018-06-10T15:46:22Z</time>
      </trkpt>
      <trkpt lat="45.700930366292596" lon="10.850263182073832">
        <ele>1419.52</ele>
        <time>2018-06-10T15:46:32Z</time>
      </trkpt>
      <trkpt lat="45.700924079865217" lon="10.850273575633764">
        <ele>1419.04</ele>
        <time>2018-06-10T15:46:33Z</time>
      </trkpt>
      <trkpt lat="45.700909830629826" lon="10.850294949486852">
        <ele>1417.1199999999999</ele>
        <time>2018-06-10T15:46:41Z</time>
      </trkpt>
      <trkpt lat="45.700903376564384" lon="10.850410452112556">
        <ele>1414.24</ele>
        <time>2018-06-10T15:46:51Z</time>
      </trkpt>
      <trkpt lat="45.700908489525318" lon="10.850422522053123">
        <ele>1413.76</ele>
        <time>2018-06-10T15:46:52Z</time>
      </trkpt>
      <trkpt lat="45.700916368514299" lon="10.850432999432087">
        <ele>1413.76</ele>
        <time>2018-06-10T15:46:53Z</time>
      </trkpt>
      <trkpt lat="45.700927348807454" lon="10.850443309172988">
        <ele>1413.76</ele>
        <time>2018-06-10T15:46:54Z</time>
      </trkpt>
      <trkpt lat="45.700934641063213" lon="10.85045613348484">
        <ele>1413.28</ele>
        <time>2018-06-10T15:46:55Z</time>
      </trkpt>
      <trkpt lat="45.700938999652863" lon="10.850473400205374">
        <ele>1413.28</ele>
        <time>2018-06-10T15:46:56Z</time>
      </trkpt>
      <trkpt lat="45.700941178947687" lon="10.850490164011717">
        <ele>1412.79</ele>
        <time>2018-06-10T15:46:57Z</time>
      </trkpt>
      <trkpt lat="45.700943861156702" lon="10.850504329428077">
        <ele>1412.79</ele>
        <time>2018-06-10T15:46:58Z</time>
      </trkpt>
      <trkpt lat="45.700967498123646" lon="10.850557554513216">
        <ele>1411.3499999999999</ele>
        <time>2018-06-10T15:47:08Z</time>
      </trkpt>
      <trkpt lat="45.700986357405782" lon="10.850594434887171">
        <ele>1410.8699999999999</ele>
        <time>2018-06-10T15:47:18Z</time>
      </trkpt>
      <trkpt lat="45.700983088463545" lon="10.850601810961962">
        <ele>1410.8699999999999</ele>
        <time>2018-06-10T15:47:30Z</time>
      </trkpt>
      <trkpt lat="45.701000019907951" lon="10.850607845932245">
        <ele>1410.8699999999999</ele>
        <time>2018-06-10T15:47:42Z</time>
      </trkpt>
      <trkpt lat="45.701018879190087" lon="10.850633746013045">
        <ele>1410.3900000000001</ele>
        <time>2018-06-10T15:47:55Z</time>
      </trkpt>
      <trkpt lat="45.701025333255529" lon="10.850648079067469">
        <ele>1409.9100000000001</ele>
        <time>2018-06-10T15:47:56Z</time>
      </trkpt>
      <trkpt lat="45.701043102890253" lon="10.850688647478819">
        <ele>1409.4300000000001</ele>
        <time>2018-06-10T15:48:01Z</time>
      </trkpt>
      <trkpt lat="45.701094651594758" lon="10.850775148719549">
        <ele>1407.99</ele>
        <time>2018-06-10T15:48:12Z</time>
      </trkpt>
      <trkpt lat="45.701131196692586" lon="10.850854609161615">
        <ele>1406.55</ele>
        <time>2018-06-10T15:48:21Z</time>
      </trkpt>
      <trkpt lat="45.701131699606776" lon="10.850871624425054">
        <ele>1406.55</ele>
        <time>2018-06-10T15:48:22Z</time>
      </trkpt>
      <trkpt lat="45.701143350452185" lon="10.850971788167953">
        <ele>1405.0999999999999</ele>
        <time>2018-06-10T15:48:30Z</time>
      </trkpt>
      <trkpt lat="45.701144440099597" lon="10.850987210869789">
        <ele>1404.6199999999999</ele>
        <time>2018-06-10T15:48:31Z</time>
      </trkpt>
      <trkpt lat="45.701137566938996" lon="10.851083183661103">
        <ele>1403.1800000000001</ele>
        <time>2018-06-10T15:48:40Z</time>
      </trkpt>
      <trkpt lat="45.701163886114955" lon="10.851213186979294">
        <ele>1401.26</ele>
        <time>2018-06-10T15:48:52Z</time>
      </trkpt>
      <trkpt lat="45.701109236106277" lon="10.85134788416326">
        <ele>1397.8900000000001</ele>
        <time>2018-06-10T15:49:05Z</time>
      </trkpt>
      <trkpt lat="45.701059363782406" lon="10.851436564698815">
        <ele>1395.97</ele>
        <time>2018-06-10T15:49:14Z</time>
      </trkpt>
      <trkpt lat="45.70096674375236" lon="10.851495070382953">
        <ele>1392.6099999999999</ele>
        <time>2018-06-10T15:49:24Z</time>
      </trkpt>
      <trkpt lat="45.700935060158372" lon="10.851512588560581">
        <ele>1392.1300000000001</ele>
        <time>2018-06-10T15:49:27Z</time>
      </trkpt>
      <trkpt lat="45.700884014368057" lon="10.851615602150559">
        <ele>1388.76</ele>
        <time>2018-06-10T15:49:37Z</time>
      </trkpt>
      <trkpt lat="45.700884265825152" lon="10.851640328764915">
        <ele>1388.28</ele>
        <time>2018-06-10T15:49:39Z</time>
      </trkpt>
      <trkpt lat="45.700885690748692" lon="10.851748874410987">
        <ele>1386.3599999999999</ele>
        <time>2018-06-10T15:49:46Z</time>
      </trkpt>
      <trkpt lat="45.700883511453867" lon="10.851764213293791">
        <ele>1386.3599999999999</ele>
        <time>2018-06-10T15:49:47Z</time>
      </trkpt>
      <trkpt lat="45.700881499797106" lon="10.85177787579596">
        <ele>1385.8800000000001</ele>
        <time>2018-06-10T15:49:48Z</time>
      </trkpt>
      <trkpt lat="45.700807152315974" lon="10.851864041760564">
        <ele>1382.51</ele>
        <time>2018-06-10T15:49:57Z</time>
      </trkpt>
      <trkpt lat="45.700743366032839" lon="10.851977113634348">
        <ele>1380.1099999999999</ele>
        <time>2018-06-10T15:50:06Z</time>
      </trkpt>
      <trkpt lat="45.700691314414144" lon="10.851989854127169">
        <ele>1379.1500000000001</ele>
        <time>2018-06-10T15:50:11Z</time>
      </trkpt>
      <trkpt lat="45.700639765709639" lon="10.852039810270071">
        <ele>1379.1500000000001</ele>
        <time>2018-06-10T15:50:18Z</time>
      </trkpt>
      <trkpt lat="45.700629372149706" lon="10.852045426145196">
        <ele>1379.1500000000001</ele>
        <time>2018-06-10T15:50:19Z</time>
      </trkpt>
      <trkpt lat="45.700609590858221" lon="10.852077528834343">
        <ele>1379.1500000000001</ele>
        <time>2018-06-10T15:50:22Z</time>
      </trkpt>
      <trkpt lat="45.700605399906635" lon="10.852091778069735">
        <ele>1379.1500000000001</ele>
        <time>2018-06-10T15:50:23Z</time>
      </trkpt>
      <trkpt lat="45.700593581423163" lon="10.852115917950869">
        <ele>1374.3399999999999</ele>
        <time>2018-06-10T15:50:25Z</time>
      </trkpt>
      <trkpt lat="45.700585199519992" lon="10.852127401158214">
        <ele>1373.8599999999999</ele>
        <time>2018-06-10T15:50:26Z</time>
      </trkpt>
      <trkpt lat="45.700502470135689" lon="10.852200323715806">
        <ele>1370.98</ele>
        <time>2018-06-10T15:50:36Z</time>
      </trkpt>
      <trkpt lat="45.700436420738697" lon="10.852281963452697">
        <ele>1369.05</ele>
        <time>2018-06-10T15:50:45Z</time>
      </trkpt>
      <trkpt lat="45.700416471809149" lon="10.85229285992682">
        <ele>1368.0899999999999</ele>
        <time>2018-06-10T15:50:47Z</time>
      </trkpt>
      <trkpt lat="45.700321169570088" lon="10.852343570441008">
        <ele>1364.73</ele>
        <time>2018-06-10T15:50:56Z</time>
      </trkpt>
      <trkpt lat="45.700249588117003" lon="10.852422108873725">
        <ele>1361.8399999999999</ele>
        <time>2018-06-10T15:51:04Z</time>
      </trkpt>
      <trkpt lat="45.700190076604486" lon="10.852518081665039">
        <ele>1358.48</ele>
        <time>2018-06-10T15:51:13Z</time>
      </trkpt>
      <trkpt lat="45.700177922844887" lon="10.852521769702435">
        <ele>1358.48</ele>
        <time>2018-06-10T15:51:14Z</time>
      </trkpt>
      <trkpt lat="45.700166607275605" lon="10.852529732510448">
        <ele>1358</ele>
        <time>2018-06-10T15:51:15Z</time>
      </trkpt>
      <trkpt lat="45.700155543163419" lon="10.852553369477391">
        <ele>1357.04</ele>
        <time>2018-06-10T15:51:17Z</time>
      </trkpt>
      <trkpt lat="45.700151016935706" lon="10.85257968865335">
        <ele>1356.5599999999999</ele>
        <time>2018-06-10T15:51:19Z</time>
      </trkpt>
      <trkpt lat="45.700144562870264" lon="10.852590082213283">
        <ele>1356.0799999999999</ele>
        <time>2018-06-10T15:51:20Z</time>
      </trkpt>
      <trkpt lat="45.700139198452234" lon="10.852602990344167">
        <ele>1355.5999999999999</ele>
        <time>2018-06-10T15:51:21Z</time>
      </trkpt>
      <trkpt lat="45.700104162096977" lon="10.852617155760527">
        <ele>1354.6300000000001</ele>
        <time>2018-06-10T15:51:25Z</time>
      </trkpt>
      <trkpt lat="45.700076501816511" lon="10.852666525170207">
        <ele>1353.1900000000001</ele>
        <time>2018-06-10T15:51:30Z</time>
      </trkpt>
      <trkpt lat="45.700073568150401" lon="10.85268278606236">
        <ele>1353.1900000000001</ele>
        <time>2018-06-10T15:51:31Z</time>
      </trkpt>
      <trkpt lat="45.700068371370435" lon="10.85269745439291">
        <ele>1352.71</ele>
        <time>2018-06-10T15:51:32Z</time>
      </trkpt>
      <trkpt lat="45.700059989467263" lon="10.852709105238318">
        <ele>1352.23</ele>
        <time>2018-06-10T15:51:33Z</time>
      </trkpt>
      <trkpt lat="45.700040627270937" lon="10.852722683921456">
        <ele>1351.27</ele>
        <time>2018-06-10T15:51:35Z</time>
      </trkpt>
      <trkpt lat="45.699980277568102" lon="10.852772556245327">
        <ele>1349.3499999999999</ele>
        <time>2018-06-10T15:51:42Z</time>
      </trkpt>
      <trkpt lat="45.699972650036216" lon="10.852784877642989">
        <ele>1348.8699999999999</ele>
        <time>2018-06-10T15:51:43Z</time>
      </trkpt>
      <trkpt lat="45.699943564832211" lon="10.852862074971199">
        <ele>1346.9400000000001</ele>
        <time>2018-06-10T15:51:49Z</time>
      </trkpt>
      <trkpt lat="45.699870139360428" lon="10.852938517928123">
        <ele>1344.0599999999999</ele>
        <time>2018-06-10T15:51:57Z</time>
      </trkpt>
      <trkpt lat="45.69976762868464" lon="10.852977074682713">
        <ele>1340.7</ele>
        <time>2018-06-10T15:52:06Z</time>
      </trkpt>
      <trkpt lat="45.699703171849251" lon="10.852984199300408">
        <ele>1338.77</ele>
        <time>2018-06-10T15:52:12Z</time>
      </trkpt>
      <trkpt lat="45.69969235919416" lon="10.85297497920692">
        <ele>1338.29</ele>
        <time>2018-06-10T15:52:13Z</time>
      </trkpt>
      <trkpt lat="45.699682720005512" lon="10.852964166551828">
        <ele>1338.29</ele>
        <time>2018-06-10T15:52:14Z</time>
      </trkpt>
      <trkpt lat="45.699671907350421" lon="10.852960729971528">
        <ele>1337.8099999999999</ele>
        <time>2018-06-10T15:52:15Z</time>
      </trkpt>
      <trkpt lat="45.699660005047917" lon="10.85296374745667">
        <ele>1337.8099999999999</ele>
        <time>2018-06-10T15:52:16Z</time>
      </trkpt>
      <trkpt lat="45.699650030583143" lon="10.852968525141478">
        <ele>1337.3299999999999</ele>
        <time>2018-06-10T15:52:17Z</time>
      </trkpt>
      <trkpt lat="45.699603259563446" lon="10.853001466020942">
        <ele>1335.4100000000001</ele>
        <time>2018-06-10T15:52:23Z</time>
      </trkpt>
      <trkpt lat="45.699568390846252" lon="10.853033903986216">
        <ele>1333.97</ele>
        <time>2018-06-10T15:52:27Z</time>
      </trkpt>
      <trkpt lat="45.699484320357442" lon="10.853090398013592">
        <ele>1331.0799999999999</ele>
        <time>2018-06-10T15:52:36Z</time>
      </trkpt>
      <trkpt lat="45.699393628165126" lon="10.853185951709747">
        <ele>1327.72</ele>
        <time>2018-06-10T15:52:47Z</time>
      </trkpt>
      <trkpt lat="45.699323890730739" lon="10.853248061612248">
        <ele>1324.8299999999999</ele>
        <time>2018-06-10T15:52:55Z</time>
      </trkpt>
      <trkpt lat="45.699234874919057" lon="10.853332551196218">
        <ele>1321.47</ele>
        <time>2018-06-10T15:53:05Z</time>
      </trkpt>
      <trkpt lat="45.699153319001198" lon="10.853432631120086">
        <ele>1318.5899999999999</ele>
        <time>2018-06-10T15:53:15Z</time>
      </trkpt>
      <trkpt lat="45.699074193835258" lon="10.853534219786525">
        <ele>1315.22</ele>
        <time>2018-06-10T15:53:24Z</time>
      </trkpt>
      <trkpt lat="45.699045611545444" lon="10.853565568104386">
        <ele>1314.26</ele>
        <time>2018-06-10T15:53:27Z</time>
      </trkpt>
      <trkpt lat="45.699038989841938" lon="10.85357797332108">
        <ele>1313.78</ele>
        <time>2018-06-10T15:53:28Z</time>
      </trkpt>
      <trkpt lat="45.698961960151792" lon="10.853647207841277">
        <ele>1310.4100000000001</ele>
        <time>2018-06-10T15:53:37Z</time>
      </trkpt>
      <trkpt lat="45.698942681774497" lon="10.85366397164762">
        <ele>1309.9300000000001</ele>
        <time>2018-06-10T15:53:39Z</time>
      </trkpt>
      <trkpt lat="45.698882164433599" lon="10.853720298036933">
        <ele>1307.05</ele>
        <time>2018-06-10T15:53:47Z</time>
      </trkpt>
      <trkpt lat="45.698870932683349" lon="10.853750640526414">
        <ele>1306.0899999999999</ele>
        <time>2018-06-10T15:53:50Z</time>
      </trkpt>
      <trkpt lat="45.698861377313733" lon="10.853760195896029">
        <ele>1306.0899999999999</ele>
        <time>2018-06-10T15:53:51Z</time>
      </trkpt>
      <trkpt lat="45.698774708434939" lon="10.853852899745107">
        <ele>1303.2</ele>
        <time>2018-06-10T15:54:02Z</time>
      </trkpt>
      <trkpt lat="45.698742857202888" lon="10.853917608037591">
        <ele>1301.28</ele>
        <time>2018-06-10T15:54:08Z</time>
      </trkpt>
      <trkpt lat="45.698734810575843" lon="10.853935126215219">
        <ele>1300.8</ele>
        <time>2018-06-10T15:54:09Z</time>
      </trkpt>
      <trkpt lat="45.698725506663322" lon="10.853942921385169">
        <ele>1300.8</ele>
        <time>2018-06-10T15:54:10Z</time>
      </trkpt>
      <trkpt lat="45.698623834177852" lon="10.854021795094013">
        <ele>1297.4400000000001</ele>
        <time>2018-06-10T15:54:20Z</time>
      </trkpt>
      <trkpt lat="45.698498776182532" lon="10.854091951623559">
        <ele>1294.55</ele>
        <time>2018-06-10T15:54:32Z</time>
      </trkpt>
      <trkpt lat="45.698421327397227" lon="10.854195635765791">
        <ele>1291.1900000000001</ele>
        <time>2018-06-10T15:54:42Z</time>
      </trkpt>
      <trkpt lat="45.698363659903407" lon="10.854238383471966">
        <ele>1289.27</ele>
        <time>2018-06-10T15:54:48Z</time>
      </trkpt>
      <trkpt lat="45.698293671011925" lon="10.854304935783148">
        <ele>1287.3399999999999</ele>
        <time>2018-06-10T15:54:55Z</time>
      </trkpt>
      <trkpt lat="45.698287887498736" lon="10.854314910247922">
        <ele>1287.3399999999999</ele>
        <time>2018-06-10T15:54:56Z</time>
      </trkpt>
      <trkpt lat="45.698280427604914" lon="10.854324381798506">
        <ele>1286.8599999999999</ele>
        <time>2018-06-10T15:54:57Z</time>
      </trkpt>
      <trkpt lat="45.698270285502076" lon="10.854334272444248">
        <ele>1286.3800000000001</ele>
        <time>2018-06-10T15:54:58Z</time>
      </trkpt>
      <trkpt lat="45.698262490332127" lon="10.85434072650969">
        <ele>1285.9000000000001</ele>
        <time>2018-06-10T15:54:59Z</time>
      </trkpt>
      <trkpt lat="45.698251510038972" lon="10.854349276050925">
        <ele>1285.9000000000001</ele>
        <time>2018-06-10T15:55:00Z</time>
      </trkpt>
      <trkpt lat="45.698159225285053" lon="10.854458995163441">
        <ele>1282.54</ele>
        <time>2018-06-10T15:55:11Z</time>
      </trkpt>
      <trkpt lat="45.698046237230301" lon="10.854530744254589">
        <ele>1279.6500000000001</ele>
        <time>2018-06-10T15:55:22Z</time>
      </trkpt>
      <trkpt lat="45.69796409457922" lon="10.854570977389812">
        <ele>1277.25</ele>
        <time>2018-06-10T15:55:32Z</time>
      </trkpt>
      <trkpt lat="45.697953784838319" lon="10.854578521102667">
        <ele>1277.25</ele>
        <time>2018-06-10T15:55:33Z</time>
      </trkpt>
      <trkpt lat="45.697942469269037" lon="10.854584220796824">
        <ele>1276.77</ele>
        <time>2018-06-10T15:55:34Z</time>
      </trkpt>
      <trkpt lat="45.697930734604597" lon="10.854588830843568">
        <ele>1276.29</ele>
        <time>2018-06-10T15:55:35Z</time>
      </trkpt>
      <trkpt lat="45.697914641350508" lon="10.854657143354416">
        <ele>1274.3599999999999</ele>
        <time>2018-06-10T15:55:44Z</time>
      </trkpt>
      <trkpt lat="45.697927884757519" lon="10.85468421690166">
        <ele>1273.4000000000001</ele>
        <time>2018-06-10T15:55:46Z</time>
      </trkpt>
      <trkpt lat="45.697940709069371" lon="10.854758815839887">
        <ele>1272.4400000000001</ele>
        <time>2018-06-10T15:55:50Z</time>
      </trkpt>
      <trkpt lat="45.697937272489071" lon="10.854781530797482">
        <ele>1271.96</ele>
        <time>2018-06-10T15:55:51Z</time>
      </trkpt>
      <trkpt lat="45.697933919727802" lon="10.854798043146729">
        <ele>1271.96</ele>
        <time>2018-06-10T15:55:52Z</time>
      </trkpt>
      <trkpt lat="45.697930986061692" lon="10.854816986247897">
        <ele>1271.96</ele>
        <time>2018-06-10T15:55:53Z</time>
      </trkpt>
      <trkpt lat="45.697928974404931" lon="10.854835007339716">
        <ele>1271.96</ele>
        <time>2018-06-10T15:55:54Z</time>
      </trkpt>
      <trkpt lat="45.69794406183064" lon="10.85508193820715">
        <ele>1270.04</ele>
        <time>2018-06-10T15:56:07Z</time>
      </trkpt>
      <trkpt lat="45.698088733479381" lon="10.855250749737024">
        <ele>1269.0799999999999</ele>
        <time>2018-06-10T15:56:21Z</time>
      </trkpt>
      <trkpt lat="45.698230555281043" lon="10.855490723624825">
        <ele>1267.1600000000001</ele>
        <time>2018-06-10T15:56:37Z</time>
      </trkpt>
      <trkpt lat="45.698301633819938" lon="10.855715107172728">
        <ele>1266.1900000000001</ele>
        <time>2018-06-10T15:56:50Z</time>
      </trkpt>
      <trkpt lat="45.698286714032292" lon="10.855818204581738">
        <ele>1263.3099999999999</ele>
        <time>2018-06-10T15:56:56Z</time>
      </trkpt>
      <trkpt lat="45.69825679063797" lon="10.855975532904267">
        <ele>1260.4300000000001</ele>
        <time>2018-06-10T15:57:05Z</time>
      </trkpt>
      <trkpt lat="45.698250588029623" lon="10.85609732195735">
        <ele>1258.5</ele>
        <time>2018-06-10T15:57:12Z</time>
      </trkpt>
      <trkpt lat="45.698248241096735" lon="10.856133950874209">
        <ele>1257.54</ele>
        <time>2018-06-10T15:57:14Z</time>
      </trkpt>
      <trkpt lat="45.698197111487389" lon="10.856289016082883">
        <ele>1255.1400000000001</ele>
        <time>2018-06-10T15:57:24Z</time>
      </trkpt>
      <trkpt lat="45.698180934414268" lon="10.856347437947989">
        <ele>1254.1800000000001</ele>
        <time>2018-06-10T15:57:28Z</time>
      </trkpt>
      <trkpt lat="45.698197530582547" lon="10.856498144567013">
        <ele>1250.8099999999999</ele>
        <time>2018-06-10T15:57:37Z</time>
      </trkpt>
      <trkpt lat="45.698208259418607" lon="10.856668213382363">
        <ele>1249.3699999999999</ele>
        <time>2018-06-10T15:57:48Z</time>
      </trkpt>
      <trkpt lat="45.698136510327458" lon="10.856779776513577">
        <ele>1246.97</ele>
        <time>2018-06-10T15:57:58Z</time>
      </trkpt>
      <trkpt lat="45.698120081797242" lon="10.856804922223091">
        <ele>1246.01</ele>
        <time>2018-06-10T15:58:00Z</time>
      </trkpt>
      <trkpt lat="45.698073143139482" lon="10.856827050447464">
        <ele>1244.5599999999999</ele>
        <time>2018-06-10T15:58:05Z</time>
      </trkpt>
      <trkpt lat="45.698112873360515" lon="10.857045231387019">
        <ele>1243.5999999999999</ele>
        <time>2018-06-10T15:58:18Z</time>
      </trkpt>
      <trkpt lat="45.698170037940145" lon="10.857080351561308">
        <ele>1243.5999999999999</ele>
        <time>2018-06-10T15:58:27Z</time>
      </trkpt>
      <trkpt lat="45.698126452043653" lon="10.857103150337934">
        <ele>1244.0799999999999</ele>
        <time>2018-06-10T15:58:36Z</time>
      </trkpt>
      <trkpt lat="45.698118573054671" lon="10.857094349339604">
        <ele>1244.0799999999999</ele>
        <time>2018-06-10T15:58:37Z</time>
      </trkpt>
      <trkpt lat="45.698101809248328" lon="10.857059564441442">
        <ele>1245.04</ele>
        <time>2018-06-10T15:58:47Z</time>
      </trkpt>
      <trkpt lat="45.698108682408929" lon="10.857070628553629">
        <ele>1242.6400000000001</ele>
        <time>2018-06-10T15:58:57Z</time>
      </trkpt>
      <trkpt lat="45.698089068755507" lon="10.857069958001375">
        <ele>1242.6400000000001</ele>
        <time>2018-06-10T15:59:15Z</time>
      </trkpt>
      <trkpt lat="45.69810239598155" lon="10.857054451480508">
        <ele>1243.1199999999999</ele>
        <time>2018-06-10T15:59:33Z</time>
      </trkpt>
    </trkseg>
  </trk>

</gpx>